# Wetter Temperatur Luftdruck Luftfeuchtigkeit Sichtweite Windgeschwindigkeit Windrichtung Zeit
1 Clouds 18 1015 87 10000 3.6 210 22:27 24.01.2020
2 Clouds 17 1014 87 10000 3.6 210 21:58 24.01.2020
3 Clouds 18 1014 87 10000 3.6 190 21:39 24.01.2020
4 Clouds 18 1014 87 10000 3.6 190 21:18 24.01.2020
5 Clouds 18 1014 77 10000 2.6 210 20:43 24.01.2020
6 Clouds 18 1014 77 10000 2.6 210 20:22 24.01.2020
7 Clouds 18 1014 77 10000 4.1 220 19:58 24.01.2020
8 Clouds 18 1014 77 10000 2.6 200 19:39 24.01.2020
9 Clouds 18 1014 77 10000 2.6 200 19:21 24.01.2020
10 Clouds 18 1015 77 10000 2.6 180 18:44 24.01.2020
11 Clouds 19 1015 77 10000 3.6 180 18:25 24.01.2020
12 Clouds 19 1015 72 10000 3.6 200 17:56 24.01.2020
13 Clouds 19 1015 72 10000 3.6 200 17:56 24.01.2020
14 Clouds 19 1015 77 10000 3.6 210 17:38 24.01.2020
15 Clear 19 1015 77 10000 3.6 210 17:20 24.01.2020
16 Clear 20 1016 72 10000 5.1 200 16:39 24.01.2020
17 Clear 20 1016 72 10000 5.1 200 16:21 24.01.2020
18 Clear 20 1016 68 10000 7.7 200 15:55 24.01.2020
19 Clear 21 1016 64 10000 5.7 200 15:37 24.01.2020
20 Clear 21 1016 64 10000 5.7 200 15:18 24.01.2020
21 Clear 21 1016 64 10000 6.2 220 14:41 24.01.2020
22 Clear 21 1016 64 10000 6.2 220 14:22 24.01.2020
23 Clear 23 1015 64 10000 5.1 220 13:44 24.01.2020
24 Clear 23 1015 44 10000 5.7 220 13:24 24.01.2020
25 Clear 24 1015 41 10000 5.7 220 12:45 24.01.2020
26 Clear 25 1015 36 10000 7.7 220 12:23 24.01.2020
27 Clear 26 1015 32 10000 6.2 230 11:59 24.01.2020
28 Clear 27 1014 30 10000 8.2 230 11:40 24.01.2020
29 Clear 28 1014 30 10000 8.2 230 11:18 24.01.2020
30 Clear 30 1014 23 10000 8.7 230 10:43 24.01.2020
31 Clear 30 1014 23 10000 8.7 230 10:21 24.01.2020
32 Clear 30 1014 23 10000 8.2 250 09:55 24.01.2020
33 Clear 31 1014 22 10000 7.7 250 09:37 24.01.2020
34 Clear 31 1014 22 10000 7.7 250 09:18 24.01.2020
35 Clear 32 1014 27 10000 6.7 250 08:39 24.01.2020
36 Clear 32 1014 27 10000 6.7 250 08:19 24.01.2020
37 Clear 32 1015 31 10000 6.2 240 07:48 24.01.2020
38 Clear 32 1015 31 10000 7.7 270 07:22 24.01.2020
39 Clear 32 1015 31 10000 7.2 260 06:45 24.01.2020
40 Clear 32 1015 29 10000 7.7 260 06:24 24.01.2020
41 Clear 32 1016 29 10000 2.6 340 05:33 24.01.2020
42 Clear 29 1017 39 10000 3.6 100 03:36 24.01.2020
43 Clear 27 1017 47 10000 3.6 80 02:40 24.01.2020
44 Clear 26 1017 47 10000 3.6 80 02:21 24.01.2020
45 Clear 24 1017 53 10000 5.1 90 01:39 24.01.2020
46 Clear 22 1017 60 10000 5.1 90 00:52 24.01.2020
47 Clear 21 1017 60 10000 4.6 80 00:19 24.01.2020
48 Clear 19 1016 63 10000 4.1 100 23:42 23.01.2020
49 Clear 19 1016 63 10000 4.1 100 23:23 23.01.2020
50 Clear 19 1016 63 10000 3.6 100 22:58 23.01.2020
51 Clear 19 1015 60 10000 3.1 110 22:37 23.01.2020
52 Clear 19 1015 60 10000 3.1 110 22:37 23.01.2020
53 Clear 19 1015 60 10000 3.1 110 22:18 23.01.2020
54 Clear 19 1015 60 10000 4.6 110 21:55 23.01.2020
55 Clear 19 1015 60 10000 4.1 120 21:37 23.01.2020
56 Clear 19 1015 60 10000 4.1 120 21:19 23.01.2020
57 Clear 18 1015 60 10000 3.1 90 20:54 23.01.2020
58 Clear 18 1015 72 10000 2.6 60 20:36 23.01.2020
59 Clear 18 1015 72 10000 2.6 60 20:18 23.01.2020
60 Clear 18 1015 82 10000 1.5 270 19:42 23.01.2020
61 Clear 18 1015 82 10000 1.5 270 19:23 23.01.2020
62 Clear 17 1015 82 10000 2.1 210 18:57 23.01.2020
63 Clear 18 1015 82 10000 2.6 210 18:38 23.01.2020
64 Clear 18 1015 82 10000 2.6 210 18:19 23.01.2020
65 Clear 19 1016 72 10000 3.6 190 17:45 23.01.2020
66 Clear 19 1016 72 10000 3.6 190 17:21 23.01.2020
67 Clear 19 1016 68 10000 3.6 200 16:59 23.01.2020
68 Clear 20 1016 68 10000 4.6 190 16:39 23.01.2020
69 Clear 20 1016 68 10000 4.6 190 16:20 23.01.2020
70 Clear 20 1016 64 10000 4.6 210 15:58 23.01.2020
71 Clear 21 1017 68 10000 4.1 180 15:39 23.01.2020
72 Clear 21 1017 68 10000 4.1 180 15:19 23.01.2020
73 Clear 21 1017 73 10000 3.6 180 14:58 23.01.2020
74 Clear 21 1016 68 10000 4.1 210 14:40 23.01.2020
75 Clear 21 1016 68 10000 4.1 210 14:21 23.01.2020
76 Clear 22 1016 68 10000 4.6 210 13:46 23.01.2020
77 Clear 22 1016 64 10000 6.7 210 13:21 23.01.2020
78 Clear 22 1015 64 10000 6.7 220 12:57 23.01.2020
79 Clear 22 1015 64 10000 6.7 220 12:57 23.01.2020
80 Clear 23 1015 60 10000 7.7 210 12:39 23.01.2020
81 Clear 23 1015 60 10000 7.7 210 12:21 23.01.2020
82 Clear 24 1015 54 10000 8.2 230 11:45 23.01.2020
83 Clear 25 1015 54 10000 8.2 230 11:25 23.01.2020
84 Clear 25 1015 51 10000 7.7 230 10:59 23.01.2020
85 Clear 26 1015 51 10000 9.3 230 10:41 23.01.2020
86 Clear 26 1015 51 10000 9.3 230 10:19 23.01.2020
87 Clear 27 1015 47 10000 8.2 240 09:41 23.01.2020
88 Clear 27 1015 47 10000 8.2 240 09:22 23.01.2020
89 Clear 27 1015 47 10000 7.2 250 08:56 23.01.2020
90 Clear 27 1015 47 10000 7.2 240 08:38 23.01.2020
91 Clear 27 1015 47 10000 7.2 240 08:19 23.01.2020
92 Clear 27 1015 51 10000 7.7 260 07:39 23.01.2020
93 Clear 27 1015 51 10000 7.7 260 07:18 23.01.2020
94 Clear 27 1016 51 10000 7.7 230 06:44 23.01.2020
95 Clear 27 1016 51 10000 7.7 230 06:18 23.01.2020
96 Clouds 26 1017 50 10000 7.7 240 04:25 23.01.2020
97 Clouds 25 1017 53 10000 2.6 180 03:36 23.01.2020
98 Clouds 21 1018 64 10000 3.6 200 01:55 23.01.2020
99 Clouds 20 1017 72 10000 5.7 190 00:44 23.01.2020
100 Clouds 19 1017 72 10000 5.7 190 00:24 23.01.2020
101 Clouds 19 1017 77 10000 5.1 200 23:46 22.01.2020
102 Clouds 18 1017 77 10000 4.6 200 23:28 22.01.2020
103 Clouds 18 1016 68 10000 3.1 220 22:43 22.01.2020
104 Clouds 18 1016 68 10000 3.1 220 22:25 22.01.2020
105 Clouds 18 1016 68 10000 4.1 200 21:59 22.01.2020
106 Clouds 18 1016 68 10000 4.6 180 21:38 22.01.2020
107 Clouds 18 1016 68 10000 4.6 180 21:19 22.01.2020
108 Clouds 18 1016 68 10000 4.6 180 21:19 22.01.2020
109 Clouds 19 1016 68 10000 4.1 190 20:42 22.01.2020
110 Clouds 19 1016 68 10000 4.1 190 20:23 22.01.2020
111 Clouds 19 1016 68 10000 3.6 190 19:59 22.01.2020
112 Clouds 19 1016 72 10000 4.1 190 19:41 22.01.2020
113 Clouds 19 1016 72 10000 4.1 190 19:21 22.01.2020
114 Clouds 18 1016 72 10000 4.6 180 18:59 22.01.2020
115 Clouds 18 1016 72 10000 5.7 180 18:40 22.01.2020
116 Clouds 18 1016 72 10000 5.7 180 18:21 22.01.2020
117 Clouds 18 1017 72 10000 5.1 200 17:57 22.01.2020
118 Clouds 18 1017 72 10000 5.1 200 17:57 22.01.2020
119 Clouds 19 1017 72 10000 4.1 210 17:39 22.01.2020
120 Clouds 19 1017 72 10000 4.1 210 17:19 22.01.2020
121 Clouds 19 1017 72 10000 4.1 210 16:54 22.01.2020
122 Clouds 19 1017 72 10000 4.6 210 16:36 22.01.2020
123 Clouds 19 1017 72 10000 4.6 210 16:18 22.01.2020
124 Clouds 20 1017 68 10000 5.1 210 15:41 22.01.2020
125 Clouds 20 1017 68 10000 5.1 210 15:23 22.01.2020
126 Clouds 20 1017 68 10000 5.1 210 14:58 22.01.2020
127 Clouds 20 1016 68 10000 6.2 210 14:37 22.01.2020
128 Clouds 20 1016 68 10000 6.2 210 14:19 22.01.2020
129 Clouds 20 1016 68 10000 6.7 210 13:55 22.01.2020
130 Clouds 20 1016 68 10000 7.2 210 13:36 22.01.2020
131 Clouds 20 1016 68 10000 7.2 210 13:18 22.01.2020
132 Clouds 20 1016 72 10000 8.7 210 12:56 22.01.2020
133 Clouds 21 1015 60 10000 7.2 220 12:37 22.01.2020
134 Clouds 21 1015 60 10000 7.2 220 12:18 22.01.2020
135 Clouds 21 1015 60 10000 7.2 220 11:56 22.01.2020
136 Clouds 21 1015 60 10000 7.2 220 11:56 22.01.2020
137 Clouds 21 1015 56 10000 7.2 220 11:37 22.01.2020
138 Clouds 22 1015 56 10000 7.2 220 11:18 22.01.2020
139 Clouds 23 1015 56 10000 7.2 220 10:44 22.01.2020
140 Clouds 23 1015 56 10000 7.2 220 10:20 22.01.2020
141 Clouds 23 1015 50 10000 7.2 220 09:44 22.01.2020
142 Clouds 23 1015 50 10000 7.2 220 09:25 22.01.2020
143 Clouds 23 1015 47 10000 9.8 230 08:58 22.01.2020
144 Clouds 24 1015 50 10000 7.2 220 08:40 22.01.2020
145 Clouds 24 1015 50 10000 7.2 220 08:21 22.01.2020
146 Clouds 24 1015 50 10000 7.2 220 07:54 22.01.2020
147 Clouds 24 1015 47 10000 8.7 220 07:36 22.01.2020
148 Clouds 24 1015 47 10000 8.7 220 07:18 22.01.2020
149 Clouds 24 1016 53 10000 5.7 210 06:30 22.01.2020
150 Clouds 23 1017 49 10000 7.7 220 05:41 22.01.2020
151 Clouds 22 1017 49 10000 9.3 240 04:18 22.01.2020
152 Clouds 22 1017 49 10000 9.3 240 03:22 22.01.2020
153 Clouds 20 1017 56 10000 5.1 190 01:44 22.01.2020
154 Clouds 18 1017 59 10000 3.6 180 00:44 22.01.2020
155 Clouds 17 1016 63 10000 3.1 180 00:26 22.01.2020
156 Clouds 15 1016 82 10000 3.96 183 23:38 21.01.2020
157 Clouds 15 1016 82 10000 3.96 183 23:38 21.01.2020
158 Clouds 15 1016 82 10000 3.96 183 23:38 21.01.2020
159 Clouds 14 1016 82 10000 3.64 162 23:20 21.01.2020
160 Clouds 14 1016 76 10000 3.64 162 22:59 21.01.2020
161 Clouds 14 1015 76 10000 1.5 150 22:39 21.01.2020
162 Clouds 14 1015 76 10000 1.5 130 22:20 21.01.2020
163 Clouds 14 1015 71 10000 3.6 160 21:56 21.01.2020
164 Clouds 14 1015 67 10000 3.6 190 21:37 21.01.2020
165 Clouds 15 1015 67 10000 3.6 190 21:19 21.01.2020
166 Clear 15 1015 62 10000 4.6 200 20:55 21.01.2020
167 Clear 15 1015 62 10000 4.6 200 20:37 21.01.2020
168 Clear 15 1015 62 10000 4.6 200 20:18 21.01.2020
169 Clear 15 1015 62 10000 4.6 200 20:18 21.01.2020
170 Clear 15 1015 62 10000 4.1 180 19:55 21.01.2020
171 Clear 16 1015 59 10000 5.7 190 19:36 21.01.2020
172 Clear 16 1015 59 10000 5.7 190 19:18 21.01.2020
173 Clear 16 1015 55 10000 5.1 200 18:54 21.01.2020
174 Clear 17 1015 55 10000 5.7 200 18:36 21.01.2020
175 Clear 17 1015 55 10000 5.7 200 18:18 21.01.2020
176 Clear 17 1015 55 10000 8.7 210 17:42 21.01.2020
177 Clear 18 1015 55 10000 8.7 210 17:19 21.01.2020
178 Clear 18 1014 52 10000 7.2 180 16:56 21.01.2020
179 Clear 18 1015 55 10000 7.2 180 16:36 21.01.2020
180 Clear 19 1015 55 10000 7.2 180 16:18 21.01.2020
181 Clear 19 1014 59 10000 6.2 210 15:40 21.01.2020
182 Clear 19 1014 59 10000 6.2 210 15:20 21.01.2020
183 Clear 19 1014 59 10000 7.2 210 14:55 21.01.2020
184 Clear 19 1014 60 10000 7.2 210 14:36 21.01.2020
185 Clear 19 1014 60 10000 7.2 210 14:18 21.01.2020
186 Clouds 20 1013 56 10000 6.2 190 13:38 21.01.2020
187 Clouds 20 1013 56 10000 6.2 190 13:18 21.01.2020
188 Clouds 20 1013 56 10000 9.3 230 12:43 21.01.2020
189 Clouds 20 1013 56 10000 9.3 230 12:43 21.01.2020
190 Clouds 20 1013 56 10000 9.3 230 12:24 21.01.2020
191 Clouds 21 1013 60 10000 9.3 210 11:56 21.01.2020
192 Clouds 21 1013 60 10000 9.3 210 11:56 21.01.2020
193 Clouds 21 1012 56 10000 8.7 220 11:38 21.01.2020
194 Clouds 21 1012 56 10000 8.7 220 11:38 21.01.2020
195 Clouds 21 1012 56 10000 8.7 220 11:38 21.01.2020
196 Clouds 21 1012 56 10000 8.7 220 11:38 21.01.2020
197 Clouds 22 1012 56 10000 8.7 220 11:19 21.01.2020
198 Clouds 22 1012 56 10000 8.7 220 11:19 21.01.2020
199 Clouds 22 1012 49 10000 9.3 230 10:43 21.01.2020
200 Clouds 23 1012 49 10000 9.3 240 10:23 21.01.2020
201 Clouds 24 1011 50 10000 8.7 230 09:56 21.01.2020
202 Clouds 23 1011 50 10000 8.7 230 09:56 21.01.2020
203 Clouds 24 1012 47 10000 9.3 230 09:38 21.01.2020
204 Clouds 24 1012 47 10000 9.3 230 09:20 21.01.2020
205 Clouds 24 1012 50 10000 9.3 230 08:44 21.01.2020
206 Clouds 24 1012 53 10000 9.3 230 08:26 21.01.2020
207 Clouds 25 1012 47 10000 8.7 240 07:44 21.01.2020
208 Clouds 25 1012 47 10000 8.7 240 07:25 21.01.2020
209 Clouds 25 1012 47 10000 9.3 230 06:58 21.01.2020
210 Clouds 25 1012 44 10000 9.3 230 06:38 21.01.2020
211 Clouds 25 1012 50 10000 9.3 230 05:55 21.01.2020
212 Clouds 25 1012 50 10000 9.3 230 05:55 21.01.2020
213 Clouds 25 1013 50 10000 9.3 250 05:32 21.01.2020
214 Clouds 24 1013 50 10000 9.3 220 04:38 21.01.2020
215 Drizzle 21 1013 64 10000 5.7 220 02:27 21.01.2020
216 Clouds 20 1013 64 10000 3.1 210 01:36 21.01.2020
217 Rain 19 1013 68 10000 7.2 230 00:45 21.01.2020
218 Rain 19 1013 68 10000 7.2 230 00:25 21.01.2020
219 Clouds 18 1013 72 10000 3.6 210 23:56 20.01.2020
220 Clouds 18 1013 72 10000 5.1 190 23:36 20.01.2020
221 Clouds 18 1013 72 10000 5.1 190 23:18 20.01.2020
222 Clouds 17 1012 72 10000 5.7 180 22:40 20.01.2020
223 Clouds 17 1012 72 10000 5.7 180 22:21 20.01.2020
224 Clouds 17 1012 72 10000 5.7 190 21:58 20.01.2020
225 Clouds 17 1012 72 10000 5.7 190 21:58 20.01.2020
226 Clouds 17 1012 72 10000 7.2 200 21:38 20.01.2020
227 Clouds 17 1012 72 10000 7.2 200 21:20 20.01.2020
228 Clear 17 1012 72 10000 6.2 210 20:58 20.01.2020
229 Clear 17 1012 72 10000 7.7 200 20:39 20.01.2020
230 Clear 17 1012 72 10000 7.7 200 20:20 20.01.2020
231 Clear 18 1012 72 10000 6.7 200 19:58 20.01.2020
232 Clouds 18 1012 72 10000 8.7 200 19:40 20.01.2020
233 Clouds 18 1012 72 10000 8.7 200 19:19 20.01.2020
234 Clouds 19 1012 72 10000 7.7 200 18:45 20.01.2020
235 Clouds 19 1012 77 10000 5.7 210 18:24 20.01.2020
236 Clear 19 1012 77 10000 5.1 210 17:59 20.01.2020
237 Clear 19 1012 72 10000 5.1 220 17:38 20.01.2020
238 Clear 19 1012 72 10000 5.1 220 17:18 20.01.2020
239 Clear 20 1012 77 10000 5.1 210 16:45 20.01.2020
240 Clear 20 1012 77 10000 6.2 210 16:25 20.01.2020
241 Clouds 20 1012 77 10000 6.2 210 15:58 20.01.2020
242 Clouds 20 1012 77 10000 6.2 210 15:58 20.01.2020
243 Clouds 20 1012 77 10000 6.7 220 15:40 20.01.2020
244 Clouds 20 1012 77 10000 6.7 220 15:21 20.01.2020
245 Clear 20 1012 82 10000 6.2 210 14:55 20.01.2020
246 Clouds 21 1012 77 10000 7.7 220 14:36 20.01.2020
247 Clouds 21 1012 77 10000 7.7 220 14:18 20.01.2020
248 Clear 21 1012 78 10000 7.7 220 13:41 20.01.2020
249 Clear 22 1012 78 10000 7.7 220 13:23 20.01.2020
250 Clear 23 1011 57 10000 7.2 230 12:56 20.01.2020
251 Clear 23 1010 53 10000 5.7 220 12:38 20.01.2020
252 Clear 24 1010 53 10000 5.7 220 12:19 20.01.2020
253 Clear 24 1010 54 10000 7.7 230 11:43 20.01.2020
254 Clear 24 1010 54 10000 7.7 230 11:43 20.01.2020
255 Clear 25 1010 54 10000 7.7 230 11:24 20.01.2020
256 Clear 26 1010 50 10000 8.2 230 10:57 20.01.2020
257 Clear 26 1010 51 10000 8.7 230 10:39 20.01.2020
258 Clear 27 1010 51 10000 8.7 230 10:19 20.01.2020
259 Clear 27 1010 39 10000 7.7 230 09:41 20.01.2020
260 Clear 28 1010 39 10000 7.7 230 09:21 20.01.2020
261 Clear 30 1009 35 10000 9.8 230 08:49 20.01.2020
262 Clear 30 1009 29 10000 7.2 250 08:30 20.01.2020
263 Clear 31 1009 29 10000 6.2 240 07:53 20.01.2020
264 Clear 31 1010 27 10000 7.2 240 07:30 20.01.2020
265 Clear 31 1010 26 10000 6.7 260 06:59 20.01.2020
266 Clear 31 1010 27 10000 6.7 230 06:30 20.01.2020
267 Clear 31 1010 31 10000 6.2 240 05:44 20.01.2020
268 Clear 30 1011 33 10000 7.2 230 05:25 20.01.2020
269 Clear 30 1011 27 10000 4.6 230 04:49 20.01.2020
270 Clear 27 1012 36 10000 5.1 260 02:59 20.01.2020
271 Clear 25 1012 41 10000 5.1 260 01:57 20.01.2020
272 Clear 23 1012 46 10000 1 250 01:37 20.01.2020
273 Clear 21 1012 52 10000 2.1 90 00:45 20.01.2020
274 Clear 21 1012 52 10000 2.1 90 00:25 20.01.2020
275 Clear 18 1012 67 10000 2.6 50 23:40 19.01.2020
276 Clear 18 1012 67 10000 2.6 50 23:20 19.01.2020
277 Clear 17 1012 67 10000 0.5 360 22:57 19.01.2020
278 Clear 16 1012 72 10000 2.6 310 22:39 19.01.2020
279 Clear 16 1012 72 10000 2.6 310 22:21 19.01.2020
280 Clear 17 1012 77 10000 2.1 310 21:57 19.01.2020
281 Clear 17 1011 77 10000 3.1 260 21:39 19.01.2020
282 Clear 17 1011 77 10000 3.1 260 21:20 19.01.2020
283 Clear 17 1011 82 10000 2.1 280 20:57 19.01.2020
284 Clear 17 1011 77 10000 2.1 310 20:39 19.01.2020
285 Clear 17 1011 77 10000 2.1 310 20:21 19.01.2020
286 Clear 17 1011 82 10000 2.6 260 19:57 19.01.2020
287 Clear 17 1011 72 10000 1.5 320 19:39 19.01.2020
288 Clear 17 1011 72 10000 1.5 320 19:20 19.01.2020
289 Clear 18 1011 72 10000 4.1 210 18:57 19.01.2020
290 Clear 18 1012 68 10000 3.6 190 18:39 19.01.2020
291 Clear 18 1012 68 10000 3.6 190 18:20 19.01.2020
292 Clear 19 1012 68 10000 3.6 210 17:58 19.01.2020
293 Clear 19 1012 68 10000 3.6 210 17:58 19.01.2020
294 Clear 19 1012 68 10000 4.6 190 17:40 19.01.2020
295 Clear 19 1012 68 10000 4.6 190 17:21 19.01.2020
296 Clear 20 1013 64 10000 4.6 210 16:59 19.01.2020
297 Clear 20 1013 60 10000 5.1 210 16:39 19.01.2020
298 Clear 20 1013 60 10000 5.1 210 16:21 19.01.2020
299 Clear 21 1013 56 10000 5.7 200 15:58 19.01.2020
300 Clear 21 1013 56 10000 6.2 200 15:38 19.01.2020
301 Clear 21 1013 56 10000 6.2 200 15:20 19.01.2020
302 Clear 21 1013 53 10000 6.7 200 14:58 19.01.2020
303 Clear 21 1013 53 10000 7.2 190 14:39 19.01.2020
304 Clear 22 1013 53 10000 7.2 190 14:18 19.01.2020
305 Clear 22 1013 53 10000 8.7 190 13:57 19.01.2020
306 Clear 22 1013 49 10000 8.7 190 13:38 19.01.2020
307 Clear 22 1013 49 10000 8.7 190 13:19 19.01.2020
308 Clear 22 1013 49 10000 8.2 190 12:55 19.01.2020
309 Clear 23 1013 50 10000 6.2 180 12:36 19.01.2020
310 Clear 23 1013 50 10000 6.2 180 12:18 19.01.2020
311 Clear 24 1013 41 10000 6.2 180 11:42 19.01.2020
312 Clear 25 1013 41 10000 6.2 180 11:20 19.01.2020
313 Clear 26 1013 36 10000 6.2 180 10:56 19.01.2020
314 Clear 26 1013 36 10000 6.2 180 10:56 19.01.2020
315 Clear 27 1012 37 10000 8.2 220 10:37 19.01.2020
316 Clear 27 1012 37 10000 8.2 220 10:19 19.01.2020
317 Clear 27 1012 34 10000 8.2 220 09:45 19.01.2020
318 Clear 28 1012 34 10000 9.3 220 09:45 19.01.2020
319 Clear 28 1012 34 10000 9.3 220 09:27 19.01.2020
320 Clear 28 1012 32 10000 8.7 240 08:58 19.01.2020
321 Clear 28 1012 20 10000 7.2 240 08:40 19.01.2020
322 Clear 29 1012 20 10000 7.2 240 08:21 19.01.2020
323 Clear 29 1013 34 10000 7.7 250 07:42 19.01.2020
324 Clear 30 1013 34 10000 7.7 250 07:22 19.01.2020
325 Clear 31 1013 25 10000 7.2 210 06:51 19.01.2020
326 Clear 29 1015 30 10000 4.6 100 05:41 19.01.2020
327 Clear 23 1017 43 10000 7.7 70 02:44 19.01.2020
328 Clear 23 1017 43 10000 7.7 70 02:21 19.01.2020
329 Clear 21 1017 52 10000 9.8 90 01:25 19.01.2020
330 Clear 21 1017 52 10000 9.8 90 01:25 19.01.2020
331 Clear 19 1017 59 10000 7.7 90 00:46 19.01.2020
332 Clear 19 1017 59 10000 7.7 90 00:28 19.01.2020
333 Clear 18 1016 63 10000 10.8 80 23:56 18.01.2020
334 Clear 18 1016 63 10000 9.3 80 23:38 18.01.2020
335 Clear 18 1016 63 10000 9.3 80 23:38 18.01.2020
336 Clear 17 1016 63 10000 9.3 80 23:19 18.01.2020
337 Clear 17 1016 63 10000 9.3 80 22:55 18.01.2020
338 Clear 17 1016 59 10000 8.7 80 22:36 18.01.2020
339 Clear 17 1016 59 10000 8.7 80 22:18 18.01.2020
340 Clear 17 1015 59 10000 8.7 90 21:56 18.01.2020
341 Clear 18 1015 55 10000 8.2 80 21:36 18.01.2020
342 Clear 18 1015 55 10000 8.2 80 21:18 18.01.2020
343 Clear 18 1014 55 10000 11.3 90 20:42 18.01.2020
344 Clear 18 1014 55 10000 11.3 90 20:20 18.01.2020
345 Clear 19 1014 52 10000 9.3 100 19:55 18.01.2020
346 Clear 19 1015 55 10000 7.7 110 19:37 18.01.2020
347 Clear 19 1015 55 10000 7.7 110 19:36 18.01.2020
348 Clear 19 1015 55 10000 7.7 110 19:18 18.01.2020
349 Clear 20 1014 45 10000 11.3 110 18:41 18.01.2020
350 Clear 20 1014 45 10000 11.3 110 18:21 18.01.2020
351 Clear 21 1014 37 10000 9.8 110 17:41 18.01.2020
352 Clear 22 1014 37 10000 9.8 110 17:21 18.01.2020
353 Clear 23 1014 35 10000 12.3 110 16:59 18.01.2020
354 Clear 23 1014 35 10000 8.2 110 16:41 18.01.2020
355 Clear 23 1014 35 10000 8.2 110 16:22 18.01.2020
356 Clear 24 1014 33 10000 9.3 110 15:57 18.01.2020
357 Clear 25 1014 31 10000 7.7 110 15:39 18.01.2020
358 Clear 25 1014 31 10000 7.7 110 15:20 18.01.2020
359 Clear 25 1014 27 10000 6.7 130 14:42 18.01.2020
360 Clear 25 1014 27 10000 6.7 130 14:20 18.01.2020
361 Clear 24 1013 26 10000 5.7 130 13:58 18.01.2020
362 Clear 25 1013 24 10000 5.1 130 13:39 18.01.2020
363 Clear 25 1013 24 10000 5.1 130 13:20 18.01.2020
364 Clear 25 1012 21 10000 5.7 130 12:43 18.01.2020
365 Clear 25 1013 47 10000 5.7 210 12:22 18.01.2020
366 Clear 25 1013 47 10000 5.7 210 12:22 18.01.2020
367 Clear 26 1012 20 10000 6.2 150 11:58 18.01.2020
368 Clear 27 1011 37 10000 5.7 260 11:40 18.01.2020
369 Clear 27 1011 37 10000 5.7 260 11:20 18.01.2020
370 Clear 28 1011 37 10000 7.2 220 10:43 18.01.2020
371 Clear 29 1011 37 10000 7.2 220 10:21 18.01.2020
372 Clear 29 1011 18 10000 7.2 220 09:56 18.01.2020
373 Clear 29 1011 19 10000 7.2 220 09:38 18.01.2020
374 Clear 29 1011 19 10000 7.2 220 09:18 18.01.2020
375 Clear 30 1012 20 10000 7.2 220 08:42 18.01.2020
376 Clear 29 1012 20 10000 7.2 220 08:20 18.01.2020
377 Clear 29 1012 23 10000 7.2 220 07:56 18.01.2020
378 Clear 29 1012 27 10000 7.2 220 07:37 18.01.2020
379 Clear 30 1012 27 10000 7.2 220 06:48 18.01.2020
380 Clear 29 1013 28 10000 7.2 220 06:22 18.01.2020
381 Clear 30 1013 32 10000 3.6 160 05:31 18.01.2020
382 Clear 27 1014 36 10000 5.1 110 04:19 18.01.2020
383 Clouds 25 1014 47 10000 5.1 150 02:21 18.01.2020
384 Clouds 23 1015 56 10000 6.7 140 01:36 18.01.2020
385 Clouds 21 1014 68 10000 6.7 170 00:38 18.01.2020
386 Clouds 21 1014 68 10000 6.7 170 00:19 18.01.2020
387 Clouds 20 1014 72 10000 6.7 170 23:45 17.01.2020
388 Clouds 20 1013 72 10000 6.2 180 23:21 17.01.2020
389 Clouds 19 1013 72 10000 4.6 180 22:59 17.01.2020
390 Clouds 20 1013 72 10000 5.7 180 22:40 17.01.2020
391 Clouds 20 1013 72 10000 5.7 180 22:19 17.01.2020
392 Clouds 20 1012 73 10000 5.7 170 21:42 17.01.2020
393 Clouds 21 1012 73 10000 5.7 170 21:24 17.01.2020
394 Clouds 21 1012 73 10000 6.7 170 20:59 17.01.2020
395 Clouds 21 1012 68 10000 3.6 160 20:40 17.01.2020
396 Clouds 21 1012 68 10000 3.6 160 20:20 17.01.2020
397 Clouds 21 1012 68 10000 3.6 160 20:20 17.01.2020
398 Clouds 22 1012 68 10000 4.1 180 19:57 17.01.2020
399 Clear 22 1011 68 10000 4.1 190 19:38 17.01.2020
400 Clear 22 1011 68 10000 4.1 190 19:19 17.01.2020
401 Clear 22 1011 68 10000 4.1 180 18:57 17.01.2020
402 Clear 22 1011 64 10000 5.7 170 18:36 17.01.2020
403 Clear 22 1011 64 10000 5.7 170 18:18 17.01.2020
404 Clear 22 1011 69 10000 6.2 170 17:39 17.01.2020
405 Clear 22 1011 69 10000 6.2 170 17:21 17.01.2020
406 Clear 22 1011 78 10000 4.1 160 16:44 17.01.2020
407 Clear 22 1011 78 10000 4.1 190 16:21 17.01.2020
408 Clouds 22 1011 78 10000 4.1 170 15:58 17.01.2020
409 Clouds 22 1011 78 10000 5.1 170 15:40 17.01.2020
410 Clouds 22 1011 78 10000 5.1 170 15:40 17.01.2020
411 Clouds 22 1011 78 10000 5.1 170 15:21 17.01.2020
412 Clouds 22 1011 78 10000 5.1 170 14:43 17.01.2020
413 Clouds 22 1011 78 10000 5.1 170 14:24 17.01.2020
414 Clouds 23 1010 78 10000 5.1 240 13:45 17.01.2020
415 Clouds 23 1010 78 10000 5.1 240 13:23 17.01.2020
416 Clouds 23 1010 69 10000 5.7 250 12:47 17.01.2020
417 Clouds 23 1009 73 10000 5.1 250 12:23 17.01.2020
418 Clouds 24 1009 65 10000 6.7 230 11:43 17.01.2020
419 Clouds 25 1009 65 10000 5.1 270 11:20 17.01.2020
420 Clouds 25 1009 65 10000 5.1 270 11:20 17.01.2020
421 Clouds 26 1009 61 10000 5.1 270 10:58 17.01.2020
422 Clouds 26 1009 65 10000 5.7 250 10:40 17.01.2020
423 Clouds 26 1009 65 10000 5.7 250 10:21 17.01.2020
424 Clouds 26 1009 61 10000 6.7 270 09:56 17.01.2020
425 Clouds 27 1009 57 10000 6.7 270 09:37 17.01.2020
426 Clouds 27 1009 57 10000 6.7 270 09:18 17.01.2020
427 Clouds 27 1009 54 10000 5.1 260 08:42 17.01.2020
428 Clouds 27 1009 54 10000 5.1 260 08:23 17.01.2020
429 Clouds 27 1010 54 10000 5.7 260 07:49 17.01.2020
430 Clouds 26 1010 57 10000 5.7 260 07:30 17.01.2020
431 Clouds 26 1010 57 10000 5.7 250 06:56 17.01.2020
432 Clouds 26 1010 54 10000 5.7 290 06:36 17.01.2020
433 Clouds 26 1010 54 10000 4.1 250 05:22 17.01.2020
434 Clouds 26 1008 68 0 1.79 11 03:38 17.01.2020
435 Clouds 26 1007 65 0 0.45 287 02:42 17.01.2020
436 Clouds 25 1007 72 0 0.89 163 01:45 17.01.2020
437 Clouds 24 1007 74 0 0.45 225 01:27 17.01.2020
438 Clouds 24 1007 73 0 0.89 203 00:40 17.01.2020
439 Rain 24 1009 69 10000 4.1 220 00:19 17.01.2020
440 Rain 23 1009 69 10000 4.1 220 23:41 16.01.2020
441 Rain 23 1009 69 10000 4.1 220 23:22 16.01.2020
442 Clouds 23 1009 64 10000 2.6 230 22:42 16.01.2020
443 Clouds 23 1009 64 10000 2.6 230 22:22 16.01.2020
444 Clouds 23 1009 64 10000 2.6 230 22:22 16.01.2020
445 Clouds 23 1008 64 10000 2.6 210 21:57 16.01.2020
446 Clouds 23 1008 64 10000 2.6 240 21:38 16.01.2020
447 Clouds 23 1008 64 10000 2.6 240 21:19 16.01.2020
448 Clouds 23 1008 64 10000 2.6 230 20:57 16.01.2020
449 Clouds 23 1008 64 10000 3.1 210 20:38 16.01.2020
450 Clouds 23 1008 64 10000 3.1 210 20:19 16.01.2020
451 Clouds 23 1008 64 10000 3.1 210 19:56 16.01.2020
452 Clouds 23 1008 60 10000 3.6 200 19:37 16.01.2020
453 Clouds 23 1008 60 10000 3.6 200 19:19 16.01.2020
454 Clouds 23 1009 60 10000 4.1 210 18:55 16.01.2020
455 Clouds 23 1008 57 10000 5.1 190 18:37 16.01.2020
456 Clouds 24 1008 57 10000 5.1 190 18:18 16.01.2020
457 Clouds 24 1009 53 10000 4.1 200 17:42 16.01.2020
458 Clouds 24 1009 53 10000 4.1 200 17:23 16.01.2020
459 Clouds 25 1009 50 10000 4.1 210 16:57 16.01.2020
460 Clouds 25 1009 50 10000 4.1 210 16:38 16.01.2020
461 Clouds 25 1009 50 10000 4.1 210 16:19 16.01.2020
462 Clouds 25 1009 50 10000 5.1 210 15:44 16.01.2020
463 Clouds 26 1010 51 10000 5.7 200 15:22 16.01.2020
464 Clouds 26 1010 51 10000 5.7 200 14:57 16.01.2020
465 Clouds 26 1009 51 10000 6.2 210 14:38 16.01.2020
466 Clouds 26 1009 51 10000 6.2 210 14:19 16.01.2020
467 Clouds 26 1009 51 10000 5.7 210 13:44 16.01.2020
468 Clouds 26 1009 48 10000 6.2 220 13:25 16.01.2020
469 Clouds 27 1009 45 10000 6.7 220 12:46 16.01.2020
470 Clouds 27 1008 42 10000 7.7 220 12:28 16.01.2020
471 Clouds 28 1008 40 10000 7.2 210 11:58 16.01.2020
472 Clouds 29 1008 35 10000 8.2 220 11:39 16.01.2020
473 Clouds 29 1008 35 10000 8.2 220 11:21 16.01.2020
474 Clouds 30 1008 36 10000 8.2 230 10:39 16.01.2020
475 Clouds 31 1008 36 10000 8.2 230 10:21 16.01.2020
476 Clouds 32 1008 36 10000 7.7 230 09:58 16.01.2020
477 Clouds 33 1008 36 10000 8.7 220 09:40 16.01.2020
478 Clouds 33 1008 36 10000 8.7 220 09:21 16.01.2020
479 Clouds 33 1008 34 10000 9.3 230 08:52 16.01.2020
480 Clouds 33 1008 36 10000 7.7 230 08:34 16.01.2020
481 Clouds 34 1009 36 10000 7.2 260 07:59 16.01.2020
482 Clouds 34 1009 34 10000 6.2 270 07:39 16.01.2020
483 Clouds 34 1009 34 10000 6.2 270 07:20 16.01.2020
484 Clouds 35 1009 32 10000 3.1 260 06:43 16.01.2020
485 Clouds 35 1009 34 10000 7.2 230 06:21 16.01.2020
486 Clouds 34 1010 36 10000 7.2 230 05:45 16.01.2020
487 Clear 31 1011 40 10000 3.1 90 04:38 16.01.2020
488 Clear 31 1012 45 10000 5.1 90 03:28 16.01.2020
489 Clear 29 1012 45 10000 6.7 100 02:43 16.01.2020
490 Clouds 24 1013 56 10000 7.2 90 00:54 16.01.2020
491 Clouds 23 1013 60 10000 6.2 90 00:24 16.01.2020
492 Clouds 22 1013 64 10000 6.2 100 23:50 15.01.2020
493 Clouds 21 1012 64 10000 8.2 90 23:23 15.01.2020
494 Clear 20 1012 64 10000 7.7 100 22:58 15.01.2020
495 Clear 20 1012 64 10000 8.2 100 22:40 15.01.2020
496 Clear 20 1012 64 10000 8.2 100 22:19 15.01.2020
497 Clear 20 1012 64 10000 8.2 100 22:19 15.01.2020
498 Clear 20 1012 64 10000 7.7 100 21:58 15.01.2020
499 Clear 21 1011 60 10000 5.7 100 21:38 15.01.2020
500 Clear 21 1011 60 10000 5.7 100 21:20 15.01.2020
501 Clear 21 1011 60 10000 4.1 100 20:58 15.01.2020
502 Clear 21 1011 60 10000 4.1 100 20:58 15.01.2020
503 Clear 21 1011 60 10000 4.6 90 20:40 15.01.2020
504 Clear 21 1011 60 10000 4.6 90 20:20 15.01.2020
505 Clear 21 1011 60 10000 6.7 90 19:55 15.01.2020
506 Clear 22 1011 56 10000 5.1 90 19:37 15.01.2020
507 Clear 22 1011 56 10000 5.1 90 19:19 15.01.2020
508 Clear 22 1011 56 10000 5.1 100 18:57 15.01.2020
509 Clear 23 1011 53 10000 8.7 80 18:38 15.01.2020
510 Clear 23 1011 53 10000 8.7 80 18:19 15.01.2020
511 Clear 23 1011 53 10000 6.2 100 17:58 15.01.2020
512 Clear 23 1012 53 10000 4.6 100 17:38 15.01.2020
513 Clear 24 1012 53 10000 4.6 100 17:19 15.01.2020
514 Clear 24 1012 50 10000 4.6 120 16:41 15.01.2020
515 Clear 24 1012 50 10000 4.6 120 16:41 15.01.2020
516 Clear 25 1012 50 10000 4.6 120 16:22 15.01.2020
517 Clear 25 1012 50 10000 4.6 120 16:22 15.01.2020
518 Clear 25 1012 50 10000 4.6 120 15:58 15.01.2020
519 Clear 26 1012 50 10000 8.7 100 15:39 15.01.2020
520 Clear 26 1012 50 10000 8.7 100 15:20 15.01.2020
521 Clear 27 1012 47 10000 8.2 100 14:43 15.01.2020
522 Clear 27 1012 44 10000 7.7 110 14:20 15.01.2020
523 Clear 28 1011 42 10000 7.7 100 13:46 15.01.2020
524 Clear 29 1011 42 10000 8.7 100 13:27 15.01.2020
525 Clear 30 1011 40 10000 7.7 110 12:59 15.01.2020
526 Clear 30 1010 38 10000 8.2 110 12:40 15.01.2020
527 Clear 31 1010 38 10000 8.2 110 12:20 15.01.2020
528 Clear 32 1010 35 10000 8.2 120 11:58 15.01.2020
529 Clear 31 1009 36 10000 7.2 120 11:37 15.01.2020
530 Clear 33 1009 36 10000 7.2 120 11:19 15.01.2020
531 Clear 34 1009 36 10000 6.7 110 10:43 15.01.2020
532 Clear 34 1009 36 10000 5.1 110 10:25 15.01.2020
533 Clear 34 1009 36 10000 5.7 100 09:45 15.01.2020
534 Clear 34 1010 36 10000 5.1 130 09:26 15.01.2020
535 Clear 34 1010 36 10000 6.7 110 08:58 15.01.2020
536 Clear 34 1010 36 10000 4.6 150 08:39 15.01.2020
537 Clear 34 1010 36 10000 4.6 150 08:21 15.01.2020
538 Clear 33 1011 38 10000 7.2 100 07:51 15.01.2020
539 Clear 33 1011 38 10000 5.7 110 07:31 15.01.2020
540 Clear 32 1011 38 10000 6.7 110 06:46 15.01.2020
541 Clouds 32 1011 40 10000 8.2 90 06:20 15.01.2020
542 Clouds 30 1013 45 10000 8.2 110 04:42 15.01.2020
543 Clouds 26 1013 53 10000 9.3 100 02:38 15.01.2020
544 Clouds 24 1013 56 10000 5.1 130 01:28 15.01.2020
545 Clouds 23 1013 56 10000 5.1 130 00:46 15.01.2020
546 Clouds 22 1013 60 10000 4.1 110 00:27 15.01.2020
547 Clouds 21 1013 68 10000 7.7 110 23:56 14.01.2020
548 Clear 21 1013 64 10000 5.1 120 23:38 14.01.2020
549 Clear 20 1013 64 10000 5.1 120 23:19 14.01.2020
550 Clouds 20 1013 64 10000 5.1 110 22:41 14.01.2020
551 Clouds 20 1013 64 10000 5.1 110 22:19 14.01.2020
552 Clouds 20 1013 64 10000 5.1 110 21:58 14.01.2020
553 Clouds 20 1012 64 10000 5.1 120 21:40 14.01.2020
554 Clouds 20 1012 64 10000 5.1 120 21:21 14.01.2020
555 Clouds 20 1012 64 10000 5.1 120 21:21 14.01.2020
556 Clouds 20 1012 64 10000 6.7 120 20:58 14.01.2020
557 Clear 20 1012 64 10000 5.7 120 20:40 14.01.2020
558 Clear 20 1012 64 10000 5.7 120 20:19 14.01.2020
559 Clear 21 1012 64 10000 5.7 120 19:55 14.01.2020
560 Clear 21 1011 60 10000 5.7 120 19:37 14.01.2020
561 Clear 21 1011 60 10000 5.7 120 19:18 14.01.2020
562 Clear 22 1011 56 10000 6.2 120 18:41 14.01.2020
563 Clear 22 1011 56 10000 6.2 120 18:20 14.01.2020
564 Clear 22 1011 56 10000 6.2 120 17:59 14.01.2020
565 Clear 23 1011 49 10000 7.7 100 17:37 14.01.2020
566 Clear 22 1011 49 10000 7.7 100 17:18 14.01.2020
567 Clear 22 1011 49 10000 7.7 100 17:18 14.01.2020
568 Clear 23 1011 53 10000 3.6 110 16:55 14.01.2020
569 Clear 24 1011 53 10000 7.7 120 16:36 14.01.2020
570 Clear 24 1011 53 10000 7.7 120 16:18 14.01.2020
571 Clear 26 1010 47 10000 8.2 120 15:42 14.01.2020
572 Clear 26 1010 47 10000 8.2 120 15:19 14.01.2020
573 Clear 27 1010 45 10000 7.7 110 14:46 14.01.2020
574 Clear 27 1010 42 10000 8.2 110 14:23 14.01.2020
575 Clear 26 1009 54 10000 9.3 130 13:58 14.01.2020
576 Clear 26 1008 51 10000 9.3 130 13:39 14.01.2020
577 Clear 26 1008 51 10000 9.3 130 13:19 14.01.2020
578 Clear 27 1008 42 10000 9.3 130 12:42 14.01.2020
579 Clear 28 1008 42 10000 9.3 130 12:22 14.01.2020
580 Clear 28 1007 38 10000 9.3 130 11:56 14.01.2020
581 Clear 29 1007 40 10000 9.3 130 11:37 14.01.2020
582 Clear 29 1007 40 10000 9.3 130 11:37 14.01.2020
583 Clear 30 1007 40 10000 9.3 130 11:19 14.01.2020
584 Clear 32 1007 36 10000 6.7 240 10:41 14.01.2020
585 Clear 32 1007 36 10000 6.7 240 10:20 14.01.2020
586 Clear 32 1007 36 10000 8.2 230 09:59 14.01.2020
587 Clear 32 1007 36 10000 7.7 240 09:40 14.01.2020
588 Clear 32 1007 36 10000 7.7 240 09:21 14.01.2020
589 Clear 32 1008 36 10000 6.7 250 08:56 14.01.2020
590 Clear 32 1008 36 10000 7.7 240 08:38 14.01.2020
591 Clear 32 1008 36 10000 7.7 240 08:19 14.01.2020
592 Clear 32 1008 36 10000 8.2 220 07:37 14.01.2020
593 Clear 32 1009 36 10000 7.7 250 06:57 14.01.2020
594 Clear 30 1009 38 10000 9.3 230 06:39 14.01.2020
595 Clear 32 1009 32 10000 4.6 210 05:33 14.01.2020
596 Clear 32 1010 35 10000 6.2 220 04:22 14.01.2020
597 Clear 30 1010 40 10000 6.2 220 03:35 14.01.2020
598 Clear 27 1011 45 10000 6.2 220 02:26 14.01.2020
599 Clear 24 1011 50 10000 2.6 120 01:18 14.01.2020
600 Clear 23 1011 56 10000 3.6 100 00:38 14.01.2020
601 Clear 22 1011 60 10000 3.6 110 23:59 13.01.2020
602 Clear 21 1011 60 10000 3.1 140 23:37 13.01.2020
603 Clear 21 1011 60 10000 3.1 140 23:18 13.01.2020
604 Clear 21 1011 60 10000 3.1 140 23:18 13.01.2020
605 Clear 21 1010 60 10000 2.6 90 22:45 13.01.2020
606 Clear 21 1010 56 10000 3.1 110 22:22 13.01.2020
607 Clear 21 1009 56 10000 3.6 90 21:58 13.01.2020
608 Clear 22 1009 53 10000 4.6 90 21:39 13.01.2020
609 Clear 22 1009 53 10000 4.6 90 21:19 13.01.2020
610 Clear 22 1009 53 10000 4.6 70 20:59 13.01.2020
611 Clear 23 1008 49 10000 4.1 80 20:41 13.01.2020
612 Clear 23 1008 49 10000 4.1 80 20:41 13.01.2020
613 Clear 23 1008 49 10000 4.1 80 20:22 13.01.2020
614 Clear 23 1008 49 10000 4.1 80 20:22 13.01.2020
615 Clear 23 1008 49 10000 4.1 80 20:22 13.01.2020
616 Clear 23 1008 49 10000 4.6 100 19:59 13.01.2020
617 Clear 23 1008 47 10000 4.1 100 19:40 13.01.2020
618 Clear 23 1008 47 10000 4.1 100 19:20 13.01.2020
619 Clear 23 1008 44 10000 3.1 110 18:57 13.01.2020
620 Clear 23 1008 41 10000 3.1 60 18:37 13.01.2020
621 Clear 23 1008 41 10000 3.1 60 18:37 13.01.2020
622 Clear 24 1008 41 10000 3.1 60 18:19 13.01.2020
623 Clear 22 1009 60 10000 3.1 240 17:44 13.01.2020
624 Clear 22 1009 60 10000 3.1 240 17:25 13.01.2020
625 Clear 22 1009 64 10000 2.1 50 16:58 13.01.2020
626 Clear 22 1006 66 0 2.24 205 16:38 13.01.2020
627 Clear 22 1006 66 0 1.79 236 16:20 13.01.2020
628 Clear 22 1006 66 0 0.89 239 15:54 13.01.2020
629 Clear 23 1006 65 0 3.08 167 15:36 13.01.2020
630 Clear 23 1006 64 0 0.89 252 15:18 13.01.2020
631 Clear 23 1007 62 0 1.34 274 14:40 13.01.2020
632 Clear 23 1007 61 0 0.89 228 14:22 13.01.2020
633 Clear 24 1007 61 0 1.79 236 13:56 13.01.2020
634 Clear 24 1007 61 0 1.79 236 13:56 13.01.2020
635 Clear 24 1007 60 0 1.79 239 13:37 13.01.2020
636 Clear 24 1006 59 0 0.89 259 13:19 13.01.2020
637 Clear 25 1008 42 10000 6.2 190 12:43 13.01.2020
638 Clear 26 1008 42 10000 6.2 190 12:23 13.01.2020
639 Clear 26 1008 42 10000 6.2 190 12:23 13.01.2020
640 Clear 26 1008 42 10000 6.2 190 11:58 13.01.2020
641 Clear 27 1008 39 10000 6.2 190 11:38 13.01.2020
642 Clear 28 1008 35 10000 6.2 190 11:19 13.01.2020
643 Clear 29 1008 35 10000 6.2 190 10:56 13.01.2020
644 Clear 29 1008 33 10000 6.2 230 10:37 13.01.2020
645 Clear 31 1008 33 10000 6.2 230 10:19 13.01.2020
646 Clear 32 1008 31 10000 7.2 250 09:43 13.01.2020
647 Clear 33 1008 31 10000 7.2 250 09:24 13.01.2020
648 Clear 32 1008 32 10000 6.7 260 08:56 13.01.2020
649 Clear 31 1009 35 10000 6.7 250 08:36 13.01.2020
650 Clear 31 1009 35 10000 6.7 250 08:18 13.01.2020
651 Clear 33 1009 24 10000 3.1 220 07:42 13.01.2020
652 Clear 33 1009 24 10000 3.1 220 07:21 13.01.2020
653 Clear 33 1010 27 10000 7.2 230 06:37 13.01.2020
654 Clear 33 1010 27 10000 7.2 230 06:37 13.01.2020
655 Clear 31 1011 29 10000 7.2 230 05:37 13.01.2020
656 Clear 30 1012 35 10000 5.1 120 04:26 13.01.2020
657 Clear 27 1013 39 10000 5.1 130 03:35 13.01.2020
658 Clear 26 1013 41 10000 4.6 110 02:49 13.01.2020
659 Clear 25 1013 44 10000 4.1 120 02:29 13.01.2020
660 Clear 23 1013 49 10000 5.1 110 01:33 13.01.2020
661 Clear 22 1013 53 10000 4.1 120 00:43 13.01.2020
662 Clear 21 1013 56 10000 4.1 130 00:24 13.01.2020
663 Clear 20 1013 63 10000 5.1 130 23:57 12.01.2020
664 Clear 19 1013 63 10000 5.1 140 23:37 12.01.2020
665 Clear 19 1013 63 10000 5.1 140 23:19 12.01.2020
666 Clear 19 1012 63 10000 3.1 110 22:42 12.01.2020
667 Clear 19 1012 63 10000 3.1 110 22:24 12.01.2020
668 Clear 19 1012 59 10000 3.6 120 21:58 12.01.2020
669 Clear 19 1012 59 10000 5.7 120 21:39 12.01.2020
670 Clear 19 1012 59 10000 5.7 120 21:39 12.01.2020
671 Clear 19 1012 59 10000 5.7 120 21:20 12.01.2020
672 Clear 20 1012 56 10000 5.7 100 20:57 12.01.2020
673 Clear 20 1012 56 10000 4.1 100 20:39 12.01.2020
674 Clear 20 1012 56 10000 4.1 100 20:20 12.01.2020
675 Clear 20 1012 52 10000 6.2 110 19:56 12.01.2020
676 Clear 21 1011 53 10000 5.7 130 19:38 12.01.2020
677 Clear 21 1011 53 10000 5.7 130 19:19 12.01.2020
678 Clear 21 1011 49 10000 4.1 130 18:57 12.01.2020
679 Clear 21 1011 56 10000 3.1 160 18:39 12.01.2020
680 Clear 21 1011 56 10000 3.1 160 18:21 12.01.2020
681 Clear 21 1011 60 10000 7.2 110 17:55 12.01.2020
682 Clear 21 1011 60 10000 4.1 210 17:37 12.01.2020
683 Clear 21 1011 60 10000 4.1 210 17:18 12.01.2020
684 Clear 21 1012 56 10000 7.2 110 16:54 12.01.2020
685 Clear 21 1012 56 10000 5.7 200 16:36 12.01.2020
686 Clear 21 1012 56 10000 5.7 200 16:18 12.01.2020
687 Clear 22 1011 64 10000 4.6 210 15:40 12.01.2020
688 Clear 22 1011 64 10000 3.6 220 15:21 12.01.2020
689 Clear 22 1011 64 10000 3.6 220 14:44 12.01.2020
690 Clear 22 1011 64 10000 3.6 240 14:25 12.01.2020
691 Clear 23 1011 69 10000 4.1 240 13:58 12.01.2020
692 Clear 23 1011 69 10000 6.7 230 13:40 12.01.2020
693 Clear 23 1011 69 10000 6.7 230 13:22 12.01.2020
694 Clear 23 1011 64 10000 6.2 240 12:58 12.01.2020
695 Clear 24 1010 54 10000 6.2 240 12:38 12.01.2020
696 Clear 24 1010 54 10000 6.2 240 12:19 12.01.2020
697 Clear 25 1010 51 10000 7.2 240 11:43 12.01.2020
698 Clear 26 1010 51 10000 7.2 240 11:23 12.01.2020
699 Clear 28 1010 42 10000 7.2 240 10:59 12.01.2020
700 Clear 28 1010 42 10000 7.7 240 10:40 12.01.2020
701 Clear 28 1010 42 10000 7.7 240 10:21 12.01.2020
702 Clear 28 1009 33 10000 9.3 240 09:44 12.01.2020
703 Clear 29 1009 33 10000 9.3 240 09:24 12.01.2020
704 Clear 30 1009 31 10000 8.7 240 08:57 12.01.2020
705 Clear 31 1009 31 10000 8.7 230 08:38 12.01.2020
706 Clear 31 1009 31 10000 8.7 230 08:19 12.01.2020
707 Clear 31 1009 27 10000 8.2 240 07:38 12.01.2020
708 Clear 31 1009 27 10000 8.2 240 07:19 12.01.2020
709 Clear 32 1010 26 10000 7.7 230 06:41 12.01.2020
710 Clear 31 1010 33 10000 9.3 220 05:58 12.01.2020
711 Clear 31 1010 37 10000 6.7 270 05:20 12.01.2020
712 Clear 32 1010 26 10000 9.3 220 03:44 12.01.2020
713 Clear 31 1010 30 10000 6.2 250 02:55 12.01.2020
714 Clear 30 1011 32 10000 6.2 250 02:30 12.01.2020
715 Clear 26 1011 36 10000 4.1 40 01:39 12.01.2020
716 Clear 25 1011 38 10000 2.1 100 00:57 12.01.2020
717 Clear 23 1011 43 10000 0.5 360 00:37 12.01.2020
718 Clear 23 1011 43 10000 0.5 360 00:18 12.01.2020
719 Clear 20 1010 67 10000 2.1 220 23:41 11.01.2020
720 Clear 19 1010 67 10000 2.1 220 23:19 11.01.2020
721 Clear 19 1010 63 10000 2.1 230 22:56 11.01.2020
722 Clear 19 1010 59 10000 2.6 230 22:38 11.01.2020
723 Clear 19 1010 59 10000 2.6 230 22:20 11.01.2020
724 Clear 19 1009 63 10000 0.5 310 21:44 11.01.2020
725 Clear 20 1009 63 10000 1.72 41 21:20 11.01.2020
726 Clear 20 1009 59 10000 2.1 300 20:59 11.01.2020
727 Clear 20 1009 55 10000 2.1 280 20:39 11.01.2020
728 Clear 20 1009 52 10000 2.6 180 20:19 11.01.2020
729 Clear 20 1009 52 10000 2.6 180 19:57 11.01.2020
730 Clear 20 1009 52 10000 2.1 140 19:38 11.01.2020
731 Clear 20 1009 52 10000 2.1 140 19:38 11.01.2020
732 Clear 21 1009 52 10000 2.1 140 19:20 11.01.2020
733 Clear 20 1009 55 10000 1.5 10 18:55 11.01.2020
734 Clear 20 1010 52 10000 1 330 18:37 11.01.2020
735 Clear 21 1010 52 10000 1 330 18:18 11.01.2020
736 Clear 21 1010 48 10000 0.5 110 17:57 11.01.2020
737 Clear 21 1010 48 10000 0.5 110 17:57 11.01.2020
738 Clear 22 1010 45 10000 2.1 190 17:39 11.01.2020
739 Clear 22 1010 45 10000 2.1 190 17:18 11.01.2020
740 Clear 23 1011 40 10000 2.6 200 16:44 11.01.2020
741 Clear 23 1011 36 10000 3.1 190 16:24 11.01.2020
742 Clear 24 1011 33 10000 4.1 180 15:56 11.01.2020
743 Clear 24 1011 31 10000 4.1 210 15:38 11.01.2020
744 Clear 25 1011 31 10000 4.1 210 15:19 11.01.2020
745 Clear 25 1011 31 10000 5.7 190 14:46 11.01.2020
746 Clear 26 1011 28 10000 7.2 190 14:25 11.01.2020
747 Clear 26 1011 30 10000 7.2 190 13:57 11.01.2020
748 Clear 27 1011 26 10000 7.7 190 13:37 11.01.2020
749 Clear 27 1011 26 10000 7.7 190 13:19 11.01.2020
750 Clear 28 1011 23 10000 8.2 200 12:44 11.01.2020
751 Clear 27 1011 23 10000 8.2 200 12:26 11.01.2020
752 Clear 30 1011 23 10000 7.7 200 11:56 11.01.2020
753 Clear 29 1010 21 10000 7.2 220 11:38 11.01.2020
754 Clear 31 1010 21 10000 7.2 220 11:18 11.01.2020
755 Clear 32 1010 21 10000 6.2 200 10:44 11.01.2020
756 Clear 33 1010 14 10000 2.6 200 10:24 11.01.2020
757 Clear 33 1011 16 10000 5.7 70 09:42 11.01.2020
758 Clear 34 1011 16 10000 5.7 70 09:21 11.01.2020
759 Clear 34 1011 15 10000 6.2 200 08:43 11.01.2020
760 Clear 34 1011 15 10000 3.6 90 08:23 11.01.2020
761 Clear 34 1012 16 10000 3.6 50 07:45 11.01.2020
762 Clear 34 1012 14 10000 5.1 80 07:26 11.01.2020
763 Clear 34 1012 14 10000 5.1 80 07:26 11.01.2020
764 Clear 34 1013 16 10000 5.7 100 06:56 11.01.2020
765 Clear 33 1013 16 10000 7.2 60 06:28 11.01.2020
766 Clear 30 1015 20 10000 6.7 70 04:49 11.01.2020
767 Clear 30 1015 19 10000 7.7 80 04:30 11.01.2020
768 Clear 29 1016 23 10000 8.2 70 03:58 11.01.2020
769 Clear 27 1016 30 10000 8.2 70 02:43 11.01.2020
770 Clear 25 1017 38 10000 10.3 80 01:44 11.01.2020
771 Clear 23 1017 40 10000 9.8 80 01:21 11.01.2020
772 Clear 22 1017 46 10000 9.3 70 00:46 11.01.2020
773 Clear 21 1017 49 10000 10.3 80 00:20 11.01.2020
774 Clear 19 1017 55 10000 12.9 100 23:41 10.01.2020
775 Clear 19 1017 55 10000 12.9 100 23:22 10.01.2020
776 Clear 19 1016 55 10000 12.9 100 22:59 10.01.2020
777 Clear 18 1016 55 10000 11.3 100 22:40 10.01.2020
778 Clear 18 1016 55 10000 11.3 100 22:21 10.01.2020
779 Clear 18 1016 55 10000 11.3 100 21:58 10.01.2020
780 Clear 18 1016 55 10000 8.2 90 21:39 10.01.2020
781 Clear 19 1016 55 10000 8.2 90 21:19 10.01.2020
782 Clear 19 1016 52 10000 8.7 100 20:55 10.01.2020
783 Clear 19 1017 52 10000 9.3 100 20:37 10.01.2020
784 Clear 19 1017 52 10000 9.3 100 20:18 10.01.2020
785 Clear 20 1017 45 10000 7.7 120 19:39 10.01.2020
786 Clear 20 1017 45 10000 7.7 120 19:20 10.01.2020
787 Clear 21 1017 43 10000 7.2 110 18:44 10.01.2020
788 Clear 21 1017 46 10000 7.7 110 18:20 10.01.2020
789 Clear 22 1017 37 10000 7.7 110 17:58 10.01.2020
790 Clear 22 1017 35 10000 7.7 110 17:39 10.01.2020
791 Clear 23 1017 35 10000 7.7 110 17:21 10.01.2020
792 Clear 23 1017 33 10000 7.2 120 16:59 10.01.2020
793 Clear 24 1017 31 10000 7.7 120 16:40 10.01.2020
794 Clear 24 1017 31 10000 7.7 120 16:21 10.01.2020
795 Clear 25 1017 29 10000 9.3 110 15:56 10.01.2020
796 Clear 25 1017 26 10000 9.3 90 15:37 10.01.2020
797 Clear 26 1017 26 10000 9.3 90 15:18 10.01.2020
798 Clear 26 1017 22 10000 9.3 90 14:55 10.01.2020
799 Clear 27 1016 22 10000 9.3 90 14:37 10.01.2020
800 Clear 27 1016 21 10000 9.3 90 14:18 10.01.2020
801 Clear 28 1016 21 10000 9.3 90 13:44 10.01.2020
802 Clear 28 1016 18 10000 5.7 130 13:26 10.01.2020
803 Clear 29 1016 17 10000 5.7 120 12:59 10.01.2020
804 Clear 29 1016 17 10000 7.7 110 12:39 10.01.2020
805 Clear 30 1016 17 10000 7.7 110 12:21 10.01.2020
806 Clear 29 1015 16 10000 7.2 100 11:56 10.01.2020
807 Clear 31 1015 15 10000 7.7 120 11:38 10.01.2020
808 Clear 30 1015 15 10000 7.7 120 11:38 10.01.2020
809 Clear 32 1015 15 10000 7.7 120 11:18 10.01.2020
810 Clear 32 1015 15 10000 7.2 110 10:58 10.01.2020
811 Clear 32 1015 13 10000 8.2 100 10:36 10.01.2020
812 Clear 32 1015 13 10000 8.2 100 10:18 10.01.2020
813 Clear 32 1015 13 10000 8.2 110 09:43 10.01.2020
814 Clear 33 1015 13 10000 8.2 110 09:24 10.01.2020
815 Clear 32 1015 13 10000 7.7 110 08:43 10.01.2020
816 Clear 32 1016 13 10000 7.7 100 08:24 10.01.2020
817 Clear 31 1016 13 10000 7.7 90 07:48 10.01.2020
818 Clear 31 1017 15 10000 7.7 110 07:30 10.01.2020
819 Clear 31 1017 17 10000 6.7 130 06:56 10.01.2020
820 Clear 30 1017 20 10000 8.7 100 06:27 10.01.2020
821 Clear 29 1018 21 10000 7.7 100 05:52 10.01.2020
822 Clear 26 1019 29 10000 7.7 110 03:50 10.01.2020
823 Clear 25 1019 27 10000 7.7 60 03:31 10.01.2020
824 Clear 24 1019 33 10000 8.2 90 02:51 10.01.2020
825 Clear 21 1019 40 10000 7.7 110 01:52 10.01.2020
826 Clear 20 1019 45 10000 9.8 90 01:28 10.01.2020
827 Clear 19 1019 48 10000 7.7 110 00:47 10.01.2020
828 Clear 18 1019 52 10000 5.7 110 00:29 10.01.2020
829 Clear 17 1018 59 10000 5.7 110 23:39 09.01.2020
830 Clear 17 1018 59 10000 5.7 110 23:39 09.01.2020
831 Clear 17 1018 59 10000 5.7 110 23:39 09.01.2020
832 Clear 17 1018 59 10000 5.7 110 23:39 09.01.2020
833 Clear 17 1018 59 10000 5.7 110 23:39 09.01.2020
834 Clear 16 1018 59 10000 5.7 110 23:21 09.01.2020
835 Clear 16 1018 55 10000 5.1 120 22:58 09.01.2020
836 Clear 16 1018 55 10000 3.6 120 22:39 09.01.2020
837 Clear 16 1018 55 10000 3.6 120 22:19 09.01.2020
838 Clear 16 1017 51 10000 7.7 110 21:57 09.01.2020
839 Clear 16 1017 55 10000 9.8 110 21:38 09.01.2020
840 Clear 17 1017 55 10000 9.8 110 21:20 09.01.2020
841 Clear 17 1016 51 10000 7.7 130 20:58 09.01.2020
842 Clear 17 1016 51 10000 7.7 130 20:39 09.01.2020
843 Clear 17 1016 51 10000 5.1 140 20:20 09.01.2020
844 Clear 18 1016 48 10000 6.7 140 19:58 09.01.2020
845 Clear 18 1016 48 10000 6.7 120 19:38 09.01.2020
846 Clear 18 1016 48 10000 6.7 120 19:19 09.01.2020
847 Clear 19 1016 45 10000 8.7 110 18:55 09.01.2020
848 Clear 19 1016 45 10000 8.2 120 18:37 09.01.2020
849 Clear 19 1016 45 10000 8.2 120 18:19 09.01.2020
850 Clear 20 1015 43 10000 7.7 130 17:41 09.01.2020
851 Clear 20 1015 43 10000 7.7 130 17:41 09.01.2020
852 Clear 20 1015 43 10000 7.7 130 17:41 09.01.2020
853 Clear 21 1015 43 10000 7.7 130 17:18 09.01.2020
854 Clear 21 1015 40 10000 7.7 110 16:55 09.01.2020
855 Clear 20 1015 49 10000 7.7 110 16:36 09.01.2020
856 Clear 20 1015 49 10000 7.7 110 16:18 09.01.2020
857 Smoke 20 1014 43 10000 7.7 160 15:41 09.01.2020
858 Smoke 21 1014 43 10000 7.7 160 15:19 09.01.2020
859 Smoke 21 1014 43 10000 7.7 170 14:44 09.01.2020
860 Clear 21 1013 43 9000 9.8 190 14:22 09.01.2020
861 Clear 22 1014 46 10000 6.7 190 13:57 09.01.2020
862 Clear 22 1013 49 10000 6.7 200 13:39 09.01.2020
863 Smoke 22 1013 43 5000 9.8 190 13:21 09.01.2020
864 Clear 22 1012 49 6000 9.8 200 12:59 09.01.2020
865 Clear 23 1012 53 9000 7.7 180 12:40 09.01.2020
866 Clear 23 1012 53 9000 7.7 180 12:40 09.01.2020
867 Clear 23 1012 53 9000 7.7 180 12:20 09.01.2020
868 Clear 23 1011 50 10000 10.3 210 11:57 09.01.2020
869 Clear 24 1011 47 10000 10.3 220 11:38 09.01.2020
870 Clear 24 1011 47 10000 10.3 220 11:20 09.01.2020
871 Clear 24 1011 41 9000 9.8 220 10:43 09.01.2020
872 Clear 25 1010 41 10000 11.3 220 10:22 09.01.2020
873 Clear 25 1010 39 10000 10.8 220 09:56 09.01.2020
874 Clear 26 1010 39 10000 11.8 220 09:38 09.01.2020
875 Clear 26 1010 39 10000 11.8 220 09:18 09.01.2020
876 Clear 26 1010 39 9000 11.3 220 08:55 09.01.2020
877 Clear 26 1010 39 10000 10.8 230 08:37 09.01.2020
878 Clear 26 1010 39 10000 10.8 230 08:19 09.01.2020
879 Clear 26 1011 41 10000 9.8 240 07:42 09.01.2020
880 Clear 26 1011 41 10000 9.8 240 07:23 09.01.2020
881 Clear 26 1011 39 10000 10.3 230 06:38 09.01.2020
882 Clear 26 1011 39 10000 10.3 230 06:19 09.01.2020
883 Clear 27 1011 34 10000 9.8 230 05:44 09.01.2020
884 Clear 26 1012 32 10000 7.7 210 04:42 09.01.2020
885 Clear 25 1012 41 10000 6.2 170 03:30 09.01.2020
886 Clear 25 1012 41 10000 6.2 170 03:30 09.01.2020
887 Clouds 23 1012 41 10000 9.3 220 02:52 09.01.2020
888 Clouds 22 1012 46 10000 6.7 180 02:23 09.01.2020
889 Clouds 21 1012 52 10000 7.7 180 01:35 09.01.2020
890 Clouds 20 1012 63 10000 7.7 190 00:40 09.01.2020
891 Clouds 19 1012 63 10000 7.7 190 00:20 09.01.2020
892 Clouds 18 1011 68 10000 7.7 190 23:41 08.01.2020
893 Clouds 18 1011 68 10000 7.7 190 23:23 08.01.2020
894 Clouds 17 1011 77 10000 8.7 190 22:58 08.01.2020
895 Clouds 17 1011 72 10000 8.7 200 22:38 08.01.2020
896 Clouds 17 1011 72 10000 8.7 200 22:20 08.01.2020
897 Clouds 17 1010 72 10000 9.3 190 21:56 08.01.2020
898 Clouds 17 1010 72 10000 8.2 190 21:37 08.01.2020
899 Clouds 17 1010 72 10000 8.2 190 21:18 08.01.2020
900 Clouds 17 1010 72 10000 7.7 190 20:56 08.01.2020
901 Clear 18 1009 72 10000 8.2 200 20:37 08.01.2020
902 Clouds 18 1009 72 10000 8.2 200 20:19 08.01.2020
903 Clouds 18 1009 72 10000 7.2 200 19:39 08.01.2020
904 Clouds 18 1009 72 10000 7.2 200 19:20 08.01.2020
905 Clouds 19 1009 72 10000 8.2 200 18:58 08.01.2020
906 Clouds 19 1009 72 10000 8.2 200 18:58 08.01.2020
907 Clouds 19 1009 77 10000 7.7 190 18:39 08.01.2020
908 Clouds 19 1009 77 10000 7.7 190 18:19 08.01.2020
909 Clouds 19 1009 77 10000 7.7 190 18:19 08.01.2020
910 Clouds 19 1009 72 10000 8.7 200 17:57 08.01.2020
911 Clouds 20 1009 72 10000 7.7 210 17:39 08.01.2020
912 Clouds 20 1009 72 10000 7.7 210 17:20 08.01.2020
913 Clouds 20 1009 72 10000 7.2 190 16:56 08.01.2020
914 Clouds 20 1009 72 10000 7.2 190 16:38 08.01.2020
915 Clouds 20 1009 72 10000 7.2 190 16:19 08.01.2020
916 Clouds 20 1010 68 10000 7.2 200 15:45 08.01.2020
917 Clouds 21 1009 68 10000 7.7 210 15:22 08.01.2020
918 Clouds 21 1009 68 10000 7.7 210 15:22 08.01.2020
919 Clouds 21 1009 68 10000 7.2 210 14:59 08.01.2020
920 Clouds 21 1009 64 10000 7.7 210 14:40 08.01.2020
921 Clear 21 1009 64 10000 7.7 210 14:21 08.01.2020
922 Clear 21 1008 60 10000 8.2 220 13:41 08.01.2020
923 Clear 21 1008 56 10000 8.7 210 13:22 08.01.2020
924 Clear 22 1008 49 10000 8.2 210 12:55 08.01.2020
925 Clear 22 1008 53 10000 7.2 210 12:36 08.01.2020
926 Clear 22 1008 53 10000 7.2 210 12:18 08.01.2020
927 Clear 24 1007 44 10000 8.7 230 11:47 08.01.2020
928 Clear 25 1007 39 10000 9.3 230 11:19 08.01.2020
929 Clear 25 1006 39 10000 8.7 230 10:59 08.01.2020
930 Clear 25 1006 39 10000 8.7 230 10:59 08.01.2020
931 Clear 26 1006 34 10000 9.3 240 10:40 08.01.2020
932 Clear 26 1006 34 10000 9.3 240 10:20 08.01.2020
933 Clear 27 1006 36 10000 9.3 230 09:43 08.01.2020
934 Clear 27 1006 32 10000 8.7 230 09:20 08.01.2020
935 Clear 27 1006 32 10000 8.7 210 08:58 08.01.2020
936 Clear 28 1006 32 10000 9.3 220 08:39 08.01.2020
937 Clear 27 1006 32 10000 9.3 220 08:20 08.01.2020
938 Clear 27 1006 34 10000 10.3 240 07:51 08.01.2020
939 Clear 28 1006 30 10000 9.8 240 07:33 08.01.2020
940 Clear 29 1006 30 10000 9.8 240 06:50 08.01.2020
941 Clear 29 1006 35 10000 8.7 240 06:32 08.01.2020
942 Clear 28 1006 35 10000 8.7 240 05:54 08.01.2020
943 Clear 29 1006 37 10000 8.2 240 05:18 08.01.2020
944 Clear 28 1007 37 10000 7.7 230 04:27 08.01.2020
945 Clear 27 1007 42 10000 6.7 200 02:45 08.01.2020
946 Clear 26 1007 47 10000 6.2 210 02:27 08.01.2020
947 Clear 24 1008 53 10000 6.2 210 01:50 08.01.2020
948 Clear 23 1008 53 10000 6.7 210 01:25 08.01.2020
949 Clear 22 1007 64 10000 5.7 210 00:40 08.01.2020
950 Clear 21 1007 64 10000 5.7 210 00:20 08.01.2020
951 Clear 19 1007 77 10000 4.6 200 23:44 07.01.2020
952 Clear 18 1007 77 10000 4.6 200 23:20 07.01.2020
953 Clear 18 1007 77 10000 5.1 210 22:40 07.01.2020
954 Clear 18 1007 77 10000 5.1 200 22:20 07.01.2020
955 Clear 18 1007 77 10000 5.1 200 21:57 07.01.2020
956 Clear 18 1006 82 10000 4.6 200 21:38 07.01.2020
957 Clear 18 1006 82 10000 4.6 200 21:38 07.01.2020
958 Clear 18 1006 82 10000 4.6 200 21:20 07.01.2020
959 Clear 19 1006 82 10000 4.1 200 20:56 07.01.2020
960 Clear 19 1006 82 10000 4.1 200 20:38 07.01.2020
961 Clear 19 1006 82 10000 4.1 200 20:19 07.01.2020
962 Clear 19 1006 82 10000 4.1 200 19:38 07.01.2020
963 Clear 19 1006 82 10000 4.1 200 19:20 07.01.2020
964 Clear 19 1006 77 10000 4.6 190 18:58 07.01.2020
965 Clear 20 1006 77 10000 3.6 180 18:40 07.01.2020
966 Clear 20 1006 77 10000 3.6 180 18:19 07.01.2020
967 Clear 20 1006 72 10000 4.6 180 17:59 07.01.2020
968 Clear 20 1006 77 10000 7.2 190 17:39 07.01.2020
969 Clear 20 1006 77 10000 7.2 190 17:21 07.01.2020
970 Clear 21 1007 73 10000 6.7 200 16:56 07.01.2020
971 Clear 21 1007 73 10000 6.7 210 16:38 07.01.2020
972 Clear 21 1007 73 10000 6.7 210 16:19 07.01.2020
973 Clear 21 1007 64 10000 7.2 210 15:57 07.01.2020
974 Clear 21 1007 53 10000 5.1 220 15:38 07.01.2020
975 Clear 21 1007 53 10000 5.1 220 15:19 07.01.2020
976 Clear 21 1007 64 10000 3.6 220 14:42 07.01.2020
977 Clear 22 1007 64 10000 3.6 220 14:24 07.01.2020
978 Clear 22 1007 60 10000 4.1 210 13:57 07.01.2020
979 Clear 22 1007 49 10000 5.1 230 13:39 07.01.2020
980 Clear 22 1007 49 10000 5.1 230 13:18 07.01.2020
981 Clear 23 1006 44 10000 6.2 240 12:41 07.01.2020
982 Clear 23 1006 44 10000 6.2 240 12:19 07.01.2020
983 Clear 25 1006 47 10000 6.2 260 11:45 07.01.2020
984 Clear 26 1006 47 10000 6.2 260 11:24 07.01.2020
985 Clear 26 1005 44 10000 6.2 260 10:59 07.01.2020
986 Clear 26 1005 44 10000 6.2 260 10:41 07.01.2020
987 Clear 26 1005 42 10000 7.7 250 10:41 07.01.2020
988 Clear 26 1005 42 10000 7.7 250 10:23 07.01.2020
989 Clear 28 1005 30 10000 5.1 270 09:57 07.01.2020
990 Clear 29 1005 27 10000 5.7 260 09:38 07.01.2020
991 Clear 31 1005 27 10000 5.7 260 09:20 07.01.2020
992 Clear 29 1005 27 10000 6.2 270 08:42 07.01.2020
993 Clear 31 1005 27 10000 6.2 270 08:22 07.01.2020
994 Clear 31 1005 27 10000 6.2 270 07:54 07.01.2020
995 Clear 31 1006 25 10000 5.7 260 07:27 07.01.2020
996 Clear 31 1006 25 10000 6.7 250 06:53 07.01.2020
997 Clear 32 1006 22 10000 6.2 270 06:32 07.01.2020
998 Clear 31 1006 24 10000 4.6 230 05:49 07.01.2020
999 Clear 31 1007 27 10000 3.1 300 04:33 07.01.2020
1000 Clear 29 1007 28 10000 2.1 280 03:26 07.01.2020
1001 Clear 27 1007 31 10000 7.2 240 02:21 07.01.2020
1002 Clear 26 1007 33 10000 7.2 240 01:51 07.01.2020
1003 Clear 25 1008 36 10000 2.6 210 01:26 07.01.2020
1004 Clear 22 1007 35 10000 5.1 300 00:22 07.01.2020
1005 Clear 20 1007 35 10000 4.6 60 23:59 06.01.2020
1006 Clear 19 1007 45 10000 3.6 50 23:39 06.01.2020
1007 Clear 18 1007 45 10000 3.6 50 23:21 06.01.2020
1008 Clear 18 1007 63 10000 3.1 30 22:56 06.01.2020
1009 Clear 17 1007 77 10000 1.89 119 22:37 06.01.2020
1010 Clear 17 1007 77 10000 1.89 119 22:19 06.01.2020
1011 Clear 17 1007 77 10000 2.6 250 21:55 06.01.2020
1012 Clear 18 1007 72 10000 3.1 240 21:36 06.01.2020
1013 Clear 18 1007 72 10000 3.1 240 21:36 06.01.2020
1014 Clear 18 1007 72 10000 3.1 240 21:18 06.01.2020
1015 Clear 18 1007 72 10000 2.6 270 20:54 06.01.2020
1016 Clear 18 1007 68 10000 3.1 210 20:54 06.01.2020
1017 Clear 18 1007 67 10000 1.5 350 20:36 06.01.2020
1018 Clear 18 1007 67 10000 1.5 350 20:18 06.01.2020
1019 Clear 18 1007 72 10000 1.5 340 19:55 06.01.2020
1020 Clear 18 1007 67 10000 2.1 320 19:36 06.01.2020
1021 Clear 18 1007 67 10000 2.1 320 19:36 06.01.2020
1022 Clear 18 1007 67 10000 2.1 320 19:18 06.01.2020
1023 Clear 18 1008 67 10000 0.5 40 18:43 06.01.2020
1024 Clear 19 1008 63 10000 0.5 100 18:20 06.01.2020
1025 Clear 20 1009 49 10000 3.1 210 17:39 06.01.2020
1026 Clear 20 1009 49 10000 3.1 210 17:20 06.01.2020
1027 Clear 21 1009 49 10000 2.6 200 16:57 06.01.2020
1028 Clear 21 1009 46 10000 4.1 190 16:38 06.01.2020
1029 Clear 21 1009 46 10000 4.1 190 16:19 06.01.2020
1030 Clear 22 1010 53 10000 2.6 190 15:43 06.01.2020
1031 Clear 22 1010 46 10000 4.6 200 15:21 06.01.2020
1032 Clear 22 1010 49 10000 5.7 210 14:59 06.01.2020
1033 Clear 22 1010 49 10000 5.7 210 14:41 06.01.2020
1034 Clear 23 1010 47 10000 5.7 220 14:21 06.01.2020
1035 Clear 23 1010 47 10000 5.7 220 14:21 06.01.2020
1036 Clear 23 1010 41 10000 5.1 180 13:58 06.01.2020
1037 Clear 24 1010 39 10000 5.1 210 13:38 06.01.2020
1038 Clear 24 1010 39 10000 5.1 210 13:20 06.01.2020
1039 Clear 24 1010 36 10000 5.1 180 12:44 06.01.2020
1040 Clear 25 1009 30 10000 6.2 210 12:21 06.01.2020
1041 Clear 26 1009 30 10000 7.7 220 11:59 06.01.2020
1042 Clear 27 1009 27 10000 7.7 240 11:41 06.01.2020
1043 Clear 28 1009 27 10000 7.7 240 11:23 06.01.2020
1044 Clear 29 1009 25 10000 7.7 230 10:57 06.01.2020
1045 Clear 30 1009 24 10000 7.2 240 10:39 06.01.2020
1046 Clear 30 1009 24 10000 7.2 240 10:20 06.01.2020
1047 Clear 31 1009 25 10000 8.2 240 09:39 06.01.2020
1048 Clear 31 1009 25 10000 8.2 240 09:19 06.01.2020
1049 Clear 31 1009 29 10000 6.2 260 08:46 06.01.2020
1050 Clear 31 1009 31 10000 6.2 270 08:26 06.01.2020
1051 Clear 32 1009 27 10000 6.7 260 07:53 06.01.2020
1052 Clear 33 1009 22 10000 5.7 250 07:28 06.01.2020
1053 Clear 33 1009 21 10000 5.7 250 06:45 06.01.2020
1054 Clear 33 1010 27 10000 8.2 220 06:19 06.01.2020
1055 Clear 32 1010 24 10000 6.2 260 05:42 06.01.2020
1056 Clear 32 1010 22 10000 4.1 270 04:33 06.01.2020
1057 Clear 32 1011 25 10000 3.6 270 03:59 06.01.2020
1058 Clear 30 1011 25 10000 1 280 02:46 06.01.2020
1059 Clear 27 1011 28 10000 1.5 240 02:23 06.01.2020
1060 Clear 26 1011 31 10000 4.6 250 01:43 06.01.2020
1061 Clear 25 1011 36 10000 4.6 250 01:21 06.01.2020
1062 Clear 22 1011 56 10000 2.6 330 00:41 06.01.2020
1063 Clear 22 1011 56 10000 2.6 330 00:20 06.01.2020
1064 Clear 18 1011 76 10000 1.5 210 23:41 05.01.2020
1065 Clear 17 1011 76 10000 1.5 210 23:22 05.01.2020
1066 Clear 17 1011 82 10000 1 180 22:55 05.01.2020
1067 Clear 17 1011 82 10000 2.1 180 22:37 05.01.2020
1068 Clear 17 1011 82 10000 2.1 180 22:19 05.01.2020
1069 Clear 17 1011 71 10000 3.1 230 21:41 05.01.2020
1070 Clear 17 1011 71 10000 3.1 230 21:21 05.01.2020
1071 Clear 18 1011 67 10000 1 220 20:59 05.01.2020
1072 Clear 18 1011 67 10000 1.49 99 20:40 05.01.2020
1073 Clear 17 1011 67 10000 1.9 94 20:20 05.01.2020
1074 Clear 18 1011 63 10000 1.5 180 19:59 05.01.2020
1075 Clear 18 1011 63 10000 2.6 210 19:41 05.01.2020
1076 Clear 18 1011 63 10000 2.6 210 19:21 05.01.2020
1077 Clear 19 1011 59 10000 3.6 210 18:56 05.01.2020
1078 Clear 19 1011 55 10000 3.6 210 18:38 05.01.2020
1079 Clear 19 1011 55 10000 3.6 210 18:19 05.01.2020
1080 Clear 20 1012 49 10000 3.6 190 17:59 05.01.2020
1081 Clear 20 1012 46 10000 4.1 190 17:39 05.01.2020
1082 Clear 20 1012 46 10000 4.1 190 17:20 05.01.2020
1083 Clear 21 1012 46 10000 4.1 150 16:57 05.01.2020
1084 Clear 21 1012 46 10000 4.6 190 16:39 05.01.2020
1085 Clear 22 1012 43 10000 4.1 210 16:20 05.01.2020
1086 Clear 22 1012 43 10000 2.6 190 15:40 05.01.2020
1087 Clear 23 1012 43 10000 2.6 190 15:21 05.01.2020
1088 Clear 23 1013 41 10000 3.1 210 14:57 05.01.2020
1089 Clear 23 1013 41 10000 3.1 210 14:57 05.01.2020
1090 Clear 24 1012 36 10000 5.1 190 14:38 05.01.2020
1091 Clear 24 1012 36 10000 5.1 190 14:20 05.01.2020
1092 Clear 24 1012 34 10000 4.6 200 13:57 05.01.2020
1093 Clear 25 1012 31 10000 5.1 210 13:38 05.01.2020
1094 Clear 25 1012 31 10000 5.1 210 13:38 05.01.2020
1095 Clear 25 1012 31 10000 5.1 210 13:20 05.01.2020
1096 Clear 25 1012 30 10000 5.7 210 12:56 05.01.2020
1097 Clear 25 1012 30 10000 5.7 210 12:56 05.01.2020
1098 Clear 26 1011 30 10000 7.2 210 12:37 05.01.2020
1099 Clear 26 1011 30 10000 7.2 210 12:19 05.01.2020
1100 Clear 27 1011 28 10000 6.2 200 11:44 05.01.2020
1101 Clear 29 1011 25 10000 6.2 200 11:20 05.01.2020
1102 Clear 29 1010 23 10000 6.2 200 10:59 05.01.2020
1103 Clear 31 1010 18 10000 7.7 230 10:40 05.01.2020
1104 Clear 31 1010 18 10000 7.7 230 10:19 05.01.2020
1105 Clear 32 1010 18 10000 7.2 250 09:42 05.01.2020
1106 Clear 31 1010 17 10000 8.7 240 09:22 05.01.2020
1107 Clear 33 1010 14 10000 7.7 260 08:52 05.01.2020
1108 Clear 32 1011 14 10000 7.7 250 08:32 05.01.2020
1109 Clear 34 1011 15 10000 7.7 260 07:59 05.01.2020
1110 Clear 34 1011 15 10000 5.7 250 07:39 05.01.2020
1111 Clear 34 1011 15 10000 5.7 250 07:39 05.01.2020
1112 Clear 34 1011 15 10000 5.7 250 07:20 05.01.2020
1113 Clear 34 1012 15 10000 3.6 330 06:40 05.01.2020
1114 Clear 33 1013 16 10000 7.2 230 05:34 05.01.2020
1115 Clear 33 1013 16 10000 7.2 230 05:34 05.01.2020
1116 Clear 33 1013 18 10000 4.1 350 04:49 05.01.2020
1117 Clear 32 1013 18 10000 5.1 360 04:18 05.01.2020
1118 Clear 30 1014 25 10000 7.2 40 02:50 05.01.2020
1119 Clear 29 1014 24 10000 7.2 30 02:32 05.01.2020
1120 Clear 27 1014 26 10000 7.7 40 01:49 05.01.2020
1121 Clear 25 1014 27 10000 6.2 70 01:19 05.01.2020
1122 Clear 23 1014 33 10000 7.7 60 00:55 05.01.2020
1123 Clear 22 1014 27 10000 7.7 60 00:36 05.01.2020
1124 Clear 21 1014 27 10000 7.7 60 00:18 05.01.2020
1125 Clear 19 1014 45 10000 7.2 60 23:40 04.01.2020
1126 Clear 18 1014 45 10000 7.2 60 23:20 04.01.2020
1127 Clear 17 1014 48 10000 5.1 60 22:40 04.01.2020
1128 Clear 17 1014 48 10000 5.1 60 22:22 04.01.2020
1129 Clear 17 1014 48 10000 5.1 60 22:22 04.01.2020
1130 Clear 17 1014 48 10000 5.1 50 21:58 04.01.2020
1131 Clear 17 1014 48 10000 4.1 50 21:40 04.01.2020
1132 Clear 17 1014 48 10000 4.1 50 21:21 04.01.2020
1133 Clear 17 1014 45 10000 4.1 60 20:59 04.01.2020
1134 Clear 17 1014 42 10000 5.1 70 20:40 04.01.2020
1135 Clear 17 1014 42 10000 5.1 70 20:21 04.01.2020
1136 Clear 16 1014 42 10000 3.6 110 19:57 04.01.2020
1137 Clear 16 1014 42 10000 3.6 110 19:57 04.01.2020
1138 Clear 16 1015 48 10000 4.1 100 19:38 04.01.2020
1139 Clear 15 1015 48 10000 4.1 100 19:20 04.01.2020
1140 Clear 15 1015 71 10000 3.8 88 18:55 04.01.2020
1141 Clear 15 1015 76 10000 3.6 100 18:36 04.01.2020
1142 Clear 15 1015 76 10000 3.6 100 18:18 04.01.2020
1143 Clear 15 1016 71 10000 3.6 210 17:41 04.01.2020
1144 Clear 15 1016 71 10000 3.6 210 17:41 04.01.2020
1145 Clear 16 1016 71 10000 3.6 210 17:23 04.01.2020
1146 Clear 16 1016 63 10000 5.1 150 16:58 04.01.2020
1147 Clear 17 1016 63 10000 5.1 150 16:39 04.01.2020
1148 Clear 17 1016 63 10000 5.1 150 16:39 04.01.2020
1149 Clear 17 1016 63 10000 5.1 150 16:21 04.01.2020
1150 Clear 17 1016 59 10000 5.1 150 15:54 04.01.2020
1151 Clear 18 1017 59 10000 5.1 150 15:36 04.01.2020
1152 Clear 18 1017 59 10000 5.1 150 15:18 04.01.2020
1153 Clear 19 1017 52 10000 5.1 150 14:42 04.01.2020
1154 Clear 19 1017 52 10000 5.1 150 14:20 04.01.2020
1155 Clear 19 1017 52 10000 5.1 150 14:20 04.01.2020
1156 Clear 19 1017 52 10000 5.1 150 13:59 04.01.2020
1157 Clear 19 1017 52 10000 7.2 200 13:38 04.01.2020
1158 Clear 20 1017 52 10000 7.2 200 13:19 04.01.2020
1159 Clear 20 1016 46 10000 6.2 210 12:57 04.01.2020
1160 Clear 20 1017 52 10000 6.2 210 12:38 04.01.2020
1161 Clear 21 1017 52 10000 6.2 210 12:18 04.01.2020
1162 Clear 22 1016 35 10000 5.7 210 11:55 04.01.2020
1163 Clear 22 1016 38 10000 6.7 220 11:36 04.01.2020
1164 Clear 23 1016 38 10000 6.7 220 11:18 04.01.2020
1165 Clear 23 1016 35 10000 8.7 220 10:40 04.01.2020
1166 Clear 23 1016 35 10000 8.7 220 10:21 04.01.2020
1167 Clear 23 1016 33 10000 9.8 230 09:47 04.01.2020
1168 Clear 24 1016 27 10000 6.7 240 09:26 04.01.2020
1169 Clear 26 1016 21 10000 7.2 240 08:49 04.01.2020
1170 Clear 25 1017 12 10000 2.1 120 08:29 04.01.2020
1171 Clear 26 1017 14 10000 4.1 170 07:56 04.01.2020
1172 Clear 26 1017 12 10000 5.7 110 07:38 04.01.2020
1173 Clear 26 1018 14 10000 3.1 110 06:44 04.01.2020
1174 Clear 25 1018 19 10000 5.1 90 05:59 04.01.2020
1175 Clear 23 1019 20 10000 3.6 150 04:51 04.01.2020
1176 Clear 22 1020 19 10000 6.2 90 04:30 04.01.2020
1177 Clear 21 1021 26 10000 6.2 100 03:29 04.01.2020
1178 Clear 20 1021 29 10000 5.7 110 02:49 04.01.2020
1179 Clear 19 1021 34 10000 7.2 90 02:18 04.01.2020
1180 Clear 19 1021 34 10000 7.2 90 02:18 04.01.2020
1181 Clear 18 1021 39 10000 9.3 80 01:42 04.01.2020
1182 Clear 17 1022 41 10000 10.3 90 01:23 04.01.2020
1183 Clear 15 1022 47 10000 9.3 90 00:29 04.01.2020
1184 Clear 14 1022 50 10000 4.1 100 23:57 03.01.2020
1185 Clear 14 1022 50 10000 5.7 90 23:30 03.01.2020
1186 Clear 14 1022 50 10000 5.7 90 23:30 03.01.2020
1187 Clear 13 1022 50 10000 4.1 120 22:59 03.01.2020
1188 Clear 12 1021 50 10000 5.1 120 22:40 03.01.2020
1189 Clear 13 1021 50 10000 4.6 120 22:19 03.01.2020
1190 Clear 13 1021 50 10000 4.6 120 21:57 03.01.2020
1191 Clear 13 1021 47 10000 4.6 150 21:37 03.01.2020
1192 Clear 13 1021 47 10000 4.6 150 21:18 03.01.2020
1193 Clear 13 1020 47 10000 5.1 140 20:54 03.01.2020
1194 Clear 13 1020 47 10000 5.1 140 20:54 03.01.2020
1195 Clear 13 1020 43 10000 3.6 140 20:36 03.01.2020
1196 Clear 13 1020 43 10000 3.6 140 20:18 03.01.2020
1197 Clear 14 1020 41 10000 5.1 130 19:42 03.01.2020
1198 Clear 14 1020 41 10000 5.1 130 19:23 03.01.2020
1199 Clear 15 1020 38 10000 6.7 110 18:54 03.01.2020
1200 Clear 15 1020 38 10000 7.2 160 18:36 03.01.2020
1201 Clear 15 1020 38 10000 7.2 160 18:18 03.01.2020
1202 Clear 15 1020 44 10000 6.7 110 17:41 03.01.2020
1203 Clear 15 1020 44 10000 6.7 110 17:21 03.01.2020
1204 Clear 15 1020 48 10000 6.2 190 16:44 03.01.2020
1205 Clear 15 1020 48 10000 6.2 190 16:25 03.01.2020
1206 Clear 16 1020 48 10000 6.2 190 16:00 03.01.2020
1207 Clear 17 1020 45 10000 6.7 190 15:41 03.01.2020
1208 Clear 17 1020 45 10000 6.7 190 15:19 03.01.2020
1209 Clear 18 1019 42 10000 6.7 190 14:40 03.01.2020
1210 Clear 18 1019 42 10000 6.7 190 14:40 03.01.2020
1211 Clear 18 1019 42 10000 6.7 190 14:20 03.01.2020
1212 Clear 18 1018 42 10000 7.2 180 13:57 03.01.2020
1213 Clear 18 1018 42 10000 7.2 210 13:39 03.01.2020
1214 Clear 18 1018 42 10000 7.2 210 13:39 03.01.2020
1215 Clear 18 1018 42 10000 7.2 210 13:20 03.01.2020
1216 Clear 19 1018 39 10000 7.2 190 12:41 03.01.2020
1217 Clear 19 1017 40 10000 7.2 190 12:22 03.01.2020
1218 Clear 20 1017 42 10000 7.2 190 11:53 03.01.2020
1219 Clear 20 1017 37 10000 7.2 200 11:34 03.01.2020
1220 Clear 21 1016 40 10000 7.2 200 10:58 03.01.2020
1221 Clear 21 1016 40 10000 9.8 230 10:39 03.01.2020
1222 Clear 21 1016 40 10000 9.8 230 10:21 03.01.2020
1223 Clear 22 1016 37 10000 9.8 230 09:55 03.01.2020
1224 Clear 21 1016 35 10000 9.8 230 09:37 03.01.2020
1225 Clear 22 1016 35 10000 9.8 230 09:19 03.01.2020
1226 Clear 22 1017 37 10000 9.3 230 08:44 03.01.2020
1227 Clear 22 1017 37 10000 8.7 230 08:22 03.01.2020
1228 Clear 22 1017 35 10000 9.3 240 07:43 03.01.2020
1229 Clear 22 1017 35 10000 8.7 240 07:19 03.01.2020
1230 Clear 22 1017 37 10000 8.7 230 06:59 03.01.2020
1231 Clear 21 1018 37 10000 9.3 210 06:40 03.01.2020
1232 Clear 21 1018 37 10000 9.3 210 06:22 03.01.2020
1233 Clear 20 1018 35 10000 7.2 200 04:45 03.01.2020
1234 Clouds 20 1019 42 10000 7.7 210 03:38 03.01.2020
1235 Rain 19 1019 59 10000 8.7 200 02:53 03.01.2020
1236 Rain 18 1019 55 10000 6.2 190 01:50 03.01.2020
1237 Rain 17 1019 55 10000 6.2 190 01:18 03.01.2020
1238 Clouds 16 1018 63 10000 5.1 180 00:33 03.01.2020
1239 Rain 15 1018 72 10000 6.2 190 23:58 02.01.2020
1240 Clouds 14 1018 82 10000 6.2 190 23:39 02.01.2020
1241 Clouds 14 1018 82 10000 6.2 190 23:20 02.01.2020
1242 Rain 13 1018 82 10000 6.2 190 22:58 02.01.2020
1243 Rain 13 1018 82 10000 4.6 190 22:39 02.01.2020
1244 Rain 13 1018 82 10000 4.6 190 22:19 02.01.2020
1245 Rain 13 1018 87 10000 3.6 210 21:55 02.01.2020
1246 Clouds 13 1017 82 10000 3.6 190 21:36 02.01.2020
1247 Clouds 13 1017 82 10000 3.6 190 21:18 02.01.2020
1248 Clouds 14 1016 82 10000 4.6 170 20:40 02.01.2020
1249 Clouds 14 1016 82 10000 4.6 170 20:21 02.01.2020
1250 Rain 15 1016 82 10000 7.2 200 19:56 02.01.2020
1251 Rain 15 1016 82 10000 7.2 200 19:56 02.01.2020
1252 Clouds 15 1016 82 10000 6.2 190 19:38 02.01.2020
1253 Clouds 15 1016 82 10000 6.2 190 19:19 02.01.2020
1254 Clouds 15 1016 82 10000 6.7 190 18:59 02.01.2020
1255 Rain 16 1016 63 10000 7.7 180 18:40 02.01.2020
1256 Rain 16 1016 63 10000 7.7 180 18:22 02.01.2020
1257 Rain 16 1016 63 10000 7.7 180 18:22 02.01.2020
1258 Rain 17 1016 59 10000 7.2 220 17:57 02.01.2020
1259 Clouds 18 1016 59 10000 7.7 220 17:37 02.01.2020
1260 Clouds 18 1016 59 10000 7.7 220 17:19 02.01.2020
1261 Clouds 18 1016 59 10000 6.2 220 16:57 02.01.2020
1262 Clouds 18 1016 55 10000 7.7 230 16:38 02.01.2020
1263 Clouds 18 1016 55 10000 7.7 230 16:20 02.01.2020
1264 Rain 18 1015 68 10000 7.2 220 15:45 02.01.2020
1265 Rain 18 1015 63 10000 7.2 220 15:24 02.01.2020
1266 Rain 18 1015 63 10000 7.2 220 14:59 02.01.2020
1267 Rain 19 1015 59 10000 7.2 220 14:39 02.01.2020
1268 Rain 19 1015 59 10000 7.2 220 14:39 02.01.2020
1269 Rain 19 1015 59 10000 6.2 220 14:21 02.01.2020
1270 Rain 19 1015 59 10000 6.2 220 13:58 02.01.2020
1271 Rain 19 1015 59 10000 6.2 220 13:40 02.01.2020
1272 Rain 19 1015 59 10000 6.2 220 13:19 02.01.2020
1273 Clouds 20 1014 60 10000 8.7 230 12:43 02.01.2020
1274 Clouds 20 1014 60 10000 8.7 230 12:23 02.01.2020
1275 Clouds 21 1013 43 10000 8.7 230 11:42 02.01.2020
1276 Clouds 22 1013 43 10000 8.7 230 11:23 02.01.2020
1277 Clouds 22 1013 46 10000 9.8 230 10:46 02.01.2020
1278 Clouds 23 1013 40 10000 9.3 230 10:28 02.01.2020
1279 Clouds 23 1012 41 10000 9.8 220 09:58 02.01.2020
1280 Clouds 23 1012 44 10000 10.8 230 09:36 02.01.2020
1281 Clouds 23 1012 47 10000 10.3 220 08:59 02.01.2020
1282 Clouds 23 1012 50 10000 9.8 230 08:40 02.01.2020
1283 Clouds 24 1012 50 10000 9.8 230 08:21 02.01.2020
1284 Clouds 23 1013 49 10000 9.3 230 07:47 02.01.2020
1285 Clouds 23 1013 53 10000 9.8 230 07:27 02.01.2020
1286 Clouds 23 1013 56 10000 9.3 230 06:41 02.01.2020
1287 Clouds 23 1013 56 10000 7.7 230 05:40 02.01.2020
1288 Clouds 23 1013 53 10000 8.2 240 04:35 02.01.2020
1289 Clouds 23 1013 53 10000 7.7 240 03:44 02.01.2020
1290 Clouds 23 1013 47 10000 6.2 200 02:21 02.01.2020
1291 Clouds 22 1013 49 10000 7.7 230 01:53 02.01.2020
1292 Clouds 22 1013 49 10000 7.7 230 01:53 02.01.2020
1293 Clouds 22 1013 53 10000 7.7 200 01:25 02.01.2020
1294 Clear 21 1013 64 10000 6.2 200 00:45 02.01.2020
1295 Clear 20 1013 68 10000 6.7 190 00:26 02.01.2020
1296 Clouds 18 1012 72 10000 7.7 190 23:43 01.01.2020
1297 Clouds 18 1012 72 10000 7.7 190 23:21 01.01.2020
1298 Clear 17 1012 77 10000 5.1 200 22:39 01.01.2020
1299 Clear 17 1012 77 10000 5.1 200 22:39 01.01.2020
1300 Clear 17 1012 77 10000 5.1 200 22:39 01.01.2020
1301 Clear 17 1012 77 10000 5.1 200 22:20 01.01.2020
1302 Clear 17 1012 77 10000 5.1 200 22:20 01.01.2020
1303 Clear 17 1011 72 10000 6.7 200 21:58 01.01.2020
1304 Clear 17 1011 72 10000 6.7 190 21:39 01.01.2020
1305 Clear 17 1011 72 10000 6.7 190 21:20 01.01.2020
1306 Clear 17 1011 72 10000 6.7 190 20:56 01.01.2020
1307 Clear 18 1011 68 10000 7.2 200 20:38 01.01.2020
1308 Clear 18 1011 68 10000 7.2 200 20:38 01.01.2020
1309 Clouds 18 1011 68 10000 7.2 200 20:19 01.01.2020
1310 Clouds 18 1011 68 10000 7.7 200 19:55 01.01.2020
1311 Clouds 18 1011 68 10000 7.7 190 19:37 01.01.2020
1312 Clouds 18 1011 68 10000 7.7 190 19:19 01.01.2020
1313 Clouds 19 1011 68 10000 7.7 190 18:56 01.01.2020
1314 Clouds 19 1011 68 10000 7.7 200 18:36 01.01.2020
1315 Clouds 19 1011 68 10000 7.7 200 18:18 01.01.2020
1316 Clouds 19 1011 77 10000 5.7 200 17:56 01.01.2020
1317 Clouds 19 1011 77 10000 4.1 210 17:38 01.01.2020
1318 Clouds 19 1011 77 10000 4.1 210 17:19 01.01.2020
1319 Clouds 20 1012 72 10000 4.6 210 16:42 01.01.2020
1320 Clouds 20 1012 72 10000 4.6 210 16:24 01.01.2020
1321 Clouds 20 1011 72 10000 5.1 220 15:58 01.01.2020
1322 Clouds 20 1012 72 10000 6.2 210 15:40 01.01.2020
1323 Clouds 20 1012 72 10000 6.2 210 15:40 01.01.2020
1324 Clouds 20 1012 72 10000 6.2 210 15:22 01.01.2020
1325 Clouds 20 1012 68 10000 6.7 210 14:59 01.01.2020
1326 Clouds 20 1012 72 10000 5.7 200 14:40 01.01.2020
1327 Clouds 21 1012 68 10000 6.7 220 14:22 01.01.2020
1328 Clouds 21 1012 68 10000 7.2 220 13:56 01.01.2020
1329 Clouds 21 1011 56 10000 7.2 220 13:37 01.01.2020
1330 Clouds 21 1011 56 10000 7.2 220 13:19 01.01.2020
1331 Clouds 22 1011 53 10000 8.2 230 12:57 01.01.2020
1332 Clouds 22 1011 50 10000 8.2 230 12:39 01.01.2020
1333 Clouds 23 1011 50 10000 8.2 230 12:19 01.01.2020
1334 Clouds 24 1010 50 10000 7.7 250 11:43 01.01.2020
1335 Clouds 25 1010 39 10000 7.7 230 11:23 01.01.2020
1336 Clouds 26 1010 39 10000 7.7 230 10:59 01.01.2020
1337 Clouds 26 1010 39 10000 7.7 230 10:41 01.01.2020
1338 Clouds 26 1010 39 10000 8.2 210 10:21 01.01.2020
1339 Clouds 26 1010 39 10000 8.2 210 10:21 01.01.2020
1340 Clouds 27 1009 42 10000 7.2 240 09:58 01.01.2020
1341 Clouds 27 1009 42 10000 7.2 240 09:37 01.01.2020
1342 Clouds 27 1009 42 10000 7.2 240 09:18 01.01.2020
1343 Clouds 28 1010 39 10000 8.2 230 08:55 01.01.2020
1344 Clouds 29 1010 37 10000 9.3 230 08:36 01.01.2020
1345 Clouds 29 1010 37 10000 9.3 230 08:36 01.01.2020
1346 Clear 29 1010 37 10000 9.3 230 08:18 01.01.2020
1347 Clear 29 1010 35 10000 7.7 230 07:51 01.01.2020
1348 Clear 29 1010 31 10000 8.2 230 07:32 01.01.2020
1349 Clear 30 1010 45 10000 7.2 270 06:44 01.01.2020
1350 Clear 30 1010 45 10000 7.2 270 06:20 01.01.2020
1351 Clouds 30 1011 35 10000 6.2 250 05:21 01.01.2020
1352 Clouds 27 1011 34 10000 9.3 240 03:43 01.01.2020
1353 Clouds 27 1012 32 10000 4.6 240 03:22 01.01.2020
1354 Clouds 27 1012 34 10000 9.3 240 02:56 01.01.2020
1355 Clouds 26 1012 39 10000 3.6 140 02:33 01.01.2020
1356 Clouds 24 1012 44 10000 4.1 140 01:45 01.01.2020
1357 Clouds 23 1013 43 10000 4.6 70 01:24 01.01.2020
1358 Clouds 22 1013 46 10000 3.1 80 00:57 01.01.2020
1359 Clouds 21 1013 56 10000 2.1 90 00:37 01.01.2020
1360 Clouds 21 1013 56 10000 2.1 90 00:19 01.01.2020
1361 Clouds 18 1013 77 10000 2.6 220 23:40 31.12.2019
1362 Clouds 18 1013 77 10000 2.6 220 23:21 31.12.2019
1363 Clouds 17 1013 77 10000 4.6 220 22:57 31.12.2019
1364 Clouds 16 1013 77 10000 4.1 230 22:38 31.12.2019
1365 Clouds 16 1013 77 10000 4.1 230 22:18 31.12.2019
1366 Clouds 16 1012 77 10000 4.1 220 21:54 31.12.2019
1367 Clouds 16 1012 77 10000 4.1 220 21:36 31.12.2019
1368 Clouds 16 1012 77 10000 4.1 220 21:18 31.12.2019
1369 Clouds 17 1012 77 10000 5.1 200 20:40 31.12.2019
1370 Clouds 17 1012 77 10000 5.1 200 20:21 31.12.2019
1371 Clouds 17 1012 82 10000 3.6 200 19:59 31.12.2019
1372 Clouds 17 1012 82 10000 3.1 190 19:40 31.12.2019
1373 Clouds 17 1012 82 10000 3.1 190 19:22 31.12.2019
1374 Clouds 17 1013 82 10000 3.1 210 18:57 31.12.2019
1375 Clouds 18 1013 82 10000 3.6 210 18:39 31.12.2019
1376 Clouds 18 1013 82 10000 3.6 210 18:19 31.12.2019
1377 Clouds 18 1013 77 10000 4.6 190 17:56 31.12.2019
1378 Clouds 18 1013 72 10000 4.6 190 17:37 31.12.2019
1379 Clouds 18 1013 72 10000 4.6 190 17:19 31.12.2019
1380 Clouds 19 1014 72 10000 5.7 200 16:56 31.12.2019
1381 Clouds 19 1014 72 10000 5.7 210 16:37 31.12.2019
1382 Clouds 19 1014 72 10000 5.7 210 16:19 31.12.2019
1383 Clouds 19 1014 68 10000 5.7 210 15:56 31.12.2019
1384 Clouds 19 1014 68 10000 6.7 200 15:38 31.12.2019
1385 Clouds 19 1014 68 10000 6.7 200 15:38 31.12.2019
1386 Clouds 19 1014 68 10000 6.7 200 15:20 31.12.2019
1387 Clouds 20 1014 68 10000 7.2 190 14:56 31.12.2019
1388 Clouds 20 1015 72 10000 4.1 180 14:37 31.12.2019
1389 Clouds 20 1015 72 10000 4.1 180 14:19 31.12.2019
1390 Clouds 20 1015 72 10000 5.7 200 13:56 31.12.2019
1391 Clouds 20 1014 68 10000 6.2 210 13:38 31.12.2019
1392 Clouds 20 1014 68 10000 6.2 210 13:38 31.12.2019
1393 Clouds 21 1014 68 10000 6.2 210 13:20 31.12.2019
1394 Clouds 21 1014 56 10000 6.2 230 12:55 31.12.2019
1395 Clouds 22 1014 49 10000 7.2 220 12:37 31.12.2019
1396 Clouds 22 1014 49 10000 7.2 220 12:19 31.12.2019
1397 Clouds 23 1013 44 10000 6.7 230 11:55 31.12.2019
1398 Clouds 23 1013 44 10000 6.7 230 11:55 31.12.2019
1399 Clouds 23 1013 38 10000 7.7 230 11:37 31.12.2019
1400 Clouds 23 1013 38 10000 7.7 230 11:37 31.12.2019
1401 Clear 24 1013 38 10000 7.7 230 11:19 31.12.2019
1402 Clear 24 1013 38 10000 7.7 230 11:19 31.12.2019
1403 Clear 25 1013 36 10000 8.7 230 10:55 31.12.2019
1404 Clear 25 1013 32 10000 8.2 230 10:37 31.12.2019
1405 Clear 26 1013 32 10000 8.2 230 10:19 31.12.2019
1406 Clear 26 1013 28 10000 9.3 220 09:57 31.12.2019
1407 Clear 26 1013 30 10000 8.7 250 09:38 31.12.2019
1408 Clear 26 1013 30 10000 8.7 250 09:18 31.12.2019
1409 Clear 26 1013 28 10000 8.7 230 09:18 31.12.2019
1410 Clear 27 1013 30 10000 8.2 230 08:42 31.12.2019
1411 Clear 27 1013 30 10000 8.2 230 08:42 31.12.2019
1412 Clear 28 1013 30 10000 8.2 230 08:22 31.12.2019
1413 Clear 28 1013 35 10000 6.7 260 07:56 31.12.2019
1414 Clear 29 1014 37 10000 7.7 250 07:37 31.12.2019
1415 Clear 29 1014 37 10000 7.7 250 07:18 31.12.2019
1416 Clear 29 1014 30 10000 6.7 250 06:29 31.12.2019
1417 Clear 29 1015 25 10000 6.7 220 04:58 31.12.2019
1418 Clear 28 1016 28 10000 2.1 210 04:25 31.12.2019
1419 Clear 25 1017 36 10000 2.6 180 02:58 31.12.2019
1420 Clear 23 1017 40 10000 4.6 100 02:21 31.12.2019
1421 Clear 23 1017 40 10000 4.6 100 02:21 31.12.2019
1422 Clear 22 1017 40 10000 6.7 220 01:50 31.12.2019
1423 Clear 21 1017 49 10000 5.7 100 01:31 31.12.2019
1424 Clear 20 1017 52 10000 6.7 90 00:49 31.12.2019
1425 Clear 19 1017 52 10000 4.1 90 00:26 31.12.2019
1426 Clear 18 1017 55 10000 3.6 120 23:58 30.12.2019
1427 Clear 17 1017 59 10000 3.1 110 23:40 30.12.2019
1428 Clear 17 1017 59 10000 3.1 110 23:22 30.12.2019
1429 Clear 16 1017 59 10000 5.1 90 22:59 30.12.2019
1430 Clear 15 1017 67 10000 5.1 90 22:41 30.12.2019
1431 Clear 15 1017 67 10000 5.1 90 22:21 30.12.2019
1432 Clear 15 1016 76 10000 5.1 140 21:57 30.12.2019
1433 Clear 14 1016 71 10000 2.6 210 21:39 30.12.2019
1434 Clear 14 1016 71 10000 2.6 210 21:20 30.12.2019
1435 Clear 14 1016 67 10000 5.1 140 20:58 30.12.2019
1436 Clear 15 1016 67 10000 5.1 140 20:40 30.12.2019
1437 Clear 15 1016 67 10000 5.1 140 20:40 30.12.2019
1438 Clear 15 1016 67 10000 5.1 140 20:20 30.12.2019
1439 Clear 15 1016 67 10000 4.6 210 19:58 30.12.2019
1440 Clear 15 1016 67 10000 4.6 190 19:39 30.12.2019
1441 Clear 15 1016 67 10000 4.6 190 19:39 30.12.2019
1442 Clear 15 1016 67 10000 4.6 190 19:19 30.12.2019
1443 Clear 16 1016 67 10000 5.1 190 18:59 30.12.2019
1444 Clear 16 1016 63 10000 6.2 190 18:40 30.12.2019
1445 Clear 16 1016 63 10000 6.2 190 18:20 30.12.2019
1446 Clear 17 1017 67 10000 5.7 190 17:56 30.12.2019
1447 Clear 17 1017 67 10000 5.7 190 17:56 30.12.2019
1448 Clear 17 1017 68 10000 5.1 200 17:38 30.12.2019
1449 Clear 17 1017 68 10000 5.1 200 17:19 30.12.2019
1450 Clear 18 1017 68 10000 4.1 200 16:58 30.12.2019
1451 Clear 18 1017 68 10000 3.6 190 16:37 30.12.2019
1452 Clear 18 1017 68 10000 3.6 190 16:18 30.12.2019
1453 Clear 19 1017 63 10000 5.7 190 15:55 30.12.2019
1454 Clear 19 1017 63 10000 5.1 190 15:37 30.12.2019
1455 Clear 19 1017 63 10000 5.1 190 15:18 30.12.2019
1456 Clear 19 1017 63 10000 8.2 200 14:42 30.12.2019
1457 Clear 19 1017 60 10000 7.7 210 14:20 30.12.2019
1458 Clear 20 1017 56 10000 6.7 210 13:56 30.12.2019
1459 Clear 20 1017 56 10000 7.2 210 13:37 30.12.2019
1460 Clear 20 1017 56 10000 7.2 210 13:19 30.12.2019
1461 Clear 20 1017 52 10000 6.2 200 12:43 30.12.2019
1462 Clear 21 1017 52 10000 6.2 200 12:22 30.12.2019
1463 Clear 21 1017 49 10000 6.2 200 11:59 30.12.2019
1464 Clear 22 1016 46 10000 6.2 200 11:40 30.12.2019
1465 Clear 22 1016 46 10000 6.2 200 11:19 30.12.2019
1466 Clear 22 1016 46 10000 6.2 200 11:19 30.12.2019
1467 Clear 23 1016 46 10000 6.2 200 10:45 30.12.2019
1468 Clear 23 1016 41 10000 6.2 200 10:22 30.12.2019
1469 Clear 23 1016 41 10000 6.2 200 09:59 30.12.2019
1470 Clear 24 1016 41 10000 6.2 200 09:41 30.12.2019
1471 Clear 24 1016 41 10000 9.3 230 09:20 30.12.2019
1472 Clear 24 1016 36 10000 9.3 230 08:54 30.12.2019
1473 Clear 24 1017 33 10000 9.3 230 08:36 30.12.2019
1474 Clear 24 1017 33 10000 9.3 230 08:36 30.12.2019
1475 Clear 24 1017 33 10000 9.3 230 08:18 30.12.2019
1476 Clear 25 1017 36 10000 7.7 230 07:39 30.12.2019
1477 Clear 25 1017 31 10000 8.7 210 06:52 30.12.2019
1478 Clear 23 1017 31 10000 6.7 220 04:58 30.12.2019
1479 Clear 23 1018 33 10000 9.3 230 03:57 30.12.2019
1480 Clouds 22 1018 37 10000 5.1 200 02:58 30.12.2019
1481 Clouds 22 1018 37 10000 5.7 170 02:40 30.12.2019
1482 Clouds 20 1018 43 10000 4.1 170 01:55 30.12.2019
1483 Clear 20 1018 45 10000 4.6 140 01:21 30.12.2019
1484 Clear 19 1018 48 10000 6.2 150 00:45 30.12.2019
1485 Clouds 19 1017 55 10000 5.1 170 00:19 30.12.2019
1486 Clouds 17 1017 67 10000 5.1 180 23:39 29.12.2019
1487 Clouds 17 1017 67 10000 5.1 180 23:21 29.12.2019
1488 Clouds 16 1016 67 10000 3.6 180 22:54 29.12.2019
1489 Clouds 15 1016 76 10000 3.6 170 22:36 29.12.2019
1490 Clouds 15 1016 76 10000 3.6 170 22:36 29.12.2019
1491 Clouds 15 1016 76 10000 3.6 170 22:36 29.12.2019
1492 Clouds 15 1016 76 10000 3.6 170 22:18 29.12.2019
1493 Clouds 16 1016 72 10000 4.1 190 21:42 29.12.2019
1494 Clouds 16 1016 72 10000 4.1 190 21:21 29.12.2019
1495 Clouds 16 1016 67 10000 4.1 190 20:57 29.12.2019
1496 Clouds 17 1016 72 10000 5.1 180 20:39 29.12.2019
1497 Clouds 17 1016 72 10000 5.1 180 20:20 29.12.2019
1498 Clouds 17 1016 72 10000 5.1 180 20:20 29.12.2019
1499 Clouds 17 1016 72 10000 5.1 180 20:20 29.12.2019
1500 Clouds 17 1016 68 10000 7.2 190 19:59 29.12.2019
1501 Clouds 18 1015 68 10000 5.7 190 19:40 29.12.2019
1502 Clouds 18 1015 68 10000 5.7 190 19:21 29.12.2019
1503 Clouds 18 1015 72 10000 5.1 190 18:57 29.12.2019
1504 Clouds 19 1015 72 10000 4.6 190 18:38 29.12.2019
1505 Clouds 19 1015 72 10000 4.6 190 18:19 29.12.2019
1506 Clouds 19 1015 77 10000 4.6 190 17:57 29.12.2019
1507 Clouds 19 1015 77 10000 5.1 190 17:39 29.12.2019
1508 Clouds 19 1015 77 10000 5.1 190 17:20 29.12.2019
1509 Clouds 19 1015 77 10000 5.1 190 16:56 29.12.2019
1510 Clouds 19 1015 72 10000 5.7 210 16:37 29.12.2019
1511 Clouds 19 1015 72 10000 5.7 210 16:37 29.12.2019
1512 Clouds 20 1015 72 10000 5.7 210 16:19 29.12.2019
1513 Clouds 20 1015 72 10000 5.7 200 15:56 29.12.2019
1514 Clouds 20 1015 68 10000 5.1 210 15:38 29.12.2019
1515 Clouds 20 1015 68 10000 5.1 210 15:19 29.12.2019
1516 Clouds 20 1015 68 10000 3.6 250 14:56 29.12.2019
1517 Rain 20 1015 68 10000 4.1 230 14:37 29.12.2019
1518 Rain 20 1015 68 10000 4.1 230 14:18 29.12.2019
1519 Rain 21 1015 72 10000 6.7 220 13:55 29.12.2019
1520 Rain 21 1015 72 10000 6.7 220 13:55 29.12.2019
1521 Rain 21 1014 60 10000 6.7 230 13:37 29.12.2019
1522 Rain 21 1014 60 10000 6.7 230 13:18 29.12.2019
1523 Rain 21 1014 68 10000 6.7 240 12:43 29.12.2019
1524 Rain 22 1014 60 10000 6.7 240 12:25 29.12.2019
1525 Rain 22 1014 60 10000 6.7 240 12:25 29.12.2019
1526 Rain 22 1013 60 10000 7.2 220 11:56 29.12.2019
1527 Clouds 23 1013 56 10000 8.7 230 11:37 29.12.2019
1528 Clouds 23 1013 56 10000 8.7 230 11:37 29.12.2019
1529 Clouds 23 1013 56 10000 8.7 230 11:37 29.12.2019
1530 Clouds 23 1013 56 10000 8.7 230 11:19 29.12.2019
1531 Clouds 24 1013 53 10000 7.7 260 10:42 29.12.2019
1532 Clouds 24 1013 53 10000 7.7 260 10:22 29.12.2019
1533 Clouds 24 1013 50 10000 8.2 260 09:56 29.12.2019
1534 Clouds 24 1013 53 10000 8.2 250 09:38 29.12.2019
1535 Clouds 24 1013 53 10000 8.2 250 09:19 29.12.2019
1536 Clouds 24 1013 50 10000 7.7 250 08:46 29.12.2019
1537 Clouds 25 1013 50 10000 8.7 250 08:24 29.12.2019
1538 Clouds 24 1013 50 10000 8.7 250 07:54 29.12.2019
1539 Clouds 25 1013 47 10000 7.7 260 07:28 29.12.2019
1540 Clouds 24 1013 57 10000 8.2 260 06:53 29.12.2019
1541 Clouds 25 1013 47 10000 7.7 240 06:23 29.12.2019
1542 Clouds 25 1013 47 10000 8.2 240 05:50 29.12.2019
1543 Clouds 25 1013 53 10000 7.7 250 04:35 29.12.2019
1544 Clouds 24 1013 57 10000 8.2 240 03:40 29.12.2019
1545 Clouds 24 1013 57 10000 8.2 240 03:19 29.12.2019
1546 Clouds 24 1012 60 10000 4.6 250 02:19 29.12.2019
1547 Clouds 23 1013 64 10000 2.6 250 01:31 29.12.2019
1548 Clouds 23 1013 64 10000 2.6 250 01:31 29.12.2019
1549 Clouds 21 1013 68 10000 3.1 240 00:51 29.12.2019
1550 Clouds 20 1013 72 10000 3.6 210 00:27 29.12.2019
1551 Clouds 19 1013 77 10000 5.7 240 23:57 28.12.2019
1552 Clouds 18 1012 88 10000 3.1 190 23:39 28.12.2019
1553 Clouds 17 1012 93 10000 2.6 190 23:18 28.12.2019
1554 Clouds 17 1012 93 10000 3.1 190 22:39 28.12.2019
1555 Clouds 17 1012 93 10000 3.1 190 22:19 28.12.2019
1556 Clouds 17 1012 88 10000 3.1 180 21:57 28.12.2019
1557 Clouds 17 1012 82 10000 3.1 180 21:38 28.12.2019
1558 Clouds 17 1012 82 10000 3.1 180 21:20 28.12.2019
1559 Clouds 18 1012 82 10000 3.6 210 20:55 28.12.2019
1560 Clouds 18 1012 82 10000 2.6 160 20:36 28.12.2019
1561 Clouds 18 1012 82 10000 2.6 160 20:18 28.12.2019
1562 Clouds 18 1012 82 10000 3.6 180 19:54 28.12.2019
1563 Clouds 18 1013 77 10000 4.6 210 19:36 28.12.2019
1564 Clouds 19 1013 77 10000 4.6 210 19:18 28.12.2019
1565 Clouds 19 1013 77 10000 5.1 200 18:43 28.12.2019
1566 Clouds 19 1013 77 10000 5.1 200 18:21 28.12.2019
1567 Clouds 19 1013 82 10000 4.6 210 17:59 28.12.2019
1568 Clouds 19 1013 82 10000 4.1 210 17:41 28.12.2019
1569 Clouds 19 1013 82 10000 4.1 210 17:21 28.12.2019
1570 Clouds 19 1013 77 10000 3.1 190 16:55 28.12.2019
1571 Clear 19 1013 77 10000 3.6 210 16:36 28.12.2019
1572 Clear 19 1013 77 10000 3.6 210 16:36 28.12.2019
1573 Clear 19 1013 77 10000 3.6 210 16:18 28.12.2019
1574 Clear 20 1013 72 10000 4.1 210 15:41 28.12.2019
1575 Clear 20 1013 72 10000 4.1 210 15:21 28.12.2019
1576 Clear 20 1013 68 10000 4.6 210 14:48 28.12.2019
1577 Clear 20 1013 68 10000 4.6 210 14:26 28.12.2019
1578 Clear 20 1014 68 10000 4.6 230 13:58 28.12.2019
1579 Clear 21 1014 73 10000 5.1 220 13:39 28.12.2019
1580 Clouds 21 1014 64 10000 4.6 240 13:20 28.12.2019
1581 Clouds 21 1014 64 10000 5.7 240 12:56 28.12.2019
1582 Clouds 22 1013 56 10000 5.7 240 12:37 28.12.2019
1583 Clouds 22 1013 56 10000 5.7 240 12:19 28.12.2019
1584 Clouds 24 1013 44 10000 5.1 240 11:40 28.12.2019
1585 Clear 25 1013 44 10000 5.1 240 11:21 28.12.2019
1586 Clear 25 1012 44 10000 6.7 240 10:55 28.12.2019
1587 Clear 26 1013 44 10000 6.7 230 10:36 28.12.2019
1588 Clear 26 1013 44 10000 6.7 230 10:18 28.12.2019
1589 Clear 26 1013 44 10000 6.7 230 10:18 28.12.2019
1590 Clear 27 1013 44 10000 6.7 240 09:45 28.12.2019
1591 Clear 26 1013 44 10000 7.2 240 09:23 28.12.2019
1592 Clear 27 1013 42 10000 6.7 230 08:57 28.12.2019
1593 Clear 27 1014 44 10000 7.7 230 08:38 28.12.2019
1594 Clear 27 1014 44 10000 7.7 230 08:19 28.12.2019
1595 Clear 27 1014 48 10000 7.2 260 07:41 28.12.2019
1596 Clear 27 1014 47 10000 7.2 240 06:55 28.12.2019
1597 Clear 27 1015 44 10000 7.2 270 05:40 28.12.2019
1598 Clear 26 1016 41 10000 5.1 200 03:48 28.12.2019
1599 Clear 24 1016 50 10000 5.7 190 02:50 28.12.2019
1600 Clear 22 1016 49 10000 5.7 200 02:19 28.12.2019
1601 Clear 22 1016 49 10000 7.2 190 01:50 28.12.2019
1602 Clear 21 1017 56 10000 7.2 190 01:21 28.12.2019
1603 Clear 19 1016 68 10000 5.1 170 00:42 28.12.2019
1604 Clear 19 1016 68 10000 5.1 170 00:23 28.12.2019
1605 Clear 19 1016 68 10000 5.1 170 00:23 28.12.2019
1606 Clear 17 1016 72 10000 3.1 200 23:46 27.12.2019
1607 Clouds 16 1016 87 10000 2.1 180 23:21 27.12.2019
1608 Clouds 15 1016 87 10000 3.1 170 22:59 27.12.2019
1609 Clouds 14 1016 87 10000 2.6 210 22:40 27.12.2019
1610 Clouds 14 1016 87 10000 2.6 210 22:40 27.12.2019
1611 Clouds 14 1016 87 10000 2.6 210 22:21 27.12.2019
1612 Clear 14 1015 82 10000 3.1 210 21:59 27.12.2019
1613 Clear 15 1015 82 10000 3.1 210 21:40 27.12.2019
1614 Clear 15 1015 82 10000 3.1 210 21:22 27.12.2019
1615 Clouds 15 1015 82 10000 3.6 180 20:42 27.12.2019
1616 Clouds 16 1015 82 10000 3.6 170 20:24 27.12.2019
1617 Clouds 16 1015 77 10000 3.6 180 19:57 27.12.2019
1618 Clouds 16 1015 72 10000 4.6 200 19:38 27.12.2019
1619 Clouds 16 1015 72 10000 4.6 200 19:19 27.12.2019
1620 Clear 16 1016 77 10000 3.6 210 18:42 27.12.2019
1621 Clear 16 1016 77 10000 3.6 210 18:24 27.12.2019
1622 Clear 17 1016 77 10000 3.1 190 18:00 27.12.2019
1623 Clear 17 1016 72 10000 3.6 180 17:41 27.12.2019
1624 Clear 17 1016 72 10000 3.6 180 17:20 27.12.2019
1625 Clear 17 1016 72 10000 3.6 180 16:59 27.12.2019
1626 Clear 17 1016 72 10000 3.6 180 16:59 27.12.2019
1627 Clear 17 1016 72 10000 3.6 180 16:59 27.12.2019
1628 Clear 18 1016 68 10000 5.1 190 16:39 27.12.2019
1629 Clear 18 1016 68 10000 5.1 190 16:21 27.12.2019
1630 Clear 19 1016 68 10000 6.2 200 15:56 27.12.2019
1631 Clear 19 1016 64 10000 7.2 200 15:37 27.12.2019
1632 Clear 19 1016 64 10000 7.2 200 15:18 27.12.2019
1633 Clear 19 1016 64 10000 4.6 210 14:54 27.12.2019
1634 Clear 20 1016 64 10000 5.7 210 14:36 27.12.2019
1635 Clear 20 1016 64 10000 5.7 210 14:18 27.12.2019
1636 Clear 20 1016 68 10000 5.7 210 13:43 27.12.2019
1637 Clear 20 1016 60 10000 7.7 210 13:22 27.12.2019
1638 Clear 21 1016 64 10000 7.2 210 12:44 27.12.2019
1639 Clear 22 1015 60 10000 6.7 220 12:26 27.12.2019
1640 Clear 22 1016 56 10000 7.7 220 11:56 27.12.2019
1641 Clouds 23 1015 53 10000 8.2 220 11:38 27.12.2019
1642 Clouds 23 1015 53 10000 8.2 220 11:19 27.12.2019
1643 Clouds 24 1015 53 10000 8.2 230 10:45 27.12.2019
1644 Clouds 24 1014 53 10000 8.2 230 10:23 27.12.2019
1645 Clouds 26 1014 44 10000 9.3 230 09:49 27.12.2019
1646 Clear 26 1014 42 10000 9.8 230 09:22 27.12.2019
1647 Clear 26 1014 42 10000 8.7 240 08:59 27.12.2019
1648 Clear 27 1014 35 10000 8.7 230 08:40 27.12.2019
1649 Clear 26 1014 39 10000 9.8 230 08:18 27.12.2019
1650 Clear 27 1015 42 10000 9.3 240 07:38 27.12.2019
1651 Clear 27 1015 44 10000 7.7 240 06:43 27.12.2019
1652 Clear 27 1015 42 10000 6.7 230 06:22 27.12.2019
1653 Clear 27 1016 32 10000 5.7 200 04:33 27.12.2019
1654 Clouds 24 1016 50 10000 5.7 200 02:28 27.12.2019
1655 Clouds 23 1016 60 10000 5.1 190 01:42 27.12.2019
1656 Clouds 22 1016 64 10000 5.7 200 01:20 27.12.2019
1657 Clouds 21 1017 68 10000 6.2 210 00:46 27.12.2019
1658 Clouds 21 1017 68 10000 5.1 200 00:25 27.12.2019
1659 Clouds 19 1016 77 10000 5.7 190 23:54 26.12.2019
1660 Clouds 19 1016 77 10000 5.7 190 23:36 26.12.2019
1661 Clouds 19 1016 77 10000 5.7 190 23:18 26.12.2019
1662 Clouds 18 1015 77 10000 5.1 190 22:38 26.12.2019
1663 Clouds 19 1015 77 10000 5.1 190 22:18 26.12.2019
1664 Clouds 19 1015 77 10000 5.1 200 21:39 26.12.2019
1665 Clouds 19 1015 77 10000 5.1 200 21:21 26.12.2019
1666 Clouds 19 1014 72 10000 5.7 190 20:54 26.12.2019
1667 Clouds 20 1014 72 10000 7.7 200 20:36 26.12.2019
1668 Clouds 20 1014 72 10000 7.7 200 20:18 26.12.2019
1669 Clouds 20 1014 72 10000 7.7 200 20:18 26.12.2019
1670 Clouds 20 1014 77 10000 7.2 210 19:54 26.12.2019
1671 Clouds 20 1014 77 10000 5.7 210 19:36 26.12.2019
1672 Clouds 20 1014 77 10000 5.7 210 19:18 26.12.2019
1673 Clouds 20 1014 77 10000 5.7 210 19:18 26.12.2019
1674 Clouds 20 1014 77 10000 5.7 210 18:55 26.12.2019
1675 Clouds 20 1014 77 10000 5.7 210 18:55 26.12.2019
1676 Clouds 20 1015 73 10000 6.2 200 18:36 26.12.2019
1677 Clouds 20 1015 73 10000 6.2 200 18:18 26.12.2019
1678 Clouds 21 1015 73 10000 6.2 220 17:40 26.12.2019
1679 Clouds 21 1015 73 10000 6.2 220 17:20 26.12.2019
1680 Clouds 21 1015 73 10000 5.7 210 16:48 26.12.2019
1681 Clouds 21 1015 73 10000 5.1 210 16:26 26.12.2019
1682 Clouds 21 1014 77 10000 4.6 220 15:57 26.12.2019
1683 Clouds 21 1015 77 10000 5.1 240 15:38 26.12.2019
1684 Clouds 21 1015 77 10000 5.1 240 15:19 26.12.2019
1685 Clouds 21 1014 73 10000 6.2 220 14:41 26.12.2019
1686 Clouds 21 1014 73 10000 6.2 220 14:23 26.12.2019
1687 Clouds 21 1014 73 10000 6.2 220 14:23 26.12.2019
1688 Clouds 22 1014 73 10000 6.7 220 13:45 26.12.2019
1689 Clouds 22 1013 73 10000 6.2 210 13:26 26.12.2019
1690 Clouds 22 1013 73 10000 6.2 220 12:59 26.12.2019
1691 Clouds 22 1013 73 10000 6.2 220 12:59 26.12.2019
1692 Clouds 22 1013 73 10000 6.2 220 12:41 26.12.2019
1693 Clouds 22 1012 69 10000 7.7 230 12:23 26.12.2019
1694 Clouds 23 1012 69 10000 6.2 220 11:58 26.12.2019
1695 Clouds 23 1012 69 10000 6.2 220 11:58 26.12.2019
1696 Clouds 23 1012 64 10000 6.7 240 11:40 26.12.2019
1697 Clouds 24 1012 64 10000 6.7 240 11:21 26.12.2019
1698 Clouds 25 1011 61 10000 6.7 220 10:49 26.12.2019
1699 Clouds 25 1011 57 10000 7.2 220 10:24 26.12.2019
1700 Clouds 25 1011 57 10000 6.2 250 09:54 26.12.2019
1701 Clouds 26 1011 57 10000 6.7 260 09:32 26.12.2019
1702 Clouds 26 1011 54 10000 6.2 260 08:57 26.12.2019
1703 Clouds 27 1012 54 10000 4.6 260 08:38 26.12.2019
1704 Clouds 28 1012 54 10000 4.6 260 08:20 26.12.2019
1705 Clouds 28 1012 51 10000 5.7 260 07:31 26.12.2019
1706 Clouds 29 1012 51 10000 5.1 260 06:56 26.12.2019
1707 Clouds 29 1012 51 10000 5.1 240 06:33 26.12.2019
1708 Clouds 28 1013 51 10000 4.1 250 05:49 26.12.2019
1709 Clouds 28 1013 54 10000 4.6 270 04:59 26.12.2019
1710 Clouds 27 1013 54 10000 5.1 240 04:32 26.12.2019
1711 Clouds 27 1013 57 10000 3.6 320 03:19 26.12.2019
1712 Clouds 25 1013 69 10000 3.6 320 02:40 26.12.2019
1713 Clouds 25 1013 69 10000 3.6 320 02:19 26.12.2019
1714 Clouds 23 1013 83 10000 3.6 20 01:41 26.12.2019
1715 Clouds 23 1013 83 10000 3.6 20 01:22 26.12.2019
1716 Clouds 22 1013 88 10000 4.6 20 00:41 26.12.2019
1717 Clouds 21 1013 88 10000 4.6 20 00:22 26.12.2019
1718 Clouds 21 1013 83 10000 3.6 20 23:42 25.12.2019
1719 Clouds 20 1012 94 10000 3.6 20 23:21 25.12.2019
1720 Clouds 20 1012 94 10000 3.1 20 22:59 25.12.2019
1721 Clouds 20 1012 88 10000 3.1 30 22:40 25.12.2019
1722 Clouds 20 1012 88 10000 3.1 30 22:22 25.12.2019
1723 Clouds 19 1012 93 10000 2.6 20 21:59 25.12.2019
1724 Clouds 20 1012 88 10000 3.6 10 21:40 25.12.2019
1725 Clouds 20 1012 88 10000 3.6 10 21:21 25.12.2019
1726 Clouds 20 1012 88 10000 3.6 10 21:21 25.12.2019
1727 Clouds 20 1012 88 10000 2.6 350 20:57 25.12.2019
1728 Clouds 20 1012 88 10000 3.1 30 20:39 25.12.2019
1729 Clouds 20 1012 88 10000 3.1 30 20:18 25.12.2019
1730 Clouds 20 1012 88 10000 3.1 30 20:18 25.12.2019
1731 Clouds 21 1012 88 10000 2.6 350 19:43 25.12.2019
1732 Clouds 21 1011 82 10000 2.6 350 19:25 25.12.2019
1733 Clouds 21 1012 82 10000 2.6 350 18:58 25.12.2019
1734 Clouds 21 1012 77 10000 3.6 30 18:37 25.12.2019
1735 Clouds 21 1012 77 10000 3.6 30 18:19 25.12.2019
1736 Clouds 22 1012 77 10000 2.6 350 17:42 25.12.2019
1737 Clouds 22 1012 77 10000 2.6 340 17:20 25.12.2019
1738 Clouds 22 1012 77 10000 2.6 360 16:58 25.12.2019
1739 Clouds 22 1012 73 10000 3.1 330 16:37 25.12.2019
1740 Clouds 22 1012 73 10000 3.1 330 16:18 25.12.2019
1741 Clouds 22 1012 73 10000 1.5 310 15:57 25.12.2019
1742 Clouds 22 1012 73 10000 1.5 310 15:57 25.12.2019
1743 Clouds 22 1012 69 10000 3.6 250 15:38 25.12.2019
1744 Clouds 22 1012 69 10000 3.6 250 15:20 25.12.2019
1745 Clouds 23 1012 60 10000 4.1 250 14:57 25.12.2019
1746 Clouds 23 1012 60 10000 3.6 260 14:39 25.12.2019
1747 Clouds 23 1012 60 10000 3.6 260 14:39 25.12.2019
1748 Clouds 23 1012 60 10000 3.6 260 14:20 25.12.2019
1749 Clouds 24 1012 50 10000 4.6 250 13:44 25.12.2019
1750 Clouds 24 1012 53 10000 4.6 260 13:21 25.12.2019
1751 Clouds 25 1012 47 10000 4.6 250 12:56 25.12.2019
1752 Clouds 25 1011 47 10000 5.1 240 12:38 25.12.2019
1753 Clouds 26 1011 47 10000 5.1 240 12:18 25.12.2019
1754 Clouds 28 1011 39 10000 4.6 240 11:42 25.12.2019
1755 Clouds 30 1011 35 10000 4.6 250 11:22 25.12.2019
1756 Clouds 32 1010 33 10000 4.6 270 10:41 25.12.2019
1757 Clouds 32 1010 33 10000 4.6 270 10:22 25.12.2019
1758 Clouds 32 1010 32 10000 5.1 250 09:59 25.12.2019
1759 Clouds 31 1010 30 10000 5.1 270 09:41 25.12.2019
1760 Clouds 31 1010 30 10000 5.1 270 09:23 25.12.2019
1761 Clouds 32 1010 30 10000 7.2 260 08:44 25.12.2019
1762 Clouds 34 1010 30 10000 7.2 260 08:24 25.12.2019
1763 Clouds 35 1010 28 10000 5.7 260 07:44 25.12.2019
1764 Clouds 33 1011 30 10000 4.6 270 07:23 25.12.2019
1765 Clouds 34 1011 26 10000 3.6 230 06:24 25.12.2019
1766 Clouds 33 1011 26 10000 3.6 250 05:51 25.12.2019
1767 Clouds 33 1012 29 10000 3.1 300 04:46 25.12.2019
1768 Clouds 33 1012 33 10000 2.6 210 04:24 25.12.2019
1769 Clouds 31 1012 33 10000 6.2 290 03:46 25.12.2019
1770 Clouds 30 1012 37 10000 3.6 110 03:18 25.12.2019
1771 Clouds 28 1013 39 10000 6.2 80 02:30 25.12.2019
1772 Clouds 27 1013 42 10000 3.6 90 01:53 25.12.2019
1773 Clouds 25 1013 44 10000 6.7 80 01:22 25.12.2019
1774 Clouds 25 1013 43 10000 6.7 80 00:42 25.12.2019
1775 Clouds 25 1013 44 10000 5.1 110 00:23 25.12.2019
1776 Clouds 23 1013 43 10000 6.2 30 23:40 24.12.2019
1777 Clouds 23 1013 43 10000 6.2 30 23:20 24.12.2019
1778 Clouds 23 1013 43 10000 7.7 80 22:42 24.12.2019
1779 Clouds 22 1013 43 10000 7.2 70 22:24 24.12.2019
1780 Clouds 23 1012 43 10000 5.7 90 21:59 24.12.2019
1781 Clouds 23 1013 43 10000 7.2 80 21:41 24.12.2019
1782 Clouds 23 1012 43 10000 5.7 90 21:41 24.12.2019
1783 Clouds 23 1013 43 10000 7.2 80 21:20 24.12.2019
1784 Clouds 23 1013 43 10000 7.7 90 20:42 24.12.2019
1785 Clouds 24 1013 44 10000 6.7 90 20:23 24.12.2019
1786 Clouds 24 1012 44 10000 7.7 90 19:55 24.12.2019
1787 Clouds 25 1013 41 10000 5.1 80 19:37 24.12.2019
1788 Clouds 25 1013 41 10000 5.1 80 19:18 24.12.2019
1789 Clouds 25 1013 41 10000 5.1 80 19:18 24.12.2019
1790 Clouds 25 1013 41 10000 3.6 80 18:42 24.12.2019
1791 Clouds 25 1013 41 10000 3.6 80 18:19 24.12.2019
1792 Clouds 26 1013 39 10000 7.2 100 17:44 24.12.2019
1793 Clouds 25 1014 39 10000 7.2 100 17:22 24.12.2019
1794 Clouds 25 1014 39 10000 7.2 100 17:22 24.12.2019
1795 Clouds 25 1014 36 10000 8.2 90 16:58 24.12.2019
1796 Clouds 23 1014 64 10000 7.2 100 16:39 24.12.2019
1797 Clouds 23 1014 64 10000 7.2 100 16:21 24.12.2019
1798 Clouds 23 1014 73 10000 7.2 100 15:57 24.12.2019
1799 Clouds 23 1014 64 10000 7.2 100 15:37 24.12.2019
1800 Clouds 23 1014 64 10000 7.2 100 15:19 24.12.2019
1801 Clouds 24 1014 61 10000 7.2 100 14:58 24.12.2019
1802 Clouds 24 1014 61 10000 7.2 100 14:40 24.12.2019
1803 Clouds 24 1014 61 10000 7.2 100 14:21 24.12.2019
1804 Clouds 24 1014 61 10000 7.2 100 14:21 24.12.2019
1805 Clouds 25 1014 57 10000 7.2 100 13:56 24.12.2019
1806 Clouds 25 1014 54 10000 7.2 100 13:38 24.12.2019
1807 Clouds 25 1014 54 10000 7.2 100 13:19 24.12.2019
1808 Clouds 26 1014 54 10000 7.2 100 12:56 24.12.2019
1809 Clouds 26 1013 48 10000 5.1 240 12:37 24.12.2019
1810 Clouds 26 1013 48 10000 5.1 240 12:19 24.12.2019
1811 Clouds 26 1013 48 10000 5.1 240 12:19 24.12.2019
1812 Clouds 27 1013 48 10000 6.2 240 11:56 24.12.2019
1813 Clouds 27 1013 48 10000 6.7 250 11:37 24.12.2019
1814 Clouds 27 1013 48 10000 6.7 250 11:37 24.12.2019
1815 Clear 28 1013 48 10000 6.7 250 11:19 24.12.2019
1816 Clear 29 1013 45 10000 6.2 250 10:56 24.12.2019
1817 Clear 29 1013 45 10000 6.2 250 10:56 24.12.2019
1818 Clear 29 1013 42 10000 6.7 250 10:37 24.12.2019
1819 -273 0 0 0 0 0 10:37 24.12.2019
1820 Clear 29 1013 42 10000 6.7 250 10:19 24.12.2019
1821 Clear 30 1013 40 10000 6.7 240 09:55 24.12.2019
1822 Clear 30 1013 38 10000 7.7 230 09:37 24.12.2019
1823 Clear 30 1013 38 10000 7.7 230 09:18 24.12.2019
1824 Clear 31 1013 35 10000 6.7 230 08:44 24.12.2019
1825 Clear 31 1013 38 10000 6.2 260 08:21 24.12.2019
1826 Clear 31 1013 42 10000 6.7 260 07:46 24.12.2019
1827 Clear 32 1014 40 10000 7.2 260 07:26 24.12.2019
1828 Clear 31 1014 38 10000 6.7 250 06:58 24.12.2019
1829 Clear 30 1014 38 10000 6.2 260 06:38 24.12.2019
1830 Clear 30 1014 38 10000 6.2 260 06:19 24.12.2019
1831 Clear 30 1015 31 10000 3.1 240 05:20 24.12.2019
1832 Clear 31 1015 31 10000 7.2 230 04:44 24.12.2019
1833 Clear 30 1016 35 10000 7.2 230 03:50 24.12.2019
1834 Clear 29 1016 37 10000 7.2 230 03:18 24.12.2019
1835 Clouds 26 1016 36 10000 2.6 150 02:21 24.12.2019
1836 Clouds 24 1016 38 10000 3.1 160 01:50 24.12.2019
1837 Clouds 24 1016 38 10000 4.6 170 01:21 24.12.2019
1838 Clouds 22 1016 43 10000 4.6 180 00:45 24.12.2019
1839 Clouds 21 1016 49 10000 5.1 190 00:23 24.12.2019
1840 Clouds 20 1016 56 10000 6.2 190 23:56 23.12.2019
1841 Clouds 21 1016 56 10000 6.2 190 23:56 23.12.2019
1842 Clouds 19 1016 63 10000 4.1 200 23:37 23.12.2019
1843 Clouds 19 1016 63 10000 4.1 200 23:19 23.12.2019
1844 Clouds 18 1015 68 10000 4.6 230 22:55 23.12.2019
1845 Clouds 18 1015 68 10000 4.6 230 22:55 23.12.2019
1846 Clouds 18 1015 68 10000 4.6 210 22:36 23.12.2019
1847 Clouds 18 1015 68 10000 4.6 210 22:36 23.12.2019
1848 Clouds 18 1015 68 10000 4.6 210 22:36 23.12.2019
1849 Clouds 18 1015 68 10000 4.6 210 22:18 23.12.2019
1850 Clouds 18 1015 68 10000 3.6 210 21:55 23.12.2019
1851 Clouds 18 1014 72 10000 3.6 210 21:36 23.12.2019
1852 Clouds 19 1014 72 10000 3.6 210 21:18 23.12.2019
1853 Clouds 19 1014 72 10000 5.1 230 20:56 23.12.2019
1854 Clouds 19 1014 72 10000 3.6 230 20:38 23.12.2019
1855 Clouds 19 1014 72 10000 3.6 230 20:18 23.12.2019
1856 Clouds 19 1014 72 10000 3.6 230 20:18 23.12.2019
1857 Clouds 19 1014 72 10000 3.1 210 19:54 23.12.2019
1858 Clouds 19 1014 72 10000 3.6 180 19:36 23.12.2019
1859 Clouds 19 1014 72 10000 3.6 180 19:18 23.12.2019
1860 Clouds 20 1015 68 10000 6.7 190 18:54 23.12.2019
1861 Clouds 20 1015 64 10000 7.2 190 18:36 23.12.2019
1862 Clouds 20 1015 64 10000 7.2 190 18:18 23.12.2019
1863 Clouds 21 1015 68 10000 7.2 200 17:41 23.12.2019
1864 Clouds 21 1015 68 10000 7.2 200 17:20 23.12.2019
1865 Clouds 21 1015 68 10000 6.7 210 16:59 23.12.2019
1866 Clouds 21 1015 73 10000 5.7 220 16:40 23.12.2019
1867 Clouds 21 1015 73 10000 5.7 220 16:19 23.12.2019
1868 Clouds 22 1015 73 10000 4.6 210 15:58 23.12.2019
1869 Clouds 22 1015 69 10000 5.7 210 15:37 23.12.2019
1870 Clouds 22 1015 69 10000 5.7 210 15:19 23.12.2019
1871 Clouds 22 1015 69 10000 4.1 210 14:57 23.12.2019
1872 Clouds 22 1014 69 10000 4.1 180 14:39 23.12.2019
1873 Clouds 22 1014 69 10000 4.1 180 14:19 23.12.2019
1874 Clouds 22 1014 64 10000 4.6 220 13:57 23.12.2019
1875 Clouds 22 1014 73 10000 4.6 220 13:39 23.12.2019
1876 Clouds 23 1014 60 10000 3.6 240 13:20 23.12.2019
1877 Clouds 23 1013 60 10000 4.6 230 12:55 23.12.2019
1878 Clouds 23 1013 57 10000 5.7 240 12:37 23.12.2019
1879 Clouds 23 1013 57 10000 5.7 240 12:37 23.12.2019
1880 Clouds 24 1013 57 10000 5.7 240 12:18 23.12.2019
1881 Clouds 25 1013 51 10000 5.7 230 11:42 23.12.2019
1882 Clouds 25 1013 51 10000 5.7 230 11:24 23.12.2019
1883 Clouds 26 1013 47 10000 6.7 230 10:56 23.12.2019
1884 Clouds 27 1013 42 10000 7.7 230 10:38 23.12.2019
1885 Clouds 27 1013 42 10000 7.7 230 10:20 23.12.2019
1886 Clouds 28 1012 42 10000 7.2 230 09:58 23.12.2019
1887 Clouds 27 1012 42 10000 7.2 240 09:39 23.12.2019
1888 Clouds 27 1012 42 10000 7.2 240 09:39 23.12.2019
1889 Clouds 28 1012 42 10000 7.2 240 09:19 23.12.2019
1890 Clouds 29 1012 48 10000 6.7 260 08:55 23.12.2019
1891 Clouds 30 1012 45 10000 6.7 260 08:37 23.12.2019
1892 Clouds 30 1012 45 10000 6.7 260 08:18 23.12.2019
1893 Clouds 30 1012 40 10000 6.7 260 07:42 23.12.2019
1894 Clouds 31 1012 40 10000 6.7 260 07:19 23.12.2019
1895 Clouds 31 1013 43 10000 6.7 250 06:43 23.12.2019
1896 Clouds 31 1013 43 10000 6.7 250 06:22 23.12.2019
1897 Clouds 30 1013 40 10000 6.7 240 05:46 23.12.2019
1898 Clouds 30 1013 35 10000 2.6 300 04:55 23.12.2019
1899 Clouds 30 1013 37 10000 7.2 230 03:59 23.12.2019
1900 Clouds 27 1014 44 10000 7.2 230 02:48 23.12.2019
1901 Clouds 26 1014 47 10000 3.1 130 02:20 23.12.2019
1902 Clouds 25 1014 47 10000 4.1 90 01:51 23.12.2019
1903 Clouds 24 1014 50 10000 4.1 80 01:32 23.12.2019
1904 Clouds 24 1014 50 10000 4.1 80 01:32 23.12.2019
1905 Clouds 23 1014 56 10000 2.6 70 00:49 23.12.2019
1906 Clouds 22 1013 60 10000 3.6 120 00:30 23.12.2019
1907 Clouds 21 1013 68 10000 3.1 90 23:57 22.12.2019
1908 Clouds 20 1013 68 10000 3.1 90 23:57 22.12.2019
1909 Clouds 19 1013 82 10000 3.1 120 23:37 22.12.2019
1910 Clouds 19 1013 82 10000 3.1 120 23:19 22.12.2019
1911 Clouds 18 1013 82 10000 2.1 80 22:55 22.12.2019
1912 Clouds 18 1012 87 10000 1.5 170 22:37 22.12.2019
1913 Clouds 18 1012 87 10000 1.5 170 22:18 22.12.2019
1914 Clouds 18 1012 82 10000 2.6 230 21:54 22.12.2019
1915 Clouds 18 1012 82 10000 2.6 280 21:36 22.12.2019
1916 Clouds 18 1012 82 10000 2.6 280 21:18 22.12.2019
1917 Clouds 18 1011 82 10000 2.1 20 20:40 22.12.2019
1918 Clouds 18 1011 82 10000 2.1 20 20:19 22.12.2019
1919 Clouds 18 1011 88 10000 2.1 40 19:57 22.12.2019
1920 Clouds 18 1012 87 10000 2.1 360 19:39 22.12.2019
1921 Clouds 18 1012 87 10000 2.1 360 19:20 22.12.2019
1922 Clouds 18 1012 93 10000 2.6 30 18:44 22.12.2019
1923 Clouds 19 1012 93 10000 2.6 30 18:25 22.12.2019
1924 Clouds 19 1012 88 10000 2.6 110 17:58 22.12.2019
1925 Clouds 19 1012 88 10000 2.6 200 17:39 22.12.2019
1926 Clouds 19 1012 88 10000 2.6 200 17:19 22.12.2019
1927 Clouds 20 1013 82 10000 1.88 151 16:59 22.12.2019
1928 Clouds 20 1013 82 10000 2.6 230 16:41 22.12.2019
1929 Clouds 21 1013 73 10000 1.5 230 16:22 22.12.2019
1930 Clouds 21 1013 73 10000 1.5 230 16:22 22.12.2019
1931 Clouds 21 1013 77 10000 2.6 220 15:57 22.12.2019
1932 Clouds 21 1013 68 10000 2.6 230 15:39 22.12.2019
1933 Clouds 21 1013 68 10000 2.6 230 15:39 22.12.2019
1934 Clouds 21 1013 68 10000 2.6 230 15:20 22.12.2019
1935 Clouds 22 1013 68 10000 2.1 210 14:56 22.12.2019
1936 Clouds 22 1013 69 10000 3.1 220 14:38 22.12.2019
1937 Clouds 22 1013 69 10000 3.1 220 14:19 22.12.2019
1938 Clouds 22 1013 69 10000 3.6 220 13:55 22.12.2019
1939 Clouds 22 1013 64 10000 4.1 220 13:37 22.12.2019
1940 Clouds 22 1013 64 10000 4.1 220 13:19 22.12.2019
1941 Clouds 22 1013 64 10000 4.1 220 13:19 22.12.2019
1942 Clouds 22 1013 64 10000 4.1 220 13:19 22.12.2019
1943 Clouds 22 1013 64 10000 5.1 230 12:56 22.12.2019
1944 Clouds 23 1012 64 10000 5.7 220 12:38 22.12.2019
1945 Clouds 23 1012 64 10000 5.7 220 12:19 22.12.2019
1946 Clouds 23 1012 60 10000 5.7 230 11:56 22.12.2019
1947 Clouds 23 1012 60 10000 5.7 230 11:56 22.12.2019
1948 Clouds 23 1012 60 10000 7.2 220 11:38 22.12.2019
1949 Clouds 23 1012 60 10000 7.2 220 11:19 22.12.2019
1950 Clouds 24 1012 60 10000 7.7 230 10:55 22.12.2019
1951 Clouds 23 1012 61 10000 7.2 230 10:37 22.12.2019
1952 Clouds 23 1012 61 10000 7.2 230 10:18 22.12.2019
1953 Clouds 24 1011 61 10000 6.7 230 09:57 22.12.2019
1954 Clouds 25 1011 57 10000 6.7 230 09:38 22.12.2019
1955 Clouds 25 1011 57 10000 6.7 230 09:20 22.12.2019
1956 Clouds 25 1011 51 10000 7.2 240 08:42 22.12.2019
1957 Clouds 26 1011 51 10000 7.2 240 08:21 22.12.2019
1958 Clouds 27 1011 48 10000 6.2 250 07:42 22.12.2019
1959 Clouds 28 1011 48 10000 6.2 250 07:21 22.12.2019
1960 Clouds 28 1011 54 10000 6.7 230 06:52 22.12.2019
1961 Clouds 28 1012 51 10000 6.7 240 06:22 22.12.2019
1962 Clouds 26 1012 57 10000 6.7 280 05:29 22.12.2019
1963 Clouds 27 1012 39 10000 7.7 240 04:45 22.12.2019
1964 Clouds 27 1012 47 10000 3.1 260 04:22 22.12.2019
1965 Clouds 24 1013 57 10000 4.1 220 02:43 22.12.2019
1966 Clouds 24 1013 57 10000 4.1 220 02:43 22.12.2019
1967 Clouds 24 1013 57 10000 4.1 220 02:43 22.12.2019
1968 Clouds 22 1013 56 10000 4.6 220 01:59 22.12.2019
1969 Clouds 22 1013 64 10000 4.1 200 01:31 22.12.2019
1970 Clouds 21 1013 68 10000 5.7 190 00:48 22.12.2019
1971 Clouds 20 1013 72 10000 5.1 190 00:28 22.12.2019
1972 Clouds 19 1012 77 10000 5.7 200 23:57 21.12.2019
1973 Clouds 19 1012 77 10000 5.7 200 23:57 21.12.2019
1974 Clouds 18 1012 82 10000 5.1 190 23:39 21.12.2019
1975 Clouds 18 1012 82 10000 5.1 190 23:20 21.12.2019
1976 Clouds 18 1011 77 10000 4.6 180 22:46 21.12.2019
1977 Clouds 18 1011 77 10000 5.1 210 22:20 21.12.2019
1978 Clouds 18 1010 82 10000 4.6 220 21:58 21.12.2019
1979 Clouds 18 1010 82 10000 5.1 190 21:39 21.12.2019
1980 Clouds 18 1010 82 10000 5.1 190 21:20 21.12.2019
1981 Clouds 18 1011 77 10000 6.2 210 20:59 21.12.2019
1982 Clouds 18 1011 82 10000 5.1 200 20:40 21.12.2019
1983 Clouds 18 1011 82 10000 5.1 200 20:22 21.12.2019
1984 Clouds 19 1011 82 10000 4.6 210 19:58 21.12.2019
1985 Clouds 19 1011 82 10000 4.1 210 19:40 21.12.2019
1986 Clouds 19 1011 82 10000 4.1 210 19:19 21.12.2019
1987 Clouds 19 1012 82 10000 3.6 210 18:55 21.12.2019
1988 Clouds 19 1012 77 10000 2.6 180 18:37 21.12.2019
1989 Clouds 19 1012 77 10000 2.6 180 18:19 21.12.2019
1990 Clouds 19 1012 77 10000 3.1 210 17:43 21.12.2019
1991 Clouds 20 1012 77 10000 3.6 230 17:25 21.12.2019
1992 Clear 20 1013 82 10000 4.6 210 16:59 21.12.2019
1993 Clouds 20 1013 77 10000 4.6 190 16:41 21.12.2019
1994 Clouds 20 1013 77 10000 4.6 190 16:41 21.12.2019
1995 Clouds 20 1013 77 10000 4.6 190 16:19 21.12.2019
1996 Clouds 20 1013 77 10000 4.6 190 16:19 21.12.2019
1997 Clouds 21 1013 77 10000 5.1 200 15:57 21.12.2019
1998 Clouds 21 1013 77 10000 7.7 210 15:38 21.12.2019
1999 Clouds 21 1013 77 10000 7.7 210 15:38 21.12.2019
2000 Clouds 21 1013 77 10000 7.7 210 15:38 21.12.2019
2001 Clouds 21 1013 77 10000 7.7 210 15:19 21.12.2019
2002 Clear 21 1012 83 10000 7.7 210 14:57 21.12.2019
2003 Clear 21 1012 68 10000 8.2 220 14:38 21.12.2019
2004 Clear 21 1012 68 10000 8.2 220 14:18 21.12.2019
2005 Clear 22 1013 78 10000 7.7 210 13:55 21.12.2019
2006 Clear 22 1012 64 10000 7.7 220 13:37 21.12.2019
2007 Clear 22 1012 64 10000 7.7 220 13:18 21.12.2019
2008 Clear 23 1011 57 10000 7.7 220 12:54 21.12.2019
2009 Clear 23 1011 50 10000 7.7 220 12:36 21.12.2019
2010 Clear 24 1011 50 10000 7.7 220 12:18 21.12.2019
2011 Clear 25 1011 47 10000 8.2 230 11:42 21.12.2019
2012 Clear 25 1011 47 10000 8.2 230 11:24 21.12.2019
2013 Clear 26 1011 48 10000 7.7 240 10:56 21.12.2019
2014 Clear 27 1010 45 10000 8.7 230 10:37 21.12.2019
2015 Clear 27 1010 45 10000 8.7 230 10:19 21.12.2019
2016 Clear 27 1010 45 10000 8.7 230 10:19 21.12.2019
2017 Clear 28 1011 37 10000 8.7 210 09:42 21.12.2019
2018 Clear 28 1011 37 10000 8.7 210 09:21 21.12.2019
2019 Clear 28 1011 33 10000 7.2 230 08:57 21.12.2019
2020 Clear 29 1011 31 10000 7.2 240 08:37 21.12.2019
2021 Clear 30 1011 31 10000 7.2 240 08:18 21.12.2019
2022 Clear 31 1011 29 10000 7.7 250 07:41 21.12.2019
2023 Clear 32 1011 29 10000 7.7 250 07:22 21.12.2019
2024 Clear 33 1011 23 10000 7.7 240 06:44 21.12.2019
2025 Clear 33 1012 24 10000 3.1 220 06:25 21.12.2019
2026 Clear 34 1012 26 10000 8.2 230 05:49 21.12.2019
2027 Clear 32 1013 27 10000 8.2 230 04:58 21.12.2019
2028 Clear 30 1014 35 10000 8.2 230 03:57 21.12.2019
2029 Clear 27 1015 39 10000 7.2 90 02:52 21.12.2019
2030 Clear 25 1015 44 10000 7.2 80 01:57 21.12.2019
2031 Clear 24 1015 47 10000 7.7 80 01:27 21.12.2019
2032 Clear 22 1015 46 10000 9.3 80 00:53 21.12.2019
2033 Clear 21 1015 52 10000 7.2 80 00:32 21.12.2019
2034 Clear 20 1015 55 10000 7.2 80 23:57 20.12.2019
2035 Clear 20 1016 55 10000 9.3 90 23:37 20.12.2019
2036 Clear 19 1016 55 10000 9.3 90 23:18 20.12.2019
2037 Clear 18 1015 59 10000 8.2 90 22:40 20.12.2019
2038 Clear 18 1015 59 10000 8.2 90 22:21 20.12.2019
2039 Clear 18 1015 55 10000 9.8 90 21:57 20.12.2019
2040 Clear 18 1015 55 10000 2.1 100 21:39 20.12.2019
2041 Clear 18 1015 55 10000 2.1 100 21:19 20.12.2019
2042 Clear 18 1015 59 10000 4.1 90 20:39 20.12.2019
2043 Clear 18 1015 59 10000 4.1 90 20:19 20.12.2019
2044 Clear 18 1015 68 10000 7.2 90 19:58 20.12.2019
2045 Clear 17 1015 82 10000 7.2 90 19:40 20.12.2019
2046 Clear 17 1015 82 10000 7.2 90 19:19 20.12.2019
2047 Clear 17 1015 77 10000 7.2 90 18:42 20.12.2019
2048 Clear 17 1015 77 10000 7.2 90 18:24 20.12.2019
2049 Clear 17 1016 72 10000 5.1 200 17:59 20.12.2019
2050 Clear 17 1016 72 10000 5.1 200 17:41 20.12.2019
2051 Clear 18 1016 72 10000 5.1 200 17:21 20.12.2019
2052 Clear 18 1016 72 10000 5.1 200 17:21 20.12.2019
2053 Clear 18 1016 72 10000 5.7 200 16:59 20.12.2019
2054 Clear 18 1016 68 10000 6.2 200 16:39 20.12.2019
2055 Clear 18 1016 68 10000 6.2 200 16:20 20.12.2019
2056 Clear 19 1016 68 10000 6.2 190 15:56 20.12.2019
2057 Clear 19 1016 68 10000 6.7 200 15:38 20.12.2019
2058 Clear 19 1016 68 10000 6.7 200 15:38 20.12.2019
2059 Clear 19 1016 68 10000 6.7 200 15:19 20.12.2019
2060 Clear 20 1017 64 10000 5.1 210 14:43 20.12.2019
2061 Clear 20 1017 64 10000 5.1 210 14:25 20.12.2019
2062 Clear 20 1016 64 10000 5.7 210 13:59 20.12.2019
2063 Clear 20 1016 64 10000 5.7 210 13:59 20.12.2019
2064 Clear 20 1016 68 10000 5.1 210 13:40 20.12.2019
2065 Clear 20 1016 68 10000 5.1 210 13:20 20.12.2019
2066 Clear 20 1016 56 10000 7.2 210 12:57 20.12.2019
2067 Clear 21 1016 60 10000 7.2 210 12:37 20.12.2019
2068 Clear 21 1016 56 10000 8.2 220 12:18 20.12.2019
2069 Clear 22 1016 49 10000 7.7 210 11:57 20.12.2019
2070 Clear 22 1016 49 10000 8.7 220 11:39 20.12.2019
2071 Clear 22 1016 49 10000 8.7 220 11:18 20.12.2019
2072 Clear 23 1016 44 10000 7.7 230 10:56 20.12.2019
2073 Clear 24 1016 47 10000 9.3 240 10:38 20.12.2019
2074 Clear 24 1016 47 10000 9.3 240 10:19 20.12.2019
2075 Clear 25 1016 44 10000 8.7 240 09:43 20.12.2019
2076 Clear 24 1016 44 10000 8.7 240 09:21 20.12.2019
2077 Clear 24 1016 44 10000 8.2 240 08:57 20.12.2019
2078 Clear 24 1016 44 10000 8.2 230 08:38 20.12.2019
2079 Clouds 26 1016 44 10000 8.2 230 08:20 20.12.2019
2080 Clear 26 1016 39 10000 7.7 230 07:57 20.12.2019
2081 Clear 26 1017 36 10000 7.2 230 07:37 20.12.2019
2082 Clear 26 1017 36 10000 7.2 230 07:18 20.12.2019
2083 Clouds 26 1017 41 10000 4.6 190 06:44 20.12.2019
2084 Clouds 26 1017 41 10000 4.6 190 06:26 20.12.2019
2085 Clouds 25 1018 44 10000 5.7 220 05:47 20.12.2019
2086 Clouds 24 1018 53 10000 5.1 220 04:59 20.12.2019
2087 Clouds 23 1018 44 10000 3.6 210 03:49 20.12.2019
2088 Clouds 22 1018 53 10000 3.6 190 02:46 20.12.2019
2089 Clouds 22 1018 56 10000 2.1 150 01:59 20.12.2019
2090 Clouds 21 1018 68 10000 1 190 01:35 20.12.2019
2091 Clouds 20 1018 77 10000 2.1 10 00:54 20.12.2019
2092 Clouds 20 1017 77 10000 3.1 20 00:35 20.12.2019
2093 Clouds 19 1017 82 10000 2.6 80 23:57 19.12.2019
2094 Clouds 18 1017 88 10000 2.6 80 23:39 19.12.2019
2095 Clouds 18 1017 88 10000 2.6 80 23:19 19.12.2019
2096 Rain 18 1016 82 10000 3.6 170 22:39 19.12.2019
2097 Rain 18 1016 82 10000 3.6 170 22:21 19.12.2019
2098 Clouds 18 1016 87 10000 2.1 70 21:56 19.12.2019
2099 Clouds 18 1016 87 10000 2.1 70 21:56 19.12.2019
2100 Clouds 18 1015 77 10000 2.1 170 21:38 19.12.2019
2101 Clouds 18 1015 77 10000 2.1 170 21:19 19.12.2019
2102 Clouds 18 1015 77 10000 4.1 180 20:56 19.12.2019
2103 Rain 18 1015 72 10000 5.1 220 20:37 19.12.2019
2104 Clouds 18 1015 68 10000 3.6 250 20:19 19.12.2019
2105 Clouds 18 1015 68 10000 3.6 250 20:19 19.12.2019
2106 Clouds 18 1015 68 10000 3.6 250 19:57 19.12.2019
2107 Clouds 18 1015 68 10000 3.6 240 19:39 19.12.2019
2108 Clouds 18 1015 68 10000 3.6 240 19:19 19.12.2019
2109 Clouds 18 1015 63 10000 4.6 240 18:55 19.12.2019
2110 Clouds 19 1015 63 10000 5.1 240 18:37 19.12.2019
2111 Clouds 19 1015 63 10000 5.1 240 18:18 19.12.2019
2112 Clouds 19 1015 59 10000 3.6 230 17:54 19.12.2019
2113 Clouds 19 1015 59 10000 5.1 230 17:36 19.12.2019
2114 Clouds 19 1015 59 10000 5.1 230 17:18 19.12.2019
2115 Clouds 19 1015 59 10000 5.1 230 17:18 19.12.2019
2116 Clouds 19 1015 59 10000 6.7 230 16:54 19.12.2019
2117 Clouds 19 1015 60 10000 6.7 230 16:36 19.12.2019
2118 Clouds 19 1015 60 10000 6.7 230 16:18 19.12.2019
2119 Clouds 20 1015 60 10000 5.1 230 15:54 19.12.2019
2120 Clouds 20 1015 56 10000 6.2 240 15:36 19.12.2019
2121 Clouds 20 1015 56 10000 6.2 240 15:18 19.12.2019
2122 Clouds 20 1014 60 10000 6.2 240 14:42 19.12.2019
2123 Clouds 20 1014 60 10000 6.2 240 14:20 19.12.2019
2124 Clouds 20 1014 64 10000 6.7 250 13:57 19.12.2019
2125 Clouds 20 1014 64 10000 6.2 250 13:38 19.12.2019
2126 Rain 20 1014 56 10000 6.7 240 13:19 19.12.2019
2127 Clouds 21 1014 52 10000 6.7 260 12:55 19.12.2019
2128 Clouds 21 1014 56 10000 8.2 250 12:37 19.12.2019
2129 Clouds 21 1014 56 10000 8.2 250 12:18 19.12.2019
2130 Clouds 21 1013 49 10000 7.7 260 11:57 19.12.2019
2131 Clouds 22 1013 49 10000 8.7 250 11:39 19.12.2019
2132 Clouds 22 1013 49 10000 8.7 250 11:18 19.12.2019
2133 Clouds 23 1013 49 10000 7.7 270 10:55 19.12.2019
2134 Clouds 22 1013 49 10000 8.2 260 10:36 19.12.2019
2135 Clouds 23 1013 49 10000 8.2 260 10:18 19.12.2019
2136 Clouds 23 1013 49 10000 8.2 260 10:18 19.12.2019
2137 Clouds 23 1013 49 10000 8.2 260 10:18 19.12.2019
2138 Clouds 23 1012 49 10000 8.7 260 09:38 19.12.2019
2139 Clouds 23 1012 49 10000 8.7 260 09:20 19.12.2019
2140 Clouds 23 1012 49 10000 8.7 260 09:20 19.12.2019
2141 Clouds 23 1012 49 10000 8.7 260 09:20 19.12.2019
2142 Clouds 23 1012 49 10000 8.7 260 09:20 19.12.2019
2143 Clouds 24 1012 43 10000 8.7 250 08:58 19.12.2019
2144 Clouds 24 1012 44 10000 9.3 260 08:39 19.12.2019
2145 Clouds 24 1012 44 10000 9.3 260 08:19 19.12.2019
2146 Clouds 24 1012 44 10000 7.7 270 07:56 19.12.2019
2147 Clouds 24 1012 50 10000 8.7 260 07:38 19.12.2019
2148 Clouds 24 1012 50 10000 8.7 260 07:19 19.12.2019
2149 Clouds 23 1012 53 10000 8.2 280 06:49 19.12.2019
2150 Clouds 23 1012 68 10000 6.2 270 06:28 19.12.2019
2151 Rain 22 1012 83 7000 7.7 270 05:52 19.12.2019
2152 Clouds 21 1012 83 10000 8.2 250 05:32 19.12.2019
2153 Drizzle 20 1011 88 3000 7.7 260 04:43 19.12.2019
2154 Clouds 24 1010 64 10000 7.7 310 02:48 19.12.2019
2155 Rain 24 1010 60 10000 7.2 300 01:46 19.12.2019
2156 Clouds 23 1010 60 10000 6.2 300 01:21 19.12.2019
2157 Clouds 23 1010 68 10000 4.6 310 00:39 19.12.2019
2158 Clouds 23 1010 68 10000 4.6 310 00:39 19.12.2019
2159 Clouds 22 1010 68 10000 4.6 310 00:39 19.12.2019
2160 Clouds 23 1010 68 10000 4.6 310 00:39 19.12.2019
2161 Clouds 23 1010 68 10000 4.6 310 00:39 19.12.2019
2162 Clouds 22 1010 68 10000 4.6 310 00:20 19.12.2019
2163 Clouds 21 1010 82 10000 2.6 360 23:45 18.12.2019
2164 Clouds 21 1010 82 10000 2.6 360 23:45 18.12.2019
2165 Clouds 21 1010 82 10000 2.6 360 23:19 18.12.2019
2166 Clouds 20 1009 82 10000 2.6 340 22:58 18.12.2019
2167 Clouds 20 1009 77 10000 3.1 290 22:40 18.12.2019
2168 Clouds 20 1009 77 10000 3.1 290 22:22 18.12.2019
2169 Clouds 20 1009 77 10000 4.1 270 21:59 18.12.2019
2170 Clouds 20 1009 73 10000 3.6 280 21:41 18.12.2019
2171 Clouds 20 1009 73 10000 3.6 280 21:21 18.12.2019
2172 Clouds 21 1009 77 10000 4.1 280 20:58 18.12.2019
2173 Clouds 21 1009 73 10000 4.1 270 20:39 18.12.2019
2174 Clouds 21 1009 73 10000 4.1 270 20:20 18.12.2019
2175 Clouds 21 1009 77 10000 4.6 280 19:57 18.12.2019
2176 Clouds 21 1009 77 10000 5.1 270 19:39 18.12.2019
2177 Clouds 21 1009 77 10000 5.1 270 19:39 18.12.2019
2178 Clouds 20 1009 77 10000 5.1 270 19:19 18.12.2019
2179 Clouds 21 1009 77 10000 5.1 270 18:59 18.12.2019
2180 Clouds 21 1009 77 10000 5.1 270 18:41 18.12.2019
2181 Clouds 21 1009 77 10000 5.1 270 18:22 18.12.2019
2182 Clouds 21 1009 77 10000 4.1 270 17:56 18.12.2019
2183 Clouds 21 1010 83 10000 3.6 280 17:38 18.12.2019
2184 Clouds 21 1010 83 10000 3.6 280 17:38 18.12.2019
2185 Clouds 21 1010 83 10000 3.6 280 17:19 18.12.2019
2186 Clouds 21 1010 83 10000 4.1 270 16:43 18.12.2019
2187 Clouds 21 1010 77 10000 4.1 260 16:24 18.12.2019
2188 Clouds 21 1010 83 10000 3.6 290 15:59 18.12.2019
2189 Clouds 21 1011 83 10000 3.6 290 15:40 18.12.2019
2190 Clouds 21 1011 83 10000 3.6 290 15:21 18.12.2019
2191 Clouds 22 1010 78 10000 3.1 280 14:58 18.12.2019
2192 Clouds 22 1010 78 10000 3.6 260 14:40 18.12.2019
2193 Clouds 22 1010 78 10000 3.6 260 14:19 18.12.2019
2194 Clouds 22 1011 83 10000 3.6 260 13:56 18.12.2019
2195 Clouds 22 1011 83 10000 4.1 250 13:37 18.12.2019
2196 Clouds 22 1011 83 10000 4.1 250 13:19 18.12.2019
2197 Clouds 23 1010 78 10000 4.6 260 12:54 18.12.2019
2198 Clouds 23 1010 78 10000 4.6 260 12:54 18.12.2019
2199 Clouds 23 1010 83 10000 5.1 250 12:36 18.12.2019
2200 Clouds 24 1010 65 10000 6.2 260 12:18 18.12.2019
2201 Clouds 24 1010 65 10000 6.2 260 11:54 18.12.2019
2202 Clouds 25 1009 57 10000 6.2 260 11:36 18.12.2019
2203 Clouds 26 1009 57 10000 6.2 260 11:18 18.12.2019
2204 Clouds 27 1009 39 10000 6.2 260 10:54 18.12.2019
2205 Clouds 27 1009 39 10000 6.2 260 10:54 18.12.2019
2206 Clear 27 1009 39 10000 5.7 270 10:36 18.12.2019
2207 Clear 28 1009 39 10000 5.7 270 10:18 18.12.2019
2208 Clear 29 1009 25 10000 6.7 290 09:21 18.12.2019
2209 Clear 29 1008 23 10000 6.7 280 08:57 18.12.2019
2210 Clear 29 1008 23 10000 6.7 280 08:57 18.12.2019
2211 Clear 29 1008 23 10000 6.7 280 08:57 18.12.2019
2212 Clear 30 1008 22 10000 5.7 280 08:39 18.12.2019
2213 Clouds 32 1008 22 10000 5.7 280 08:20 18.12.2019
2214 Clouds 33 1008 24 10000 5.1 280 07:42 18.12.2019
2215 Clouds 33 1008 24 10000 5.1 280 07:21 18.12.2019
2216 Clouds 34 1008 23 10000 6.2 260 06:53 18.12.2019
2217 Clouds 33 1008 23 10000 5.1 250 06:26 18.12.2019
2218 Clouds 31 1009 26 10000 4.6 260 05:39 18.12.2019
2219 Clouds 33 1009 26 10000 3.1 290 04:35 18.12.2019
2220 Clouds 31 1010 28 10000 5.1 270 02:50 18.12.2019
2221 Clouds 30 1010 30 10000 5.1 270 02:30 18.12.2019
2222 Clouds 28 1010 30 10000 4.1 90 01:47 18.12.2019
2223 Clouds 27 1010 32 10000 5.7 110 01:28 18.12.2019
2224 Clouds 27 1011 31 10000 4.6 70 00:59 18.12.2019
2225 Clouds 26 1011 31 10000 3.6 50 00:39 18.12.2019
2226 Clouds 26 1011 31 10000 3.6 50 00:21 18.12.2019
2227 Clouds 24 1010 35 10000 4.6 70 23:44 17.12.2019
2228 Clouds 24 1010 35 10000 4.6 70 23:24 17.12.2019
2229 Clouds 24 1010 33 10000 3.6 50 22:57 17.12.2019
2230 Clouds 23 1010 31 10000 3.1 60 22:39 17.12.2019
2231 Clouds 23 1010 31 10000 3.1 60 22:20 17.12.2019
2232 Clouds 23 1010 29 10000 2.6 50 21:57 17.12.2019
2233 Clouds 23 1010 29 10000 3.1 120 21:39 17.12.2019
2234 Clouds 23 1010 29 10000 3.1 120 21:20 17.12.2019
2235 Clouds 24 1010 29 10000 2.1 90 20:59 17.12.2019
2236 Clouds 24 1010 29 10000 2.1 90 20:40 17.12.2019
2237 Clouds 24 1010 29 10000 2.1 90 20:19 17.12.2019
2238 Clouds 24 1010 29 10000 2.6 120 19:59 17.12.2019
2239 Clouds 24 1011 36 10000 1.5 260 19:41 17.12.2019
2240 Clouds 24 1011 36 10000 1.5 260 19:20 17.12.2019
2241 Clouds 23 1011 64 10000 7.2 100 18:57 17.12.2019
2242 Clouds 22 1011 72 10000 2.1 140 18:38 17.12.2019
2243 Clouds 22 1011 72 10000 2.1 140 18:20 17.12.2019
2244 Clouds 22 1011 72 10000 7.2 100 17:55 17.12.2019
2245 Clouds 22 1011 68 10000 2.6 210 17:37 17.12.2019
2246 Clouds 23 1011 64 10000 7.2 100 17:18 17.12.2019
2247 Clouds 23 1011 64 10000 7.2 100 16:55 17.12.2019
2248 Clouds 23 1011 73 10000 3.1 200 16:36 17.12.2019
2249 Clouds 23 1011 73 10000 3.1 200 16:18 17.12.2019
2250 Clouds 23 1012 73 10000 1.5 160 16:18 17.12.2019
2251 Clouds 24 1011 61 10000 7.2 100 15:38 17.12.2019
2252 Clouds 24 1011 61 10000 7.2 100 15:20 17.12.2019
2253 Clouds 24 1011 61 10000 7.2 100 14:57 17.12.2019
2254 Clouds 24 1011 57 10000 7.2 100 14:38 17.12.2019
2255 Clouds 25 1011 57 10000 7.2 100 14:19 17.12.2019
2256 Clouds 25 1011 57 10000 7.2 100 14:19 17.12.2019
2257 Clouds 25 1011 54 10000 4.6 160 13:58 17.12.2019
2258 Clouds 25 1010 47 10000 4.6 160 13:39 17.12.2019
2259 Clouds 26 1010 47 10000 4.6 160 13:19 17.12.2019
2260 Clouds 26 1010 47 10000 4.6 160 12:59 17.12.2019
2261 Clouds 27 1010 39 10000 5.1 190 12:38 17.12.2019
2262 Clouds 27 1010 39 10000 5.1 190 12:38 17.12.2019
2263 Clouds 27 1010 30 10000 5.1 160 12:18 17.12.2019
2264 Clouds 27 1010 39 10000 5.1 190 12:18 17.12.2019
2265 Clouds 27 1010 30 10000 5.1 160 11:56 17.12.2019
2266 Clouds 27 1010 37 10000 7.2 230 11:37 17.12.2019
2267 Clouds 29 1009 33 10000 6.7 210 11:18 17.12.2019
2268 Clouds 29 1009 33 10000 6.7 210 10:57 17.12.2019
2269 Clouds 30 1009 31 10000 9.8 230 10:38 17.12.2019
2270 Clouds 31 1009 31 10000 9.8 230 10:19 17.12.2019
2271 Clouds 31 1009 26 10000 10.3 230 09:43 17.12.2019
2272 Clouds 31 1009 26 10000 10.3 230 09:22 17.12.2019
2273 Clouds 33 1009 23 10000 8.2 230 08:59 17.12.2019
2274 Clouds 33 1009 26 10000 8.7 230 08:40 17.12.2019
2275 Clear 30 1009 26 10000 8.7 230 08:22 17.12.2019
2276 Clouds 30 1009 26 10000 8.7 230 08:22 17.12.2019
2277 Clouds 32 1009 26 10000 9.3 240 07:58 17.12.2019
2278 Clouds 31 1009 28 10000 8.7 230 07:39 17.12.2019
2279 Clouds 32 1009 28 10000 8.7 230 07:21 17.12.2019
2280 Clouds 33 1009 24 10000 8.7 250 06:42 17.12.2019
2281 Clouds 31 1009 24 10000 8.7 250 06:24 17.12.2019
2282 Clouds 31 1009 30 10000 7.2 270 06:24 17.12.2019
2283 Clouds 32 1009 23 10000 6.2 240 05:41 17.12.2019
2284 Clouds 34 1010 24 10000 6.7 220 04:53 17.12.2019
2285 Clouds 30 1010 29 10000 8.2 230 03:50 17.12.2019
2286 Clouds 32 1010 23 10000 2.6 230 02:25 17.12.2019
2287 Clouds 28 1011 34 10000 2.6 260 01:21 17.12.2019
2288 Clouds 26 1011 39 10000 2.6 310 00:45 17.12.2019
2289 Clouds 24 1011 44 10000 1.5 340 00:21 17.12.2019
2290 Clouds 24 1011 44 10000 1.5 340 00:21 17.12.2019
2291 Clouds 24 1011 44 10000 1.5 340 00:21 17.12.2019
2292 Clouds 22 1010 72 10000 3.1 180 23:44 16.12.2019
2293 Clouds 21 1010 72 10000 3.1 180 23:20 16.12.2019
2294 Clouds 20 1010 77 10000 3.1 180 22:59 16.12.2019
2295 Clouds 20 1009 72 10000 3.6 10 22:39 16.12.2019
2296 Clouds 21 1009 72 10000 3.6 10 22:21 16.12.2019
2297 Clouds 20 1009 82 10000 2.6 50 21:57 16.12.2019
2298 Clouds 20 1009 88 10000 2.1 40 21:39 16.12.2019
2299 Clouds 20 1009 88 10000 2.1 40 21:20 16.12.2019
2300 Clouds 20 1009 88 10000 2.1 240 20:58 16.12.2019
2301 Clouds 21 1009 77 10000 1 260 20:39 16.12.2019
2302 Clouds 21 1009 77 10000 1 260 20:39 16.12.2019
2303 Clouds 21 1009 77 10000 1 260 20:19 16.12.2019
2304 Clouds 21 1009 77 10000 2.6 200 19:56 16.12.2019
2305 Clouds 22 1009 73 10000 2.6 180 19:37 16.12.2019
2306 Clouds 22 1009 73 10000 2.6 180 19:19 16.12.2019
2307 Clouds 22 1009 73 10000 2.6 210 18:58 16.12.2019
2308 Clouds 22 1009 73 10000 2.6 210 18:58 16.12.2019
2309 Clouds 22 1009 69 10000 3.1 200 18:40 16.12.2019
2310 Clouds 22 1009 69 10000 3.1 200 18:40 16.12.2019
2311 Clouds 23 1009 69 10000 3.1 200 18:20 16.12.2019
2312 Clouds 23 1009 64 10000 3.6 200 17:57 16.12.2019
2313 Clouds 23 1009 64 10000 3.6 210 17:39 16.12.2019
2314 Clouds 23 1009 64 10000 5.1 190 17:21 16.12.2019
2315 Clouds 23 1009 64 10000 5.1 190 16:57 16.12.2019
2316 Clouds 24 1009 61 10000 6.2 190 16:38 16.12.2019
2317 Clouds 24 1009 61 10000 6.2 190 16:19 16.12.2019
2318 Clouds 24 1009 57 10000 3.6 210 15:58 16.12.2019
2319 Clouds 24 1009 57 10000 4.6 210 15:38 16.12.2019
2320 Clouds 24 1009 57 10000 4.6 210 15:20 16.12.2019
2321 Clouds 24 1009 54 10000 4.6 210 14:55 16.12.2019
2322 Clouds 25 1009 50 10000 4.6 210 14:37 16.12.2019
2323 Clouds 25 1009 50 10000 4.6 210 14:18 16.12.2019
2324 Clouds 25 1008 44 10000 5.7 210 13:56 16.12.2019
2325 Clouds 26 1008 42 10000 5.1 210 13:37 16.12.2019
2326 Clouds 26 1008 42 10000 5.1 210 13:19 16.12.2019
2327 Clouds 26 1008 34 10000 6.7 220 12:57 16.12.2019
2328 Clouds 26 1007 37 10000 6.7 210 12:39 16.12.2019
2329 Clouds 26 1007 37 10000 6.7 210 12:18 16.12.2019
2330 Clouds 26 1007 37 10000 7.7 220 11:57 16.12.2019
2331 Clouds 27 1007 35 10000 5.7 220 11:39 16.12.2019
2332 Clear 28 1006 30 10000 5.7 220 11:19 16.12.2019
2333 Clear 29 1006 30 10000 5.7 220 10:54 16.12.2019
2334 Clear 30 1006 33 10000 5.7 220 10:36 16.12.2019
2335 Clouds 30 1006 33 10000 5.7 220 10:18 16.12.2019
2336 Clouds 31 1005 24 10000 7.7 270 09:43 16.12.2019
2337 Clear 32 1005 24 10000 7.7 270 09:24 16.12.2019
2338 Clear 33 1005 20 10000 6.7 260 08:41 16.12.2019
2339 Clear 35 1005 20 10000 6.7 260 08:20 16.12.2019
2340 Clear 35 1005 22 10000 7.7 270 07:53 16.12.2019
2341 Clear 36 1005 20 10000 7.7 270 07:31 16.12.2019
2342 Clear 34 1005 18 10000 7.7 260 06:58 16.12.2019
2343 Clear 33 1005 16 10000 6.7 270 06:40 16.12.2019
2344 Clear 37 1005 19 10000 7.2 260 06:20 16.12.2019
2345 Clear 38 1005 18 10000 5.1 250 05:41 16.12.2019
2346 Clear 37 1005 18 10000 5.1 250 05:22 16.12.2019
2347 Clear 35 1006 16 10000 7.7 240 03:28 16.12.2019
2348 Clear 29 1006 20 10000 3.6 190 01:46 16.12.2019
2349 Clear 29 1006 23 10000 3.1 180 01:21 16.12.2019
2350 Clear 27 1006 28 10000 4.1 180 00:39 16.12.2019
2351 Clear 26 1006 34 10000 3.1 220 00:19 16.12.2019
2352 Clear 25 1006 49 10000 2.1 210 23:44 15.12.2019
2353 Clear 23 1006 49 10000 2.1 210 23:25 15.12.2019
2354 Clear 23 1006 43 10000 3.1 220 22:57 15.12.2019
2355 Clear 23 1005 43 10000 3.1 220 22:38 15.12.2019
2356 Clear 23 1005 43 10000 3.1 220 22:38 15.12.2019
2357 Clear 23 1005 43 10000 3.1 220 22:19 15.12.2019
2358 Clear 23 1005 43 10000 2.6 210 21:58 15.12.2019
2359 Clear 23 1004 36 10000 3.6 220 21:39 15.12.2019
2360 Clear 24 1004 36 10000 3.6 220 21:20 15.12.2019
2361 Clear 24 1005 44 10000 3.6 200 20:58 15.12.2019
2362 Clear 24 1005 44 10000 3.6 200 20:58 15.12.2019
2363 Clear 24 1005 44 10000 4.1 220 20:40 15.12.2019
2364 Clear 25 1004 24 10000 5.1 190 20:21 15.12.2019
2365 Clear 25 1004 24 10000 5.1 190 20:21 15.12.2019
2366 Clear 24 1004 24 10000 5.1 190 20:21 15.12.2019
2367 Clouds 24 1005 44 10000 3.1 200 19:58 15.12.2019
2368 Clear 24 1005 47 10000 2.6 210 19:40 15.12.2019
2369 Clouds 25 1005 47 10000 2.6 210 19:20 15.12.2019
2370 Clear 25 1005 36 10000 4.1 220 18:58 15.12.2019
2371 Clouds 25 1005 34 10000 2.6 200 18:39 15.12.2019
2372 Clouds 25 1005 41 10000 3.6 170 18:19 15.12.2019
2373 Clouds 25 1005 41 10000 3.6 170 17:56 15.12.2019
2374 Clouds 25 1005 41 10000 3.6 170 17:56 15.12.2019
2375 Clear 25 1005 38 10000 6.2 200 17:38 15.12.2019
2376 Clear 25 1005 36 10000 6.7 200 17:19 15.12.2019
2377 Clear 26 1005 36 10000 6.7 200 16:57 15.12.2019
2378 Clear 26 1005 34 10000 7.7 200 16:39 15.12.2019
2379 Clear 26 1005 34 10000 6.7 200 16:20 15.12.2019
2380 Clear 26 1005 34 10000 6.7 200 15:55 15.12.2019
2381 Clear 26 1006 32 10000 6.7 190 15:37 15.12.2019
2382 Clear 26 1006 32 10000 6.7 190 15:18 15.12.2019
2383 Clear 26 1005 30 10000 4.6 190 14:55 15.12.2019
2384 Clear 26 1005 30 10000 5.1 210 14:36 15.12.2019
2385 Clear 27 1005 30 10000 5.1 210 14:18 15.12.2019
2386 Clear 27 1004 28 10000 6.2 210 13:55 15.12.2019
2387 Clear 28 1004 28 10000 6.2 210 13:37 15.12.2019
2388 Clear 28 1004 28 10000 3.6 200 13:18 15.12.2019
2389 Clear 28 1004 28 10000 6.2 210 13:18 15.12.2019
2390 Clear 27 1004 27 10000 5.7 220 12:56 15.12.2019
2391 Clear 28 1004 23 10000 6.7 230 12:37 15.12.2019
2392 Smoke 29 1003 21 10000 5.1 190 12:19 15.12.2019
2393 Smoke 30 1003 17 10000 5.1 190 11:38 15.12.2019
2394 Clear 32 1003 17 10000 9.3 230 11:20 15.12.2019
2395 Clear 32 1003 17 10000 9.3 230 10:58 15.12.2019
2396 Clear 33 1003 15 10000 5.1 190 10:40 15.12.2019
2397 Clear 33 1003 15 10000 5.1 190 10:19 15.12.2019
2398 Clear 34 1003 14 10000 9.3 220 09:58 15.12.2019
2399 Clear 34 1003 16 10000 9.3 230 09:37 15.12.2019
2400 Clear 34 1003 11 10000 8.7 200 09:19 15.12.2019
2401 Clear 36 1003 14 10000 9.3 230 08:55 15.12.2019
2402 Clear 36 1003 10 10000 10.8 230 08:36 15.12.2019
2403 Clear 36 1003 10 10000 10.8 230 08:18 15.12.2019
2404 Clear 37 1003 10 10000 10.8 230 07:47 15.12.2019
2405 Clear 38 1003 10 10000 8.2 230 07:28 15.12.2019
2406 Clear 38 1003 11 10000 6.7 240 06:26 15.12.2019
2407 Clear 37 1004 10 10000 4.6 260 05:42 15.12.2019
2408 Clear 39 1004 9 10000 2.6 330 05:21 15.12.2019
2409 Clear 38 1004 10 10000 8.7 270 04:21 15.12.2019
2410 Clear 35 1005 16 10000 4.6 90 02:55 15.12.2019
2411 Clear 34 1005 21 10000 6.2 80 02:32 15.12.2019
2412 Clear 31 1005 14 10000 7.7 80 01:41 15.12.2019
2413 Clear 31 1005 14 10000 7.7 80 01:19 15.12.2019
2414 Clear 30 1006 26 10000 3.6 60 00:49 15.12.2019
2415 Clear 29 1006 26 10000 5.7 80 00:31 15.12.2019
2416 Clear 26 1006 27 10000 5.7 80 23:41 14.12.2019
2417 Clear 26 1006 27 10000 5.7 80 23:23 14.12.2019
2418 Clear 26 1006 27 10000 4.6 70 22:59 14.12.2019
2419 Clear 26 1006 24 10000 2.6 30 22:41 14.12.2019
2420 Clear 26 1006 24 10000 2.6 30 22:22 14.12.2019
2421 Clear 26 1006 24 10000 2.1 20 21:57 14.12.2019
2422 Clear 26 1006 24 10000 2.1 50 21:38 14.12.2019
2423 Clear 26 1006 24 10000 2.1 50 21:19 14.12.2019
2424 Clear 27 1006 22 10000 2.6 160 20:59 14.12.2019
2425 Clear 27 1006 20 10000 5.1 110 20:40 14.12.2019
2426 Clouds 27 1006 20 10000 5.1 110 20:20 14.12.2019
2427 Clouds 27 1006 21 10000 6.2 110 19:57 14.12.2019
2428 Clouds 27 1006 23 10000 7.2 100 19:38 14.12.2019
2429 Clouds 27 1006 23 10000 7.2 100 19:20 14.12.2019
2430 Clouds 28 1006 23 10000 8.2 110 18:56 14.12.2019
2431 Clouds 27 1007 21 10000 5.1 110 18:38 14.12.2019
2432 Clouds 27 1007 21 10000 5.1 110 18:38 14.12.2019
2433 Clouds 27 1007 21 10000 5.1 110 18:19 14.12.2019
2434 Clouds 25 1007 29 10000 3.6 70 17:44 14.12.2019
2435 Clouds 25 1007 29 10000 3.6 70 17:24 14.12.2019
2436 Clouds 25 1007 36 10000 5.1 120 16:58 14.12.2019
2437 Clouds 25 1008 36 10000 5.1 120 16:39 14.12.2019
2438 Clouds 25 1008 36 10000 5.1 120 16:18 14.12.2019
2439 Clouds 26 1008 28 10000 5.1 120 15:43 14.12.2019
2440 Clouds 27 1008 28 10000 5.1 120 15:22 14.12.2019
2441 Clouds 28 1008 25 10000 5.1 130 14:59 14.12.2019
2442 Clouds 28 1008 23 10000 6.7 200 14:38 14.12.2019
2443 Clear 28 1008 23 10000 6.7 200 14:19 14.12.2019
2444 Clear 29 1008 19 10000 6.2 210 13:55 14.12.2019
2445 Clear 30 1007 18 10000 5.7 210 13:37 14.12.2019
2446 Clear 31 1007 16 10000 6.2 210 13:18 14.12.2019
2447 Clear 30 1007 12 10000 7.2 190 12:41 14.12.2019
2448 Clear 31 1007 12 10000 7.2 210 12:21 14.12.2019
2449 Clear 31 1007 12 10000 7.2 210 12:21 14.12.2019
2450 Clear 31 1007 12 10000 7.2 210 11:59 14.12.2019
2451 Clear 33 1007 11 10000 7.2 230 11:40 14.12.2019
2452 Clear 35 1007 11 10000 7.2 230 11:20 14.12.2019
2453 Clear 36 1007 8 10000 7.7 210 10:59 14.12.2019
2454 Clear 36 1007 8 10000 7.7 210 10:59 14.12.2019
2455 Clear 37 1007 6 10000 9.3 200 10:40 14.12.2019
2456 Clear 37 1007 6 10000 9.3 200 10:22 14.12.2019
2457 Clear 36 1007 7 10000 9.3 230 09:59 14.12.2019
2458 Clear 35 1007 8 10000 9.8 230 09:40 14.12.2019
2459 Clear 35 1007 8 10000 9.8 230 09:20 14.12.2019
2460 Clear 36 1008 8 10000 9.3 220 08:43 14.12.2019
2461 Clear 38 1008 8 10000 9.3 220 08:20 14.12.2019
2462 Clear 39 1008 9 10000 8.2 250 07:44 14.12.2019
2463 Clear 39 1008 9 10000 8.2 250 07:24 14.12.2019
2464 Clear 39 1008 7 10000 8.2 260 06:57 14.12.2019
2465 Clear 39 1009 7 10000 7.2 250 06:38 14.12.2019
2466 Clear 39 1009 9 10000 7.2 250 06:18 14.12.2019
2467 Clear 36 1009 8 10000 7.2 240 04:48 14.12.2019
2468 Clear 35 1011 18 10000 4.6 40 02:35 14.12.2019
2469 Clear 32 1011 22 10000 5.1 70 01:56 14.12.2019
2470 Clear 31 1011 23 10000 6.2 70 01:37 14.12.2019
2471 Clear 28 1012 24 10000 5.7 60 00:47 14.12.2019
2472 Clear 28 1012 24 10000 5.7 60 00:27 14.12.2019
2473 Clear 27 1012 26 10000 6.2 100 23:56 13.12.2019
2474 Clear 26 1012 27 10000 3.1 50 23:37 13.12.2019
2475 Clear 25 1011 27 10000 6.2 100 23:18 13.12.2019
2476 Clear 25 1011 26 10000 4.1 80 22:40 13.12.2019
2477 Clear 25 1011 26 10000 4.1 80 22:19 13.12.2019
2478 Clear 25 1011 27 10000 6.2 100 21:56 13.12.2019
2479 Clear 25 1011 22 10000 6.2 100 21:37 13.12.2019
2480 Clear 26 1011 22 10000 6.2 100 21:19 13.12.2019
2481 Clear 26 1011 23 10000 8.2 110 20:41 13.12.2019
2482 Clear 27 1011 23 10000 8.2 110 20:22 13.12.2019
2483 Clear 27 1011 23 10000 8.2 110 19:59 13.12.2019
2484 Clear 27 1011 23 10000 8.2 110 19:40 13.12.2019
2485 Clear 27 1011 23 10000 8.2 110 19:22 13.12.2019
2486 Clear 27 1012 21 10000 6.7 110 18:59 13.12.2019
2487 Clear 27 1012 24 10000 3.6 210 18:40 13.12.2019
2488 Clear 27 1012 24 10000 3.6 210 18:19 13.12.2019
2489 Clear 27 1013 25 10000 5.1 150 17:43 13.12.2019
2490 Clear 27 1013 25 10000 5.1 150 17:20 13.12.2019
2491 Clear 27 1013 25 10000 5.1 150 17:20 13.12.2019
2492 Clear 27 1013 21 10000 7.7 150 16:59 13.12.2019
2493 Clear 27 1013 21 10000 3.1 190 16:39 13.12.2019
2494 Clear 27 1013 21 10000 3.1 190 16:20 13.12.2019
2495 Clear 27 1014 18 10000 5.1 190 15:44 13.12.2019
2496 Clear 27 1014 18 10000 5.1 190 15:23 13.12.2019
2497 Clear 27 1014 18 10000 5.1 190 15:23 13.12.2019
2498 Clear 28 1014 20 10000 5.7 190 14:59 13.12.2019
2499 Clear 28 1014 20 10000 6.2 190 14:41 13.12.2019
2500 Clear 29 1014 20 10000 6.2 190 14:20 13.12.2019
2501 Clear 30 1013 19 10000 7.2 190 13:57 13.12.2019
2502 Clear 30 1013 19 10000 8.2 190 13:37 13.12.2019
2503 Clear 30 1013 19 10000 8.2 190 13:19 13.12.2019
2504 Clear 31 1013 15 10000 8.7 210 12:42 13.12.2019
2505 Clear 31 1013 15 10000 8.7 210 12:20 13.12.2019
2506 Clear 31 1013 12 10000 8.2 210 11:57 13.12.2019
2507 Clear 31 1013 12 10000 8.2 210 11:57 13.12.2019
2508 Clear 32 1012 11 10000 9.3 200 11:39 13.12.2019
2509 Clear 32 1012 11 10000 9.3 200 11:39 13.12.2019
2510 Clear 34 1012 11 10000 9.3 200 11:20 13.12.2019
2511 Clear 36 1012 12 10000 9.8 220 10:42 13.12.2019
2512 Clear 36 1012 12 10000 9.8 220 10:42 13.12.2019
2513 Clear 36 1012 12 10000 9.8 220 10:23 13.12.2019
2514 Clear 37 1012 10 10000 9.8 210 09:55 13.12.2019
2515 Clear 37 1012 10 10000 8.7 240 09:36 13.12.2019
2516 Clear 38 1012 10 10000 7.2 220 09:18 13.12.2019
2517 Clear 38 1012 10 10000 7.2 220 09:18 13.12.2019
2518 Clear 39 1012 11 10000 6.2 200 08:40 13.12.2019
2519 Clear 39 1012 6 10000 6.2 200 08:22 13.12.2019
2520 Clear 39 1013 7 10000 6.2 200 07:44 13.12.2019
2521 Clear 39 1013 7 10000 6.2 200 07:20 13.12.2019
2522 Clear 37 1013 7 10000 6.2 200 06:50 13.12.2019
2523 Clear 39 1014 8 10000 4.1 90 06:28 13.12.2019
2524 Clear 37 1014 8 10000 3.6 110 05:44 13.12.2019
2525 Clear 38 1014 8 10000 3.6 110 05:24 13.12.2019
2526 Clear 37 1015 10 10000 5.7 40 04:35 13.12.2019
2527 Clear 37 1016 11 10000 7.2 30 03:30 13.12.2019
2528 Clear 35 1016 13 10000 7.7 40 02:32 13.12.2019
2529 Clear 35 1016 13 10000 7.7 40 02:32 13.12.2019
2530 Clear 31 1016 18 10000 6.2 30 01:40 13.12.2019
2531 Clear 30 1016 20 10000 5.1 40 00:51 13.12.2019
2532 Clear 30 1016 20 10000 5.7 50 00:32 13.12.2019
2533 Clear 28 1016 24 10000 4.6 50 23:47 12.12.2019
2534 Clear 28 1016 24 10000 4.6 50 23:47 12.12.2019
2535 Clear 27 1016 27 10000 6.7 80 23:27 12.12.2019
2536 Clear 26 1016 29 10000 7.2 40 22:59 12.12.2019
2537 Clear 26 1015 27 10000 8.7 70 22:41 12.12.2019
2538 Clear 26 1015 27 10000 8.7 70 22:41 12.12.2019
2539 Clear 26 1015 27 10000 8.7 70 22:22 12.12.2019
2540 Clear 26 1015 27 10000 8.7 70 21:56 12.12.2019
2541 Clear 26 1015 27 10000 8.2 70 21:38 12.12.2019
2542 Clear 26 1015 27 10000 8.2 70 21:20 12.12.2019
2543 Clear 27 1015 24 10000 8.7 80 21:20 12.12.2019
2544 Clear 26 1015 24 10000 8.7 80 20:59 12.12.2019
2545 Clear 27 1014 24 10000 10.3 90 20:40 12.12.2019
2546 Clear 27 1014 24 10000 10.3 90 20:22 12.12.2019
2547 Clear 27 1014 22 10000 10.3 90 19:59 12.12.2019
2548 Clear 27 1014 21 10000 10.3 100 19:40 12.12.2019
2549 Clear 27 1014 21 10000 10.3 100 19:21 12.12.2019
2550 Clear 28 1015 21 10000 10.8 100 18:56 12.12.2019
2551 Clear 28 1015 21 10000 10.8 100 18:56 12.12.2019
2552 Clear 28 1015 18 10000 9.3 100 18:38 12.12.2019
2553 Clear 28 1015 18 10000 9.3 100 18:19 12.12.2019
2554 Clear 29 1015 17 10000 8.7 100 17:57 12.12.2019
2555 Clear 28 1015 18 10000 6.2 100 17:38 12.12.2019
2556 Clear 27 1015 18 10000 6.2 100 17:19 12.12.2019
2557 Clear 26 1015 25 10000 7.2 80 16:55 12.12.2019
2558 Clear 25 1015 27 10000 7.2 80 16:37 12.12.2019
2559 Clear 25 1015 27 10000 7.2 80 16:18 12.12.2019
2560 Clear 26 1015 27 10000 7.2 80 15:54 12.12.2019
2561 Clear 26 1015 27 10000 7.2 80 15:36 12.12.2019
2562 Clear 26 1015 27 10000 7.2 80 15:18 12.12.2019
2563 Clear 26 1015 27 10000 7.2 80 15:18 12.12.2019
2564 Clear 27 1015 26 10000 7.2 80 14:38 12.12.2019
2565 Clear 28 1015 26 10000 7.2 80 14:19 12.12.2019
2566 Clear 28 1015 26 10000 7.2 80 13:57 12.12.2019
2567 Clear 29 1015 23 10000 3.1 100 13:38 12.12.2019
2568 Clouds 29 1015 23 10000 3.1 100 13:20 12.12.2019
2569 Clouds 32 1015 18 10000 5.7 140 12:57 12.12.2019
2570 Clouds 32 1015 16 10000 5.1 130 12:38 12.12.2019
2571 Clouds 34 1015 15 10000 5.7 150 12:19 12.12.2019
2572 Clouds 34 1015 15 10000 5.7 150 12:19 12.12.2019
2573 Clouds 34 1015 15 10000 5.7 150 11:54 12.12.2019
2574 Clouds 35 1014 10 10000 5.7 150 11:36 12.12.2019
2575 Clear 36 1014 10 10000 5.7 150 11:18 12.12.2019
2576 Clear 36 1014 9 10000 5.1 120 10:41 12.12.2019
2577 Clear 37 1014 9 10000 5.1 120 10:23 12.12.2019
2578 Clear 37 1014 9 10000 5.1 120 10:23 12.12.2019
2579 Clear 37 1014 11 10000 5.7 160 09:59 12.12.2019
2580 Clear 37 1014 9 10000 4.1 180 09:41 12.12.2019
2581 Clear 36 1014 9 10000 4.1 180 09:23 12.12.2019
2582 Clear 35 1014 11 10000 5.1 170 08:55 12.12.2019
2583 Clear 36 1015 10 10000 5.7 180 08:36 12.12.2019
2584 Clear 36 1015 10 10000 5.7 180 08:18 12.12.2019
2585 Clear 38 1015 11 10000 6.2 80 07:41 12.12.2019
2586 Clear 38 1015 11 10000 6.2 80 07:21 12.12.2019
2587 Clear 37 1016 12 10000 8.7 100 06:44 12.12.2019
2588 Clear 37 1016 12 10000 8.7 100 06:44 12.12.2019
2589 Clear 37 1016 12 10000 8.7 100 06:23 12.12.2019
2590 Clear 37 1016 13 10000 6.2 90 05:35 12.12.2019
2591 Clear 35 1017 15 10000 7.2 60 04:49 12.12.2019
2592 Clear 30 1018 27 10000 6.2 60 02:44 12.12.2019
2593 Clear 30 1018 28 10000 4.1 60 02:26 12.12.2019
2594 Clouds 28 1018 32 10000 3.1 30 01:59 12.12.2019
2595 Clouds 27 1018 34 10000 6.7 80 01:36 12.12.2019
2596 Clear 25 1018 43 10000 7.2 90 00:50 12.12.2019
2597 Clear 23 1018 46 10000 5.7 90 00:22 12.12.2019
2598 Clear 23 1018 52 10000 8.7 80 23:58 11.12.2019
2599 Clear 22 1018 56 10000 8.7 80 23:39 11.12.2019
2600 Clear 22 1018 56 10000 8.7 80 23:19 11.12.2019
2601 Clear 21 1017 56 10000 4.6 100 22:57 11.12.2019
2602 Clear 21 1017 56 10000 5.1 90 22:38 11.12.2019
2603 Clear 21 1017 56 10000 5.1 90 22:19 11.12.2019
2604 Clear 22 1016 52 10000 10.3 90 21:55 11.12.2019
2605 Clear 22 1016 52 10000 8.2 90 21:36 11.12.2019
2606 Clear 22 1016 52 10000 8.2 90 21:18 11.12.2019
2607 Clear 22 1016 52 10000 8.2 90 21:18 11.12.2019
2608 Clear 23 1015 46 10000 9.3 90 20:55 11.12.2019
2609 Clouds 23 1015 46 10000 9.3 90 20:36 11.12.2019
2610 Clouds 23 1015 43 10000 9.8 90 20:18 11.12.2019
2611 Clouds 24 1015 41 10000 10.8 100 19:42 11.12.2019
2612 Clouds 24 1015 41 10000 10.8 100 19:23 11.12.2019
2613 Clouds 25 1015 41 10000 10.8 100 18:59 11.12.2019
2614 Clouds 25 1015 36 10000 10.8 100 18:40 11.12.2019
2615 Clouds 26 1015 36 10000 10.8 100 18:20 11.12.2019
2616 Clouds 27 1015 34 10000 11.3 100 17:56 11.12.2019
2617 Clouds 27 1015 32 10000 10.8 100 17:38 11.12.2019
2618 Clouds 27 1015 32 10000 10.8 100 17:38 11.12.2019
2619 Clouds 27 1015 32 10000 10.8 100 17:18 11.12.2019
2620 Clouds 28 1015 32 10000 11.3 110 16:55 11.12.2019
2621 Rain 29 1016 28 10000 8.7 110 16:37 11.12.2019
2622 Rain 29 1016 28 10000 8.7 110 16:18 11.12.2019
2623 Rain 29 1015 19 10000 10.3 110 15:56 11.12.2019
2624 Clouds 30 1015 17 10000 10.3 110 15:37 11.12.2019
2625 Clouds 30 1015 17 10000 10.3 110 15:18 11.12.2019
2626 Clouds 31 1015 14 10000 8.7 110 14:54 11.12.2019
2627 Clouds 31 1014 14 10000 10.3 100 14:36 11.12.2019
2628 Clouds 32 1014 14 10000 8.2 110 14:18 11.12.2019
2629 Clouds 32 1014 16 10000 8.7 120 13:42 11.12.2019
2630 Clear 32 1014 16 10000 8.7 120 13:22 11.12.2019
2631 Clear 33 1014 15 10000 10.3 100 12:58 11.12.2019
2632 Clear 31 1014 14 10000 7.2 110 12:39 11.12.2019
2633 Clear 31 1014 14 10000 7.2 110 12:21 11.12.2019
2634 Clear 31 1014 14 10000 7.2 110 12:21 11.12.2019
2635 Clear 34 1013 11 10000 7.2 110 11:58 11.12.2019
2636 Clear 36 1013 12 10000 8.2 130 11:39 11.12.2019
2637 Clear 36 1013 11 10000 7.2 100 11:19 11.12.2019
2638 Clear 36 1013 11 10000 7.2 100 11:19 11.12.2019
2639 Clear 37 1013 11 10000 7.2 100 10:57 11.12.2019
2640 Clear 37 1013 11 10000 8.7 130 10:38 11.12.2019
2641 Clear 37 1013 11 10000 8.7 130 10:19 11.12.2019
2642 Clear 38 1013 11 10000 7.2 120 09:43 11.12.2019
2643 Clear 38 1013 11 10000 9.3 120 09:21 11.12.2019
2644 Clear 37 1013 11 10000 9.3 120 08:58 11.12.2019
2645 Clear 38 1013 10 10000 9.3 140 08:39 11.12.2019
2646 Clear 37 1013 10 10000 9.3 140 08:19 11.12.2019
2647 Clear 37 1013 10 10000 9.3 140 08:19 11.12.2019
2648 Clear 37 1014 13 10000 7.7 100 07:57 11.12.2019
2649 Clear 37 1014 12 10000 9.3 100 07:39 11.12.2019
2650 Clear 37 1014 12 10000 9.3 100 07:21 11.12.2019
2651 Clear 37 1015 15 10000 8.2 100 06:44 11.12.2019
2652 Clear 36 1015 15 10000 8.2 100 06:22 11.12.2019
2653 Clear 36 1015 17 10000 8.7 90 05:45 11.12.2019
2654 Clear 34 1015 17 10000 8.7 90 05:21 11.12.2019
2655 Clear 33 1016 21 10000 7.2 120 04:38 11.12.2019
2656 Clear 29 1017 30 10000 6.2 100 02:49 11.12.2019
2657 Clear 25 1017 40 10000 5.1 70 01:26 11.12.2019
2658 Clear 24 1017 43 10000 3.6 110 00:49 11.12.2019
2659 Clear 22 1017 46 10000 3.6 110 00:22 11.12.2019
2660 Clear 21 1017 49 10000 8.2 100 23:58 10.12.2019
2661 Clear 20 1016 52 10000 6.2 110 23:39 10.12.2019
2662 Clear 20 1016 52 10000 6.2 110 23:21 10.12.2019
2663 Clear 20 1016 45 10000 7.2 90 22:40 10.12.2019
2664 Clear 20 1016 45 10000 7.2 90 22:40 10.12.2019
2665 Clear 20 1016 45 10000 7.2 90 22:22 10.12.2019
2666 Clear 20 1016 42 10000 7.7 100 21:57 10.12.2019
2667 Clear 20 1016 40 10000 11.3 100 21:39 10.12.2019
2668 Clear 20 1016 40 10000 11.3 100 21:21 10.12.2019
2669 Clear 21 1015 35 10000 10.3 100 20:57 10.12.2019
2670 Clear 21 1015 35 10000 12.3 100 20:38 10.12.2019
2671 Clear 21 1015 35 10000 12.3 100 20:38 10.12.2019
2672 Clouds 21 1015 35 10000 12.3 100 20:19 10.12.2019
2673 Clouds 22 1015 33 10000 11.8 100 19:55 10.12.2019
2674 Clouds 23 1015 31 10000 11.3 100 19:37 10.12.2019
2675 Clouds 23 1015 31 10000 11.3 100 19:18 10.12.2019
2676 Clouds 24 1015 29 10000 11.8 100 18:40 10.12.2019
2677 Clouds 24 1015 29 10000 11.8 100 18:20 10.12.2019
2678 Clouds 25 1015 29 10000 12.3 100 17:58 10.12.2019
2679 Clouds 25 1015 29 10000 13.9 100 17:40 10.12.2019
2680 Clouds 25 1015 29 10000 13.9 100 17:20 10.12.2019
2681 Clouds 26 1015 27 10000 11.8 100 16:54 10.12.2019
2682 Clouds 26 1015 26 10000 14.4 100 16:36 10.12.2019
2683 Clouds 27 1015 26 10000 14.4 100 16:18 10.12.2019
2684 Clouds 27 1015 26 10000 14.4 100 16:18 10.12.2019
2685 Clouds 27 1015 26 10000 14.4 100 16:18 10.12.2019
2686 Clouds 26 1014 17 10000 5.7 120 15:38 10.12.2019
2687 Clouds 26 1014 17 10000 5.7 120 15:18 10.12.2019
2688 Clouds 26 1014 17 10000 5.7 120 15:18 10.12.2019
2689 Clouds 25 1014 24 10000 4.1 190 14:56 10.12.2019
2690 Clouds 26 1014 23 10000 6.2 200 14:37 10.12.2019
2691 Clear 26 1014 23 10000 6.2 200 14:19 10.12.2019
2692 Clear 27 1014 23 10000 6.7 200 13:56 10.12.2019
2693 Clear 27 1014 23 10000 6.7 200 13:56 10.12.2019
2694 Clear 27 1014 28 10000 6.7 200 13:38 10.12.2019
2695 Clouds 27 1014 28 10000 6.7 200 13:19 10.12.2019
2696 Clouds 27 1014 27 10000 5.7 210 12:45 10.12.2019
2697 Clouds 27 1014 27 10000 5.7 210 12:45 10.12.2019
2698 Clouds 27 1014 27 10000 5.7 210 12:25 10.12.2019
2699 Clouds 28 1014 31 10000 6.7 230 11:45 10.12.2019
2700 Clear 30 1014 29 10000 6.2 250 11:25 10.12.2019
2701 Clear 32 1013 21 10000 6.2 240 10:58 10.12.2019
2702 Clear 33 1013 20 10000 6.2 240 10:40 10.12.2019
2703 Clear 33 1013 20 10000 6.2 240 10:22 10.12.2019
2704 Clear 33 1013 20 10000 6.7 250 09:56 10.12.2019
2705 Clear 33 1014 17 10000 6.7 250 09:38 10.12.2019
2706 Clear 33 1014 17 10000 6.7 250 09:38 10.12.2019
2707 Clear 31 1014 17 10000 6.7 250 09:20 10.12.2019
2708 Clear 32 1014 16 10000 5.7 230 08:57 10.12.2019
2709 Clear 32 1014 16 10000 5.7 230 08:57 10.12.2019
2710 Clear 33 1014 12 10000 2.6 230 08:38 10.12.2019
2711 Clouds 32 1014 12 10000 2.6 230 08:19 10.12.2019
2712 Clouds 32 1014 11 10000 7.7 230 07:44 10.12.2019
2713 Clouds 32 1015 12 10000 7.7 230 07:25 10.12.2019
2714 Clouds 35 1015 13 10000 7.7 230 06:48 10.12.2019
2715 Clouds 35 1016 13 10000 4.1 130 06:22 10.12.2019
2716 Clouds 34 1016 13 10000 4.1 130 05:55 10.12.2019
2717 Clouds 30 1017 19 10000 8.2 240 04:56 10.12.2019
2718 Clouds 30 1018 26 10000 3.6 150 03:40 10.12.2019
2719 Clouds 28 1018 30 10000 3.6 130 02:47 10.12.2019
2720 Clouds 24 1019 36 10000 5.1 110 01:50 10.12.2019
2721 Clouds 24 1019 38 10000 5.1 110 01:25 10.12.2019
2722 Clouds 22 1019 43 10000 4.1 100 00:43 10.12.2019
2723 Clouds 21 1019 43 10000 4.1 100 00:24 10.12.2019
2724 Clouds 19 1019 48 10000 7.2 110 23:43 09.12.2019
2725 Clouds 18 1019 48 10000 7.2 110 23:24 09.12.2019
2726 Clouds 18 1018 52 10000 3.1 100 22:58 09.12.2019
2727 Clouds 18 1018 48 10000 4.6 110 22:40 09.12.2019
2728 Clouds 18 1018 48 10000 4.6 110 22:20 09.12.2019
2729 Clouds 18 1018 48 10000 2.1 130 21:57 09.12.2019
2730 Clouds 18 1017 48 10000 4.6 90 21:39 09.12.2019
2731 Clouds 18 1017 48 10000 4.6 90 21:19 09.12.2019
2732 Clouds 17 1018 59 10000 3.1 120 20:57 09.12.2019
2733 Clouds 17 1018 59 10000 3.1 120 20:57 09.12.2019
2734 Clouds 17 1018 67 10000 3.1 120 20:39 09.12.2019
2735 Clear 17 1018 67 10000 3.1 120 20:20 09.12.2019
2736 Clear 17 1017 87 10000 2.6 10 19:56 09.12.2019
2737 Clear 17 1018 87 10000 1.5 230 19:38 09.12.2019
2738 Clear 17 1018 87 10000 1.5 230 19:19 09.12.2019
2739 Clear 16 1018 87 10000 2.6 110 18:58 09.12.2019
2740 Clear 17 1018 82 10000 7.2 110 18:38 09.12.2019
2741 Clear 17 1018 82 10000 7.2 110 18:19 09.12.2019
2742 Clear 17 1018 82 10000 3.6 190 17:58 09.12.2019
2743 Clear 18 1018 77 10000 3.6 200 17:39 09.12.2019
2744 Clear 18 1018 77 10000 3.6 200 17:20 09.12.2019
2745 Clear 18 1019 72 10000 3.6 180 16:56 09.12.2019
2746 Clear 19 1019 72 10000 6.2 170 16:37 09.12.2019
2747 Clear 19 1019 72 10000 6.2 170 16:19 09.12.2019
2748 Clear 19 1020 68 10000 6.2 170 15:55 09.12.2019
2749 Clear 19 1020 68 10000 6.2 170 15:37 09.12.2019
2750 Clear 20 1020 68 10000 6.2 170 15:19 09.12.2019
2751 Clear 20 1020 72 10000 4.6 190 14:55 09.12.2019
2752 Clear 20 1020 64 10000 6.2 170 14:37 09.12.2019
2753 Clear 20 1020 60 10000 6.2 170 14:18 09.12.2019
2754 Clear 21 1020 73 10000 6.2 210 13:39 09.12.2019
2755 Clear 21 1020 73 10000 6.2 210 13:20 09.12.2019
2756 Clear 21 1019 53 10000 6.2 170 12:57 09.12.2019
2757 Clear 22 1019 46 10000 6.2 170 12:38 09.12.2019
2758 Clear 22 1019 46 10000 6.2 170 12:38 09.12.2019
2759 Clear 22 1019 46 10000 6.2 170 12:20 09.12.2019
2760 Clear 23 1018 44 10000 6.2 170 11:59 09.12.2019
2761 Clear 23 1018 41 10000 6.2 170 11:39 09.12.2019
2762 Clear 23 1018 41 10000 6.2 170 11:21 09.12.2019
2763 Clear 24 1018 42 10000 7.7 240 10:55 09.12.2019
2764 Clear 26 1018 39 10000 6.7 230 10:37 09.12.2019
2765 Clear 26 1018 39 10000 6.7 230 10:18 09.12.2019
2766 Clear 26 1018 42 10000 8.7 220 09:41 09.12.2019
2767 Clear 26 1018 42 10000 8.7 220 09:22 09.12.2019
2768 Clear 27 1018 37 10000 8.2 240 08:55 09.12.2019
2769 Clear 27 1018 37 10000 8.7 230 08:37 09.12.2019
2770 Clear 28 1018 37 10000 8.7 230 08:19 09.12.2019
2771 Clear 29 1018 22 10000 2.6 110 07:42 09.12.2019
2772 Clear 29 1018 22 10000 2.6 110 07:24 09.12.2019
2773 Clear 30 1019 22 10000 4.1 200 06:49 09.12.2019
2774 Clear 30 1019 23 10000 9.3 230 06:26 09.12.2019
2775 Clear 29 1020 28 10000 9.3 230 05:29 09.12.2019
2776 Clear 28 1020 28 10000 9.3 230 04:49 09.12.2019
2777 Clear 26 1021 34 10000 3.1 100 03:45 09.12.2019
2778 Clear 23 1021 43 10000 5.1 100 02:24 09.12.2019
2779 Clear 21 1021 52 10000 7.2 90 01:44 09.12.2019
2780 Clear 20 1021 52 10000 7.2 80 00:51 09.12.2019
2781 Clear 19 1021 52 10000 4.1 90 00:31 09.12.2019
2782 Clear 18 1020 59 10000 5.7 100 23:43 08.12.2019
2783 Clear 17 1020 59 10000 5.7 100 23:24 08.12.2019
2784 Clear 16 1020 63 10000 5.1 90 22:58 08.12.2019
2785 Clear 16 1020 59 10000 4.1 110 22:39 08.12.2019
2786 Clear 16 1020 59 10000 4.1 110 22:39 08.12.2019
2787 Clear 16 1020 59 10000 4.1 110 22:20 08.12.2019
2788 Clear 16 1019 59 10000 5.7 110 21:58 08.12.2019
2789 Clear 16 1019 59 10000 4.6 110 21:40 08.12.2019
2790 Clear 16 1019 59 10000 4.6 110 21:21 08.12.2019
2791 Clear 15 1019 76 10000 2.1 140 20:57 08.12.2019
2792 Clear 14 1019 93 10000 2.1 310 20:38 08.12.2019
2793 Clear 15 1019 93 10000 2.1 310 20:20 08.12.2019
2794 Clear 15 1019 93 10000 2.1 310 20:20 08.12.2019
2795 Clear 14 1019 82 10000 2.6 210 19:59 08.12.2019
2796 Clear 15 1019 77 10000 5.1 210 19:41 08.12.2019
2797 Clear 15 1019 77 10000 5.1 210 19:22 08.12.2019
2798 Clear 15 1019 77 10000 4.6 190 18:55 08.12.2019
2799 Clear 15 1019 87 10000 4.1 200 18:37 08.12.2019
2800 Clear 16 1019 77 10000 3.6 210 18:19 08.12.2019
2801 Clear 16 1019 87 10000 4.1 200 18:19 08.12.2019
2802 Clear 16 1019 77 10000 3.6 210 17:56 08.12.2019
2803 Clear 17 1019 72 10000 3.6 210 17:38 08.12.2019
2804 Clear 17 1019 72 10000 3.6 210 17:38 08.12.2019
2805 Clear 17 1019 72 10000 3.6 210 17:19 08.12.2019
2806 Clear 17 1019 68 10000 3.1 210 16:57 08.12.2019
2807 Clear 17 1020 72 10000 4.6 210 16:39 08.12.2019
2808 Clear 17 1020 72 10000 4.6 210 16:20 08.12.2019
2809 Clear 18 1020 72 10000 5.7 200 15:55 08.12.2019
2810 Clear 18 1020 68 10000 4.6 200 15:36 08.12.2019
2811 Clear 18 1020 68 10000 4.6 200 15:18 08.12.2019
2812 Clear 19 1020 68 10000 6.2 210 14:43 08.12.2019
2813 Clear 19 1020 68 10000 6.2 210 14:24 08.12.2019
2814 Clear 19 1019 68 10000 6.2 210 13:57 08.12.2019
2815 Clear 19 1020 72 10000 6.2 210 13:39 08.12.2019
2816 Clouds 19 1020 72 10000 6.2 210 13:21 08.12.2019
2817 Clouds 20 1019 60 10000 6.7 220 12:55 08.12.2019
2818 Clouds 20 1019 56 10000 7.7 230 12:37 08.12.2019
2819 Clouds 20 1019 56 10000 7.7 230 12:18 08.12.2019
2820 Clouds 21 1018 53 10000 7.2 230 11:55 08.12.2019
2821 Clouds 21 1018 46 10000 6.7 230 11:37 08.12.2019
2822 Clear 22 1018 46 10000 6.7 230 11:18 08.12.2019
2823 Clear 23 1018 46 10000 7.7 240 10:39 08.12.2019
2824 Clear 23 1018 46 10000 7.7 240 10:20 08.12.2019
2825 Clear 23 1018 43 10000 7.7 240 09:58 08.12.2019
2826 Clear 23 1018 43 10000 8.7 230 09:39 08.12.2019
2827 Clear 23 1018 43 10000 8.7 230 09:20 08.12.2019
2828 Clear 23 1018 43 10000 8.7 230 09:20 08.12.2019
2829 Clear 24 1018 41 10000 8.7 230 08:58 08.12.2019
2830 Clear 24 1018 41 10000 9.3 240 08:38 08.12.2019
2831 Clear 24 1018 41 10000 9.3 240 08:19 08.12.2019
2832 Clear 24 1018 38 10000 7.7 240 07:44 08.12.2019
2833 Clear 24 1018 38 10000 7.7 240 07:20 08.12.2019
2834 Clear 25 1017 41 10000 7.7 260 06:51 08.12.2019
2835 Clear 25 1018 41 10000 6.7 240 06:22 08.12.2019
2836 Clear 24 1018 31 10000 6.2 180 05:49 08.12.2019
2837 Clear 24 1018 31 10000 6.2 180 05:18 08.12.2019
2838 Clouds 23 1019 43 10000 5.1 210 03:50 08.12.2019
2839 Clouds 23 1019 43 10000 7.2 180 03:23 08.12.2019
2840 Clouds 22 1018 49 10000 7.7 190 02:39 08.12.2019
2841 Clouds 20 1018 56 10000 7.7 180 01:55 08.12.2019
2842 Clouds 20 1018 59 10000 7.7 170 01:23 08.12.2019
2843 Clouds 19 1018 72 10000 5.7 160 00:40 08.12.2019
2844 Clouds 18 1018 72 10000 5.7 160 00:20 08.12.2019
2845 Clouds 18 1018 72 10000 5.7 160 00:20 08.12.2019
2846 Clouds 17 1016 87 10000 4.6 170 23:41 07.12.2019
2847 Clouds 16 1016 87 10000 4.6 170 23:21 07.12.2019
2848 Clouds 16 1016 87 10000 4.6 170 23:21 07.12.2019
2849 Clouds 16 1016 93 10000 3.6 170 22:57 07.12.2019
2850 Clouds 16 1015 87 10000 3.1 220 22:39 07.12.2019
2851 Clouds 15 1016 93 10000 3.08 173 22:21 07.12.2019
2852 Clouds 15 1015 93 10000 3.1 210 21:56 07.12.2019
2853 Clouds 15 1015 93 10000 3.6 180 21:38 07.12.2019
2854 Clouds 15 1015 93 10000 3.6 180 21:19 07.12.2019
2855 Clouds 16 1015 87 10000 4.1 190 20:59 07.12.2019
2856 Clouds 16 1014 93 10000 4.1 210 20:36 07.12.2019
2857 Clouds 16 1014 93 10000 4.1 210 20:18 07.12.2019
2858 Clouds 16 1014 87 10000 3.1 210 19:56 07.12.2019
2859 Clouds 16 1014 88 10000 3.6 220 19:38 07.12.2019
2860 Clouds 16 1014 88 10000 3.6 220 19:20 07.12.2019
2861 Rain 17 1014 88 10000 3.6 200 18:44 07.12.2019
2862 Rain 17 1014 93 10000 2.6 230 18:19 07.12.2019
2863 Clouds 17 1014 88 10000 2.6 160 17:58 07.12.2019
2864 Rain 17 1015 82 10000 3.6 190 17:40 07.12.2019
2865 Rain 17 1015 82 10000 3.6 190 17:21 07.12.2019
2866 Rain 18 1015 82 10000 2.6 180 16:56 07.12.2019
2867 Clouds 18 1015 77 10000 2.6 230 16:38 07.12.2019
2868 Clouds 18 1015 77 10000 2.6 230 16:19 07.12.2019
2869 Rain 19 1015 68 10000 4.6 260 15:56 07.12.2019
2870 Clouds 19 1015 64 10000 4.6 250 15:38 07.12.2019
2871 Clouds 19 1015 64 10000 4.6 250 15:18 07.12.2019
2872 Clouds 19 1014 60 10000 4.1 250 14:42 07.12.2019
2873 Clouds 19 1014 60 10000 4.1 250 14:19 07.12.2019
2874 Clouds 19 1014 60 10000 5.1 250 13:41 07.12.2019
2875 Clouds 20 1014 60 10000 5.1 250 13:21 07.12.2019
2876 Rain 20 1013 60 10000 7.2 250 12:59 07.12.2019
2877 Clouds 20 1013 60 10000 5.1 270 12:40 07.12.2019
2878 Clouds 20 1013 60 10000 5.1 270 12:22 07.12.2019
2879 Clouds 20 1012 56 10000 7.2 250 11:58 07.12.2019
2880 Clouds 21 1012 52 10000 7.2 260 11:39 07.12.2019
2881 Clouds 21 1011 49 10000 6.7 280 11:21 07.12.2019
2882 Clouds 22 1011 46 10000 7.2 270 10:38 07.12.2019
2883 Clouds 23 1011 46 10000 7.2 270 10:19 07.12.2019
2884 Clouds 23 1011 43 10000 7.7 270 09:56 07.12.2019
2885 Clouds 23 1011 56 10000 6.7 250 09:36 07.12.2019
2886 Clouds 23 1011 56 10000 6.7 250 09:18 07.12.2019
2887 Clouds 23 1011 60 10000 7.2 290 08:40 07.12.2019
2888 Clouds 23 1011 60 10000 7.2 290 08:21 07.12.2019
2889 Clouds 23 1010 53 10000 8.2 260 07:45 07.12.2019
2890 Rain 23 1010 68 10000 7.7 270 07:26 07.12.2019
2891 Rain 24 1010 56 10000 6.2 290 06:50 07.12.2019
2892 Rain 24 1010 57 10000 10.3 300 06:25 07.12.2019
2893 Rain 26 1010 57 10000 9.3 280 05:30 07.12.2019
2894 Rain 26 1010 47 10000 9.3 280 03:56 07.12.2019
2895 Clouds 26 1010 50 10000 9.3 300 03:18 07.12.2019
2896 Clouds 24 1010 61 10000 8.7 300 02:21 07.12.2019
2897 Clouds 24 1009 64 10000 6.7 320 01:34 07.12.2019
2898 Clouds 24 1009 64 10000 6.7 320 01:34 07.12.2019
2899 Clouds 22 1009 78 10000 6.2 320 00:52 07.12.2019
2900 Clouds 22 1009 73 10000 4.1 320 00:19 07.12.2019
2901 Clouds 21 1008 82 10000 6.7 310 23:55 06.12.2019
2902 Clouds 20 1008 88 10000 3.6 20 23:36 06.12.2019
2903 Clouds 20 1008 88 10000 3.6 20 23:18 06.12.2019
2904 Clouds 19 1008 88 10000 3.1 30 22:37 06.12.2019
2905 Clouds 19 1008 88 10000 3.1 30 22:19 06.12.2019
2906 Clouds 19 1008 93 10000 6.7 310 21:57 06.12.2019
2907 Clouds 19 1007 88 10000 3.6 10 21:38 06.12.2019
2908 Clouds 19 1007 88 10000 3.6 10 21:19 06.12.2019
2909 Clouds 18 1007 88 10000 3.6 20 20:42 06.12.2019
2910 Clouds 18 1007 88 10000 3.6 20 20:42 06.12.2019
2911 Clouds 18 1007 88 10000 3.6 20 20:23 06.12.2019
2912 Clouds 19 1007 82 10000 2.6 330 19:58 06.12.2019
2913 Clouds 19 1008 93 10000 2.6 330 19:39 06.12.2019
2914 Clouds 19 1008 93 10000 2.6 330 19:21 06.12.2019
2915 Clouds 19 1008 88 10000 2.6 330 18:55 06.12.2019
2916 Clouds 19 1008 88 10000 2.6 330 18:55 06.12.2019
2917 Clouds 20 1008 72 10000 2.6 250 18:36 06.12.2019
2918 Clouds 20 1008 72 10000 2.6 250 18:18 06.12.2019
2919 Clouds 20 1008 73 10000 2.6 330 17:55 06.12.2019
2920 Clouds 20 1009 73 10000 2.6 330 17:37 06.12.2019
2921 Clouds 20 1009 77 10000 1.5 260 17:19 06.12.2019
2922 Clouds 21 1009 68 10000 2.6 330 16:42 06.12.2019
2923 Clouds 21 1009 68 10000 2.6 330 16:23 06.12.2019
2924 Clouds 22 1009 64 10000 2.6 330 15:56 06.12.2019
2925 Clouds 22 1009 64 10000 2.6 330 15:38 06.12.2019
2926 Clouds 22 1009 60 10000 2.6 330 15:18 06.12.2019
2927 Clouds 23 1008 57 10000 4.6 250 14:41 06.12.2019
2928 Clouds 23 1008 57 10000 4.6 250 14:20 06.12.2019
2929 Clouds 23 1008 50 10000 3.6 240 13:58 06.12.2019
2930 Clouds 24 1008 50 10000 4.6 240 13:40 06.12.2019
2931 Clouds 24 1008 50 10000 4.6 240 13:21 06.12.2019
2932 Clouds 25 1007 50 10000 3.6 260 12:41 06.12.2019
2933 Clouds 25 1007 50 10000 3.6 260 12:22 06.12.2019
2934 Clouds 28 1007 42 10000 4.6 250 11:43 06.12.2019
2935 Clouds 27 1007 42 10000 4.6 250 11:24 06.12.2019
2936 Clouds 27 1007 42 10000 4.6 250 11:24 06.12.2019
2937 Clouds 27 1007 39 10000 7.2 250 10:59 06.12.2019
2938 Clouds 27 1007 39 10000 7.2 250 10:59 06.12.2019
2939 Clouds 28 1006 35 10000 5.7 250 10:40 06.12.2019
2940 Clouds 28 1006 35 10000 5.7 250 10:21 06.12.2019
2941 Clouds 28 1006 37 10000 5.7 290 09:56 06.12.2019
2942 Clouds 29 1006 35 10000 5.1 290 09:37 06.12.2019
2943 Clouds 29 1006 35 10000 5.1 290 09:19 06.12.2019
2944 Clouds 31 1005 24 10000 7.7 290 08:43 06.12.2019
2945 Clouds 31 1005 24 10000 7.7 290 08:25 06.12.2019
2946 Clouds 33 1005 21 10000 7.2 290 07:43 06.12.2019
2947 Clouds 33 1005 21 10000 7.2 290 07:23 06.12.2019
2948 Clouds 33 1005 21 10000 7.2 290 07:23 06.12.2019
2949 Clouds 39 1005 18 10000 6.7 290 06:55 06.12.2019
2950 Clouds 40 1005 19 10000 6.2 280 06:26 06.12.2019
2951 Clouds 40 1005 15 10000 8.2 280 05:52 06.12.2019
2952 Clouds 36 1008 22 10000 4.6 360 03:57 06.12.2019
2953 Clouds 31 1008 31 10000 6.2 90 01:48 06.12.2019
2954 Clouds 30 1008 35 10000 6.2 360 01:48 06.12.2019
2955 Clouds 28 1008 39 10000 6.2 360 00:57 06.12.2019
2956 Clouds 28 1008 39 10000 9.8 70 00:24 06.12.2019
2957 Clouds 27 1008 41 10000 8.7 60 23:56 05.12.2019
2958 Clear 26 1008 41 10000 11.3 70 23:21 05.12.2019
2959 Clear 26 1008 36 10000 3.6 60 22:59 05.12.2019
2960 Clear 26 1008 36 10000 9.3 60 22:39 05.12.2019
2961 Clear 26 1008 36 10000 9.3 60 22:39 05.12.2019
2962 Clear 25 1008 36 10000 9.3 60 22:20 05.12.2019
2963 Clear 26 1008 36 10000 10.3 70 21:58 05.12.2019
2964 Clear 26 1008 36 10000 10.3 70 21:58 05.12.2019
2965 Clear 26 1008 36 10000 10.3 70 21:58 05.12.2019
2966 Clear 25 1007 38 10000 10.3 80 21:40 05.12.2019
2967 Clear 26 1007 38 10000 10.3 80 21:22 05.12.2019
2968 Clear 26 1007 36 10000 10.3 80 20:58 05.12.2019
2969 Clear 27 1007 36 10000 12.9 90 20:39 05.12.2019
2970 Clear 27 1007 36 10000 12.9 90 20:19 05.12.2019
2971 Clouds 27 1007 36 10000 8.2 90 19:43 05.12.2019
2972 Clear 27 1009 34 10000 10.3 90 19:25 05.12.2019
2973 Clear 28 1009 30 10000 10.3 90 18:59 05.12.2019
2974 Clear 28 1009 28 10000 10.3 90 18:39 05.12.2019
2975 Clear 28 1009 28 10000 10.3 90 18:21 05.12.2019
2976 Clear 28 1009 28 10000 10.3 90 18:21 05.12.2019
2977 Clear 28 1009 25 10000 10.3 90 17:57 05.12.2019
2978 Clear 28 1010 22 10000 10.3 90 17:38 05.12.2019
2979 Clear 30 1010 22 10000 10.3 90 17:18 05.12.2019
2980 Clear 29 1010 19 10000 10.3 90 16:54 05.12.2019
2981 Clear 29 1010 18 10000 10.3 90 16:36 05.12.2019
2982 Clear 29 1010 18 10000 10.3 90 16:18 05.12.2019
2983 Clear 29 1010 30 10000 10.3 90 15:40 05.12.2019
2984 Clear 29 1010 30 10000 10.3 90 15:21 05.12.2019
2985 Clear 30 1010 22 10000 10.3 90 14:57 05.12.2019
2986 Clear 30 1010 22 10000 10.3 90 14:39 05.12.2019
2987 Clear 29 1010 22 10000 10.3 90 14:20 05.12.2019
2988 Clear 28 1010 35 10000 10.3 90 13:59 05.12.2019
2989 Clear 29 1010 27 10000 4.6 190 13:40 05.12.2019
2990 Clear 29 1010 27 10000 4.6 190 13:21 05.12.2019
2991 Clear 29 1009 27 10000 6.7 190 12:59 05.12.2019
2992 Clear 30 1009 23 10000 7.2 190 12:40 05.12.2019
2993 Clear 30 1009 23 10000 7.2 190 12:22 05.12.2019
2994 Clear 31 1009 22 10000 7.2 200 11:55 05.12.2019
2995 Clear 31 1009 25 10000 7.2 220 11:36 05.12.2019
2996 Clear 31 1009 25 10000 7.2 220 11:18 05.12.2019
2997 Clear 32 1009 25 10000 5.7 250 10:54 05.12.2019
2998 Clear 33 1009 22 10000 5.7 240 10:36 05.12.2019
2999 Clear 33 1009 22 10000 5.7 240 10:18 05.12.2019
3000 Clear 35 1009 18 10000 7.2 230 09:42 05.12.2019
3001 Clear 35 1009 18 10000 7.2 230 09:20 05.12.2019
3002 Clear 35 1010 10 10000 5.1 250 08:57 05.12.2019
3003 Clear 36 1010 10 10000 7.2 210 08:37 05.12.2019
3004 Clear 35 1010 10 10000 7.2 210 08:19 05.12.2019
3005 Clear 35 1010 10 10000 7.2 210 08:19 05.12.2019
3006 Clear 36 1011 10 10000 7.2 210 07:41 05.12.2019
3007 Clear 36 1011 10 10000 7.2 210 07:23 05.12.2019
3008 Clear 36 1011 10 10000 7.2 210 06:48 05.12.2019
3009 Clear 35 1012 11 10000 8.2 230 06:24 05.12.2019
3010 Clear 35 1012 11 10000 8.2 230 05:56 05.12.2019
3011 Clear 35 1012 12 10000 8.2 230 05:24 05.12.2019
3012 Clear 35 1013 14 10000 8.2 230 04:59 05.12.2019
3013 Clear 33 1014 23 10000 6.2 100 03:41 05.12.2019
3014 Clear 33 1014 27 10000 6.7 100 02:42 05.12.2019
3015 Clear 30 1014 30 10000 7.2 90 02:22 05.12.2019
3016 Clear 29 1014 34 10000 7.2 80 01:51 05.12.2019
3017 Clear 29 1014 34 10000 7.2 80 01:51 05.12.2019
3018 Clear 28 1014 39 10000 7.2 70 01:23 05.12.2019
3019 Clear 26 1014 38 10000 6.2 70 00:44 05.12.2019
3020 Clear 26 1014 38 10000 4.1 40 00:21 05.12.2019
3021 Clear 24 1014 36 10000 3.6 30 23:55 04.12.2019
3022 Clear 24 1014 35 10000 2.6 20 23:37 04.12.2019
3023 Clear 24 1014 35 10000 2.6 20 23:18 04.12.2019
3024 Clear 23 1013 35 10000 3.1 100 22:39 04.12.2019
3025 Clear 22 1013 35 10000 3.1 100 22:20 04.12.2019
3026 Clear 22 1013 33 10000 2.1 350 21:58 04.12.2019
3027 Clear 22 1013 40 10000 2.6 150 21:38 04.12.2019
3028 Clear 22 1013 40 10000 2.6 150 21:19 04.12.2019
3029 Clear 23 1013 33 10000 3.1 190 20:57 04.12.2019
3030 Clear 24 1013 31 10000 1.5 210 20:39 04.12.2019
3031 Clear 24 1013 31 10000 1.5 210 20:21 04.12.2019
3032 Clear 24 1013 29 10000 4.6 100 19:55 04.12.2019
3033 Clear 24 1013 29 10000 4.6 100 19:55 04.12.2019
3034 Clear 25 1013 31 10000 3.1 100 19:37 04.12.2019
3035 Clear 25 1013 31 10000 3.1 100 19:19 04.12.2019
3036 Clear 25 1013 33 10000 2.6 190 18:42 04.12.2019
3037 Clear 26 1013 39 10000 5.7 130 18:24 04.12.2019
3038 Clear 26 1013 39 10000 3.1 100 17:58 04.12.2019
3039 Clear 26 1013 37 10000 1.5 100 17:39 04.12.2019
3040 Clear 26 1013 37 10000 1.5 100 17:20 04.12.2019
3041 Clear 24 1013 37 10000 4.6 100 16:56 04.12.2019
3042 Clear 25 1013 50 10000 4.1 190 16:38 04.12.2019
3043 Clear 24 1013 50 10000 4.1 190 16:19 04.12.2019
3044 Clear 24 1013 50 10000 4.1 190 16:19 04.12.2019
3045 Clear 24 1013 50 10000 4.1 190 16:19 04.12.2019
3046 Clear 24 1013 47 10000 4.1 180 15:55 04.12.2019
3047 Clear 25 1013 42 10000 5.7 190 15:36 04.12.2019
3048 Clear 25 1013 42 10000 5.7 190 15:18 04.12.2019
3049 Clear 25 1013 42 10000 4.1 210 14:42 04.12.2019
3050 Clear 25 1013 42 10000 4.1 210 14:23 04.12.2019
3051 Clear 25 1013 42 10000 4.1 210 14:23 04.12.2019
3052 Clear 26 1012 42 10000 5.1 210 13:57 04.12.2019
3053 Clear 26 1012 42 10000 5.7 220 13:37 04.12.2019
3054 Clear 26 1012 42 10000 5.7 220 13:19 04.12.2019
3055 Clear 27 1011 37 10000 6.7 230 12:44 04.12.2019
3056 Clear 27 1011 37 10000 6.7 230 12:24 04.12.2019
3057 Clear 28 1011 29 10000 5.7 240 11:47 04.12.2019
3058 Clouds 30 1011 19 10000 6.7 240 11:29 04.12.2019
3059 Clouds 29 1011 15 10000 6.2 220 11:00 04.12.2019
3060 Clouds 30 1010 16 10000 8.7 230 10:41 04.12.2019
3061 Clouds 30 1010 16 10000 8.7 230 10:22 04.12.2019
3062 Clear 33 1010 15 10000 6.2 220 09:46 04.12.2019
3063 Clear 33 1010 15 10000 6.2 220 09:25 04.12.2019
3064 Clear 33 1010 23 10000 7.7 240 08:59 04.12.2019
3065 Clear 32 1010 22 10000 9.3 230 08:38 04.12.2019
3066 Clouds 32 1010 22 10000 9.3 230 08:19 04.12.2019
3067 Clouds 32 1010 22 10000 7.7 240 07:42 04.12.2019
3068 Clouds 32 1010 20 10000 7.7 240 07:23 04.12.2019
3069 Clouds 34 1010 22 10000 6.7 260 06:33 04.12.2019
3070 Clouds 34 1011 20 10000 7.2 260 05:48 04.12.2019
3071 Clouds 34 1011 20 10000 6.7 260 04:58 04.12.2019
3072 Clouds 36 1011 22 10000 7.7 240 03:54 04.12.2019
3073 Clouds 32 1012 31 10000 3.1 190 02:21 04.12.2019
3074 Clouds 28 1012 37 10000 3.6 190 00:50 04.12.2019
3075 Clouds 26 1012 44 10000 3.6 200 00:23 04.12.2019
3076 Clouds 23 1011 60 10000 2.1 200 23:56 03.12.2019
3077 Clouds 22 1011 72 10000 1.5 110 23:37 03.12.2019
3078 Clouds 22 1011 72 10000 1.5 110 23:18 03.12.2019
3079 Clouds 22 1011 72 10000 1.5 110 23:18 03.12.2019
3080 Clouds 21 1011 68 10000 2.1 220 22:40 03.12.2019
3081 Clouds 21 1011 68 10000 2.1 220 22:40 03.12.2019
3082 Clouds 21 1011 68 10000 2.1 220 22:19 03.12.2019
3083 Clouds 21 1010 68 10000 2.6 270 21:57 03.12.2019
3084 Clouds 21 1010 63 10000 2.6 330 21:37 03.12.2019
3085 Clouds 21 1010 63 10000 2.6 330 21:19 03.12.2019
3086 Clouds 21 1010 60 10000 1.5 130 20:57 03.12.2019
3087 Clouds 22 1009 63 10000 2.6 60 20:38 03.12.2019
3088 Clouds 22 1009 63 10000 2.6 60 20:18 03.12.2019
3089 Clouds 22 1009 63 10000 2.6 60 20:18 03.12.2019
3090 Clouds 22 1010 60 10000 1.5 100 19:54 03.12.2019
3091 Clouds 23 1010 50 10000 3.6 180 19:36 03.12.2019
3092 Clouds 23 1010 50 10000 3.6 180 19:18 03.12.2019
3093 Clouds 23 1010 50 10000 3.6 200 18:55 03.12.2019
3094 Clouds 23 1010 56 10000 2.1 340 18:37 03.12.2019
3095 Clouds 23 1010 56 10000 2.1 340 18:18 03.12.2019
3096 Clouds 24 1010 46 10000 3.1 220 17:40 03.12.2019
3097 Clear 24 1010 46 10000 3.1 220 17:19 03.12.2019
3098 Clear 24 1010 52 10000 3.1 160 16:59 03.12.2019
3099 Clear 24 1010 52 10000 3.1 160 16:59 03.12.2019
3100 Clear 24 1010 46 10000 3.1 160 16:40 03.12.2019
3101 Clear 24 1010 46 10000 3.1 160 16:21 03.12.2019
3102 Clear 25 1010 44 10000 3.1 160 15:59 03.12.2019
3103 Clear 24 1011 41 10000 3.1 160 15:38 03.12.2019
3104 Clear 25 1011 41 10000 3.1 160 15:19 03.12.2019
3105 Clear 25 1011 36 10000 3.1 160 14:44 03.12.2019
3106 Clear 26 1011 36 10000 3.1 160 14:21 03.12.2019
3107 Clear 26 1010 34 10000 3.1 160 13:59 03.12.2019
3108 Clear 28 1010 25 10000 3.6 220 13:38 03.12.2019
3109 Clear 28 1010 25 10000 3.6 220 13:20 03.12.2019
3110 Clear 29 1010 22 10000 3.6 210 12:57 03.12.2019
3111 Clear 29 1009 19 10000 4.1 210 12:37 03.12.2019
3112 Clear 29 1009 19 10000 4.1 210 12:18 03.12.2019
3113 Clear 29 1009 19 10000 4.1 210 12:18 03.12.2019
3114 Clear 31 1009 18 10000 4.6 210 11:55 03.12.2019
3115 Clouds 33 1009 19 10000 5.7 210 11:37 03.12.2019
3116 Clouds 34 1009 19 10000 5.7 210 11:18 03.12.2019
3117 Clouds 34 1009 18 10000 6.7 220 10:43 03.12.2019
3118 Clouds 34 1009 16 10000 7.2 230 10:21 03.12.2019
3119 Clear 36 1009 17 10000 7.7 230 09:59 03.12.2019
3120 Clear 36 1009 14 10000 8.2 230 09:40 03.12.2019
3121 Clear 35 1009 14 10000 8.2 230 09:21 03.12.2019
3122 Clear 34 1009 15 10000 8.2 250 08:55 03.12.2019
3123 Clear 35 1009 13 10000 7.7 250 08:37 03.12.2019
3124 Clear 34 1009 13 10000 7.7 250 08:18 03.12.2019
3125 Clear 34 1009 12 10000 8.7 250 07:49 03.12.2019
3126 Clear 34 1009 13 10000 8.2 250 07:24 03.12.2019
3127 Clear 35 1009 11 10000 6.7 260 06:24 03.12.2019
3128 Clear 36 1009 11 10000 4.1 300 05:59 03.12.2019
3129 Clear 36 1010 13 10000 5.7 10 04:55 03.12.2019
3130 Clear 37 1011 18 10000 7.2 10 03:40 03.12.2019
3131 Clear 37 1011 18 10000 7.2 10 03:20 03.12.2019
3132 Clear 36 1011 19 10000 8.2 10 02:49 03.12.2019
3133 Clear 35 1011 19 10000 7.7 40 02:31 03.12.2019
3134 Clear 33 1012 24 10000 6.7 60 01:46 03.12.2019
3135 Clear 31 1012 25 10000 6.7 70 01:28 03.12.2019
3136 Clear 29 1012 34 10000 7.7 60 00:56 03.12.2019
3137 Clear 28 1012 36 10000 8.2 70 00:38 03.12.2019
3138 Clear 28 1012 36 10000 8.2 70 00:20 03.12.2019
3139 Clear 26 1012 41 10000 7.2 60 23:43 02.12.2019
3140 Clear 25 1012 44 10000 9.8 80 23:20 02.12.2019
3141 Clear 24 1012 46 10000 9.8 70 22:42 02.12.2019
3142 Clear 24 1011 41 10000 9.3 70 22:22 02.12.2019
3143 Clear 24 1011 41 10000 8.7 70 21:58 02.12.2019
3144 Clear 25 1011 36 10000 8.2 80 21:37 02.12.2019
3145 Clear 24 1011 36 10000 8.2 80 21:19 02.12.2019
3146 Clear 25 1011 36 10000 8.7 90 20:56 02.12.2019
3147 Clear 24 1012 33 10000 9.3 90 20:38 02.12.2019
3148 Clear 24 1012 33 10000 9.3 90 20:19 02.12.2019
3149 Clear 25 1012 24 10000 6.7 80 19:43 02.12.2019
3150 Clear 25 1012 27 10000 7.7 90 19:23 02.12.2019
3151 Clear 25 1012 31 10000 3.1 80 18:59 02.12.2019
3152 Clear 25 1012 31 10000 3.1 80 18:59 02.12.2019
3153 Clear 23 1013 49 10000 2.1 40 18:41 02.12.2019
3154 Clear 23 1013 49 10000 2.1 40 18:19 02.12.2019
3155 Clear 23 1013 56 10000 2.6 110 17:58 02.12.2019
3156 Clear 23 1014 56 10000 2.6 150 17:39 02.12.2019
3157 Clear 24 1014 56 10000 2.6 150 17:19 02.12.2019
3158 Clear 24 1014 47 10000 6.2 100 16:42 02.12.2019
3159 Clear 25 1014 47 10000 6.2 100 16:19 02.12.2019
3160 Clear 25 1014 44 10000 6.2 100 15:58 02.12.2019
3161 -273 0 0 0 0 0 15:40 02.12.2019
3162 Clear 25 1014 39 10000 6.2 100 15:22 02.12.2019
3163 Clear 26 1015 36 10000 8.2 190 14:59 02.12.2019
3164 Clear 26 1015 36 10000 7.2 190 14:38 02.12.2019
3165 Clear 27 1015 36 10000 7.2 190 14:20 02.12.2019
3166 Clear 27 1015 34 10000 6.2 100 13:57 02.12.2019
3167 Clear 27 1015 32 10000 6.7 190 13:39 02.12.2019
3168 Clear 27 1015 32 10000 6.7 190 13:39 02.12.2019
3169 Clear 28 1015 32 10000 6.7 190 13:19 02.12.2019
3170 Clear 27 1014 35 10000 6.2 100 12:55 02.12.2019
3171 Clear 28 1014 33 10000 6.7 210 12:37 02.12.2019
3172 Clear 28 1014 33 10000 6.7 210 12:18 02.12.2019
3173 Clear 28 1014 31 10000 7.7 220 11:38 02.12.2019
3174 Clear 31 1014 31 10000 7.7 220 11:20 02.12.2019
3175 Clear 32 1014 27 10000 8.2 220 10:58 02.12.2019
3176 Clear 32 1014 27 10000 7.2 200 10:40 02.12.2019
3177 Clear 33 1014 27 10000 7.2 200 10:22 02.12.2019
3178 Clear 33 1014 26 10000 6.7 240 09:56 02.12.2019
3179 Clear 34 1014 24 10000 7.7 230 09:38 02.12.2019
3180 Clear 34 1014 24 10000 7.7 230 09:18 02.12.2019
3181 Clear 34 1014 24 10000 7.7 230 09:18 02.12.2019
3182 Clear 32 1015 20 10000 6.2 200 08:55 02.12.2019
3183 Clear 32 1015 20 10000 3.6 140 08:37 02.12.2019
3184 Clear 31 1015 20 10000 3.6 140 08:18 02.12.2019
3185 Clear 31 1016 21 10000 6.2 200 07:39 02.12.2019
3186 Clear 31 1016 21 10000 6.2 200 07:20 02.12.2019
3187 Clear 34 1017 24 10000 3.1 140 06:42 02.12.2019
3188 Clear 34 1017 26 10000 3.1 30 05:49 02.12.2019
3189 Clear 32 1017 26 10000 5.1 90 05:19 02.12.2019
3190 Clear 31 1019 35 10000 7.7 90 03:35 02.12.2019
3191 Clear 29 1019 39 10000 5.1 70 02:50 02.12.2019
3192 Clear 26 1020 47 10000 6.7 60 01:49 02.12.2019
3193 Clear 25 1020 50 10000 9.3 80 01:21 02.12.2019
3194 Clear 23 1020 60 10000 6.2 70 00:39 02.12.2019
3195 Clear 23 1020 60 10000 6.2 70 00:21 02.12.2019
3196 Clear 21 1020 64 10000 7.7 90 23:43 01.12.2019
3197 Clear 21 1020 64 10000 8.2 90 23:22 01.12.2019
3198 Clear 20 1020 68 10000 7.2 80 22:56 01.12.2019
3199 Clear 20 1020 60 10000 6.7 70 22:38 01.12.2019
3200 Clear 20 1020 60 10000 6.7 70 22:19 01.12.2019
3201 Clear 20 1020 60 10000 6.7 70 21:56 01.12.2019
3202 Clear 20 1020 56 10000 8.7 80 21:38 01.12.2019
3203 Clear 21 1020 56 10000 8.7 80 21:20 01.12.2019
3204 Clear 21 1019 56 10000 7.2 90 20:58 01.12.2019
3205 Clear 21 1019 56 10000 6.7 90 20:39 01.12.2019
3206 Clear 21 1019 56 10000 6.7 90 20:21 01.12.2019
3207 Clear 22 1019 49 10000 5.1 100 19:57 01.12.2019
3208 Clear 22 1019 49 10000 7.2 100 19:39 01.12.2019
3209 Clear 22 1019 49 10000 7.2 100 19:20 01.12.2019
3210 Clear 23 1019 46 10000 7.2 100 18:56 01.12.2019
3211 Clear 23 1020 46 10000 7.7 90 18:38 01.12.2019
3212 Clear 23 1020 46 10000 7.7 90 18:38 01.12.2019
3213 Clear 23 1020 46 10000 7.7 90 18:19 01.12.2019
3214 Clear 24 1020 44 10000 6.7 110 17:56 01.12.2019
3215 Clear 24 1020 41 10000 6.2 120 17:38 01.12.2019
3216 Clear 24 1020 41 10000 6.2 120 17:20 01.12.2019
3217 Clear 24 1020 36 10000 5.7 120 16:45 01.12.2019
3218 Clear 23 1020 36 10000 8.7 110 16:25 01.12.2019
3219 Clear 22 1020 49 10000 7.2 110 15:59 01.12.2019
3220 Clear 22 1020 49 10000 7.2 110 15:41 01.12.2019
3221 Clear 22 1020 49 10000 7.2 110 15:22 01.12.2019
3222 Clear 23 1020 47 10000 7.2 110 14:38 01.12.2019
3223 Clear 23 1020 47 10000 7.2 110 14:19 01.12.2019
3224 Clear 24 1020 29 10000 3.6 120 13:40 01.12.2019
3225 Clear 24 1020 29 10000 3.6 120 13:22 01.12.2019
3226 Clear 24 1020 26 10000 4.1 130 12:59 01.12.2019
3227 Clear 25 1019 20 10000 4.6 130 12:40 01.12.2019
3228 Clear 25 1019 20 10000 4.6 130 12:40 01.12.2019
3229 Clear 25 1019 20 10000 4.6 130 12:40 01.12.2019
3230 Clear 25 1019 20 10000 4.6 130 12:40 01.12.2019
3231 Clear 25 1019 20 10000 4.6 130 12:40 01.12.2019
3232 Clear 27 1019 18 10000 5.7 130 11:46 01.12.2019
3233 Clear 27 1019 18 10000 5.7 130 11:46 01.12.2019
3234 Clear 27 1019 18 10000 5.7 130 11:46 01.12.2019
3235 Clear 27 1019 18 10000 5.7 130 11:46 01.12.2019
3236 Clear 28 1019 17 10000 6.7 130 11:25 01.12.2019
3237 Clear 29 1019 15 10000 6.7 120 10:57 01.12.2019
3238 Clear 29 1020 15 10000 7.7 100 10:39 01.12.2019
3239 Clear 31 1020 15 10000 7.7 100 10:19 01.12.2019
3240 Clear 31 1020 13 10000 7.7 120 09:41 01.12.2019
3241 Clear 31 1020 13 10000 7.7 120 09:23 01.12.2019
3242 Clear 31 1020 13 10000 6.2 130 08:55 01.12.2019
3243 Clear 32 1020 13 10000 6.2 130 08:55 01.12.2019
3244 Clear 32 1021 13 10000 7.2 110 08:36 01.12.2019
3245 Clear 29 1021 13 10000 7.2 110 08:18 01.12.2019
3246 Clear 29 1021 13 10000 4.6 80 07:43 01.12.2019
3247 Clear 29 1021 14 10000 7.2 120 07:23 01.12.2019
3248 Clear 31 1022 15 10000 8.2 100 06:51 01.12.2019
3249 Clear 31 1023 19 10000 7.7 120 05:58 01.12.2019
3250 Clear 28 1024 26 10000 5.7 120 04:55 01.12.2019
3251 Clear 27 1024 29 10000 6.7 100 04:27 01.12.2019
3252 Clear 24 1025 35 10000 6.7 90 02:44 01.12.2019
3253 Clear 22 1026 40 10000 7.2 90 02:26 01.12.2019
3254 Clear 21 1026 42 10000 5.7 90 01:53 01.12.2019
3255 Clear 20 1026 48 10000 6.2 90 01:29 01.12.2019
3256 Clear 18 1026 51 10000 7.2 90 00:44 01.12.2019
3257 Clear 17 1026 55 10000 7.7 90 00:26 01.12.2019
3258 Clear 15 1026 62 10000 6.7 100 23:45 30.11.2019
3259 Clear 15 1026 62 10000 6.7 100 23:25 30.11.2019
3260 Clear 14 1026 66 10000 7.2 90 22:58 30.11.2019
3261 Clear 14 1025 66 10000 5.7 110 22:39 30.11.2019
3262 Clear 14 1025 66 10000 5.7 110 22:20 30.11.2019
3263 Clear 14 1025 58 10000 7.7 110 21:47 30.11.2019
3264 Clear 15 1025 54 10000 7.7 100 21:28 30.11.2019
3265 Clear 15 1025 54 10000 7.7 100 21:28 30.11.2019
3266 Clear 15 1024 51 10000 7.7 100 20:58 30.11.2019
3267 Clear 16 1024 48 10000 7.7 100 20:39 30.11.2019
3268 Clouds 16 1024 48 10000 7.7 100 20:19 30.11.2019
3269 Clouds 17 1024 48 10000 7.7 100 19:56 30.11.2019
3270 Clouds 17 1024 45 10000 3.1 130 19:38 30.11.2019
3271 Clouds 17 1024 45 10000 3.1 130 19:20 30.11.2019
3272 Clouds 18 1024 42 10000 7.7 100 18:58 30.11.2019
3273 Clouds 18 1024 42 10000 7.7 110 18:38 30.11.2019
3274 Clouds 18 1024 42 10000 7.7 110 18:20 30.11.2019
3275 Clouds 19 1024 37 10000 6.2 110 17:58 30.11.2019
3276 Clouds 19 1024 34 10000 8.7 110 17:39 30.11.2019
3277 Clouds 20 1024 34 10000 8.7 110 17:20 30.11.2019
3278 Clouds 21 1024 32 10000 6.7 110 16:56 30.11.2019
3279 Clouds 21 1024 30 10000 7.7 120 16:38 30.11.2019
3280 Clouds 22 1024 30 10000 7.7 120 16:20 30.11.2019
3281 Clouds 22 1024 30 10000 7.7 100 15:42 30.11.2019
3282 Clouds 22 1024 30 10000 7.7 100 15:42 30.11.2019
3283 Clouds 22 1024 28 10000 3.1 170 15:19 30.11.2019
3284 Clouds 23 1024 26 10000 7.7 100 14:57 30.11.2019
3285 Clouds 23 1023 25 10000 4.1 150 14:38 30.11.2019
3286 Clear 23 1023 25 10000 4.1 150 14:19 30.11.2019
3287 Clear 23 1023 25 10000 4.1 150 13:57 30.11.2019
3288 Clear 23 1023 25 10000 4.1 150 13:57 30.11.2019
3289 Clear 24 1023 23 10000 4.6 130 13:37 30.11.2019
3290 Clear 24 1023 23 10000 4.6 130 13:19 30.11.2019
3291 Clear 25 1023 20 10000 5.7 120 12:46 30.11.2019
3292 Clear 26 1023 19 10000 5.7 120 12:27 30.11.2019
3293 Clear 27 1022 22 10000 6.7 120 11:55 30.11.2019
3294 Clear 28 1022 22 10000 7.7 130 11:36 30.11.2019
3295 Clear 28 1022 16 10000 7.7 130 11:18 30.11.2019
3296 Clear 29 1022 16 10000 8.2 120 10:42 30.11.2019
3297 Clear 29 1022 16 10000 8.2 120 10:21 30.11.2019
3298 Clear 29 1022 13 10000 6.2 90 09:49 30.11.2019
3299 Clear 29 1022 14 10000 7.7 130 09:29 30.11.2019
3300 Clear 29 1023 12 10000 6.7 120 08:55 30.11.2019
3301 Clear 29 1023 12 10000 6.7 120 08:55 30.11.2019
3302 Clear 29 1023 14 10000 7.7 130 08:37 30.11.2019
3303 Clear 29 1023 14 10000 7.7 130 08:18 30.11.2019
3304 Clear 28 1024 16 10000 7.7 140 07:42 30.11.2019
3305 Clear 28 1024 16 10000 7.7 140 07:23 30.11.2019
3306 Clear 28 1024 18 10000 6.7 120 06:45 30.11.2019
3307 Clear 27 1024 19 10000 7.2 100 06:26 30.11.2019
3308 Clear 22 1027 28 10000 9.8 100 03:56 30.11.2019
3309 Clear 22 1027 30 10000 7.2 120 03:37 30.11.2019
3310 Clear 20 1027 34 10000 8.7 80 02:25 30.11.2019
3311 Clear 19 1028 42 10000 7.2 120 01:50 30.11.2019
3312 Clear 18 1028 42 10000 10.3 100 01:24 30.11.2019
3313 Clear 16 1028 51 10000 10.3 100 00:38 30.11.2019
3314 Clear 16 1028 51 10000 10.3 100 00:20 30.11.2019
3315 Clear 15 1028 51 10000 10.3 100 23:44 29.11.2019
3316 Clear 14 1028 54 10000 10.3 100 23:23 29.11.2019
3317 Clear 14 1028 54 10000 10.3 100 23:23 29.11.2019
3318 Clear 14 1028 54 10000 10.3 100 23:23 29.11.2019
3319 Clear 13 1028 58 10000 10.3 100 22:48 29.11.2019
3320 Clear 13 1027 58 10000 10.3 100 22:26 29.11.2019
3321 Clear 13 1027 58 10000 9.3 100 21:55 29.11.2019
3322 Clear 13 1027 54 10000 6.7 110 21:36 29.11.2019
3323 Clear 13 1027 54 10000 6.7 110 21:18 29.11.2019
3324 Clear 14 1027 54 10000 6.7 110 20:40 29.11.2019
3325 Clear 14 1027 54 10000 6.7 110 20:22 29.11.2019
3326 Clear 14 1026 54 10000 7.7 110 19:59 29.11.2019
3327 Clear 14 1026 54 10000 7.7 110 19:41 29.11.2019
3328 Clear 14 1026 54 10000 7.7 110 19:41 29.11.2019
3329 Clear 14 1026 50 10000 8.7 110 19:21 29.11.2019
3330 Clear 15 1026 47 10000 10.8 110 18:59 29.11.2019
3331 Clear 15 1026 51 10000 8.7 110 18:40 29.11.2019
3332 Clear 15 1026 51 10000 8.7 110 18:22 29.11.2019
3333 Clear 16 1026 48 10000 9.3 120 17:47 29.11.2019
3334 Clear 16 1026 48 10000 7.7 120 17:28 29.11.2019
3335 Clear 17 1026 45 10000 8.7 130 16:59 29.11.2019
3336 Clear 18 1025 39 10000 8.2 100 16:41 29.11.2019
3337 Clear 18 1025 39 10000 8.2 100 16:20 29.11.2019
3338 Clear 19 1025 32 10000 7.2 120 15:42 29.11.2019
3339 Clear 20 1025 30 10000 8.2 120 15:24 29.11.2019
3340 Clear 20 1025 32 10000 8.2 110 14:58 29.11.2019
3341 Clear 21 1024 30 10000 8.2 130 14:40 29.11.2019
3342 Clear 21 1024 30 10000 8.2 130 14:21 29.11.2019
3343 Clear 22 1024 26 10000 7.7 130 13:55 29.11.2019
3344 Clear 23 1023 25 10000 8.2 130 13:37 29.11.2019
3345 Clear 23 1023 25 10000 8.2 130 13:19 29.11.2019
3346 Clear 24 1022 23 10000 7.7 130 12:40 29.11.2019
3347 Clear 24 1022 23 10000 7.7 130 12:22 29.11.2019
3348 Clear 25 1022 23 10000 8.7 130 11:55 29.11.2019
3349 Clear 26 1021 22 10000 8.2 130 11:36 29.11.2019
3350 Clear 26 1021 22 10000 8.2 130 11:18 29.11.2019
3351 Clear 27 1021 19 10000 8.7 130 10:56 29.11.2019
3352 Clear 27 1021 21 10000 8.2 130 10:37 29.11.2019
3353 Clear 27 1021 21 10000 8.2 130 10:19 29.11.2019
3354 Clear 27 1021 21 10000 8.2 140 09:55 29.11.2019
3355 Clear 27 1021 22 10000 8.2 160 09:37 29.11.2019
3356 Clear 27 1021 22 10000 8.2 160 09:18 29.11.2019
3357 Clear 27 1021 19 10000 8.2 140 08:39 29.11.2019
3358 Clear 28 1021 19 10000 8.2 140 08:21 29.11.2019
3359 Clear 27 1021 20 10000 6.2 150 07:58 29.11.2019
3360 Clear 27 1021 21 10000 5.7 120 07:39 29.11.2019
3361 Clear 27 1021 21 10000 5.7 120 07:21 29.11.2019
3362 Clear 27 1022 27 10000 6.7 130 06:42 29.11.2019
3363 Clear 25 1022 29 10000 7.2 110 05:48 29.11.2019
3364 Clear 25 1022 29 10000 7.2 110 05:24 29.11.2019
3365 Clear 23 1023 33 10000 5.7 130 04:31 29.11.2019
3366 Clear 22 1024 37 10000 6.2 110 03:22 29.11.2019
3367 Clouds 20 1024 40 10000 6.2 120 02:30 29.11.2019
3368 Clear 19 1024 45 10000 7.2 120 01:51 29.11.2019
3369 Clear 18 1024 48 10000 8.7 130 01:26 29.11.2019
3370 Clear 16 1024 51 10000 7.2 150 00:42 29.11.2019
3371 Clear 16 1025 51 10000 8.2 110 00:21 29.11.2019
3372 Clear 15 1024 58 10000 8.2 110 23:55 28.11.2019
3373 Clear 14 1024 58 10000 8.2 110 23:36 28.11.2019
3374 Clear 14 1024 58 10000 8.2 110 23:18 28.11.2019
3375 Clear 13 1023 58 10000 6.2 150 22:38 28.11.2019
3376 Clear 13 1023 58 10000 6.2 150 22:38 28.11.2019
3377 Clear 13 1023 58 10000 6.2 150 22:20 28.11.2019
3378 Clear 13 1023 58 10000 8.2 110 21:58 28.11.2019
3379 Clear 13 1022 54 10000 4.6 160 21:39 28.11.2019
3380 Clear 14 1022 54 10000 5.1 130 21:19 28.11.2019
3381 Clear 14 1022 54 10000 5.1 130 21:19 28.11.2019
3382 Clear 14 1022 54 10000 5.1 130 20:55 28.11.2019
3383 Clear 14 1021 50 10000 5.7 130 20:37 28.11.2019
3384 Clear 14 1021 50 10000 5.7 130 20:18 28.11.2019
3385 Clear 15 1021 51 10000 6.7 130 19:41 28.11.2019
3386 Clear 15 1021 51 10000 6.7 130 19:41 28.11.2019
3387 Clear 15 1021 51 10000 6.7 120 19:22 28.11.2019
3388 Clear 16 1021 48 10000 5.1 130 18:59 28.11.2019
3389 Clear 16 1021 48 10000 7.2 130 18:40 28.11.2019
3390 Clear 16 1021 48 10000 7.2 130 18:18 28.11.2019
3391 Clear 17 1021 45 10000 7.7 120 17:59 28.11.2019
3392 Clear 17 1021 45 10000 7.7 120 17:59 28.11.2019
3393 Clear 17 1020 39 10000 10.3 140 17:41 28.11.2019
3394 Clear 17 1020 39 10000 10.3 140 17:40 28.11.2019
3395 Clear 18 1020 39 10000 10.3 140 17:20 28.11.2019
3396 Clear 19 1019 32 10000 10.3 110 16:41 28.11.2019
3397 Clear 19 1019 32 10000 10.3 110 16:41 28.11.2019
3398 Clear 19 1019 32 10000 10.3 110 16:20 28.11.2019
3399 Clear 20 1019 34 10000 7.7 120 15:59 28.11.2019
3400 Clear 20 1020 40 10000 8.2 160 15:40 28.11.2019
3401 Clear 20 1020 40 10000 8.2 160 15:20 28.11.2019
3402 Clear 20 1019 43 10000 7.7 110 14:58 28.11.2019
3403 Clear 20 1019 60 10000 5.1 190 14:39 28.11.2019
3404 Clear 20 1018 56 10000 7.7 110 14:20 28.11.2019
3405 Clear 20 1018 56 10000 7.7 110 13:44 28.11.2019
3406 Clear 21 1018 60 10000 5.7 200 13:24 28.11.2019
3407 Clear 21 1017 53 10000 5.7 210 12:57 28.11.2019
3408 Clear 21 1017 46 10000 7.7 210 12:38 28.11.2019
3409 Clear 21 1017 46 10000 7.7 210 12:20 28.11.2019
3410 Clear 22 1017 44 10000 7.7 220 11:56 28.11.2019
3411 Clear 23 1016 41 10000 9.3 230 11:37 28.11.2019
3412 Clear 23 1016 41 10000 9.3 230 11:19 28.11.2019
3413 Clear 23 1016 41 10000 9.3 230 11:19 28.11.2019
3414 Clear 25 1015 34 10000 9.3 240 10:42 28.11.2019
3415 Clear 26 1015 34 10000 9.3 240 10:21 28.11.2019
3416 Clear 26 1015 16 10000 8.2 230 09:56 28.11.2019
3417 Clear 27 1015 16 10000 5.7 160 09:38 28.11.2019
3418 Clear 27 1015 16 10000 5.7 160 09:19 28.11.2019
3419 Clear 27 1015 16 10000 8.2 230 08:41 28.11.2019
3420 Clear 27 1015 18 10000 6.7 190 08:21 28.11.2019
3421 Clear 28 1015 22 10000 8.2 230 07:55 28.11.2019
3422 Clear 28 1015 21 10000 4.1 140 07:36 28.11.2019
3423 Clear 28 1015 21 10000 4.1 140 07:18 28.11.2019
3424 Clear 28 1015 28 10000 2.6 130 06:37 28.11.2019
3425 Clear 28 1016 26 10000 3.1 130 05:53 28.11.2019
3426 Clear 28 1016 32 10000 3.6 130 05:33 28.11.2019
3427 Clear 25 1017 38 10000 5.7 140 03:49 28.11.2019
3428 Clear 22 1018 46 10000 6.2 100 02:30 28.11.2019
3429 Clouds 20 1018 52 10000 5.7 140 01:21 28.11.2019
3430 Clouds 19 1018 59 10000 6.7 150 00:37 28.11.2019
3431 Clouds 18 1018 59 10000 6.7 150 00:18 28.11.2019
3432 Smoke 18 1017 67 10000 3.1 150 23:38 27.11.2019
3433 Smoke 18 1017 67 10000 3.1 150 23:20 27.11.2019
3434 Clouds 17 1017 67 10000 5.7 110 22:55 27.11.2019
3435 Clouds 17 1017 67 10000 7.2 110 22:36 27.11.2019
3436 Clouds 17 1017 67 10000 7.2 110 22:18 27.11.2019
3437 Clouds 17 1017 67 10000 5.1 110 21:55 27.11.2019
3438 Clouds 17 1017 63 10000 6.7 110 21:36 27.11.2019
3439 Clouds 17 1017 63 10000 6.7 110 21:18 27.11.2019
3440 Clouds 17 1017 63 10000 6.7 110 21:18 27.11.2019
3441 Clouds 18 1017 63 10000 4.6 130 20:55 27.11.2019
3442 Clouds 18 1016 63 10000 4.6 150 20:36 27.11.2019
3443 Clouds 18 1016 63 10000 4.6 150 20:36 27.11.2019
3444 Clouds 18 1016 63 10000 4.6 150 20:18 27.11.2019
3445 Clouds 18 1016 63 10000 3.6 130 19:54 27.11.2019
3446 Clouds 18 1016 63 10000 5.7 110 19:36 27.11.2019
3447 Clouds 18 1016 63 10000 5.7 110 19:18 27.11.2019
3448 Clouds 19 1015 59 10000 6.7 120 18:38 27.11.2019
3449 Clouds 19 1015 59 10000 6.7 120 18:38 27.11.2019
3450 Clouds 19 1015 59 10000 6.7 120 18:19 27.11.2019
3451 Clouds 19 1015 56 10000 3.6 100 17:59 27.11.2019
3452 Clouds 20 1015 56 10000 3.6 150 17:40 27.11.2019
3453 Clouds 20 1015 56 10000 3.6 150 17:22 27.11.2019
3454 Clouds 21 1015 52 10000 3.1 140 16:57 27.11.2019
3455 Clouds 21 1014 46 10000 7.2 110 16:39 27.11.2019
3456 Clouds 22 1014 46 10000 7.2 110 16:21 27.11.2019
3457 Clouds 23 1014 38 10000 7.7 110 15:57 27.11.2019
3458 Clouds 24 1014 33 10000 5.1 150 15:39 27.11.2019
3459 Clouds 24 1014 33 10000 5.1 150 15:21 27.11.2019
3460 Clouds 25 1013 29 10000 7.7 110 14:57 27.11.2019
3461 Clouds 24 1013 22 10000 7.7 110 14:39 27.11.2019
3462 Clouds 25 1013 22 10000 7.7 110 14:21 27.11.2019
3463 Clouds 24 1012 34 10000 7.7 110 13:57 27.11.2019
3464 Clouds 24 1012 36 10000 5.1 210 13:38 27.11.2019
3465 Clouds 24 1012 36 10000 5.1 210 13:19 27.11.2019
3466 Clouds 25 1012 34 10000 5.1 210 12:55 27.11.2019
3467 Clouds 25 1012 32 10000 5.7 210 12:37 27.11.2019
3468 Clouds 25 1012 30 10000 6.7 210 12:18 27.11.2019
3469 Clouds 26 1011 27 10000 6.2 190 11:38 27.11.2019
3470 Clouds 28 1011 15 10000 7.7 210 11:19 27.11.2019
3471 Clouds 29 1011 15 10000 7.7 210 10:55 27.11.2019
3472 Clouds 30 1011 16 10000 7.2 210 10:37 27.11.2019
3473 Clouds 30 1011 16 10000 7.2 210 10:19 27.11.2019
3474 Clouds 30 1011 14 10000 7.2 230 09:43 27.11.2019
3475 Clouds 30 1011 14 10000 7.2 230 09:24 27.11.2019
3476 Clouds 29 1011 15 10000 4.1 150 08:43 27.11.2019
3477 Clear 30 1011 15 10000 7.2 230 08:25 27.11.2019
3478 Clear 32 1011 15 10000 7.2 230 07:59 27.11.2019
3479 Clear 32 1012 14 10000 3.6 200 07:40 27.11.2019
3480 Clear 32 1012 16 10000 3.6 130 07:21 27.11.2019
3481 Clear 32 1012 15 10000 7.2 230 06:45 27.11.2019
3482 Clear 32 1012 16 10000 7.2 230 06:25 27.11.2019
3483 Clear 32 1013 18 10000 2.1 100 05:27 27.11.2019
3484 Clear 30 1013 17 10000 5.7 150 04:57 27.11.2019
3485 Clear 30 1014 18 10000 4.6 150 04:37 27.11.2019
3486 Clear 29 1014 21 10000 7.2 150 03:50 27.11.2019
3487 Clear 28 1014 21 10000 6.2 120 03:21 27.11.2019
3488 Clear 28 1015 22 10000 5.1 140 02:54 27.11.2019
3489 Clouds 24 1015 27 10000 4.6 160 01:34 27.11.2019
3490 Clouds 22 1015 28 10000 4.6 110 00:42 27.11.2019
3491 Clouds 21 1015 28 10000 4.6 110 00:24 27.11.2019
3492 Clouds 20 1014 37 10000 4.6 110 23:44 26.11.2019
3493 Clouds 19 1014 37 10000 4.6 110 23:25 26.11.2019
3494 Clear 18 1014 37 10000 4.1 200 22:55 26.11.2019
3495 Clear 18 1014 45 10000 3.6 180 22:37 26.11.2019
3496 Clear 18 1014 45 10000 3.6 180 22:18 26.11.2019
3497 Clear 19 1013 45 10000 6.2 130 21:39 26.11.2019
3498 Clear 19 1013 45 10000 6.2 130 21:21 26.11.2019
3499 Clear 19 1013 40 10000 5.7 120 20:57 26.11.2019
3500 Clear 20 1013 43 10000 3.6 150 20:39 26.11.2019
3501 Clouds 19 1013 63 5000 3.6 180 20:19 26.11.2019
3502 Clouds 19 1013 63 5000 3.6 180 19:56 26.11.2019
3503 Clear 19 1013 46 10000 4.1 200 19:38 26.11.2019
3504 Clear 18 1013 63 10000 4.1 230 19:19 26.11.2019
3505 Clear 18 1013 63 10000 4.1 230 18:58 26.11.2019
3506 Clear 18 1013 63 10000 3.1 200 18:39 26.11.2019
3507 Clear 18 1013 63 10000 4.1 160 18:21 26.11.2019
3508 Clear 19 1013 63 10000 4.1 160 17:58 26.11.2019
3509 Clear 19 1013 59 10000 4.6 200 17:40 26.11.2019
3510 Clear 19 1013 56 10000 5.7 190 17:21 26.11.2019
3511 Clear 19 1013 56 10000 5.7 190 16:57 26.11.2019
3512 Clear 20 1013 56 10000 6.7 190 16:37 26.11.2019
3513 Clear 20 1013 56 10000 6.7 190 16:19 26.11.2019
3514 Clear 20 1013 56 10000 6.7 190 16:19 26.11.2019
3515 Clear 20 1013 56 10000 6.7 190 15:59 26.11.2019
3516 Clear 21 1013 52 10000 7.7 190 15:38 26.11.2019
3517 Clear 21 1013 52 10000 7.7 190 15:19 26.11.2019
3518 Clear 21 1013 49 10000 9.3 190 14:50 26.11.2019
3519 Clear 22 1013 43 10000 9.3 190 14:26 26.11.2019
3520 Clear 22 1013 43 10000 9.3 190 14:26 26.11.2019
3521 Clear 22 1013 38 10000 9.8 190 13:57 26.11.2019
3522 Clear 23 1013 38 10000 10.3 200 13:38 26.11.2019
3523 Clear 23 1013 44 10000 7.2 200 13:19 26.11.2019
3524 Clear 24 1012 24 10000 7.7 210 12:38 26.11.2019
3525 Clear 24 1012 24 10000 7.7 210 12:38 26.11.2019
3526 Clear 25 1012 23 10000 7.2 210 12:20 26.11.2019
3527 Clear 27 1011 22 10000 7.7 230 11:58 26.11.2019
3528 Clear 27 1011 22 10000 7.7 230 11:38 26.11.2019
3529 Clear 28 1011 22 10000 7.7 220 11:20 26.11.2019
3530 Clear 29 1011 22 10000 7.7 220 10:57 26.11.2019
3531 Clear 29 1011 24 10000 7.7 230 10:39 26.11.2019
3532 Clear 30 1011 24 10000 7.7 230 10:20 26.11.2019
3533 Clear 32 1011 21 10000 8.7 230 09:55 26.11.2019
3534 Clear 33 1011 17 10000 6.7 230 09:37 26.11.2019
3535 Clear 34 1011 17 10000 6.7 230 09:18 26.11.2019
3536 Clear 31 1011 13 10000 3.1 220 08:42 26.11.2019
3537 Clear 31 1011 13 10000 3.1 220 08:22 26.11.2019
3538 Clear 32 1012 14 10000 3.6 200 07:44 26.11.2019
3539 Clear 33 1012 14 10000 3.6 200 07:25 26.11.2019
3540 Clear 34 1013 16 10000 7.2 220 06:54 26.11.2019
3541 Clear 34 1014 17 10000 7.2 220 06:22 26.11.2019
3542 Clear 32 1014 20 10000 4.6 110 05:39 26.11.2019
3543 Clear 30 1016 26 10000 7.2 220 03:58 26.11.2019
3544 Clear 23 1017 40 10000 7.2 90 01:55 26.11.2019
3545 Clear 22 1017 43 10000 9.3 90 01:29 26.11.2019
3546 Clear 21 1017 45 10000 7.7 70 00:48 26.11.2019
3547 Clear 19 1017 48 10000 6.7 70 00:23 26.11.2019
3548 Clear 17 1017 55 10000 4.1 70 23:39 25.11.2019
3549 Clear 17 1017 55 10000 4.1 70 23:39 25.11.2019
3550 Clear 17 1016 55 10000 2.1 40 23:20 25.11.2019
3551 Clear 16 1016 55 10000 2.1 40 22:56 25.11.2019
3552 Clear 16 1016 51 10000 5.1 90 22:37 25.11.2019
3553 Clear 16 1016 51 10000 5.1 90 22:18 25.11.2019
3554 Clear 16 1016 51 10000 5.1 90 21:56 25.11.2019
3555 Clear 16 1016 48 10000 4.6 90 21:38 25.11.2019
3556 Clear 16 1016 48 10000 4.6 90 21:18 25.11.2019
3557 Clear 17 1015 45 10000 4.1 80 20:54 25.11.2019
3558 Clear 17 1015 45 10000 4.1 80 20:54 25.11.2019
3559 Clear 17 1015 42 10000 3.6 120 20:36 25.11.2019
3560 Clear 17 1015 42 10000 3.6 120 20:36 25.11.2019
3561 Clear 18 1015 42 10000 5.1 100 20:18 25.11.2019
3562 Clear 18 1015 42 10000 5.1 100 20:18 25.11.2019
3563 Clear 18 1015 42 10000 5.1 100 19:54 25.11.2019
3564 Clear 18 1015 42 10000 6.2 110 19:36 25.11.2019
3565 Clear 18 1015 37 10000 8.7 100 19:18 25.11.2019
3566 Clear 18 1015 37 10000 8.7 100 18:54 25.11.2019
3567 Clear 18 1015 37 10000 8.7 100 18:54 25.11.2019
3568 Clear 18 1015 48 10000 3.1 170 18:36 25.11.2019
3569 Clear 18 1015 48 10000 3.1 170 18:36 25.11.2019
3570 Clear 17 1015 37 10000 7.7 100 18:18 25.11.2019
3571 Clear 16 1016 87 10000 7.2 90 17:54 25.11.2019
3572 Clear 16 1016 87 10000 7.2 90 17:54 25.11.2019
3573 Clear 16 1016 87 10000 7.2 90 17:36 25.11.2019
3574 Clear 15 1016 93 10000 7.2 90 17:18 25.11.2019
3575 Clear 16 1016 82 10000 7.2 90 16:41 25.11.2019
3576 Clear 17 1016 82 10000 7.2 90 16:23 25.11.2019
3577 Clear 17 1017 82 10000 7.2 90 15:57 25.11.2019
3578 Clear 18 1017 72 10000 3.1 210 15:37 25.11.2019
3579 Clear 18 1017 72 10000 3.1 210 15:19 25.11.2019
3580 Clear 19 1017 63 10000 4.1 200 14:54 25.11.2019
3581 Clear 19 1016 64 10000 4.1 200 14:36 25.11.2019
3582 Clear 19 1016 64 10000 4.1 200 14:18 25.11.2019
3583 Clear 20 1016 60 10000 4.6 210 13:39 25.11.2019
3584 Clear 20 1016 60 10000 4.6 210 13:20 25.11.2019
3585 Clear 20 1016 60 10000 5.7 210 12:59 25.11.2019
3586 Clear 21 1016 60 10000 5.1 240 12:39 25.11.2019
3587 Clear 21 1015 53 10000 6.7 230 12:19 25.11.2019
3588 Clear 22 1015 47 10000 6.7 230 11:40 25.11.2019
3589 Clear 23 1015 47 10000 6.7 230 11:21 25.11.2019
3590 Clear 23 1015 47 10000 6.7 230 11:21 25.11.2019
3591 Clear 24 1014 41 10000 6.7 250 10:59 25.11.2019
3592 Clear 24 1014 36 10000 6.7 240 10:41 25.11.2019
3593 Clear 24 1014 36 10000 6.7 240 10:20 25.11.2019
3594 Clear 24 1014 36 10000 6.7 240 10:20 25.11.2019
3595 Clear 25 1014 34 10000 6.2 240 09:44 25.11.2019
3596 Clear 25 1014 34 10000 6.2 240 09:26 25.11.2019
3597 Clear 25 1014 34 10000 6.2 240 09:26 25.11.2019
3598 Clear 26 1015 39 10000 7.7 240 08:58 25.11.2019
3599 Clear 26 1015 37 10000 7.2 250 08:38 25.11.2019
3600 Clear 26 1015 39 10000 6.7 250 08:19 25.11.2019
3601 Smoke 27 1015 35 10000 7.2 240 07:40 25.11.2019
3602 Smoke 28 1015 27 10000 5.1 190 07:18 25.11.2019
3603 Smoke 28 1016 26 10000 3.1 90 06:39 25.11.2019
3604 Smoke 27 1016 28 10000 4.6 90 06:19 25.11.2019
3605 Smoke 28 1016 30 10000 5.7 90 05:33 25.11.2019
3606 Smoke 27 1016 32 10000 6.7 80 04:50 25.11.2019
3607 Clouds 24 1017 53 10000 7.2 80 02:45 25.11.2019
3608 Clear 22 1018 56 4700 5.1 80 01:56 25.11.2019
3609 Clouds 22 1017 56 10000 8.2 90 01:36 25.11.2019
3610 Clouds 21 1017 56 10000 8.2 90 01:18 25.11.2019
3611 Clouds 20 1017 60 10000 7.2 110 00:21 25.11.2019
3612 Clouds 19 1017 68 10000 3.6 130 23:45 24.11.2019
3613 Clouds 19 1017 68 10000 3.6 130 23:45 24.11.2019
3614 Clouds 18 1016 68 10000 4.6 130 23:21 24.11.2019
3615 Clouds 17 1016 68 10000 4.6 130 22:59 24.11.2019
3616 Clouds 17 1016 68 10000 4.6 130 22:59 24.11.2019
3617 Clouds 17 1016 72 10000 4.1 130 22:40 24.11.2019
3618 Clouds 17 1015 68 10000 5.1 110 22:20 24.11.2019
3619 Clouds 17 1015 68 10000 5.1 110 21:57 24.11.2019
3620 Clear 17 1015 68 10000 4.1 100 21:39 24.11.2019
3621 Clear 17 1015 68 10000 4.1 100 21:20 24.11.2019
3622 Clear 17 1015 63 10000 5.1 90 20:58 24.11.2019
3623 Clear 17 1014 63 10000 3.6 150 20:38 24.11.2019
3624 Clouds 17 1014 63 10000 3.6 150 20:18 24.11.2019
3625 Clouds 18 1014 68 10000 5.1 120 19:56 24.11.2019
3626 Clouds 17 1014 77 10000 5.1 120 19:38 24.11.2019
3627 Clouds 17 1014 77 10000 5.1 120 19:20 24.11.2019
3628 Clouds 17 1014 72 10000 5.1 120 18:57 24.11.2019
3629 Clouds 18 1014 72 10000 5.1 190 18:37 24.11.2019
3630 Clouds 18 1014 82 10000 3.1 160 18:19 24.11.2019
3631 Clouds 18 1015 68 10000 6.7 190 17:55 24.11.2019
3632 Clouds 19 1015 68 10000 6.7 190 17:37 24.11.2019
3633 Clouds 19 1015 68 10000 6.7 190 17:37 24.11.2019
3634 Clouds 19 1015 68 10000 6.7 190 17:37 24.11.2019
3635 Clouds 19 1015 72 10000 7.7 190 17:19 24.11.2019
3636 Clouds 19 1015 72 10000 7.7 190 16:56 24.11.2019
3637 Clouds 19 1014 68 10000 8.2 200 16:38 24.11.2019
3638 Clouds 19 1014 68 10000 8.2 200 16:19 24.11.2019
3639 Clouds 20 1014 68 10000 7.2 190 15:43 24.11.2019
3640 Clouds 20 1014 68 10000 7.7 200 15:25 24.11.2019
3641 Clouds 20 1014 64 10000 7.7 200 14:57 24.11.2019
3642 Clouds 20 1014 68 10000 7.7 200 14:38 24.11.2019
3643 Clouds 20 1014 68 10000 7.7 200 14:38 24.11.2019
3644 Clouds 20 1014 68 10000 7.7 200 14:18 24.11.2019
3645 Clouds 20 1014 68 10000 7.2 210 13:40 24.11.2019
3646 Clouds 20 1014 68 10000 7.2 210 13:22 24.11.2019
3647 Clouds 21 1014 64 10000 6.7 220 12:59 24.11.2019
3648 Clouds 21 1013 60 10000 8.2 220 12:39 24.11.2019
3649 Clouds 21 1013 56 10000 7.2 220 12:18 24.11.2019
3650 Clouds 22 1013 50 10000 8.2 230 11:56 24.11.2019
3651 Clouds 23 1013 50 10000 8.2 230 11:36 24.11.2019
3652 Clouds 22 1013 47 10000 7.2 200 11:18 24.11.2019
3653 Clouds 23 1013 47 10000 7.2 200 10:46 24.11.2019
3654 Clouds 23 1013 44 10000 8.7 220 10:28 24.11.2019
3655 Clouds 24 1013 36 10000 9.3 210 09:55 24.11.2019
3656 Clouds 24 1013 31 10000 9.8 220 09:36 24.11.2019
3657 Clouds 24 1013 31 10000 9.8 220 09:36 24.11.2019
3658 Clouds 24 1013 31 10000 9.8 220 09:18 24.11.2019
3659 Clouds 25 1012 36 10000 8.7 240 08:43 24.11.2019
3660 Clouds 26 1012 36 10000 8.7 240 08:21 24.11.2019
3661 Clouds 27 1012 37 10000 9.8 230 07:55 24.11.2019
3662 Clouds 26 1012 35 10000 8.2 230 07:36 24.11.2019
3663 Clouds 26 1012 37 10000 9.8 240 07:18 24.11.2019
3664 Clouds 27 1013 37 10000 7.2 240 05:59 24.11.2019
3665 Clouds 27 1013 37 10000 7.2 240 05:59 24.11.2019
3666 Clouds 27 1014 32 10000 8.7 230 04:47 24.11.2019
3667 Clouds 26 1014 36 10000 4.6 140 02:50 24.11.2019
3668 Clouds 23 1015 43 10000 4.1 170 01:58 24.11.2019
3669 Clouds 22 1015 46 10000 4.1 170 01:39 24.11.2019
3670 Clouds 22 1015 46 10000 4.1 170 01:20 24.11.2019
3671 Clouds 20 1015 52 10000 5.1 180 00:45 24.11.2019
3672 Clouds 20 1015 45 10000 5.1 140 00:22 24.11.2019
3673 Clouds 19 1014 55 10000 2.6 170 23:44 23.11.2019
3674 Clouds 18 1014 55 10000 4.6 140 23:21 23.11.2019
3675 Clouds 17 1014 55 10000 4.6 140 22:57 23.11.2019
3676 Clouds 17 1014 59 10000 3.6 130 22:38 23.11.2019
3677 Clouds 17 1014 59 10000 3.6 130 22:38 23.11.2019
3678 Clouds 17 1014 59 10000 3.6 130 22:38 23.11.2019
3679 Clouds 17 1014 59 10000 3.6 130 22:20 23.11.2019
3680 Clouds 17 1013 59 10000 5.1 120 21:57 23.11.2019
3681 Clouds 17 1013 63 10000 5.7 120 21:39 23.11.2019
3682 Clouds 17 1013 63 10000 5.7 120 21:21 23.11.2019
3683 Clouds 17 1013 63 10000 5.7 120 21:21 23.11.2019
3684 Clouds 17 1013 72 10000 4.1 200 20:40 23.11.2019
3685 Clear 17 1013 72 10000 4.1 200 20:22 23.11.2019
3686 Clear 17 1013 67 10000 4.1 210 19:58 23.11.2019
3687 Clear 17 1013 67 10000 4.6 220 19:39 23.11.2019
3688 Clear 16 1013 72 10000 4.1 210 19:19 23.11.2019
3689 Clear 17 1013 72 10000 4.1 210 18:59 23.11.2019
3690 Clear 17 1014 72 10000 4.6 190 18:39 23.11.2019
3691 Clear 17 1014 77 10000 3.1 180 18:20 23.11.2019
3692 Clear 18 1014 68 10000 3.6 190 17:45 23.11.2019
3693 Clear 18 1014 68 10000 2.6 150 17:24 23.11.2019
3694 Clear 18 1014 63 10000 4.1 210 16:57 23.11.2019
3695 Clear 18 1015 63 10000 5.1 200 16:39 23.11.2019
3696 Clear 18 1015 63 10000 5.1 200 16:21 23.11.2019
3697 Clear 19 1015 60 10000 6.7 200 15:59 23.11.2019
3698 Clear 19 1015 60 10000 7.2 190 15:39 23.11.2019
3699 Clear 20 1015 60 10000 7.2 190 15:19 23.11.2019
3700 Clear 20 1015 60 10000 3.6 190 14:57 23.11.2019
3701 Clear 20 1015 60 10000 3.6 190 14:39 23.11.2019
3702 Clear 20 1015 60 10000 3.6 190 14:21 23.11.2019
3703 Clear 21 1016 68 10000 5.7 210 13:54 23.11.2019
3704 Clear 21 1016 68 10000 5.7 210 13:54 23.11.2019
3705 Clear 21 1016 68 10000 5.7 210 13:36 23.11.2019
3706 Clear 21 1015 46 10000 6.7 210 13:18 23.11.2019
3707 Clear 22 1015 44 10000 5.7 210 13:18 23.11.2019
3708 Clear 22 1015 41 10000 6.7 210 12:41 23.11.2019
3709 Clear 22 1015 41 10000 6.7 210 12:22 23.11.2019
3710 Clear 24 1014 34 10000 6.2 190 11:44 23.11.2019
3711 Clear 25 1014 30 10000 6.2 190 11:22 23.11.2019
3712 Clear 26 1014 28 10000 8.2 220 10:45 23.11.2019
3713 Clear 26 1014 28 10000 8.2 220 10:22 23.11.2019
3714 Clear 27 1014 30 10000 8.2 240 09:44 23.11.2019
3715 Clear 27 1014 30 10000 8.2 240 09:21 23.11.2019
3716 Clear 27 1014 28 10000 6.2 200 08:56 23.11.2019
3717 Clear 28 1014 28 10000 8.7 240 08:37 23.11.2019
3718 Clear 28 1014 28 10000 8.7 240 08:18 23.11.2019
3719 Clear 28 1015 35 10000 8.2 230 07:39 23.11.2019
3720 Clear 30 1015 30 10000 8.2 230 06:50 23.11.2019
3721 Clear 29 1015 15 10000 3.6 230 06:23 23.11.2019
3722 Clear 29 1016 26 10000 3.1 160 05:53 23.11.2019
3723 Clear 29 1016 26 10000 3.1 160 05:31 23.11.2019
3724 Clear 29 1017 26 10000 8.2 230 04:50 23.11.2019
3725 Clear 29 1017 32 10000 8.2 230 04:29 23.11.2019
3726 Clear 27 1018 39 10000 4.6 110 03:20 23.11.2019
3727 Clear 24 1018 46 10000 6.7 100 02:24 23.11.2019
3728 Clear 22 1019 52 10000 7.7 90 01:38 23.11.2019
3729 Clear 20 1019 63 10000 7.7 100 00:43 23.11.2019
3730 Clear 19 1019 68 10000 6.2 110 00:19 23.11.2019
3731 Clear 18 1018 59 10000 8.7 90 23:42 22.11.2019
3732 Clear 17 1018 72 10000 7.7 100 23:21 22.11.2019
3733 Clear 17 1018 72 10000 7.7 100 22:58 22.11.2019
3734 Clear 17 1018 63 10000 1.5 320 22:38 22.11.2019
3735 Clear 17 1018 63 10000 1.5 320 22:38 22.11.2019
3736 Clear 17 1018 63 10000 1.5 320 22:20 22.11.2019
3737 Clear 17 1017 63 10000 7.7 100 21:59 22.11.2019
3738 Clear 17 1017 59 10000 3.6 100 21:39 22.11.2019
3739 Clear 17 1017 59 10000 3.6 100 21:20 22.11.2019
3740 Clear 17 1017 63 10000 7.7 100 20:43 22.11.2019
3741 Clear 17 1017 63 10000 7.7 100 20:22 22.11.2019
3742 Clear 18 1017 63 10000 7.7 100 19:57 22.11.2019
3743 Clear 17 1017 59 10000 5.7 90 19:38 22.11.2019
3744 Clear 17 1017 59 10000 5.7 90 19:19 22.11.2019
3745 Clear 17 1017 59 10000 5.7 90 19:19 22.11.2019
3746 Clear 17 1018 82 10000 7.7 100 18:41 22.11.2019
3747 Clear 16 1018 82 10000 7.7 100 18:22 22.11.2019
3748 Clear 16 1018 77 10000 7.7 100 17:59 22.11.2019
3749 Clear 17 1018 77 10000 7.7 100 17:40 22.11.2019
3750 Clear 17 1018 77 10000 7.7 100 17:22 22.11.2019
3751 Clear 17 1018 77 10000 7.7 100 16:47 22.11.2019
3752 Clear 17 1018 77 10000 5.1 130 16:28 22.11.2019
3753 Clear 18 1018 72 10000 4.6 200 15:47 22.11.2019
3754 Clear 18 1019 68 10000 5.1 130 15:24 22.11.2019
3755 Clear 18 1019 68 10000 5.1 130 15:24 22.11.2019
3756 Clear 18 1019 68 10000 5.1 130 14:56 22.11.2019
3757 Clear 18 1019 68 10000 5.1 130 14:56 22.11.2019
3758 Clear 18 1019 68 10000 5.1 130 14:56 22.11.2019
3759 Clear 18 1019 72 10000 6.7 210 14:38 22.11.2019
3760 Clear 19 1019 72 10000 6.7 210 14:19 22.11.2019
3761 Clear 19 1019 77 10000 4.1 200 13:58 22.11.2019
3762 Clear 19 1019 77 10000 4.6 200 13:37 22.11.2019
3763 Clear 19 1019 77 10000 4.6 200 13:18 22.11.2019
3764 Clear 19 1018 68 10000 7.7 210 12:55 22.11.2019
3765 Clear 20 1018 64 10000 8.2 220 12:36 22.11.2019
3766 Clear 20 1018 64 10000 8.2 220 12:18 22.11.2019
3767 Clear 21 1018 56 10000 8.2 220 11:40 22.11.2019
3768 Clear 21 1018 56 10000 8.2 220 11:22 22.11.2019
3769 Clear 22 1017 53 10000 7.7 230 10:59 22.11.2019
3770 Clear 23 1017 50 10000 8.2 240 10:40 22.11.2019
3771 Clear 23 1017 50 10000 8.2 240 10:40 22.11.2019
3772 Clear 23 1017 50 10000 8.2 240 10:22 22.11.2019
3773 Clear 24 1017 47 10000 7.7 230 09:56 22.11.2019
3774 Clouds 24 1017 47 10000 7.2 240 09:37 22.11.2019
3775 Clouds 25 1017 47 10000 7.2 240 09:19 22.11.2019
3776 Clouds 25 1017 47 10000 8.2 260 08:46 22.11.2019
3777 Clouds 25 1017 47 10000 8.2 260 08:27 22.11.2019
3778 Clouds 25 1017 47 10000 8.2 260 08:27 22.11.2019
3779 Clouds 25 1018 41 10000 7.2 260 07:46 22.11.2019
3780 Clouds 25 1018 41 10000 7.2 260 07:23 22.11.2019
3781 Clouds 26 1018 36 10000 5.7 260 06:57 22.11.2019
3782 Clouds 26 1018 30 10000 4.6 180 06:37 22.11.2019
3783 Clouds 26 1019 31 10000 6.7 220 05:49 22.11.2019
3784 Clouds 25 1019 33 10000 3.6 140 04:50 22.11.2019
3785 Clouds 21 1020 52 10000 2.6 120 02:55 22.11.2019
3786 Clouds 19 1020 55 10000 4.1 130 02:31 22.11.2019
3787 Clouds 17 1021 59 10000 6.7 180 01:45 22.11.2019
3788 Clouds 17 1020 59 10000 5.1 180 01:20 22.11.2019
3789 Clouds 16 1020 59 10000 5.7 170 00:51 22.11.2019
3790 Clouds 15 1020 67 10000 4.6 180 00:24 22.11.2019
3791 Clouds 14 1019 67 10000 3.6 180 23:49 21.11.2019
3792 Clouds 14 1019 67 10000 3.6 180 23:31 21.11.2019
3793 Clouds 13 1019 71 10000 4.1 180 22:59 21.11.2019
3794 Clouds 13 1019 71 10000 5.7 190 22:39 21.11.2019
3795 Clouds 13 1019 71 10000 5.7 190 22:21 21.11.2019
3796 Clouds 13 1019 67 10000 6.7 190 21:57 21.11.2019
3797 Clouds 13 1018 67 10000 5.7 200 21:38 21.11.2019
3798 Clouds 13 1018 67 10000 5.7 200 21:19 21.11.2019
3799 Clouds 13 1018 81 10000 2.1 290 20:58 21.11.2019
3800 Clouds 13 1018 76 10000 2.1 10 20:38 21.11.2019
3801 Clouds 13 1018 76 10000 2.1 10 20:19 21.11.2019
3802 Clouds 13 1018 76 10000 3.6 130 19:59 21.11.2019
3803 Clouds 13 1018 76 10000 3.6 130 19:59 21.11.2019
3804 Clouds 13 1018 76 10000 3.6 130 19:59 21.11.2019
3805 Clouds 13 1018 81 10000 4.6 170 19:40 21.11.2019
3806 Clouds 13 1018 81 10000 4.6 170 19:21 21.11.2019
3807 Clouds 13 1018 81 10000 2.6 130 18:56 21.11.2019
3808 Clouds 13 1018 81 10000 3.1 130 18:37 21.11.2019
3809 Clouds 13 1018 81 10000 3.1 130 18:19 21.11.2019
3810 Clouds 13 1019 76 10000 3.1 160 17:57 21.11.2019
3811 Clouds 13 1019 67 10000 3.6 180 17:38 21.11.2019
3812 Clouds 14 1019 67 10000 3.6 180 17:19 21.11.2019
3813 Clouds 14 1020 62 10000 4.1 150 16:41 21.11.2019
3814 Clouds 14 1020 62 10000 4.1 150 16:21 21.11.2019
3815 Clouds 15 1020 62 10000 4.1 150 15:56 21.11.2019
3816 Clouds 15 1020 62 10000 6.2 190 15:38 21.11.2019
3817 Clouds 15 1020 62 10000 6.2 190 15:19 21.11.2019
3818 Clouds 16 1020 59 10000 8.2 190 14:42 21.11.2019
3819 Clouds 16 1020 59 10000 8.7 200 14:23 21.11.2019
3820 Clouds 16 1019 55 10000 7.7 210 13:59 21.11.2019
3821 Clouds 16 1019 55 10000 6.7 210 13:38 21.11.2019
3822 Clouds 17 1019 55 10000 6.7 210 13:19 21.11.2019
3823 Clouds 17 1019 55 10000 8.2 210 12:56 21.11.2019
3824 Clouds 17 1019 55 10000 7.2 210 12:37 21.11.2019
3825 Clouds 17 1019 55 10000 7.2 210 12:19 21.11.2019
3826 Clouds 19 1018 42 10000 7.7 220 11:41 21.11.2019
3827 Clouds 19 1018 42 10000 7.7 220 11:21 21.11.2019
3828 Clouds 19 1018 42 10000 7.2 230 10:57 21.11.2019
3829 Clouds 19 1018 42 10000 7.2 230 10:57 21.11.2019
3830 Clouds 20 1018 37 10000 6.7 230 10:39 21.11.2019
3831 Clouds 20 1018 37 10000 6.7 230 10:20 21.11.2019
3832 Clouds 20 1018 40 10000 6.7 230 09:43 21.11.2019
3833 Clouds 21 1018 35 10000 7.7 230 09:24 21.11.2019
3834 Clouds 21 1017 31 10000 7.2 240 08:59 21.11.2019
3835 Clouds 22 1017 33 10000 7.2 260 08:40 21.11.2019
3836 Clouds 22 1017 33 10000 7.2 260 08:40 21.11.2019
3837 Clouds 22 1017 33 10000 7.2 260 08:40 21.11.2019
3838 Clear 22 1017 33 10000 7.2 260 08:18 21.11.2019
3839 Clear 22 1018 25 10000 6.2 270 07:40 21.11.2019
3840 Clear 23 1018 25 10000 6.2 270 07:18 21.11.2019
3841 Clear 23 1018 28 10000 6.2 260 06:51 21.11.2019
3842 Clear 23 1018 31 10000 5.1 240 06:33 21.11.2019
3843 Clear 23 1018 26 10000 5.1 240 05:31 21.11.2019
3844 Clear 21 1020 30 10000 7.2 240 03:32 21.11.2019
3845 Clear 20 1020 39 10000 2.6 70 02:40 21.11.2019
3846 Clouds 18 1021 45 10000 7.2 240 01:53 21.11.2019
3847 Clouds 18 1021 45 10000 7.2 240 01:53 21.11.2019
3848 Clouds 17 1021 48 10000 4.1 100 01:23 21.11.2019
3849 Clouds 17 1021 48 10000 3.1 130 00:52 21.11.2019
3850 Clouds 15 1021 54 10000 2.6 190 00:20 21.11.2019
3851 Clouds 13 1021 66 10000 2.1 170 23:52 20.11.2019
3852 Clouds 10 1020 87 10000 3.6 190 23:24 20.11.2019
3853 Clouds 9 1020 87 10000 2.1 200 22:59 20.11.2019
3854 Clouds 9 1020 87 10000 1.5 80 22:41 20.11.2019
3855 Clouds 9 1020 87 10000 1.5 80 22:20 20.11.2019
3856 Clouds 9 1020 87 10000 1.5 120 21:59 20.11.2019
3857 Clouds 9 1019 81 10000 2.6 190 21:40 20.11.2019
3858 Clouds 9 1019 81 10000 2.6 190 21:22 20.11.2019
3859 Clouds 9 1019 71 10000 3.1 220 20:58 20.11.2019
3860 Clouds 10 1019 66 10000 3.6 210 20:40 20.11.2019
3861 Clouds 10 1019 66 10000 3.6 210 20:22 20.11.2019
3862 Clouds 10 1019 62 10000 3.6 190 19:58 20.11.2019
3863 Clouds 10 1019 62 10000 3.6 190 19:58 20.11.2019
3864 Clouds 11 1018 66 10000 3.6 200 19:37 20.11.2019
3865 Clouds 11 1018 66 10000 3.6 200 19:19 20.11.2019
3866 Clouds 11 1018 66 10000 3.1 190 18:59 20.11.2019
3867 Clouds 11 1019 76 10000 3.1 190 18:40 20.11.2019
3868 Clouds 12 1019 76 10000 3.1 190 18:21 20.11.2019
3869 Clouds 12 1019 71 10000 2.6 200 17:57 20.11.2019
3870 Clouds 13 1019 71 10000 3.6 200 17:39 20.11.2019
3871 Clouds 13 1019 71 10000 3.6 200 17:20 20.11.2019
3872 Clouds 13 1019 62 10000 5.7 200 16:57 20.11.2019
3873 Clouds 13 1019 62 10000 5.7 200 16:57 20.11.2019
3874 Clouds 14 1019 62 10000 5.1 190 16:39 20.11.2019
3875 Clouds 14 1019 62 10000 5.1 190 16:18 20.11.2019
3876 Clouds 14 1019 62 10000 5.1 190 15:56 20.11.2019
3877 Clouds 14 1019 58 10000 5.7 190 15:38 20.11.2019
3878 Clouds 14 1019 58 10000 5.7 190 15:18 20.11.2019
3879 Clouds 16 1019 55 10000 7.2 190 14:40 20.11.2019
3880 Clear 15 1019 55 10000 7.2 190 14:22 20.11.2019
3881 Clear 15 1019 55 10000 7.2 190 14:22 20.11.2019
3882 Clear 15 1019 55 10000 7.2 190 14:22 20.11.2019
3883 Clear 15 1019 55 10000 7.2 190 14:22 20.11.2019
3884 Clear 15 1019 55 10000 7.2 190 14:22 20.11.2019
3885 Clear 16 1019 55 10000 8.2 210 13:58 20.11.2019
3886 Clouds 16 1019 55 10000 7.2 210 13:39 20.11.2019
3887 Clouds 16 1019 55 10000 7.2 210 13:20 20.11.2019
3888 Clouds 16 1019 51 10000 7.2 210 12:55 20.11.2019
3889 Clouds 16 1019 51 10000 7.7 230 12:37 20.11.2019
3890 Clouds 17 1019 51 10000 7.7 230 12:19 20.11.2019
3891 Clouds 17 1018 48 10000 7.2 220 11:45 20.11.2019
3892 Clear 18 1018 45 10000 7.2 200 11:22 20.11.2019
3893 Clear 18 1017 42 10000 7.2 200 10:56 20.11.2019
3894 Clear 19 1017 42 10000 7.2 200 10:38 20.11.2019
3895 Clear 19 1017 42 10000 7.2 200 10:19 20.11.2019
3896 Clear 20 1016 37 10000 8.2 240 09:43 20.11.2019
3897 Clear 19 1016 37 10000 8.2 240 09:23 20.11.2019
3898 Clear 20 1016 37 10000 7.2 230 08:58 20.11.2019
3899 Clear 20 1016 30 10000 7.2 200 08:39 20.11.2019
3900 Clouds 20 1016 30 10000 7.2 200 08:20 20.11.2019
3901 Clouds 20 1016 30 10000 7.7 240 07:47 20.11.2019
3902 Clouds 21 1016 32 10000 8.7 220 07:26 20.11.2019
3903 Clouds 20 1016 34 10000 9.8 220 06:49 20.11.2019
3904 Clouds 20 1016 37 10000 9.8 230 06:22 20.11.2019
3905 Clouds 20 1016 30 10000 10.8 230 05:39 20.11.2019
3906 Clouds 19 1016 39 10000 9.3 220 03:36 20.11.2019
3907 Clouds 18 1016 45 10000 11.8 220 02:21 20.11.2019
3908 Rain 17 1014 48 10000 11.3 230 01:33 20.11.2019
3909 Clouds 17 1013 59 10000 9.8 240 00:41 20.11.2019
3910 Clouds 17 1013 59 10000 10.3 230 23:54 19.11.2019
3911 Clouds 17 1012 77 10000 10.3 230 23:26 19.11.2019
3912 Clouds 17 1012 63 10000 9.8 240 22:58 19.11.2019
3913 Clouds 17 1012 82 10000 10.3 240 22:39 19.11.2019
3914 Clouds 16 1012 82 10000 10.3 240 22:19 19.11.2019
3915 Rain 16 1011 67 10000 11.8 240 21:56 19.11.2019
3916 Rain 16 1011 77 10000 8.7 260 21:37 19.11.2019
3917 Rain 17 1011 77 10000 8.7 260 21:19 19.11.2019
3918 Rain 17 1011 77 10000 8.7 260 21:19 19.11.2019
3919 Drizzle 17 1011 82 10000 8.2 240 20:55 19.11.2019
3920 Drizzle 17 1011 82 10000 8.2 240 20:55 19.11.2019
3921 Clouds 17 1010 77 10000 3.1 240 20:37 19.11.2019
3922 Clouds 17 1010 77 10000 3.1 240 20:18 19.11.2019
3923 Clouds 17 1010 82 10000 3.6 220 19:55 19.11.2019
3924 Rain 17 1010 77 10000 9.8 230 19:37 19.11.2019
3925 Rain 17 1010 77 10000 9.8 230 19:18 19.11.2019
3926 Clouds 18 1011 55 10000 4.6 230 18:41 19.11.2019
3927 Clouds 18 1011 55 10000 5.1 230 18:22 19.11.2019
3928 Clouds 17 1011 55 10000 5.1 230 17:59 19.11.2019
3929 Clouds 17 1011 59 10000 4.6 240 17:41 19.11.2019
3930 Clouds 18 1011 59 10000 4.6 240 17:21 19.11.2019
3931 Clouds 17 1011 63 10000 5.1 230 16:59 19.11.2019
3932 Clouds 17 1011 59 10000 4.6 220 16:41 19.11.2019
3933 Clouds 17 1011 59 10000 4.6 220 16:21 19.11.2019
3934 Clouds 17 1011 59 10000 4.6 220 16:21 19.11.2019
3935 Clouds 17 1011 59 10000 5.1 230 15:47 19.11.2019
3936 Clouds 17 1011 59 10000 7.2 230 15:27 19.11.2019
3937 Clouds 17 1011 59 10000 7.2 230 15:27 19.11.2019
3938 Clouds 17 1011 59 10000 6.2 230 14:58 19.11.2019
3939 Clouds 17 1011 59 10000 6.2 230 14:39 19.11.2019
3940 Clouds 17 1011 59 10000 6.2 230 14:21 19.11.2019
3941 Clouds 18 1011 59 10000 7.2 230 13:42 19.11.2019
3942 Clouds 18 1011 59 10000 7.2 230 13:42 19.11.2019
3943 Clouds 18 1011 59 10000 7.2 230 13:42 19.11.2019
3944 Clouds 18 1011 59 10000 7.2 230 13:42 19.11.2019
3945 Clouds 18 1011 59 10000 7.2 230 13:42 19.11.2019
3946 Clouds 18 1011 63 10000 6.2 230 13:22 19.11.2019
3947 Clouds 18 1010 63 10000 6.7 240 12:58 19.11.2019
3948 Clouds 18 1010 63 10000 5.7 240 12:39 19.11.2019
3949 Clouds 18 1010 63 10000 5.7 240 12:21 19.11.2019
3950 Clouds 18 1010 59 10000 6.7 230 11:56 19.11.2019
3951 Clouds 18 1010 59 10000 6.7 230 11:56 19.11.2019
3952 Clouds 19 1010 60 10000 7.7 230 11:37 19.11.2019
3953 Clouds 19 1010 60 10000 7.7 230 11:18 19.11.2019
3954 Clouds 20 1010 60 10000 7.7 240 10:44 19.11.2019
3955 Clouds 20 1010 60 10000 8.7 220 10:21 19.11.2019
3956 Clouds 21 1009 56 10000 8.2 240 09:45 19.11.2019
3957 Clouds 21 1009 56 10000 8.2 240 09:21 19.11.2019
3958 Clouds 21 1009 56 10000 7.2 230 08:58 19.11.2019
3959 Clouds 22 1009 56 10000 9.3 230 08:40 19.11.2019
3960 Clouds 22 1009 56 10000 9.3 230 08:21 19.11.2019
3961 Smoke 22 1009 53 4500 8.2 240 07:56 19.11.2019
3962 Smoke 23 1009 57 3000 7.7 230 07:36 19.11.2019
3963 -273 0 0 0 0 0 07:18 19.11.2019
3964 Smoke 23 1009 50 2500 7.7 240 06:42 19.11.2019
3965 Smoke 24 1009 50 2500 7.7 240 06:18 19.11.2019
3966 Smoke 24 1009 50 2500 7.7 240 06:18 19.11.2019
3967 Clouds 24 1009 53 10000 7.2 260 05:18 19.11.2019
3968 Clouds 24 1009 47 10000 4.1 260 03:39 19.11.2019
3969 Clouds 24 1009 47 10000 4.1 260 03:19 19.11.2019
3970 Clouds 23 1009 46 10000 4.1 260 02:45 19.11.2019
3971 Clouds 22 1009 49 10000 6.2 230 01:48 19.11.2019
3972 Clouds 21 1009 60 10000 3.1 70 00:46 19.11.2019
3973 Clouds 20 1009 68 10000 1.5 60 00:19 19.11.2019
3974 Clouds 18 1009 82 10000 2.1 120 23:39 18.11.2019
3975 Clouds 18 1009 82 10000 2.1 120 23:19 18.11.2019
3976 Clouds 17 1009 77 10000 3.6 160 22:46 18.11.2019
3977 Clouds 17 1009 77 10000 4.1 160 22:24 18.11.2019
3978 Clouds 17 1009 77 10000 4.1 180 21:57 18.11.2019
3979 Clouds 18 1009 77 10000 3.1 210 21:39 18.11.2019
3980 Clouds 18 1009 77 10000 3.1 210 21:20 18.11.2019
3981 Clouds 18 1009 93 10000 1 100 20:57 18.11.2019
3982 Clouds 18 1009 93 10000 1 100 20:57 18.11.2019
3983 Clouds 18 1009 82 10000 1.5 160 20:39 18.11.2019
3984 Clouds 18 1009 82 10000 1.5 160 20:18 18.11.2019
3985 Clouds 18 1008 82 10000 1.5 200 19:56 18.11.2019
3986 Clouds 19 1009 77 10000 3.1 180 19:37 18.11.2019
3987 Clouds 19 1009 77 10000 3.1 180 19:19 18.11.2019
3988 Clouds 19 1009 77 10000 3.1 180 19:19 18.11.2019
3989 Clouds 19 1009 77 10000 3.6 180 18:55 18.11.2019
3990 Clouds 20 1009 77 10000 4.6 180 18:37 18.11.2019
3991 Clouds 20 1009 77 10000 4.6 180 18:19 18.11.2019
3992 Clouds 20 1009 73 10000 4.1 200 17:40 18.11.2019
3993 Clouds 20 1009 73 10000 4.1 200 17:21 18.11.2019
3994 Clouds 20 1010 73 10000 4.1 200 16:58 18.11.2019
3995 Clouds 21 1010 68 10000 4.1 210 16:40 18.11.2019
3996 Clouds 21 1011 77 10000 4.1 190 16:22 18.11.2019
3997 Clouds 21 1010 68 10000 3.6 210 15:56 18.11.2019
3998 Clouds 21 1010 68 10000 3.6 210 15:56 18.11.2019
3999 Clouds 21 1011 77 10000 2.1 200 15:37 18.11.2019
4000 Clouds 21 1011 77 10000 2.1 200 15:19 18.11.2019
4001 Clouds 22 1011 64 10000 4.1 210 14:42 18.11.2019
4002 Clouds 22 1012 64 10000 4.1 220 14:24 18.11.2019
4003 Clouds 22 1011 60 10000 4.1 210 13:56 18.11.2019
4004 Clouds 22 1011 60 10000 4.6 210 13:37 18.11.2019
4005 Clouds 23 1011 60 10000 4.6 210 13:18 18.11.2019
4006 Clouds 23 1011 50 10000 6.7 210 12:39 18.11.2019
4007 Clouds 23 1011 50 10000 6.7 210 12:19 18.11.2019
4008 Clouds 24 1011 47 10000 8.2 220 11:45 18.11.2019
4009 Clouds 24 1011 47 10000 8.2 220 11:26 18.11.2019
4010 Clouds 24 1011 44 10000 7.2 230 10:58 18.11.2019
4011 Clouds 25 1011 42 10000 6.7 250 10:40 18.11.2019
4012 Clouds 26 1011 42 10000 6.7 250 10:20 18.11.2019
4013 Clouds 27 1011 39 10000 6.7 250 09:55 18.11.2019
4014 Clouds 27 1011 37 10000 7.2 240 09:37 18.11.2019
4015 Clouds 27 1011 37 10000 7.2 240 09:18 18.11.2019
4016 Clouds 28 1012 35 10000 7.2 240 08:44 18.11.2019
4017 Clouds 29 1012 35 10000 7.2 240 08:20 18.11.2019
4018 Clouds 30 1012 35 10000 7.7 240 07:48 18.11.2019
4019 Clouds 30 1012 33 10000 7.2 230 07:29 18.11.2019
4020 Clouds 31 1012 35 10000 7.2 250 06:56 18.11.2019
4021 Clouds 29 1013 35 10000 7.2 230 06:33 18.11.2019
4022 Clouds 29 1013 38 10000 7.2 260 05:51 18.11.2019
4023 Clear 28 1014 25 10000 7.2 220 04:57 18.11.2019
4024 Clear 29 1015 32 10000 3.6 100 02:59 18.11.2019
4025 Clear 24 1016 36 10000 3.1 190 01:31 18.11.2019
4026 Clear 22 1016 46 10000 2.1 310 00:24 18.11.2019
4027 Clear 19 1016 68 10000 3.1 160 23:44 17.11.2019
4028 Clear 19 1016 68 10000 3.1 160 23:24 17.11.2019
4029 Clear 18 1016 77 10000 2.6 170 22:58 17.11.2019
4030 Clear 18 1016 88 10000 5.7 110 22:40 17.11.2019
4031 Clear 18 1016 88 10000 5.7 110 22:22 17.11.2019
4032 Clear 18 1015 93 10000 1.5 190 21:58 17.11.2019
4033 Clear 17 1016 93 9000 4.1 150 21:40 17.11.2019
4034 Clear 17 1016 93 9000 4.1 150 21:19 17.11.2019
4035 Clear 18 1016 88 9000 4.1 150 20:56 17.11.2019
4036 Clear 18 1015 93 10000 3.6 210 20:37 17.11.2019
4037 Clear 18 1015 93 10000 3.6 210 20:19 17.11.2019
4038 Clear 18 1015 93 10000 4.1 150 19:56 17.11.2019
4039 Clear 18 1015 93 10000 4.1 150 19:56 17.11.2019
4040 Clear 18 1015 93 10000 4.1 150 19:37 17.11.2019
4041 Clear 18 1015 93 10000 4.1 150 19:37 17.11.2019
4042 Clear 18 1015 93 10000 4.1 150 19:19 17.11.2019
4043 Clear 18 1015 93 10000 4.1 150 18:55 17.11.2019
4044 Clear 18 1015 93 10000 3.1 200 18:36 17.11.2019
4045 Clear 18 1015 93 10000 3.1 200 18:18 17.11.2019
4046 Clear 18 1015 93 10000 3.1 200 18:18 17.11.2019
4047 Clouds 18 1016 93 10000 3.6 200 17:57 17.11.2019
4048 Clouds 18 1016 88 10000 3.6 200 17:38 17.11.2019
4049 Clouds 19 1016 88 10000 3.6 200 17:19 17.11.2019
4050 Clear 19 1016 88 10000 3.1 210 16:55 17.11.2019
4051 Clouds 19 1016 88 10000 3.6 200 16:37 17.11.2019
4052 Clouds 19 1016 88 10000 3.6 200 16:19 17.11.2019
4053 Clouds 19 1016 82 10000 3.6 200 15:54 17.11.2019
4054 Clouds 19 1016 82 10000 3.6 200 15:54 17.11.2019
4055 Clouds 19 1016 82 10000 3.6 200 15:54 17.11.2019
4056 Clouds 19 1017 82 10000 3.6 200 15:36 17.11.2019
4057 Clouds 19 1017 82 10000 3.6 200 15:18 17.11.2019
4058 Clouds 19 1017 82 10000 3.6 200 15:18 17.11.2019
4059 Clouds 19 1017 82 10000 3.6 200 15:18 17.11.2019
4060 Clouds 20 1017 82 10000 3.6 200 14:54 17.11.2019
4061 Clouds 20 1017 82 10000 3.6 200 14:54 17.11.2019
4062 Clouds 20 1017 82 10000 5.7 220 14:36 17.11.2019
4063 Clouds 20 1017 82 10000 5.7 220 14:18 17.11.2019
4064 Clouds 20 1016 77 10000 3.6 200 13:40 17.11.2019
4065 Clouds 20 1016 77 10000 3.6 200 13:20 17.11.2019
4066 Clouds 20 1016 77 10000 3.6 200 12:55 17.11.2019
4067 Clear 21 1016 73 10000 4.6 240 12:36 17.11.2019
4068 Clear 21 1016 73 10000 4.6 240 12:18 17.11.2019
4069 Clear 21 1016 73 10000 4.6 240 12:18 17.11.2019
4070 Clouds 22 1016 69 10000 5.7 240 11:54 17.11.2019
4071 Clouds 22 1016 57 10000 5.1 250 11:36 17.11.2019
4072 Clouds 23 1016 57 10000 5.1 250 11:18 17.11.2019
4073 Clouds 24 1015 61 10000 5.7 260 10:41 17.11.2019
4074 Clouds 24 1015 61 10000 5.7 260 10:21 17.11.2019
4075 Clouds 24 1015 61 10000 5.7 260 10:21 17.11.2019
4076 Clouds 24 1015 57 10000 6.2 260 09:42 17.11.2019
4077 Clouds 25 1015 57 10000 6.2 260 09:24 17.11.2019
4078 Clouds 25 1015 51 10000 6.2 260 08:44 17.11.2019
4079 Clear 26 1015 48 10000 4.6 270 08:26 17.11.2019
4080 Clear 27 1015 48 10000 4.1 260 07:58 17.11.2019
4081 Clear 27 1015 48 10000 4.1 260 07:58 17.11.2019
4082 Clear 28 1015 51 10000 5.1 270 07:40 17.11.2019
4083 Clear 28 1015 51 10000 5.1 270 07:20 17.11.2019
4084 Clear 28 1016 51 10000 5.7 270 06:51 17.11.2019
4085 Clear 28 1016 51 10000 5.7 270 06:29 17.11.2019
4086 Clear 28 1016 51 10000 5.7 270 06:29 17.11.2019
4087 Clear 28 1016 51 10000 5.7 270 06:29 17.11.2019
4088 Clear 28 1015 58 10000 6.7 270 04:57 17.11.2019
4089 Clear 27 1016 54 10000 3.6 250 03:59 17.11.2019
4090 Clear 27 1016 57 10000 2.6 230 03:35 17.11.2019
4091 Clouds 25 1016 65 10000 3.1 280 02:59 17.11.2019
4092 Clouds 23 1017 83 10000 1.5 310 01:50 17.11.2019
4093 Fog 22 1017 94 5000 1.5 350 00:59 17.11.2019
4094 Clouds 21 1017 78 10000 1.34 260 00:38 17.11.2019
4095 Clouds 21 1017 78 10000 1.34 260 00:19 17.11.2019
4096 Fog 19 1016 100 500 2.6 360 23:40 16.11.2019
4097 Fog 19 1016 100 500 2.6 360 23:40 16.11.2019
4098 Fog 19 1016 100 500 2.6 360 23:18 16.11.2019
4099 Fog 18 1016 100 500 2.6 40 22:42 16.11.2019
4100 Fog 18 1016 100 500 2.6 40 22:20 16.11.2019
4101 Clouds 18 1016 88 10000 3.6 30 21:58 16.11.2019
4102 Clouds 18 1015 82 10000 2.6 30 21:39 16.11.2019
4103 Clouds 18 1015 82 10000 2.6 30 21:21 16.11.2019
4104 Clouds 18 1015 82 10000 2.6 30 20:57 16.11.2019
4105 Clouds 18 1015 82 10000 2.6 30 20:38 16.11.2019
4106 Clouds 18 1015 82 10000 2.6 30 20:19 16.11.2019
4107 Clear 19 1015 100 10000 1.03 203 19:41 16.11.2019
4108 Clear 19 1015 100 10000 1.03 203 19:22 16.11.2019
4109 Clear 19 1015 93 10000 1.03 203 18:56 16.11.2019
4110 Clear 19 1015 77 10000 2.6 10 18:38 16.11.2019
4111 Clear 20 1015 77 10000 2.6 10 18:20 16.11.2019
4112 Clear 20 1014 72 10000 2.6 50 17:39 16.11.2019
4113 Clear 20 1014 72 10000 2.6 50 17:21 16.11.2019
4114 Clear 20 1014 77 10000 2.6 90 16:59 16.11.2019
4115 Clear 20 1014 77 10000 2.6 90 16:59 16.11.2019
4116 Clear 20 1014 68 10000 2.1 260 16:41 16.11.2019
4117 Clear 21 1014 68 10000 2.1 260 16:22 16.11.2019
4118 Clear 21 1014 72 10000 2.6 250 15:42 16.11.2019
4119 Clear 21 1014 60 10000 2.6 270 15:24 16.11.2019
4120 Clear 21 1014 60 10000 2.6 270 15:24 16.11.2019
4121 Clear 22 1014 53 10000 2.6 250 14:59 16.11.2019
4122 Clear 23 1014 50 10000 3.1 250 14:40 16.11.2019
4123 Clear 23 1014 50 10000 3.1 250 14:21 16.11.2019
4124 Clear 24 1014 44 10000 3.6 280 13:56 16.11.2019
4125 Clear 24 1014 44 10000 3.6 280 13:38 16.11.2019
4126 Clear 24 1014 44 10000 3.6 280 13:19 16.11.2019
4127 Clear 25 1013 37 10000 4.1 260 12:56 16.11.2019
4128 Clear 26 1013 39 10000 3.6 260 12:38 16.11.2019
4129 Clear 25 1013 39 10000 3.6 260 12:19 16.11.2019
4130 Clear 28 1013 33 10000 3.6 270 11:43 16.11.2019
4131 Clear 29 1013 33 10000 3.6 270 11:25 16.11.2019
4132 Clear 30 1013 31 10000 4.6 270 10:56 16.11.2019
4133 Clear 30 1013 31 10000 5.1 260 10:37 16.11.2019
4134 Clear 29 1013 31 10000 5.1 260 10:19 16.11.2019
4135 Clear 30 1013 33 10000 6.2 260 09:42 16.11.2019
4136 Clear 30 1012 35 10000 6.2 240 09:20 16.11.2019
4137 Clear 30 1012 33 10000 8.2 260 08:57 16.11.2019
4138 Clear 32 1011 23 10000 7.7 260 08:37 16.11.2019
4139 Clear 32 1011 23 10000 7.7 260 08:18 16.11.2019
4140 Clear 36 1011 14 10000 2.6 250 07:41 16.11.2019
4141 Clear 37 1011 14 10000 2.6 250 07:19 16.11.2019
4142 Clear 34 1011 15 10000 3.1 350 06:44 16.11.2019
4143 Clear 34 1011 15 10000 3.1 350 06:25 16.11.2019
4144 Clear 36 1012 26 10000 3.6 40 04:49 16.11.2019
4145 Clear 32 1013 35 10000 4.6 90 03:26 16.11.2019
4146 Clear 32 1013 35 10000 4.6 90 03:26 16.11.2019
4147 Clear 30 1013 39 10000 6.2 90 02:55 16.11.2019
4148 Clouds 27 1014 39 10000 4.6 80 01:43 16.11.2019
4149 Clouds 25 1013 49 10000 5.7 90 00:59 16.11.2019
4150 Clouds 23 1013 52 10000 6.2 60 00:37 16.11.2019
4151 Clouds 22 1013 52 10000 6.2 60 00:18 16.11.2019
4152 Clouds 21 1014 56 10000 7.2 100 23:39 15.11.2019
4153 Clouds 20 1014 56 10000 7.2 100 23:20 15.11.2019
4154 Clouds 20 1013 52 10000 6.7 90 22:42 15.11.2019
4155 Clouds 20 1013 52 10000 5.1 90 22:20 15.11.2019
4156 Clouds 20 1013 52 10000 5.1 90 21:59 15.11.2019
4157 Clouds 20 1013 52 10000 4.6 80 21:40 15.11.2019
4158 Clouds 21 1013 52 10000 4.6 80 21:20 15.11.2019
4159 Clouds 21 1013 46 10000 5.7 90 20:57 15.11.2019
4160 Clouds 22 1013 46 10000 4.1 100 20:39 15.11.2019
4161 Clear 22 1013 46 10000 4.1 100 20:21 15.11.2019
4162 Clear 23 1012 43 10000 5.1 80 19:57 15.11.2019
4163 Clear 23 1011 41 10000 8.2 120 19:39 15.11.2019
4164 Clear 24 1011 41 10000 8.2 120 19:20 15.11.2019
4165 Clear 25 1011 38 10000 11.8 90 18:56 15.11.2019
4166 Clear 25 1011 36 10000 10.8 100 18:38 15.11.2019
4167 Clear 26 1011 36 10000 10.8 100 18:20 15.11.2019
4168 Clear 27 1012 30 10000 10.3 100 17:42 15.11.2019
4169 Clear 27 1012 30 10000 10.3 100 17:42 15.11.2019
4170 Clear 27 1012 30 10000 10.3 100 17:24 15.11.2019
4171 Clear 26 1012 26 10000 10.8 100 16:56 15.11.2019
4172 Clear 26 1012 26 10000 6.2 110 16:37 15.11.2019
4173 Clear 27 1012 26 10000 6.2 110 16:19 15.11.2019
4174 Clear 25 1012 60 10000 7.2 90 15:38 15.11.2019
4175 Clear 25 1012 60 10000 7.2 90 15:38 15.11.2019
4176 Clear 23 1012 60 10000 7.2 90 15:20 15.11.2019
4177 Clear 25 1012 53 10000 7.2 90 14:57 15.11.2019
4178 Clear 25 1012 47 10000 3.6 190 14:38 15.11.2019
4179 Clouds 26 1012 47 10000 3.6 190 14:19 15.11.2019
4180 Clouds 26 1012 42 10000 4.1 210 13:57 15.11.2019
4181 Clouds 27 1012 35 10000 3.6 200 13:39 15.11.2019
4182 Clouds 27 1012 35 10000 3.6 200 13:20 15.11.2019
4183 Clouds 27 1011 33 10000 3.6 220 12:57 15.11.2019
4184 Clouds 27 1011 33 10000 3.6 220 12:57 15.11.2019
4185 Clouds 28 1011 31 10000 4.1 220 12:39 15.11.2019
4186 Clouds 28 1011 31 10000 4.1 220 12:19 15.11.2019
4187 Clouds 29 1011 26 10000 4.6 220 11:56 15.11.2019
4188 Clouds 30 1010 24 10000 5.7 210 11:37 15.11.2019
4189 Clouds 31 1010 24 10000 5.7 210 11:19 15.11.2019
4190 Clouds 35 1010 16 10000 5.7 170 10:40 15.11.2019
4191 Clouds 34 1010 16 10000 5.7 170 10:22 15.11.2019
4192 Clouds 36 1010 15 10000 3.6 200 09:58 15.11.2019
4193 Clouds 35 1010 15 10000 6.2 210 09:40 15.11.2019
4194 Clouds 35 1010 15 10000 6.2 210 09:19 15.11.2019
4195 Clouds 37 1010 15 10000 6.2 210 08:42 15.11.2019
4196 Clouds 35 1010 15 10000 6.2 210 08:22 15.11.2019
4197 Clouds 35 1010 15 10000 6.2 210 08:22 15.11.2019
4198 Clouds 37 1011 16 10000 6.2 210 07:47 15.11.2019
4199 Clouds 37 1011 16 10000 1.5 0 07:27 15.11.2019
4200 Clouds 37 1012 20 10000 6.2 90 06:38 15.11.2019
4201 Clouds 36 1012 21 10000 5.1 90 05:58 15.11.2019
4202 Clouds 35 1012 23 10000 8.7 100 05:39 15.11.2019
4203 Clouds 35 1012 23 10000 8.7 100 05:39 15.11.2019
4204 Clear 34 1012 24 10000 7.2 90 05:19 15.11.2019
4205 Clear 31 1013 27 10000 5.1 100 03:46 15.11.2019
4206 Clear 29 1014 32 10000 5.1 100 02:51 15.11.2019
4207 Clouds 27 1014 36 10000 9.3 90 02:18 15.11.2019
4208 Clouds 26 1015 41 10000 8.2 110 01:32 15.11.2019
4209 Clouds 23 1014 49 10000 8.2 80 00:46 15.11.2019
4210 Clouds 23 1014 49 10000 8.2 80 00:27 15.11.2019
4211 Clouds 22 1014 49 10000 6.2 100 23:49 14.11.2019
4212 Clouds 22 1014 49 10000 6.2 100 23:27 14.11.2019
4213 Clouds 21 1013 45 10000 7.7 100 22:57 14.11.2019
4214 Clouds 21 1013 45 10000 3.6 110 22:39 14.11.2019
4215 Clouds 21 1013 45 10000 3.6 110 22:19 14.11.2019
4216 Clouds 21 1013 43 10000 4.1 130 21:42 14.11.2019
4217 Clouds 21 1013 43 10000 4.1 130 21:23 14.11.2019
4218 Clouds 22 1013 40 10000 4.1 80 20:56 14.11.2019
4219 Clouds 22 1013 40 10000 4.6 100 20:37 14.11.2019
4220 Clouds 23 1013 40 10000 4.6 100 20:19 14.11.2019
4221 Clouds 23 1013 38 10000 3.6 90 19:57 14.11.2019
4222 Clouds 23 1013 29 10000 7.7 60 19:38 14.11.2019
4223 Clouds 23 1013 41 10000 5.1 110 19:18 14.11.2019
4224 Clouds 24 1013 36 10000 8.7 60 18:43 14.11.2019
4225 Clouds 24 1013 36 10000 8.7 60 18:24 14.11.2019
4226 Clouds 25 1012 39 10000 8.7 110 17:58 14.11.2019
4227 Clouds 25 1012 39 10000 8.7 110 17:38 14.11.2019
4228 Clouds 26 1012 36 10000 7.7 110 17:20 14.11.2019
4229 Clouds 27 1012 36 10000 7.7 110 16:58 14.11.2019
4230 Clouds 27 1013 34 10000 3.1 130 16:37 14.11.2019
4231 Clouds 27 1013 34 10000 3.1 130 16:19 14.11.2019
4232 Clouds 26 1013 30 10000 3.6 160 15:58 14.11.2019
4233 Clouds 25 1013 39 10000 4.1 210 15:38 14.11.2019
4234 Clouds 26 1013 39 10000 4.1 210 15:20 14.11.2019
4235 Clouds 25 1012 42 10000 5.1 190 14:57 14.11.2019
4236 Clouds 26 1012 39 10000 5.7 190 14:38 14.11.2019
4237 Clouds 26 1012 39 10000 5.7 190 14:38 14.11.2019
4238 Clouds 26 1012 39 10000 5.7 190 14:20 14.11.2019
4239 Clouds 27 1012 33 10000 7.2 190 13:42 14.11.2019
4240 Clear 27 1012 33 10000 7.2 190 13:23 14.11.2019
4241 Clear 27 1011 27 10000 7.7 200 12:57 14.11.2019
4242 Clear 28 1011 26 10000 8.2 200 12:38 14.11.2019
4243 Clear 28 1011 26 10000 8.2 200 12:38 14.11.2019
4244 Clear 28 1011 26 10000 8.2 200 12:20 14.11.2019
4245 Clear 29 1011 24 10000 8.2 210 11:55 14.11.2019
4246 Clear 30 1011 19 10000 7.7 220 11:36 14.11.2019
4247 Clear 33 1011 19 10000 7.7 220 11:18 14.11.2019
4248 Clear 35 1011 13 10000 7.7 200 10:42 14.11.2019
4249 Clear 34 1011 13 10000 7.7 200 10:21 14.11.2019
4250 Clear 34 1011 10 10000 7.2 200 09:59 14.11.2019
4251 Clear 35 1011 12 10000 7.2 200 09:41 14.11.2019
4252 Clear 34 1011 12 10000 7.2 200 09:41 14.11.2019
4253 Clear 37 1011 12 10000 7.2 200 09:23 14.11.2019
4254 Clear 38 1012 9 10000 8.2 210 08:49 14.11.2019
4255 Clear 38 1012 9 10000 8.2 210 08:28 14.11.2019
4256 Clear 38 1012 12 10000 7.2 200 07:59 14.11.2019
4257 Clear 38 1012 11 10000 8.2 230 07:38 14.11.2019
4258 Clear 38 1012 11 10000 8.2 230 07:20 14.11.2019
4259 Clear 39 1013 11 10000 6.7 250 06:45 14.11.2019
4260 Clear 38 1013 10 10000 6.2 240 06:19 14.11.2019
4261 Clear 37 1014 13 10000 7.2 250 04:49 14.11.2019
4262 Clear 35 1015 15 10000 7.2 220 04:27 14.11.2019
4263 Clear 33 1015 22 10000 2.6 50 02:49 14.11.2019
4264 Clear 32 1016 27 10000 2.1 50 02:28 14.11.2019
4265 Clear 29 1016 28 10000 5.1 90 01:34 14.11.2019
4266 Clear 28 1016 30 10000 4.1 80 00:55 14.11.2019
4267 Clear 26 1016 33 10000 2.6 60 00:34 14.11.2019
4268 Clear 24 1016 36 10000 3.1 70 23:58 13.11.2019
4269 Clear 22 1016 37 10000 3.6 60 23:37 13.11.2019
4270 Clear 22 1016 37 10000 3.6 60 23:18 13.11.2019
4271 Clear 21 1015 45 10000 2.6 360 22:41 13.11.2019
4272 Clear 22 1015 45 10000 2.6 360 22:22 13.11.2019
4273 Clear 22 1015 48 10000 3.1 320 21:57 13.11.2019
4274 Clear 22 1015 45 10000 1.5 290 21:39 13.11.2019
4275 Clear 22 1015 45 10000 1.5 290 21:20 13.11.2019
4276 Clear 21 1014 45 10000 2.1 270 20:58 13.11.2019
4277 Clear 22 1014 46 10000 2.1 310 20:38 13.11.2019
4278 Clear 21 1014 46 10000 2.1 310 20:19 13.11.2019
4279 Clear 22 1014 49 10000 2.1 340 19:58 13.11.2019
4280 Clear 22 1014 38 10000 3.6 230 19:40 13.11.2019
4281 Clear 22 1014 38 10000 3.6 230 19:18 13.11.2019
4282 Clear 21 1015 40 10000 4.1 220 18:55 13.11.2019
4283 Clear 23 1015 38 10000 4.6 210 18:36 13.11.2019
4284 Clear 23 1015 38 10000 4.6 210 18:18 13.11.2019
4285 Clear 23 1015 36 10000 4.6 200 17:56 13.11.2019
4286 Clear 22 1016 49 10000 6.2 180 17:36 13.11.2019
4287 Clear 22 1016 49 10000 6.2 180 17:18 13.11.2019
4288 Clear 22 1016 46 10000 2.6 220 16:56 13.11.2019
4289 Clear 23 1016 43 10000 3.1 220 16:37 13.11.2019
4290 Clear 23 1016 43 10000 3.1 220 16:18 13.11.2019
4291 Clear 23 1017 41 10000 3.1 210 15:55 13.11.2019
4292 Clear 24 1017 38 10000 5.1 200 15:36 13.11.2019
4293 Clear 24 1017 38 10000 5.1 200 15:18 13.11.2019
4294 Clear 25 1017 36 10000 6.7 190 14:39 13.11.2019
4295 Clear 26 1016 32 10000 8.2 190 14:20 13.11.2019
4296 Clear 27 1016 30 10000 8.2 190 13:38 13.11.2019
4297 Clear 27 1016 30 10000 8.2 190 13:19 13.11.2019
4298 Clear 27 1016 35 10000 8.7 190 12:58 13.11.2019
4299 Clear 27 1016 30 10000 6.7 190 12:40 13.11.2019
4300 Clear 27 1016 30 10000 6.7 190 12:21 13.11.2019
4301 Clear 28 1016 25 10000 5.7 210 11:55 13.11.2019
4302 Clear 29 1015 24 10000 5.7 210 11:36 13.11.2019
4303 Clear 31 1015 24 10000 5.7 210 11:18 13.11.2019
4304 Clear 32 1015 24 10000 6.2 230 10:54 13.11.2019
4305 Clear 33 1015 24 10000 6.7 230 10:36 13.11.2019
4306 Clear 33 1015 24 10000 6.7 230 10:18 13.11.2019
4307 Clear 32 1015 20 10000 4.6 260 09:40 13.11.2019
4308 Clear 32 1015 20 10000 4.6 260 09:40 13.11.2019
4309 Clear 32 1015 20 10000 4.6 260 09:20 13.11.2019
4310 Clear 32 1016 15 10000 3.1 140 08:41 13.11.2019
4311 Clear 32 1016 15 10000 3.1 140 08:21 13.11.2019
4312 Clear 34 1017 14 10000 2.1 150 07:43 13.11.2019
4313 Clear 34 1017 14 10000 2.1 150 07:22 13.11.2019
4314 Clear 34 1017 16 10000 6.2 220 06:58 13.11.2019
4315 Clear 35 1018 18 10000 6.2 220 06:36 13.11.2019
4316 Clear 34 1018 18 10000 6.2 220 06:18 13.11.2019
4317 Clear 33 1018 19 10000 3.6 80 05:45 13.11.2019
4318 Clear 32 1019 21 10000 3.6 90 04:56 13.11.2019
4319 Clear 30 1020 28 10000 5.7 90 03:36 13.11.2019
4320 Clear 25 1021 40 10000 7.7 70 01:48 13.11.2019
4321 Clear 24 1021 38 10000 6.2 70 01:23 13.11.2019
4322 Clear 21 1021 48 10000 5.1 100 00:37 13.11.2019
4323 Clear 19 1021 51 10000 7.2 70 23:54 12.11.2019
4324 Clear 19 1021 55 10000 5.1 110 23:36 12.11.2019
4325 Clear 18 1020 55 10000 6.2 70 23:18 12.11.2019
4326 Clear 17 1020 55 10000 6.7 70 22:40 12.11.2019
4327 Clear 17 1020 55 10000 6.7 70 22:18 12.11.2019
4328 Clear 18 1020 51 10000 10.3 80 21:44 12.11.2019
4329 Clear 18 1020 51 10000 5.7 80 21:25 12.11.2019
4330 Clear 19 1019 45 10000 10.3 90 20:58 12.11.2019
4331 Clear 20 1019 42 10000 8.2 70 20:38 12.11.2019
4332 Clear 20 1019 42 10000 8.2 70 20:19 12.11.2019
4333 Clear 21 1019 40 10000 10.3 90 19:58 12.11.2019
4334 Clear 20 1019 40 10000 10.3 90 19:58 12.11.2019
4335 Clear 21 1019 40 10000 8.7 80 19:39 12.11.2019
4336 Clear 21 1019 40 10000 8.7 80 19:19 12.11.2019
4337 Clear 21 1019 35 10000 8.7 90 18:59 12.11.2019
4338 Clear 22 1019 33 10000 10.3 90 18:40 12.11.2019
4339 Clear 22 1019 33 10000 10.3 90 18:22 12.11.2019
4340 Clear 22 1019 28 10000 10.3 90 17:58 12.11.2019
4341 Clear 22 1019 27 10000 9.8 100 17:39 12.11.2019
4342 Clear 23 1019 27 10000 9.8 100 17:21 12.11.2019
4343 Clear 23 1019 23 10000 8.7 90 16:57 12.11.2019
4344 Clear 23 1020 27 10000 8.7 90 16:39 12.11.2019
4345 Clear 23 1020 27 10000 8.7 90 16:21 12.11.2019
4346 Clear 24 1020 25 10000 9.3 110 15:42 12.11.2019
4347 Clear 24 1020 25 10000 9.3 110 15:21 12.11.2019
4348 Clear 24 1020 25 10000 9.3 110 15:21 12.11.2019
4349 Clear 24 1020 25 10000 7.7 90 14:57 12.11.2019
4350 Clear 24 1020 27 10000 7.7 90 14:37 12.11.2019
4351 Clear 24 1020 27 10000 7.7 90 14:19 12.11.2019
4352 Clear 24 1020 35 10000 7.7 90 13:56 12.11.2019
4353 Clear 25 1020 31 10000 4.6 150 13:37 12.11.2019
4354 Clear 25 1020 31 10000 4.6 150 13:18 12.11.2019
4355 Clear 26 1020 29 10000 5.7 160 12:42 12.11.2019
4356 Clear 26 1020 29 10000 5.7 160 12:42 12.11.2019
4357 Clear 27 1020 24 10000 5.1 130 12:19 12.11.2019
4358 Clear 27 1019 23 10000 6.7 140 11:59 12.11.2019
4359 Clear 28 1019 23 10000 5.1 130 11:40 12.11.2019
4360 Clear 29 1019 23 10000 5.1 130 11:21 12.11.2019
4361 Clear 29 1019 21 10000 5.7 110 10:56 12.11.2019
4362 Clear 30 1019 22 10000 6.7 110 10:37 12.11.2019
4363 Clear 30 1019 20 10000 7.7 90 10:19 12.11.2019
4364 Clear 30 1019 20 10000 7.7 100 09:42 12.11.2019
4365 Clear 30 1019 20 10000 7.7 100 09:21 12.11.2019
4366 Clear 30 1019 22 10000 6.2 110 08:52 12.11.2019
4367 Clear 30 1019 25 10000 7.7 130 08:30 12.11.2019
4368 Clear 30 1019 25 10000 7.7 130 07:55 12.11.2019
4369 Clear 29 1020 25 10000 6.7 100 07:36 12.11.2019
4370 Clear 29 1020 25 10000 6.7 100 07:18 12.11.2019
4371 Clear 28 1020 26 10000 8.2 100 06:39 12.11.2019
4372 Clear 28 1020 26 10000 8.2 100 06:21 12.11.2019
4373 Clear 28 1020 26 10000 9.8 130 05:45 12.11.2019
4374 Clear 26 1021 29 10000 7.7 100 04:44 12.11.2019
4375 Clear 24 1022 35 10000 9.8 100 03:39 12.11.2019
4376 Clear 20 1022 39 10000 9.8 90 01:44 12.11.2019
4377 Clear 19 1022 42 10000 8.7 90 01:21 12.11.2019
4378 Clear 18 1022 45 10000 6.2 100 00:47 12.11.2019
4379 Clear 16 1021 48 10000 6.2 90 00:22 12.11.2019
4380 Clear 15 1020 54 10000 7.7 110 23:44 11.11.2019
4381 Clear 15 1020 54 10000 7.7 110 23:44 11.11.2019
4382 Clear 14 1020 54 10000 7.7 110 23:23 11.11.2019
4383 Clear 14 1020 58 10000 6.2 120 22:57 11.11.2019
4384 Clear 14 1020 54 10000 10.3 100 22:36 11.11.2019
4385 Clear 14 1020 54 10000 10.3 100 22:18 11.11.2019
4386 Clear 14 1020 54 10000 10.3 100 21:56 11.11.2019
4387 Clear 14 1019 54 10000 10.3 100 21:37 11.11.2019
4388 Clear 14 1019 54 10000 10.3 100 21:19 11.11.2019
4389 Clear 15 1018 51 10000 10.3 100 20:42 11.11.2019
4390 Clear 15 1018 51 10000 10.3 100 20:20 11.11.2019
4391 Clear 15 1018 51 10000 10.3 100 19:57 11.11.2019
4392 Clear 16 1018 48 10000 10.3 100 19:38 11.11.2019
4393 Clear 16 1018 48 10000 10.3 100 19:38 11.11.2019
4394 Clear 16 1018 48 10000 10.3 100 19:18 11.11.2019
4395 Clear 16 1018 48 10000 10.3 100 19:18 11.11.2019
4396 Clear 17 1018 48 10000 5.1 160 18:42 11.11.2019
4397 Clear 17 1018 48 10000 7.7 110 18:22 11.11.2019
4398 Clear 18 1017 45 10000 11.8 100 18:00 11.11.2019
4399 Clear 18 1017 37 10000 10.8 110 17:41 11.11.2019
4400 Clear 19 1017 37 10000 10.8 110 17:22 11.11.2019
4401 Clear 20 1017 32 10000 8.7 100 16:40 11.11.2019
4402 Clear 21 1017 32 10000 8.7 100 16:21 11.11.2019
4403 Clear 22 1018 32 10000 8.2 120 15:57 11.11.2019
4404 Clear 22 1017 28 10000 9.8 110 15:39 11.11.2019
4405 Clear 22 1017 28 10000 9.8 110 15:19 11.11.2019
4406 Clear 22 1017 28 10000 9.8 110 15:19 11.11.2019
4407 Clear 21 1017 28 10000 9.3 100 14:43 11.11.2019
4408 Clear 21 1017 35 10000 9.3 100 14:25 11.11.2019
4409 Clear 21 1017 43 10000 9.3 100 13:58 11.11.2019
4410 Clear 21 1017 40 10000 3.6 190 13:37 11.11.2019
4411 Clear 21 1017 40 10000 3.6 190 13:19 11.11.2019
4412 Clear 22 1016 44 10000 9.3 100 12:56 11.11.2019
4413 Clear 22 1016 50 10000 4.6 240 12:38 11.11.2019
4414 Clear 22 1016 50 10000 4.6 240 12:20 11.11.2019
4415 Clear 23 1015 42 10000 3.6 250 11:41 11.11.2019
4416 Clear 25 1015 42 10000 3.6 250 11:22 11.11.2019
4417 Clear 25 1015 23 10000 3.1 140 10:55 11.11.2019
4418 Clear 27 1014 23 10000 4.6 140 10:37 11.11.2019
4419 Clear 26 1014 23 10000 4.6 140 10:18 11.11.2019
4420 Clear 27 1014 22 10000 5.1 150 09:42 11.11.2019
4421 Clear 27 1014 21 10000 4.6 130 09:21 11.11.2019
4422 Clear 29 1014 22 10000 4.6 130 08:43 11.11.2019
4423 Clear 29 1014 25 10000 4.1 120 08:23 11.11.2019
4424 Clear 28 1015 28 10000 4.6 170 07:58 11.11.2019
4425 Clear 29 1015 28 10000 4.6 170 07:39 11.11.2019
4426 Clear 29 1015 27 10000 5.1 150 07:20 11.11.2019
4427 Clear 28 1015 30 10000 5.1 170 06:56 11.11.2019
4428 Clear 28 1015 30 10000 6.2 190 06:38 11.11.2019
4429 Clear 28 1015 30 10000 6.2 190 06:19 11.11.2019
4430 Clear 28 1015 36 10000 2.6 110 05:48 11.11.2019
4431 Clear 23 1017 52 10000 3.6 190 03:34 11.11.2019
4432 Clear 22 1016 52 10000 6.2 90 02:39 11.11.2019
4433 Clear 20 1016 55 10000 4.6 100 01:59 11.11.2019
4434 Clear 19 1016 55 10000 4.1 120 01:36 11.11.2019
4435 Clear 18 1016 59 10000 4.6 110 00:55 11.11.2019
4436 Clear 17 1016 67 10000 5.7 100 00:33 11.11.2019
4437 Clear 16 1016 67 10000 4.6 110 23:58 10.11.2019
4438 Clear 16 1015 67 10000 4.1 120 23:37 10.11.2019
4439 Clear 15 1015 67 10000 4.1 120 23:19 10.11.2019
4440 Clear 15 1015 67 10000 4.1 110 22:55 10.11.2019
4441 Clear 15 1015 72 10000 5.7 90 22:37 10.11.2019
4442 Clear 15 1015 72 10000 5.7 90 22:19 10.11.2019
4443 Clear 15 1014 67 10000 4.1 110 21:55 10.11.2019
4444 Clear 16 1014 72 10000 4.6 100 21:36 10.11.2019
4445 Clear 16 1014 72 10000 4.6 100 21:18 10.11.2019
4446 Clear 16 1014 72 10000 4.1 130 20:40 10.11.2019
4447 Clouds 16 1013 77 10000 3.6 120 20:22 10.11.2019
4448 Clouds 16 1013 93 10000 6.2 110 19:56 10.11.2019
4449 Clouds 16 1013 93 10000 6.2 110 19:56 10.11.2019
4450 Clouds 16 1013 93 10000 1 80 19:37 10.11.2019
4451 Clouds 16 1013 93 10000 1 80 19:18 10.11.2019
4452 Clear 16 1013 100 10000 3.93 108 18:57 10.11.2019
4453 Clear 16 1013 100 10000 3.93 108 18:57 10.11.2019
4454 Clear 16 1013 93 10000 2.6 110 18:38 10.11.2019
4455 Clear 16 1013 93 10000 2.6 110 18:19 10.11.2019
4456 Clouds 16 1013 88 10000 3.1 170 17:56 10.11.2019
4457 Clear 16 1013 100 4500 3.93 108 17:37 10.11.2019
4458 Clear 17 1013 100 4500 1.22 189 17:19 10.11.2019
4459 Clouds 17 1013 88 10000 3.6 190 16:57 10.11.2019
4460 Clouds 17 1014 82 10000 3.1 220 16:37 10.11.2019
4461 Clouds 17 1014 82 10000 3.1 220 16:19 10.11.2019
4462 Clouds 17 1014 88 10000 3.1 210 15:55 10.11.2019
4463 Clouds 18 1014 88 10000 3.6 200 15:36 10.11.2019
4464 Clouds 18 1014 88 10000 3.6 200 15:36 10.11.2019
4465 Clouds 18 1014 88 10000 3.6 200 15:18 10.11.2019
4466 Clouds 18 1014 88 10000 3.6 200 15:18 10.11.2019
4467 Clouds 18 1013 82 10000 3.1 250 14:40 10.11.2019
4468 Clouds 18 1013 82 10000 3.1 250 14:22 10.11.2019
4469 Clouds 18 1013 82 10000 3.6 240 13:57 10.11.2019
4470 Clouds 18 1013 82 10000 3.1 250 13:39 10.11.2019
4471 Clouds 18 1013 82 10000 3.1 250 13:19 10.11.2019
4472 Clouds 19 1013 77 10000 3.6 250 12:42 10.11.2019
4473 Clouds 19 1013 77 10000 4.1 260 12:20 10.11.2019
4474 Clouds 19 1013 72 10000 5.1 220 11:57 10.11.2019
4475 Clouds 20 1012 68 10000 5.1 220 11:38 10.11.2019
4476 Clouds 20 1012 68 10000 5.1 220 11:20 10.11.2019
4477 Clouds 21 1012 68 10000 5.1 220 10:56 10.11.2019
4478 Clouds 21 1012 68 10000 5.1 220 10:38 10.11.2019
4479 Clouds 21 1012 68 10000 5.1 220 10:38 10.11.2019
4480 Clouds 22 1012 64 10000 5.1 220 10:19 10.11.2019
4481 Clouds 23 1012 60 10000 5.1 220 09:42 10.11.2019
4482 Clouds 23 1012 60 10000 5.1 220 09:42 10.11.2019
4483 Clouds 23 1012 60 10000 5.1 220 09:22 10.11.2019
4484 Clouds 23 1012 57 10000 5.1 220 08:40 10.11.2019
4485 Clouds 24 1012 57 10000 4.6 250 08:21 10.11.2019
4486 Clouds 24 1012 60 10000 6.7 250 07:56 10.11.2019
4487 Clouds 24 1012 60 10000 5.7 260 07:37 10.11.2019
4488 Clouds 23 1012 60 10000 5.7 260 07:18 10.11.2019
4489 Clouds 24 1012 60 10000 5.1 290 06:22 10.11.2019
4490 Clouds 23 1012 60 10000 6.2 290 04:45 10.11.2019
4491 Clouds 22 1012 73 10000 5.7 300 02:51 10.11.2019
4492 Clouds 21 1011 73 10000 7.2 310 01:41 10.11.2019
4493 Clouds 21 1011 73 10000 6.2 340 01:18 10.11.2019
4494 Clouds 20 1011 77 10000 6.2 350 00:37 10.11.2019
4495 Clouds 20 1009 82 10000 4.1 10 23:42 09.11.2019
4496 Clouds 20 1009 82 10000 4.1 10 23:20 09.11.2019
4497 Clouds 19 1009 77 10000 5.7 20 22:54 09.11.2019
4498 Clouds 19 1009 77 10000 5.1 360 22:36 09.11.2019
4499 Clouds 20 1009 77 10000 5.1 360 22:18 09.11.2019
4500 Clouds 20 1009 77 10000 5.1 350 21:54 09.11.2019
4501 Clouds 20 1009 77 10000 5.1 330 21:36 09.11.2019
4502 Clouds 20 1009 77 10000 5.1 330 21:18 09.11.2019
4503 Clouds 20 1009 82 10000 4.1 350 20:41 09.11.2019
4504 Clouds 20 1009 82 10000 4.1 350 20:41 09.11.2019
4505 Clouds 20 1009 82 10000 4.1 350 20:21 09.11.2019
4506 Clouds 20 1009 82 10000 2.6 360 19:55 09.11.2019
4507 Clouds 20 1009 88 10000 6.7 350 19:36 09.11.2019
4508 Clouds 20 1009 88 10000 6.7 350 19:18 09.11.2019
4509 Clouds 20 1009 82 10000 7.2 340 18:39 09.11.2019
4510 Clouds 20 1009 88 10000 5.7 350 18:19 09.11.2019
4511 Clouds 20 1009 68 10000 5.1 330 17:56 09.11.2019
4512 Clouds 20 1009 68 10000 5.1 330 17:37 09.11.2019
4513 Clouds 20 1009 68 10000 5.1 330 17:18 09.11.2019
4514 Clouds 20 1009 64 10000 5.1 330 16:42 09.11.2019
4515 Clear 21 1009 64 10000 4.6 20 16:21 09.11.2019
4516 Clear 22 1009 60 10000 4.1 350 15:54 09.11.2019
4517 Clear 22 1009 56 10000 4.1 350 15:36 09.11.2019
4518 Clear 22 1009 56 10000 4.1 350 15:18 09.11.2019
4519 Clear 22 1009 52 10000 3.6 350 14:41 09.11.2019
4520 Clouds 23 1009 49 10000 3.1 350 14:20 09.11.2019
4521 Clouds 24 1009 46 10000 2.6 350 13:57 09.11.2019
4522 Clouds 24 1009 41 10000 4.1 350 13:36 09.11.2019
4523 Clouds 25 1009 41 10000 4.1 350 13:18 09.11.2019
4524 Clouds 24 1009 44 10000 2.6 10 12:44 09.11.2019
4525 Clouds 25 1009 36 10000 2.6 30 12:25 09.11.2019
4526 Clouds 27 1009 30 10000 4.1 320 11:57 09.11.2019
4527 Clouds 28 1008 28 10000 3.6 310 11:38 09.11.2019
4528 Clouds 29 1008 28 10000 3.6 310 11:19 09.11.2019
4529 Clouds 31 1008 21 10000 5.1 320 10:41 09.11.2019
4530 Clouds 31 1008 21 10000 5.1 320 10:19 09.11.2019
4531 Clouds 31 1008 18 10000 6.7 300 09:57 09.11.2019
4532 Clouds 31 1008 18 10000 6.7 300 09:57 09.11.2019
4533 Clouds 34 1008 15 10000 8.7 310 09:38 09.11.2019
4534 Clouds 33 1008 15 10000 8.7 310 09:18 09.11.2019
4535 Clouds 36 1007 10 10000 7.2 330 08:43 09.11.2019
4536 Clouds 36 1007 10 10000 7.2 330 08:24 09.11.2019
4537 Clouds 38 1007 9 10000 8.2 20 07:47 09.11.2019
4538 Clouds 38 1008 10 10000 8.2 30 07:24 09.11.2019
4539 Clouds 39 1008 10 10000 7.7 40 06:51 09.11.2019
4540 Clouds 38 1008 10 10000 9.8 40 06:32 09.11.2019
4541 Clouds 37 1009 11 10000 10.3 50 05:53 09.11.2019
4542 Clouds 37 1009 13 10000 8.7 50 05:34 09.11.2019
4543 Clouds 34 1011 15 10000 8.2 50 03:57 09.11.2019
4544 Clouds 34 1011 15 10000 8.2 50 03:57 09.11.2019
4545 Clouds 31 1013 22 10000 8.2 50 02:45 09.11.2019
4546 Clouds 28 1012 28 10000 9.8 70 01:57 09.11.2019
4547 Clouds 25 1013 27 10000 7.7 70 00:56 09.11.2019
4548 Clouds 25 1013 31 10000 7.7 70 00:36 09.11.2019
4549 Clouds 24 1014 31 10000 7.2 50 23:58 08.11.2019
4550 Clouds 23 1013 37 10000 8.7 70 23:40 08.11.2019
4551 Clouds 22 1013 37 10000 8.7 70 23:20 08.11.2019
4552 Clouds 22 1014 40 10000 8.7 80 22:49 08.11.2019
4553 Clouds 22 1014 40 10000 8.7 70 22:22 08.11.2019
4554 Clouds 22 1014 40 10000 10.8 80 21:57 08.11.2019
4555 Clouds 22 1014 35 10000 10.3 70 21:39 08.11.2019
4556 Clouds 22 1014 35 10000 10.3 70 21:19 08.11.2019
4557 Clouds 23 1014 28 10000 10.3 70 20:43 08.11.2019
4558 Clouds 23 1014 28 10000 10.3 70 20:22 08.11.2019
4559 Clouds 23 1014 28 10000 10.3 70 20:22 08.11.2019
4560 Clouds 23 1014 26 10000 11.8 90 19:59 08.11.2019
4561 Clouds 23 1014 25 10000 12.9 90 19:39 08.11.2019
4562 Clouds 24 1014 25 10000 12.9 90 19:19 08.11.2019
4563 Clouds 24 1014 22 10000 10.3 90 18:56 08.11.2019
4564 Clouds 24 1015 20 10000 10.8 90 18:38 08.11.2019
4565 Clouds 25 1015 20 10000 10.8 90 18:20 08.11.2019
4566 Clouds 24 1015 20 10000 10.3 90 17:56 08.11.2019
4567 Clouds 24 1015 20 10000 10.3 90 17:37 08.11.2019
4568 Clouds 24 1015 20 10000 10.3 90 17:37 08.11.2019
4569 Clouds 25 1015 20 10000 10.3 90 17:19 08.11.2019
4570 Clouds 25 1015 14 10000 8.7 90 16:58 08.11.2019
4571 Clouds 25 1015 14 10000 8.7 90 16:58 08.11.2019
4572 Clouds 25 1015 20 10000 8.7 90 16:39 08.11.2019
4573 Clouds 25 1015 20 10000 8.7 90 16:19 08.11.2019
4574 Clouds 25 1015 20 10000 8.7 90 16:19 08.11.2019
4575 Clouds 24 1015 20 10000 7.7 90 15:57 08.11.2019
4576 Clouds 24 1016 19 10000 7.2 90 15:38 08.11.2019
4577 Clouds 25 1016 19 10000 7.2 90 15:20 08.11.2019
4578 Clouds 24 1016 23 10000 7.2 90 14:55 08.11.2019
4579 Clouds 24 1017 27 10000 7.2 90 14:36 08.11.2019
4580 Clouds 24 1017 27 10000 7.2 90 14:36 08.11.2019
4581 Clear 24 1017 27 10000 7.2 90 14:18 08.11.2019
4582 Clear 24 1017 33 10000 7.2 90 13:55 08.11.2019
4583 Clear 24 1017 35 10000 3.6 130 13:36 08.11.2019
4584 Clear 24 1017 35 10000 3.6 130 13:18 08.11.2019
4585 Clear 26 1017 26 10000 4.6 150 12:42 08.11.2019
4586 Clear 25 1017 26 10000 4.6 150 12:24 08.11.2019
4587 Clear 27 1017 18 10000 4.6 140 11:56 08.11.2019
4588 Clear 28 1016 15 10000 4.6 130 11:37 08.11.2019
4589 Clear 30 1016 15 10000 4.6 130 11:19 08.11.2019
4590 Clear 32 1016 14 10000 5.7 120 10:54 08.11.2019
4591 Clear 32 1016 13 10000 5.7 110 10:36 08.11.2019
4592 Clear 32 1016 13 10000 5.7 110 10:18 08.11.2019
4593 Clear 32 1016 13 10000 6.2 110 09:41 08.11.2019
4594 Clear 32 1016 13 10000 6.2 110 09:20 08.11.2019
4595 Clear 31 1017 15 10000 6.2 90 08:47 08.11.2019
4596 Clear 31 1017 15 10000 6.2 90 08:29 08.11.2019
4597 Clear 31 1017 15 10000 7.7 80 07:57 08.11.2019
4598 Clear 31 1018 18 10000 5.7 70 07:39 08.11.2019
4599 Clear 31 1018 18 10000 5.7 70 07:20 08.11.2019
4600 Clear 30 1019 19 10000 6.7 110 06:40 08.11.2019
4601 Clear 30 1019 19 10000 6.7 110 06:20 08.11.2019
4602 Clear 28 1019 26 10000 7.2 120 05:40 08.11.2019
4603 Clear 27 1020 28 10000 6.7 100 04:43 08.11.2019
4604 Clear 25 1021 27 10000 6.7 100 03:43 08.11.2019
4605 Clear 25 1021 31 10000 6.7 110 03:20 08.11.2019
4606 Clear 22 1022 37 10000 7.7 90 02:26 08.11.2019
4607 Clouds 20 1022 45 10000 7.2 80 01:46 08.11.2019
4608 Clear 17 1021 55 10000 7.2 80 00:59 08.11.2019
4609 Clear 16 1021 59 10000 7.7 80 00:24 08.11.2019
4610 Clear 15 1020 62 10000 11.3 90 23:55 07.11.2019
4611 Clear 15 1019 62 10000 12.3 100 23:36 07.11.2019
4612 Clear 15 1019 62 10000 12.3 100 23:18 07.11.2019
4613 Clear 15 1020 62 10000 8.7 90 22:41 07.11.2019
4614 Clear 15 1020 62 10000 8.7 90 22:21 07.11.2019
4615 Clear 16 1020 59 10000 8.7 90 21:55 07.11.2019
4616 Clear 16 1019 59 10000 8.7 90 21:37 07.11.2019
4617 Clear 16 1019 59 10000 8.7 90 21:18 07.11.2019
4618 Clear 17 1019 55 10000 8.7 90 20:55 07.11.2019
4619 Clear 17 1019 59 10000 8.7 90 20:37 07.11.2019
4620 Clouds 17 1019 59 10000 8.7 90 20:18 07.11.2019
4621 Clouds 18 1019 52 10000 8.7 90 19:41 07.11.2019
4622 Clouds 18 1019 52 10000 8.7 90 19:23 07.11.2019
4623 Clouds 19 1019 48 10000 8.7 90 18:58 07.11.2019
4624 Clouds 19 1020 45 10000 6.7 110 18:39 07.11.2019
4625 Clouds 19 1020 45 10000 6.7 110 18:39 07.11.2019
4626 Clouds 19 1020 45 10000 6.7 110 18:19 07.11.2019
4627 Clouds 20 1020 40 10000 6.2 120 17:59 07.11.2019
4628 Clouds 20 1020 40 10000 6.2 120 17:38 07.11.2019
4629 Clouds 20 1020 45 10000 8.7 90 17:20 07.11.2019
4630 Clouds 19 1020 72 10000 8.7 90 16:55 07.11.2019
4631 -273 0 0 0 0 0 16:55 07.11.2019
4632 Clouds 19 1020 72 10000 8.7 90 16:37 07.11.2019
4633 Clouds 18 1020 72 10000 8.7 90 16:19 07.11.2019
4634 Clouds 18 1020 68 10000 3.6 200 15:43 07.11.2019
4635 Clouds 19 1020 64 10000 3.6 190 15:21 07.11.2019
4636 Clouds 19 1020 64 10000 3.6 190 14:58 07.11.2019
4637 Clouds 19 1020 64 10000 4.1 190 14:38 07.11.2019
4638 Clear 19 1020 64 10000 4.1 190 14:20 07.11.2019
4639 Clear 20 1020 68 10000 3.6 180 13:55 07.11.2019
4640 Clear 20 1020 72 10000 3.1 190 13:37 07.11.2019
4641 Clear 20 1020 72 10000 3.1 190 13:37 07.11.2019
4642 Clouds 20 1020 68 10000 3.6 200 13:19 07.11.2019
4643 Clouds 20 1020 68 10000 3.6 200 12:56 07.11.2019
4644 Clouds 21 1020 53 10000 4.1 240 12:38 07.11.2019
4645 Clouds 22 1019 50 10000 5.7 230 12:18 07.11.2019
4646 Clouds 22 1019 47 10000 6.2 220 11:41 07.11.2019
4647 -273 0 0 0 0 0 11:22 07.11.2019
4648 Clear 23 1018 47 10000 5.1 260 10:42 07.11.2019
4649 Clear 24 1018 47 10000 5.1 260 10:19 07.11.2019
4650 Clear 24 1018 47 10000 5.1 260 10:19 07.11.2019
4651 Clear 24 1018 44 10000 7.2 210 09:55 07.11.2019
4652 Clear 24 1018 44 10000 7.7 210 09:37 07.11.2019
4653 Clear 25 1018 44 10000 7.7 210 09:19 07.11.2019
4654 -273 0 0 0 0 0 08:44 07.11.2019
4655 -273 0 0 0 0 0 08:44 07.11.2019
4656 Clear 25 1018 39 10000 7.2 250 08:44 07.11.2019
4657 Clear 26 1018 39 10000 7.2 250 08:22 07.11.2019
4658 Clear 25 1018 39 10000 7.2 250 07:57 07.11.2019
4659 Clear 25 1019 39 10000 6.2 260 07:39 07.11.2019
4660 Clear 25 1019 39 10000 6.2 260 07:38 07.11.2019
4661 Clear 26 1019 39 10000 6.2 260 07:20 07.11.2019
4662 Clear 25 1019 32 10000 3.1 150 06:45 07.11.2019
4663 Clear 25 1019 32 10000 3.1 150 06:45 07.11.2019
4664 Clear 26 1019 32 10000 3.1 150 06:24 07.11.2019
4665 Clear 26 1020 34 10000 7.2 240 05:49 07.11.2019
4666 Clear 26 1020 34 10000 4.6 120 05:30 07.11.2019
4667 Clouds 25 1021 36 10000 5.1 80 04:51 07.11.2019
4668 Clouds 25 1021 38 10000 5.1 110 04:29 07.11.2019
4669 Clouds 25 1021 38 10000 5.1 110 04:29 07.11.2019
4670 Clouds 19 1022 55 10000 6.7 90 01:28 07.11.2019
4671 Clouds 16 1022 63 10000 5.7 100 00:30 07.11.2019
4672 Clouds 16 1022 62 10000 4.6 90 23:56 06.11.2019
4673 Clouds 15 1022 62 10000 5.7 100 23:38 06.11.2019
4674 Clouds 15 1021 67 10000 5.1 100 23:18 06.11.2019
4675 Clouds 15 1021 62 10000 4.1 100 22:39 06.11.2019
4676 Clouds 15 1021 62 10000 4.1 100 22:20 06.11.2019
4677 Clouds 15 1021 62 10000 3.6 110 21:57 06.11.2019
4678 Clouds 15 1021 62 10000 3.6 110 21:57 06.11.2019
4679 Clouds 15 1020 59 10000 3.6 120 21:39 06.11.2019
4680 Clouds 15 1020 59 10000 3.6 120 21:39 06.11.2019
4681 Clouds 16 1020 59 10000 3.6 140 21:19 06.11.2019
4682 Clouds 15 1020 59 10000 3.6 140 20:56 06.11.2019
4683 Clouds 16 1020 55 10000 4.6 140 20:38 06.11.2019
4684 Clouds 16 1020 55 10000 4.6 140 20:19 06.11.2019
4685 Clouds 16 1020 55 10000 4.1 140 19:55 06.11.2019
4686 Clouds 16 1020 52 10000 4.1 140 19:36 06.11.2019
4687 Clouds 16 1020 55 10000 3.6 160 19:18 06.11.2019
4688 Clouds 16 1020 63 10000 5.1 190 18:39 06.11.2019
4689 Clouds 16 1020 63 10000 5.1 190 18:20 06.11.2019
4690 Clouds 16 1021 67 10000 4.6 200 17:59 06.11.2019
4691 Clouds 15 1021 77 10000 3.6 200 17:41 06.11.2019
4692 Clouds 15 1021 77 10000 3.6 200 17:22 06.11.2019
4693 Clouds 16 1021 77 10000 3.6 190 16:56 06.11.2019
4694 Clouds 16 1021 77 10000 3.6 190 16:38 06.11.2019
4695 Clouds 16 1021 77 10000 3.6 190 16:38 06.11.2019
4696 Clouds 16 1021 77 10000 3.6 190 16:19 06.11.2019
4697 Clouds 17 1021 72 10000 3.1 190 15:56 06.11.2019
4698 Clouds 17 1021 72 10000 4.1 210 15:37 06.11.2019
4699 Clouds 17 1021 72 10000 4.1 210 15:19 06.11.2019
4700 Clouds 17 1021 72 10000 4.1 200 14:56 06.11.2019
4701 Clouds 17 1021 72 10000 4.6 210 14:38 06.11.2019
4702 Clouds 17 1021 72 10000 4.6 210 14:20 06.11.2019
4703 Clouds 18 1021 72 10000 4.6 210 13:41 06.11.2019
4704 Clouds 18 1021 72 10000 4.6 210 13:22 06.11.2019
4705 Clouds 18 1021 77 10000 4.6 210 12:58 06.11.2019
4706 Clouds 18 1021 68 10000 6.7 220 12:40 06.11.2019
4707 Clouds 19 1021 68 10000 6.7 220 12:21 06.11.2019
4708 Clouds 19 1021 68 10000 6.7 220 12:21 06.11.2019
4709 Clouds 19 1020 64 10000 6.7 220 11:58 06.11.2019
4710 Clouds 19 1020 64 10000 6.7 220 11:58 06.11.2019
4711 Clouds 19 1020 56 10000 7.7 210 11:38 06.11.2019
4712 Clouds 20 1020 56 10000 7.7 210 11:18 06.11.2019
4713 Clouds 21 1020 53 10000 7.2 220 10:56 06.11.2019
4714 Clouds 21 1020 49 10000 7.2 230 10:38 06.11.2019
4715 Clouds 21 1020 49 10000 7.2 230 10:19 06.11.2019
4716 Clouds 22 1020 49 10000 8.2 240 09:44 06.11.2019
4717 Clouds 23 1020 49 10000 8.2 240 09:24 06.11.2019
4718 Clouds 22 1020 47 10000 7.2 230 08:59 06.11.2019
4719 Clouds 22 1020 44 10000 7.2 250 08:39 06.11.2019
4720 Clouds 23 1020 44 10000 7.2 250 08:20 06.11.2019
4721 Clouds 24 1020 44 10000 7.7 260 07:59 06.11.2019
4722 Clouds 24 1020 44 10000 7.2 250 07:40 06.11.2019
4723 Clouds 24 1020 44 10000 7.2 250 07:20 06.11.2019
4724 Clouds 23 1021 38 10000 6.7 260 06:44 06.11.2019
4725 Clouds 23 1021 33 10000 4.6 240 06:24 06.11.2019
4726 Clouds 23 1023 37 10000 3.1 90 04:32 06.11.2019
4727 Clouds 19 1024 48 10000 3.6 110 02:20 06.11.2019
4728 Clouds 17 1025 52 10000 4.1 110 01:31 06.11.2019
4729 Clouds 16 1025 59 10000 4.6 140 00:37 06.11.2019
4730 Clouds 14 1024 62 10000 4.1 160 23:58 05.11.2019
4731 Clouds 14 1024 62 10000 4.1 160 23:58 05.11.2019
4732 Clouds 12 1024 76 10000 4.6 180 23:38 05.11.2019
4733 Clear 12 1024 76 10000 4.6 180 23:19 05.11.2019
4734 Clear 11 1024 76 10000 4.6 180 22:43 05.11.2019
4735 Clear 11 1024 71 10000 4.6 180 22:20 05.11.2019
4736 Clear 11 1024 71 10000 4.1 200 21:58 05.11.2019
4737 Clear 11 1023 71 10000 3.6 200 21:40 05.11.2019
4738 Clear 11 1023 71 10000 3.6 200 21:20 05.11.2019
4739 Clear 11 1023 76 10000 3.6 210 20:57 05.11.2019
4740 Clear 11 1023 76 10000 4.1 210 20:38 05.11.2019
4741 Clouds 11 1023 76 10000 4.1 210 20:20 05.11.2019
4742 Clouds 11 1023 71 10000 4.6 200 19:55 05.11.2019
4743 Clouds 12 1023 71 10000 4.1 190 19:37 05.11.2019
4744 Clouds 12 1023 71 10000 4.1 190 19:19 05.11.2019
4745 Clouds 12 1023 71 10000 5.1 190 18:56 05.11.2019
4746 Clouds 13 1023 71 10000 6.2 190 18:38 05.11.2019
4747 Clouds 13 1023 71 10000 6.2 190 18:19 05.11.2019
4748 Clouds 13 1023 67 10000 4.6 190 17:55 05.11.2019
4749 Clouds 14 1024 71 10000 5.1 160 17:37 05.11.2019
4750 Clear 14 1024 71 10000 5.1 160 17:18 05.11.2019
4751 Clear 15 1024 67 10000 4.6 200 16:41 05.11.2019
4752 Clear 15 1024 67 10000 4.6 200 16:20 05.11.2019
4753 Clear 16 1024 67 10000 5.1 160 15:57 05.11.2019
4754 Clear 16 1024 67 10000 5.1 160 15:36 05.11.2019
4755 Clear 16 1024 67 10000 5.1 160 15:18 05.11.2019
4756 Clear 16 1023 63 10000 5.1 160 14:54 05.11.2019
4757 Clear 17 1023 59 10000 5.1 160 14:36 05.11.2019
4758 Clouds 17 1023 59 10000 5.1 160 14:18 05.11.2019
4759 Clouds 17 1023 63 10000 5.1 160 13:43 05.11.2019
4760 Clouds 17 1023 63 10000 5.1 160 13:24 05.11.2019
4761 Clouds 18 1023 68 10000 5.7 210 12:42 05.11.2019
4762 Clouds 18 1023 68 10000 5.7 210 12:22 05.11.2019
4763 Clouds 19 1023 68 10000 7.7 210 11:58 05.11.2019
4764 Clouds 19 1022 60 10000 7.7 220 11:39 05.11.2019
4765 Clouds 20 1022 60 10000 7.7 220 11:20 05.11.2019
4766 Clouds 21 1022 56 10000 7.7 230 10:55 05.11.2019
4767 Clouds 21 1022 56 10000 8.2 230 10:37 05.11.2019
4768 Clouds 22 1022 56 10000 8.2 230 10:18 05.11.2019
4769 Clouds 22 1022 56 10000 8.2 230 09:54 05.11.2019
4770 Clouds 23 1022 50 10000 8.2 230 09:36 05.11.2019
4771 Clouds 23 1022 50 10000 8.2 230 09:18 05.11.2019
4772 Clouds 24 1022 50 10000 8.7 230 08:38 05.11.2019
4773 Clouds 24 1022 50 10000 8.7 230 08:19 05.11.2019
4774 Clouds 24 1022 50 10000 8.2 230 07:55 05.11.2019
4775 Clouds 24 1022 50 10000 8.7 240 07:36 05.11.2019
4776 Clouds 24 1022 50 10000 8.7 240 07:18 05.11.2019
4777 Clouds 24 1023 50 10000 6.2 230 06:40 05.11.2019
4778 Clouds 24 1023 53 10000 7.2 270 05:51 05.11.2019
4779 Clouds 24 1023 50 10000 7.2 260 05:21 05.11.2019
4780 Clouds 24 1024 44 10000 2.6 140 04:23 05.11.2019
4781 Clouds 23 1025 53 10000 3.6 210 03:32 05.11.2019
4782 Clear 21 1025 52 10000 2.6 130 02:43 05.11.2019
4783 Clear 19 1025 55 10000 3.1 170 01:56 05.11.2019
4784 Clear 16 1025 67 10000 2.6 160 00:48 05.11.2019
4785 Clear 15 1025 76 10000 1 240 00:27 05.11.2019
4786 Clear 12 1024 87 10000 1 20 23:43 04.11.2019
4787 Clear 12 1024 87 10000 1 20 23:43 04.11.2019
4788 Clear 10 1024 93 10000 0.5 160 23:19 04.11.2019
4789 Clear 9 1024 100 10000 1.86 154 22:57 04.11.2019
4790 Clear 10 1023 93 10000 1 280 22:39 04.11.2019
4791 Clear 10 1023 87 10000 3.1 30 22:20 04.11.2019
4792 Clear 10 1023 87 10000 3.1 30 21:55 04.11.2019
4793 Clear 10 1023 100 10000 1.86 154 21:37 04.11.2019
4794 Clear 10 1023 100 10000 1.86 154 21:18 04.11.2019
4795 Clear 11 1023 100 10000 1.5 140 20:55 04.11.2019
4796 Clear 11 1023 100 5000 2.6 170 20:37 04.11.2019
4797 Clear 11 1023 100 5000 2.6 170 20:18 04.11.2019
4798 Clear 12 1023 93 10000 3.1 210 19:43 04.11.2019
4799 Clear 13 1023 93 10000 3.1 210 19:25 04.11.2019
4800 Clear 12 1024 87 10000 4.1 210 18:59 04.11.2019
4801 Clear 13 1024 93 10000 4.1 200 18:41 04.11.2019
4802 Clear 13 1024 93 10000 4.1 200 18:23 04.11.2019
4803 Clear 14 1024 87 10000 4.1 190 17:59 04.11.2019
4804 Clear 14 1025 87 10000 3.6 200 17:37 04.11.2019
4805 Clear 14 1025 87 10000 3.6 200 17:19 04.11.2019
4806 Clouds 14 1025 82 10000 4.1 180 16:44 04.11.2019
4807 Clouds 14 1025 82 10000 4.1 180 16:25 04.11.2019
4808 Clouds 15 1025 82 10000 4.1 180 15:59 04.11.2019
4809 Clouds 15 1025 82 10000 4.1 180 15:59 04.11.2019
4810 Clouds 15 1025 77 10000 4.1 180 15:41 04.11.2019
4811 Clouds 15 1025 77 10000 4.1 180 15:21 04.11.2019
4812 Clouds 16 1025 77 10000 4.1 180 14:58 04.11.2019
4813 Clouds 16 1025 72 10000 4.1 180 14:39 04.11.2019
4814 Clouds 16 1025 72 10000 4.1 180 14:20 04.11.2019
4815 Clouds 17 1025 72 10000 4.1 180 13:58 04.11.2019
4816 Clouds 17 1024 67 10000 4.1 180 13:39 04.11.2019
4817 Clouds 17 1024 67 10000 4.1 180 13:20 04.11.2019
4818 Clouds 17 1024 63 10000 4.1 180 12:55 04.11.2019
4819 Clear 17 1023 63 10000 4.6 250 12:37 04.11.2019
4820 Clear 17 1023 63 10000 4.6 250 12:18 04.11.2019
4821 Clear 19 1023 56 10000 6.7 230 11:42 04.11.2019
4822 Clear 19 1023 56 10000 6.7 230 11:23 04.11.2019
4823 Clear 20 1022 46 10000 5.7 250 10:56 04.11.2019
4824 Clear 21 1022 43 10000 4.6 250 10:38 04.11.2019
4825 Clear 22 1022 43 10000 4.6 250 10:18 04.11.2019
4826 Clear 22 1022 46 10000 5.1 240 09:44 04.11.2019
4827 Clear 22 1022 43 10000 5.7 260 09:26 04.11.2019
4828 Clear 23 1022 44 10000 6.7 250 08:55 04.11.2019
4829 Clear 23 1022 41 10000 6.7 240 08:37 04.11.2019
4830 Clear 23 1022 41 10000 6.7 240 08:18 04.11.2019
4831 Clear 25 1022 36 10000 5.7 260 07:42 04.11.2019
4832 Clear 25 1022 36 10000 5.7 260 07:20 04.11.2019
4833 Clear 24 1022 34 10000 4.1 270 06:49 04.11.2019
4834 Clear 24 1022 32 10000 3.6 280 06:18 04.11.2019
4835 Clear 26 1023 31 10000 2.6 220 05:32 04.11.2019
4836 Clear 25 1024 33 10000 2.6 310 04:34 04.11.2019
4837 Clear 23 1024 49 10000 2.6 30 03:39 04.11.2019
4838 Clouds 18 1025 63 10000 4.1 90 01:37 04.11.2019
4839 Clouds 17 1025 63 10000 4.1 90 01:18 04.11.2019
4840 Clouds 15 1025 77 10000 2.1 50 00:22 04.11.2019
4841 Clouds 12 1025 100 10000 2.6 360 23:58 03.11.2019
4842 Clouds 10 1025 100 10000 1.5 140 23:38 03.11.2019
4843 Clouds 10 1025 100 10000 1.5 140 23:18 03.11.2019
4844 Clouds 9 1025 100 10000 1 210 22:56 03.11.2019
4845 Clouds 10 1025 93 10000 1.5 220 22:38 03.11.2019
4846 Clouds 10 1025 93 10000 1.5 220 22:18 03.11.2019
4847 Clouds 10 1024 93 10000 1.5 300 21:43 03.11.2019
4848 Clouds 10 1024 93 10000 1.5 350 21:21 03.11.2019
4849 Clouds 10 1024 93 10000 1.26 96 20:58 03.11.2019
4850 Clouds 10 1024 100 10000 1.26 96 20:37 03.11.2019
4851 Clear 10 1024 100 10000 1.77 145 20:19 03.11.2019
4852 Clear 10 1024 100 10000 1.77 145 20:19 03.11.2019
4853 Clear 10 1025 100 10000 1 20 19:57 03.11.2019
4854 Clear 10 1024 93 10000 1.77 145 19:38 03.11.2019
4855 Clear 11 1024 93 10000 1.77 145 19:20 03.11.2019
4856 Clear 10 1025 93 10000 1.77 145 18:54 03.11.2019
4857 Clear 11 1025 87 10000 2.1 190 18:36 03.11.2019
4858 Clear 11 1025 87 10000 2.1 190 18:36 03.11.2019
4859 Clear 11 1025 87 10000 2.1 190 18:18 03.11.2019
4860 Clear 12 1025 87 10000 2.6 200 17:42 03.11.2019
4861 Clear 12 1025 87 10000 2.6 200 17:20 03.11.2019
4862 Clear 13 1025 76 10000 3.1 190 16:56 03.11.2019
4863 Clear 13 1025 76 10000 4.6 190 16:38 03.11.2019
4864 Clear 13 1025 76 10000 4.6 190 16:20 03.11.2019
4865 Clear 13 1025 76 10000 4.1 190 15:57 03.11.2019
4866 Clear 14 1025 76 10000 3.6 190 15:39 03.11.2019
4867 Clear 14 1025 76 10000 3.6 190 15:20 03.11.2019
4868 Clear 15 1025 72 10000 3.6 190 14:42 03.11.2019
4869 Clouds 15 1025 72 10000 3.6 210 14:19 03.11.2019
4870 Clouds 15 1025 67 10000 4.1 210 13:58 03.11.2019
4871 Clouds 15 1025 67 10000 5.7 210 13:40 03.11.2019
4872 Clouds 16 1025 67 10000 5.7 210 13:18 03.11.2019
4873 Clouds 16 1024 59 10000 7.2 230 12:38 03.11.2019
4874 Clouds 17 1024 59 10000 7.2 230 12:20 03.11.2019
4875 Clouds 17 1024 59 10000 7.2 230 12:20 03.11.2019
4876 Clouds 17 1024 59 10000 7.2 230 12:20 03.11.2019
4877 Clouds 17 1024 55 10000 5.7 240 11:58 03.11.2019
4878 Clouds 18 1023 52 10000 6.2 230 11:40 03.11.2019
4879 Clouds 18 1023 52 10000 6.2 230 11:20 03.11.2019
4880 Clouds 19 1023 52 10000 6.2 250 10:42 03.11.2019
4881 Clouds 20 1023 49 10000 6.2 240 10:22 03.11.2019
4882 Clouds 20 1023 49 10000 7.2 250 09:59 03.11.2019
4883 Clouds 21 1023 49 10000 6.7 240 09:41 03.11.2019
4884 Clouds 21 1023 49 10000 6.7 240 09:23 03.11.2019
4885 Clouds 22 1023 46 10000 7.2 270 08:53 03.11.2019
4886 Clouds 21 1022 49 10000 5.1 240 08:26 03.11.2019
4887 Clouds 21 1023 46 10000 5.1 190 07:55 03.11.2019
4888 Clouds 21 1023 49 10000 4.6 230 07:37 03.11.2019
4889 Clouds 21 1023 49 10000 4.6 230 07:18 03.11.2019
4890 Clouds 21 1023 49 10000 4.6 260 06:38 03.11.2019
4891 Clouds 21 1024 52 10000 5.1 270 05:41 03.11.2019
4892 Clouds 20 1024 52 10000 5.1 270 05:18 03.11.2019
4893 Clouds 20 1024 52 10000 3.6 250 04:47 03.11.2019
4894 Clouds 19 1024 52 10000 2.6 160 03:40 03.11.2019
4895 Clouds 19 1024 59 10000 2.6 110 02:46 03.11.2019
4896 Clouds 18 1024 63 10000 1.25 266 02:21 03.11.2019
4897 Clouds 17 1024 72 10000 2.1 360 01:44 03.11.2019
4898 Clouds 17 1024 77 10000 1.5 20 01:21 03.11.2019
4899 Clouds 16 1024 72 10000 3.1 40 00:46 03.11.2019
4900 Clouds 16 1023 82 10000 3.1 20 00:28 03.11.2019
4901 Clouds 15 1023 87 10000 2.6 10 23:58 02.11.2019
4902 Clouds 14 1023 87 10000 3.1 360 23:39 02.11.2019
4903 Clouds 13 1023 87 10000 3.1 360 23:19 02.11.2019
4904 Clouds 13 1022 93 10000 2.6 20 22:56 02.11.2019
4905 Clouds 13 1022 93 10000 2.6 20 22:56 02.11.2019
4906 Clouds 13 1022 93 10000 2.6 20 22:38 02.11.2019
4907 Clouds 13 1022 93 10000 2.6 20 22:19 02.11.2019
4908 Clouds 13 1022 93 10000 2.1 60 21:56 02.11.2019
4909 Clouds 13 1022 93 10000 3.1 10 21:38 02.11.2019
4910 Clouds 13 1022 93 10000 3.1 10 21:18 02.11.2019
4911 Clouds 13 1022 93 10000 3.1 10 21:18 02.11.2019
4912 Clouds 13 1022 93 10000 2.6 60 20:59 02.11.2019
4913 Clouds 14 1022 93 10000 2.1 170 20:39 02.11.2019
4914 Clouds 14 1022 93 10000 2.1 170 20:20 02.11.2019
4915 Clouds 13 1022 93 10000 2.6 170 19:55 02.11.2019
4916 Clouds 14 1022 93 10000 1.5 230 19:36 02.11.2019
4917 Clouds 14 1022 93 10000 1.5 230 19:18 02.11.2019
4918 Clouds 14 1021 93 10000 1.5 30 18:42 02.11.2019
4919 Clouds 13 1021 93 10000 1.5 30 18:24 02.11.2019
4920 Clouds 14 1021 100 10000 2.1 90 17:59 02.11.2019
4921 Clouds 13 1021 93 10000 1.5 70 17:39 02.11.2019
4922 Clouds 13 1021 93 10000 1.5 70 17:21 02.11.2019
4923 Clouds 13 1022 93 10000 1.5 40 16:57 02.11.2019
4924 Clouds 13 1022 93 10000 2.1 40 16:37 02.11.2019
4925 Clouds 13 1022 93 10000 2.1 40 16:18 02.11.2019
4926 Clouds 13 1022 93 10000 2.6 180 15:42 02.11.2019
4927 Clouds 13 1022 87 10000 2.6 190 15:20 02.11.2019
4928 Clouds 13 1022 87 10000 2.6 190 15:20 02.11.2019
4929 Clouds 14 1022 87 10000 2.6 0 14:43 02.11.2019
4930 Clear 14 1021 76 10000 2.6 220 14:24 02.11.2019
4931 Clear 14 1021 77 10000 3.1 220 13:58 02.11.2019
4932 Clear 14 1021 77 10000 3.1 220 13:58 02.11.2019
4933 Clear 15 1021 72 10000 3.6 210 13:39 02.11.2019
4934 Clouds 15 1020 72 10000 4.1 220 13:19 02.11.2019
4935 Clouds 16 1020 67 10000 5.1 230 12:41 02.11.2019
4936 Clouds 16 1020 67 10000 5.1 230 12:41 02.11.2019
4937 Clouds 16 1020 67 10000 5.1 230 12:23 02.11.2019
4938 Clouds 17 1020 63 10000 5.7 240 11:58 02.11.2019
4939 Clouds 17 1019 55 10000 6.2 230 11:39 02.11.2019
4940 Clouds 17 1019 55 10000 6.2 230 11:39 02.11.2019
4941 Clouds 17 1019 55 10000 6.2 230 11:21 02.11.2019
4942 Clouds 18 1019 52 10000 6.7 230 10:50 02.11.2019
4943 Clouds 19 1019 55 10000 6.7 240 10:29 02.11.2019
4944 Clouds 19 1019 55 10000 7.2 260 09:59 02.11.2019
4945 Clouds 19 1019 52 10000 6.7 260 09:40 02.11.2019
4946 Clouds 20 1019 52 10000 6.7 260 09:20 02.11.2019
4947 Clouds 20 1018 52 10000 7.7 260 08:46 02.11.2019
4948 Clouds 20 1018 49 10000 7.7 260 08:22 02.11.2019
4949 Clouds 20 1018 52 10000 7.2 260 07:50 02.11.2019
4950 Clouds 20 1018 49 10000 7.2 260 07:32 02.11.2019
4951 Clouds 20 1018 45 10000 7.7 260 06:55 02.11.2019
4952 Clouds 20 1018 49 10000 7.7 250 06:37 02.11.2019
4953 Clouds 20 1018 52 10000 6.2 270 05:56 02.11.2019
4954 Clouds 20 1017 49 10000 7.2 280 05:20 02.11.2019
4955 Clouds 19 1017 52 10000 6.7 250 04:21 02.11.2019
4956 Clouds 19 1017 55 10000 5.7 270 03:49 02.11.2019
4957 Clouds 18 1017 63 10000 4.1 210 02:40 02.11.2019
4958 Rain 16 1017 72 10000 2.1 200 01:43 02.11.2019
4959 Rain 16 1017 72 10000 2.1 200 01:21 02.11.2019
4960 Clouds 16 1016 77 10000 1.5 200 00:48 02.11.2019
4961 Clouds 15 1016 87 10000 1.5 210 00:26 02.11.2019
4962 Clouds 14 1016 100 10000 2.6 170 23:46 01.11.2019
4963 Rain 13 1016 93 10000 2.6 160 23:22 01.11.2019
4964 Rain 13 1015 93 10000 2.6 160 22:57 01.11.2019
4965 Clouds 13 1015 100 10000 1.5 130 22:39 01.11.2019
4966 Clouds 13 1015 100 10000 1.5 130 22:20 01.11.2019
4967 Clouds 13 1014 93 10000 3.1 220 21:41 01.11.2019
4968 Clouds 13 1014 93 10000 3.1 220 21:23 01.11.2019
4969 Rain 13 1014 87 9000 4.1 230 20:56 01.11.2019
4970 Clouds 13 1013 82 10000 4.1 230 20:38 01.11.2019
4971 Clouds 14 1013 82 10000 4.1 230 20:19 01.11.2019
4972 Clouds 13 1013 82 10000 5.1 210 19:42 01.11.2019
4973 Clouds 13 1013 82 10000 5.1 210 19:22 01.11.2019
4974 Rain 13 1013 87 9000 6.7 250 18:59 01.11.2019
4975 Rain 13 1013 93 10000 2.6 240 18:39 01.11.2019
4976 Rain 13 1013 93 10000 2.6 240 18:19 01.11.2019
4977 Rain 14 1013 87 10000 3.6 270 17:41 01.11.2019
4978 Rain 14 1013 87 10000 3.6 270 17:23 01.11.2019
4979 Rain 14 1013 82 6000 10.3 240 17:00 01.11.2019
4980 Rain 14 1013 72 10000 7.7 240 16:37 01.11.2019
4981 Rain 14 1013 72 10000 7.7 240 16:18 01.11.2019
4982 Rain 15 1013 87 9000 8.7 240 15:41 01.11.2019
4983 Rain 15 1013 87 9000 8.7 240 15:22 01.11.2019
4984 Rain 14 1013 82 5000 3.6 230 14:57 01.11.2019
4985 Rain 15 1013 77 10000 9.8 240 14:39 01.11.2019
4986 Rain 15 1013 77 10000 9.8 240 14:21 01.11.2019
4987 Rain 16 1013 77 10000 3.6 240 13:55 01.11.2019
4988 Clouds 16 1013 82 10000 3.6 250 13:36 01.11.2019
4989 Clouds 16 1013 82 10000 3.6 250 13:18 01.11.2019
4990 Clouds 16 1013 82 10000 3.6 250 13:18 01.11.2019
4991 Rain 15 1013 82 10000 4.6 260 12:43 01.11.2019
4992 Rain 16 1012 77 10000 4.6 250 12:24 01.11.2019
4993 Clouds 16 1012 63 10000 8.2 250 11:43 01.11.2019
4994 Clouds 16 1012 63 10000 8.2 250 11:24 01.11.2019
4995 Clouds 17 1011 67 10000 7.7 240 10:56 01.11.2019
4996 Rain 17 1011 59 10000 9.3 250 10:38 01.11.2019
4997 Rain 17 1011 59 10000 9.3 250 10:19 01.11.2019
4998 Rain 18 1011 77 10000 7.2 250 09:43 01.11.2019
4999 Rain 18 1011 59 10000 9.8 240 09:25 01.11.2019
5000 Rain 18 1011 63 10000 10.3 240 08:57 01.11.2019
5001 Rain 17 1011 77 10000 9.8 220 08:39 01.11.2019
5002 Rain 17 1011 77 10000 9.8 220 08:20 01.11.2019
5003 Rain 17 1011 82 10000 5.7 280 07:46 01.11.2019
5004 Rain 18 1010 55 10000 10.3 250 07:22 01.11.2019
5005 Rain 18 1011 67 10000 10.3 230 06:55 01.11.2019
5006 Rain 18 1010 52 7000 8.7 250 06:23 01.11.2019
5007 Rain 18 1010 63 10000 10.8 260 05:57 01.11.2019
5008 Clouds 18 1010 59 10000 8.7 250 05:35 01.11.2019
5009 Rain 17 1011 63 10000 8.7 260 03:32 01.11.2019
5010 Rain 16 1010 59 10000 8.7 260 01:48 01.11.2019
5011 Rain 16 1010 55 10000 5.7 260 00:58 01.11.2019
5012 Clouds 15 1009 55 10000 8.7 240 00:20 01.11.2019
5013 Clouds 15 1009 54 10000 8.7 240 23:44 31.10.2019
5014 Rain 14 1009 67 10000 8.7 240 23:24 31.10.2019
5015 Rain 13 1009 67 10000 7.7 240 22:58 31.10.2019
5016 Rain 13 1009 76 10000 7.7 240 22:40 31.10.2019
5017 Rain 13 1009 76 10000 7.7 240 22:21 31.10.2019
5018 Rain 13 1009 81 5000 7.7 250 21:45 31.10.2019
5019 Rain 13 1008 67 10000 5.7 260 21:23 31.10.2019
5020 Rain 13 1008 76 10000 4.6 270 20:58 31.10.2019
5021 Rain 13 1008 81 8000 4.6 270 20:40 31.10.2019
5022 Rain 12 1008 81 8000 4.6 270 20:22 31.10.2019
5023 Rain 13 1009 71 6000 7.7 260 19:43 31.10.2019
5024 Rain 14 1008 62 10000 7.7 260 19:23 31.10.2019
5025 Rain 13 1008 71 10000 7.7 270 18:58 31.10.2019
5026 Rain 13 1008 67 10000 8.7 260 18:39 31.10.2019
5027 Rain 13 1008 67 10000 8.7 260 18:20 31.10.2019
5028 Rain 12 1009 66 10000 8.2 270 17:43 31.10.2019
5029 Rain 12 1009 66 10000 8.2 270 17:43 31.10.2019
5030 Rain 12 1009 66 10000 8.2 270 17:22 31.10.2019
5031 Clouds 12 1009 66 10000 6.2 290 16:59 31.10.2019
5032 Rain 12 1009 66 10000 4.6 290 16:40 31.10.2019
5033 Rain 12 1009 66 10000 4.6 290 16:20 31.10.2019
5034 Rain 12 1009 81 10000 7.7 280 15:56 31.10.2019
5035 Rain 12 1010 76 10000 9.3 270 15:38 31.10.2019
5036 Rain 12 1010 76 10000 9.3 270 15:19 31.10.2019
5037 Rain 12 1010 76 8000 8.7 240 14:56 31.10.2019
5038 Rain 12 1010 71 10000 7.7 270 14:37 31.10.2019
5039 Rain 13 1010 71 10000 7.7 270 14:19 31.10.2019
5040 Rain 12 1010 71 10000 7.7 260 13:54 31.10.2019
5041 Rain 13 1010 71 10000 7.7 260 13:36 31.10.2019
5042 Rain 12 1010 71 10000 7.7 260 13:18 31.10.2019
5043 Rain 13 1010 71 10000 8.2 250 12:43 31.10.2019
5044 Clouds 12 1010 62 10000 7.2 260 12:23 31.10.2019
5045 Rain 13 1009 66 10000 6.7 260 11:55 31.10.2019
5046 Clouds 14 1009 54 10000 7.2 270 11:36 31.10.2019
5047 Clouds 14 1009 54 10000 7.2 270 11:18 31.10.2019
5048 Rain 14 1009 51 8000 8.2 280 10:40 31.10.2019
5049 Rain 14 1009 51 8000 8.2 280 10:21 31.10.2019
5050 Clouds 15 1009 67 10000 7.7 310 09:59 31.10.2019
5051 Rain 15 1009 71 10000 5.7 280 09:39 31.10.2019
5052 Rain 15 1009 71 10000 5.7 280 09:18 31.10.2019
5053 Rain 16 1008 59 10000 8.2 270 08:46 31.10.2019
5054 Rain 16 1008 54 10000 9.8 260 08:27 31.10.2019
5055 Rain 16 1008 58 10000 12.9 230 07:49 31.10.2019
5056 Clouds 16 1008 51 10000 8.7 270 07:28 31.10.2019
5057 Rain 16 1008 48 10000 9.8 260 06:55 31.10.2019
5058 Rain 16 1009 55 10000 9.8 250 06:33 31.10.2019
5059 Rain 16 1009 72 10000 8.2 260 05:58 31.10.2019
5060 Rain 14 1009 76 10000 7.7 290 03:22 31.10.2019
5061 Clouds 15 1007 51 10000 7.7 270 02:38 31.10.2019
5062 Rain 16 1007 55 10000 10.3 270 01:43 31.10.2019
5063 Rain 14 1006 67 10000 8.7 240 00:35 31.10.2019
5064 Clouds 14 1007 71 10000 8.7 270 23:53 30.10.2019
5065 Clouds 14 1006 58 10000 8.7 270 23:28 30.10.2019
5066 Rain 13 1005 71 10000 7.7 270 22:43 30.10.2019
5067 Rain 12 1005 71 10000 7.7 270 22:21 30.10.2019
5068 Rain 13 1005 87 7000 7.7 270 21:55 30.10.2019
5069 Clouds 14 1004 76 10000 4.6 280 21:37 30.10.2019
5070 Clouds 14 1004 76 10000 4.6 280 21:37 30.10.2019
5071 Clouds 14 1004 76 10000 4.6 280 21:18 30.10.2019
5072 Rain 14 1005 67 9000 9.3 260 20:58 30.10.2019
5073 Rain 13 1005 71 10000 8.7 270 20:39 30.10.2019
5074 Rain 14 1005 71 10000 8.7 270 20:21 30.10.2019
5075 Rain 13 1005 87 10000 10.3 260 19:57 30.10.2019
5076 Rain 14 1004 72 10000 7.7 270 19:37 30.10.2019
5077 Rain 14 1004 72 10000 7.7 270 19:19 30.10.2019
5078 Rain 15 1004 77 10000 8.2 260 18:39 30.10.2019
5079 Rain 15 1004 77 10000 8.2 260 18:19 30.10.2019
5080 Rain 15 1004 77 10000 8.2 260 18:19 30.10.2019
5081 Rain 14 1006 93 10000 6.2 270 17:57 30.10.2019
5082 Rain 14 1005 82 10000 4.6 280 17:38 30.10.2019
5083 Rain 15 1005 82 10000 4.6 280 17:18 30.10.2019
5084 Rain 15 1005 87 10000 7.7 270 16:55 30.10.2019
5085 Rain 15 1005 77 10000 6.2 280 16:37 30.10.2019
5086 Rain 15 1005 77 10000 6.2 280 16:18 30.10.2019
5087 Rain 16 1006 63 10000 5.7 280 15:41 30.10.2019
5088 Rain 16 1006 63 10000 5.7 280 15:41 30.10.2019
5089 Rain 16 1006 63 10000 5.7 280 15:21 30.10.2019
5090 Rain 16 1006 63 10000 5.7 280 15:21 30.10.2019
5091 Clouds 17 1006 67 10000 5.1 290 14:59 30.10.2019
5092 Rain 17 1006 77 10000 5.7 270 14:41 30.10.2019
5093 Rain 17 1006 77 10000 5.7 270 14:22 30.10.2019
5094 Rain 17 1006 77 10000 4.1 280 13:57 30.10.2019
5095 Clouds 17 1006 82 10000 3.6 270 13:39 30.10.2019
5096 Clouds 17 1006 82 10000 3.6 270 13:19 30.10.2019
5097 Clouds 17 1006 82 10000 5.7 270 12:54 30.10.2019
5098 Drizzle 17 1006 88 8000 4.6 270 12:36 30.10.2019
5099 Drizzle 17 1006 88 8000 4.6 270 12:36 30.10.2019
5100 Rain 17 1005 93 10000 4.6 260 12:18 30.10.2019
5101 Rain 17 1005 93 5000 5.7 260 11:41 30.10.2019
5102 Rain 17 1005 93 5000 5.7 260 11:21 30.10.2019
5103 Rain 17 1005 93 2500 8.2 280 10:44 30.10.2019
5104 Rain 18 1004 88 10000 8.2 350 10:23 30.10.2019
5105 Rain 19 1004 93 10000 9.3 340 09:57 30.10.2019
5106 Rain 18 1005 93 8000 8.7 340 09:38 30.10.2019
5107 Rain 19 1005 93 8000 8.7 340 09:19 30.10.2019
5108 Rain 19 1005 88 5000 11.3 330 08:40 30.10.2019
5109 Rain 20 1005 88 5000 11.3 330 08:21 30.10.2019
5110 Drizzle 21 1006 64 10000 9.8 330 07:47 30.10.2019
5111 Clouds 21 1006 64 10000 10.8 330 07:28 30.10.2019
5112 Clouds 21 1007 64 10000 10.8 330 06:43 30.10.2019
5113 Clouds 21 1007 64 10000 10.8 330 06:21 30.10.2019
5114 Clouds 21 1007 64 10000 9.8 340 05:42 30.10.2019
5115 Clouds 21 1007 64 10000 9.8 340 05:19 30.10.2019
5116 Clouds 21 1008 56 10000 10.3 330 03:43 30.10.2019
5117 Clouds 20 1009 64 10000 7.7 320 02:55 30.10.2019
5118 Clouds 20 1009 63 10000 8.2 310 02:19 30.10.2019
5119 Clouds 19 1009 72 10000 6.2 330 01:31 30.10.2019
5120 Clouds 17 1009 87 10000 4.6 10 00:31 30.10.2019
5121 Clouds 16 1009 82 10000 3.6 360 23:46 29.10.2019
5122 Clouds 15 1009 87 10000 4.1 10 23:24 29.10.2019
5123 Clouds 15 1009 87 10000 3.6 20 22:48 29.10.2019
5124 Clouds 14 1009 93 10000 3.1 30 22:20 29.10.2019
5125 Clouds 14 1009 93 10000 2.6 30 21:59 29.10.2019
5126 Clouds 14 1009 93 10000 2.6 30 21:41 29.10.2019
5127 Clouds 14 1009 93 10000 2.6 30 21:20 29.10.2019
5128 Clouds 15 1009 87 10000 3.6 20 20:56 29.10.2019
5129 Clouds 14 1009 87 10000 3.6 40 20:38 29.10.2019
5130 Clouds 14 1009 87 10000 3.6 40 20:38 29.10.2019
5131 Clouds 14 1009 87 10000 3.6 40 20:20 29.10.2019
5132 Clouds 14 1010 93 10000 2.6 50 19:55 29.10.2019
5133 Clouds 14 1010 93 10000 2.1 50 19:37 29.10.2019
5134 Clouds 14 1010 93 10000 2.1 50 19:18 29.10.2019
5135 Clouds 14 1010 93 10000 2.6 10 18:55 29.10.2019
5136 Clouds 14 1010 87 10000 2.1 230 18:36 29.10.2019
5137 Clouds 14 1010 87 10000 2.1 230 18:18 29.10.2019
5138 Clouds 14 1011 93 10000 3.1 10 17:40 29.10.2019
5139 Clouds 14 1011 93 10000 3.1 10 17:21 29.10.2019
5140 Clouds 14 1011 87 10000 3.1 10 16:58 29.10.2019
5141 Clouds 14 1011 82 10000 3.1 10 16:38 29.10.2019
5142 Clouds 15 1011 82 10000 3.1 10 16:19 29.10.2019
5143 Clouds 15 1012 82 10000 3.1 10 15:55 29.10.2019
5144 Clouds 15 1012 82 10000 3.6 210 15:36 29.10.2019
5145 Clouds 15 1012 82 10000 3.6 210 15:36 29.10.2019
5146 Clouds 16 1012 82 10000 3.6 210 15:18 29.10.2019
5147 Clouds 16 1012 77 10000 3.1 10 14:54 29.10.2019
5148 Clouds 16 1012 77 10000 4.1 210 14:36 29.10.2019
5149 Clouds 16 1012 77 10000 4.1 210 14:18 29.10.2019
5150 Clouds 17 1012 72 10000 4.1 240 13:40 29.10.2019
5151 Clouds 17 1012 72 10000 4.1 240 13:21 29.10.2019
5152 Clouds 18 1012 68 10000 3.6 220 12:44 29.10.2019
5153 Clouds 18 1012 77 10000 4.1 210 12:25 29.10.2019
5154 Clouds 19 1012 60 10000 5.1 230 11:56 29.10.2019
5155 Clouds 19 1012 56 10000 6.2 220 11:38 29.10.2019
5156 Clouds 20 1012 56 10000 6.2 220 11:18 29.10.2019
5157 Clouds 21 1012 56 10000 6.2 240 10:57 29.10.2019
5158 Clouds 21 1012 49 10000 5.7 250 10:38 29.10.2019
5159 Clouds 22 1012 49 10000 5.7 250 10:19 29.10.2019
5160 Clouds 22 1012 49 10000 5.7 250 10:19 29.10.2019
5161 Clouds 23 1012 47 10000 5.7 220 09:42 29.10.2019
5162 Clouds 23 1012 47 10000 5.7 220 09:23 29.10.2019
5163 Clouds 23 1012 44 10000 5.7 210 08:57 29.10.2019
5164 Clouds 24 1012 47 10000 6.7 250 08:39 29.10.2019
5165 Clouds 24 1012 47 10000 6.7 250 08:20 29.10.2019
5166 Clouds 24 1012 47 10000 8.2 250 07:48 29.10.2019
5167 Clouds 25 1012 39 10000 7.2 270 07:20 29.10.2019
5168 Clouds 26 1013 34 10000 3.1 40 06:54 29.10.2019
5169 Clouds 25 1013 36 10000 3.1 270 06:31 29.10.2019
5170 Clouds 25 1014 39 10000 3.6 310 05:56 29.10.2019
5171 Clouds 26 1014 39 10000 2.6 10 05:38 29.10.2019
5172 Clouds 24 1015 46 10000 7.2 260 04:41 29.10.2019
5173 Clouds 20 1016 52 10000 6.2 90 02:39 29.10.2019
5174 Clouds 19 1016 55 10000 6.2 60 01:56 29.10.2019
5175 Clouds 18 1016 59 10000 5.1 50 01:35 29.10.2019
5176 Clouds 17 1016 63 10000 5.1 50 00:52 29.10.2019
5177 Clouds 16 1016 67 10000 5.1 100 23:59 28.10.2019
5178 Clouds 15 1016 71 10000 5.1 90 23:37 28.10.2019
5179 Clouds 15 1016 71 10000 5.1 90 23:19 28.10.2019
5180 Clouds 14 1016 71 10000 6.2 90 22:39 28.10.2019
5181 Clouds 14 1016 71 10000 6.2 90 22:20 28.10.2019
5182 Clouds 14 1016 71 10000 4.6 90 21:57 28.10.2019
5183 Clouds 14 1016 71 10000 5.1 110 21:39 28.10.2019
5184 Clouds 14 1016 71 10000 5.1 110 21:21 28.10.2019
5185 Clouds 14 1016 71 10000 4.1 110 20:57 28.10.2019
5186 Clouds 15 1016 67 10000 4.1 110 20:39 28.10.2019
5187 Clouds 15 1016 67 10000 4.1 110 20:20 28.10.2019
5188 Clouds 15 1016 67 10000 4.1 110 20:20 28.10.2019
5189 Clouds 15 1016 67 10000 3.6 100 19:54 28.10.2019
5190 Clouds 15 1016 72 10000 5.1 110 19:36 28.10.2019
5191 Clouds 16 1016 72 10000 5.1 110 19:18 28.10.2019
5192 Clouds 16 1016 67 10000 5.1 120 18:54 28.10.2019
5193 Clouds 16 1016 67 10000 4.6 110 18:36 28.10.2019
5194 Clouds 16 1016 67 10000 4.6 110 18:18 28.10.2019
5195 Clouds 17 1016 67 10000 6.7 120 17:54 28.10.2019
5196 Clouds 17 1016 77 10000 3.1 130 17:36 28.10.2019
5197 Clouds 17 1016 77 10000 3.1 130 17:18 28.10.2019
5198 Clouds 17 1016 82 10000 3.1 130 16:43 28.10.2019
5199 Clouds 17 1016 82 10000 3.1 130 16:24 28.10.2019
5200 Clouds 17 1016 77 10000 5.1 200 15:59 28.10.2019
5201 Clouds 17 1016 82 10000 4.1 210 15:40 28.10.2019
5202 Clouds 18 1016 82 10000 4.1 210 15:21 28.10.2019
5203 Clouds 18 1017 82 10000 3.6 210 14:57 28.10.2019
5204 Clouds 18 1017 82 10000 3.6 210 14:57 28.10.2019
5205 Clouds 18 1016 82 10000 4.1 210 14:39 28.10.2019
5206 Clouds 18 1016 82 10000 4.1 210 14:19 28.10.2019
5207 Clouds 18 1017 88 10000 1.5 230 13:57 28.10.2019
5208 Clouds 18 1016 77 10000 3.6 210 13:38 28.10.2019
5209 Clouds 18 1016 77 10000 3.6 210 13:18 28.10.2019
5210 Clouds 18 1016 72 10000 4.1 220 12:42 28.10.2019
5211 Clouds 19 1016 72 10000 4.1 220 12:21 28.10.2019
5212 Clouds 19 1015 68 10000 6.2 220 11:40 28.10.2019
5213 Clouds 20 1015 68 10000 6.2 220 11:22 28.10.2019
5214 Clouds 20 1015 64 10000 6.7 230 10:58 28.10.2019
5215 Clouds 21 1015 60 10000 7.7 210 10:39 28.10.2019
5216 Clouds 21 1015 60 10000 7.7 210 10:20 28.10.2019
5217 Clouds 22 1015 56 10000 8.2 230 09:56 28.10.2019
5218 Clouds 22 1015 53 10000 8.7 240 09:38 28.10.2019
5219 Clouds 22 1015 53 10000 8.7 240 09:19 28.10.2019
5220 Clouds 22 1015 50 10000 8.7 230 08:56 28.10.2019
5221 Clouds 22 1015 50 10000 8.7 230 08:56 28.10.2019
5222 Clouds 23 1015 50 10000 7.7 210 08:37 28.10.2019
5223 Clouds 23 1015 50 10000 7.7 210 08:18 28.10.2019
5224 Clouds 23 1015 50 10000 7.7 220 07:54 28.10.2019
5225 Clouds 23 1015 47 10000 7.7 230 07:36 28.10.2019
5226 Clouds 23 1015 47 10000 7.7 230 07:18 28.10.2019
5227 Clouds 23 1015 53 10000 8.2 240 06:39 28.10.2019
5228 Clouds 22 1015 53 10000 7.7 240 05:29 28.10.2019
5229 Clouds 22 1015 56 10000 7.7 230 03:44 28.10.2019
5230 Clouds 21 1015 60 10000 6.7 230 02:46 28.10.2019
5231 Clouds 20 1014 64 10000 8.2 220 01:52 28.10.2019
5232 Clouds 20 1014 64 10000 8.2 220 01:52 28.10.2019
5233 Clouds 18 1014 72 10000 5.7 220 00:47 28.10.2019
5234 Clouds 18 1014 72 10000 5.7 220 00:47 28.10.2019
5235 Clouds 18 1013 77 10000 7.2 210 00:26 28.10.2019
5236 Clouds 18 1013 77 10000 5.7 210 23:44 27.10.2019
5237 Clouds 18 1013 77 10000 5.1 200 23:22 27.10.2019
5238 Clouds 17 1012 82 10000 4.1 210 22:57 27.10.2019
5239 Clouds 17 1012 87 10000 2.6 190 22:37 27.10.2019
5240 Clouds 16 1012 87 10000 2.6 190 22:19 27.10.2019
5241 Clouds 16 1012 82 10000 2.6 190 21:56 27.10.2019
5242 Clouds 17 1011 77 10000 3.1 190 21:38 27.10.2019
5243 Clouds 17 1011 77 10000 3.1 190 21:20 27.10.2019
5244 Clouds 16 1011 72 10000 3.1 200 20:41 27.10.2019
5245 Clouds 16 1011 72 10000 3.1 200 20:23 27.10.2019
5246 Clouds 16 1011 76 10000 3.1 220 19:58 27.10.2019
5247 Clouds 17 1011 67 10000 3.6 200 19:37 27.10.2019
5248 Clouds 17 1011 67 10000 3.6 200 19:19 27.10.2019
5249 Clouds 17 1011 67 10000 3.1 220 18:56 27.10.2019
5250 Clouds 17 1011 72 10000 3.6 210 18:38 27.10.2019
5251 Clouds 17 1011 72 10000 3.6 210 18:20 27.10.2019
5252 Clouds 17 1011 72 10000 3.6 210 18:20 27.10.2019
5253 Clouds 18 1010 55 10000 3.1 220 17:55 27.10.2019
5254 Clouds 18 1011 55 10000 3.1 210 17:36 27.10.2019
5255 Clouds 18 1011 55 10000 3.1 210 17:18 27.10.2019
5256 Clouds 19 1011 52 10000 3.1 220 16:55 27.10.2019
5257 Clouds 19 1011 52 10000 3.1 220 16:55 27.10.2019
5258 Clouds 19 1011 63 10000 2.6 200 16:37 27.10.2019
5259 Clouds 19 1010 49 10000 3.6 210 16:18 27.10.2019
5260 Clouds 20 1010 49 10000 3.6 210 15:55 27.10.2019
5261 Clouds 20 1011 46 10000 3.6 210 15:36 27.10.2019
5262 Clouds 21 1011 52 10000 2.6 190 15:18 27.10.2019
5263 Clouds 21 1011 40 10000 3.6 210 14:41 27.10.2019
5264 Clouds 22 1011 40 10000 3.6 210 14:19 27.10.2019
5265 Clouds 22 1011 38 10000 4.6 210 13:55 27.10.2019
5266 Clouds 23 1010 41 10000 4.1 210 13:36 27.10.2019
5267 Clouds 24 1010 41 10000 4.1 210 13:18 27.10.2019
5268 Clouds 24 1010 41 10000 4.1 250 12:42 27.10.2019
5269 Clouds 25 1010 26 10000 4.1 260 12:23 27.10.2019
5270 Clouds 26 1010 13 10000 3.6 210 11:43 27.10.2019
5271 Clouds 28 1009 11 10000 3.6 210 11:25 27.10.2019
5272 Clouds 28 1009 11 10000 3.6 210 11:25 27.10.2019
5273 Clear 31 1010 8 10000 4.1 250 10:59 27.10.2019
5274 Clear 31 1010 8 10000 4.1 250 10:59 27.10.2019
5275 Clear 32 1010 9 10000 4.6 260 10:41 27.10.2019
5276 Clear 31 1010 9 10000 4.6 260 10:22 27.10.2019
5277 Clear 31 1010 9 10000 5.7 260 09:43 27.10.2019
5278 Clear 31 1010 20 10000 6.2 260 09:19 27.10.2019
5279 Clear 32 1010 20 10000 6.7 250 08:57 27.10.2019
5280 Clear 31 1010 10 10000 7.2 240 08:38 27.10.2019
5281 Clear 33 1010 10 10000 7.2 240 08:19 27.10.2019
5282 Clear 34 1010 11 10000 7.2 220 07:46 27.10.2019
5283 Clear 34 1010 11 10000 7.2 220 07:46 27.10.2019
5284 Clear 33 1010 8 10000 7.2 220 07:27 27.10.2019
5285 Clear 35 1011 15 10000 7.7 290 06:55 27.10.2019
5286 Clear 35 1011 10 10000 7.2 220 06:29 27.10.2019
5287 Clear 35 1012 12 10000 7.2 220 05:57 27.10.2019
5288 Clear 35 1012 15 10000 4.6 40 05:35 27.10.2019
5289 Clear 31 1014 22 10000 6.7 40 03:35 27.10.2019
5290 Clear 25 1014 40 10000 6.2 70 02:28 27.10.2019
5291 Clear 21 1015 55 10000 8.7 70 01:25 27.10.2019
5292 Clear 19 1014 59 10000 7.2 50 00:52 27.10.2019
5293 Clear 19 1014 59 10000 7.2 50 00:33 27.10.2019
5294 Clear 18 1014 59 10000 7.2 50 23:58 26.10.2019
5295 Clear 18 1013 59 10000 10.3 90 23:39 26.10.2019
5296 Clear 18 1013 59 10000 10.3 90 23:21 26.10.2019
5297 Clear 18 1013 55 10000 10.8 90 22:57 26.10.2019
5298 Clear 18 1014 55 10000 8.7 90 22:38 26.10.2019
5299 Clear 19 1014 55 10000 8.7 90 22:19 26.10.2019
5300 Clear 19 1014 55 10000 8.2 90 21:44 26.10.2019
5301 Clouds 19 1014 49 10000 8.7 90 21:23 26.10.2019
5302 Clouds 19 1014 49 10000 9.3 100 20:59 26.10.2019
5303 Clouds 20 1014 45 10000 9.8 100 20:40 26.10.2019
5304 Clouds 20 1014 45 10000 9.8 100 20:19 26.10.2019
5305 Clouds 21 1014 43 10000 10.3 100 19:42 26.10.2019
5306 Clouds 21 1014 37 10000 9.8 100 19:21 26.10.2019
5307 Clouds 20 1014 40 10000 9.8 100 18:58 26.10.2019
5308 Clouds 18 1015 82 10000 6.2 90 18:39 26.10.2019
5309 Clouds 18 1015 82 10000 6.2 90 18:20 26.10.2019
5310 Clouds 18 1016 82 10000 6.2 90 17:57 26.10.2019
5311 Clouds 18 1016 77 10000 6.2 90 17:38 26.10.2019
5312 Clouds 18 1016 82 10000 3.6 170 17:20 26.10.2019
5313 Clouds 18 1016 68 10000 6.2 90 16:45 26.10.2019
5314 Clouds 19 1016 68 10000 4.1 210 16:25 26.10.2019
5315 Clouds 19 1016 60 10000 3.6 190 15:59 26.10.2019
5316 Clouds 20 1017 60 10000 5.1 190 15:37 26.10.2019
5317 Clouds 20 1017 60 10000 5.1 190 15:18 26.10.2019
5318 Clouds 21 1016 53 10000 6.2 180 14:39 26.10.2019
5319 Clouds 21 1016 53 10000 6.2 180 14:19 26.10.2019
5320 Clouds 21 1017 58 0 4.29 163 13:55 26.10.2019
5321 Clouds 21 1017 58 0 4.29 163 13:36 26.10.2019
5322 Clouds 22 1016 53 10000 8.2 190 13:18 26.10.2019
5323 Clouds 21 1017 58 0 4.29 163 13:18 26.10.2019
5324 Clouds 21 1014 56 0 3.13 214 12:42 26.10.2019
5325 Clouds 24 1016 41 10000 9.8 200 12:18 26.10.2019
5326 Clouds 23 1016 41 10000 9.8 200 11:45 26.10.2019
5327 Clouds 24 1016 41 10000 9.8 200 11:24 26.10.2019
5328 Clouds 27 1016 39 10000 8.2 230 10:46 26.10.2019
5329 Clouds 27 1016 39 10000 8.2 230 10:25 26.10.2019
5330 Clouds 28 1016 39 10000 8.7 230 09:49 26.10.2019
5331 Clouds 28 1016 37 10000 8.2 220 09:30 26.10.2019
5332 Clouds 29 1016 35 10000 5.7 260 08:50 26.10.2019
5333 Clouds 29 1017 28 10000 7.2 220 08:28 26.10.2019
5334 Clouds 29 1017 30 10000 7.2 220 07:57 26.10.2019
5335 Clouds 28 1018 28 10000 7.2 220 07:39 26.10.2019
5336 Clouds 28 1018 28 10000 7.2 220 07:19 26.10.2019
5337 Clouds 28 1018 32 10000 7.2 220 06:39 26.10.2019
5338 -273 0 0 0 0 0 05:24 26.10.2019
5339 Clouds 26 1019 39 10000 5.1 70 04:59 26.10.2019
5340 Clouds 23 1020 56 10000 5.7 90 03:31 26.10.2019
5341 Clear 20 1020 59 10000 4.6 80 02:28 26.10.2019
5342 Clear 17 1020 68 10000 2.6 110 01:45 26.10.2019
5343 Clear 14 1020 93 10000 2.1 290 00:50 26.10.2019
5344 Clear 12 1020 100 10000 2.1 310 23:48 25.10.2019
5345 Clear 12 1020 100 300 2.1 110 23:22 25.10.2019
5346 Clear 12 1019 93 10000 2.1 200 22:56 25.10.2019
5347 Clear 12 1019 93 10000 2.1 200 22:56 25.10.2019
5348 Clear 12 1019 93 10000 2.1 200 22:38 25.10.2019
5349 Clear 13 1019 93 10000 2.1 200 22:20 25.10.2019
5350 Clouds 13 1019 100 5000 2.6 180 21:55 25.10.2019
5351 Clear 13 1019 100 10000 2.1 180 21:37 25.10.2019
5352 Clear 13 1019 100 10000 2.1 180 21:18 25.10.2019
5353 Clear 13 1020 93 10000 3.1 190 20:42 25.10.2019
5354 Clear 14 1020 93 10000 2.1 170 20:19 25.10.2019
5355 Clear 14 1020 93 10000 2.1 170 20:19 25.10.2019
5356 Clear 14 1020 93 10000 3.1 180 19:47 25.10.2019
5357 Clear 14 1020 93 10000 3.1 210 19:27 25.10.2019
5358 Clear 15 1020 87 10000 3.6 210 18:48 25.10.2019
5359 Clear 15 1020 87 10000 3.6 210 18:48 25.10.2019
5360 Clear 15 1020 87 10000 3.6 210 18:29 25.10.2019
5361 Clear 15 1020 87 10000 4.6 200 17:59 25.10.2019
5362 Clear 16 1021 82 10000 5.7 190 17:36 25.10.2019
5363 Clear 16 1021 82 10000 5.7 190 17:36 25.10.2019
5364 Clear 16 1021 82 10000 5.7 190 17:18 25.10.2019
5365 Clear 16 1021 82 10000 6.2 200 16:46 25.10.2019
5366 Clear 16 1021 82 10000 5.7 200 16:22 25.10.2019
5367 Clear 16 1021 82 10000 5.7 190 15:55 25.10.2019
5368 Clear 16 1021 77 10000 6.7 190 15:37 25.10.2019
5369 Clear 16 1021 77 10000 6.7 190 15:18 25.10.2019
5370 Clear 17 1021 77 10000 8.2 210 14:42 25.10.2019
5371 Clear 17 1021 77 10000 8.2 210 14:23 25.10.2019
5372 Clear 17 1021 72 10000 7.7 210 13:56 25.10.2019
5373 Clear 18 1020 68 10000 7.7 210 13:37 25.10.2019
5374 Clear 18 1020 68 10000 7.7 210 13:18 25.10.2019
5375 Clear 18 1020 68 10000 7.7 210 13:18 25.10.2019
5376 Clear 19 1020 60 10000 7.7 220 12:41 25.10.2019
5377 Clear 19 1020 60 10000 7.7 220 12:21 25.10.2019
5378 Clear 20 1019 60 10000 7.7 230 11:57 25.10.2019
5379 Clear 20 1019 56 10000 7.7 230 11:38 25.10.2019
5380 Clear 20 1019 56 10000 7.7 230 11:18 25.10.2019
5381 Clouds 21 1019 53 10000 7.7 230 10:40 25.10.2019
5382 Clouds 21 1019 53 10000 7.7 230 10:21 25.10.2019
5383 Clouds 22 1019 53 10000 7.7 250 09:57 25.10.2019
5384 Clouds 22 1019 49 10000 6.7 230 09:38 25.10.2019
5385 Clouds 22 1019 49 10000 6.7 230 09:19 25.10.2019
5386 Clouds 22 1019 53 10000 6.7 230 08:45 25.10.2019
5387 Clouds 23 1019 49 10000 6.7 230 08:27 25.10.2019
5388 Clouds 23 1020 49 10000 6.7 230 07:53 25.10.2019
5389 -273 0 0 0 0 0 07:34 25.10.2019
5390 Clouds 23 1020 40 10000 3.6 240 06:42 25.10.2019
5391 Clouds 22 1021 43 10000 6.7 230 05:51 25.10.2019
5392 Clouds 21 1021 46 10000 3.1 200 05:33 25.10.2019
5393 Clouds 21 1022 46 10000 4.6 190 04:52 25.10.2019
5394 Clouds 19 1022 52 10000 6.2 210 03:30 25.10.2019
5395 Clouds 18 1022 59 10000 4.1 170 01:54 25.10.2019
5396 Clouds 15 1021 72 10000 3.6 160 00:50 25.10.2019
5397 Clouds 14 1021 76 10000 4.1 170 00:20 25.10.2019
5398 Clouds 14 1021 76 10000 6.7 180 23:40 24.10.2019
5399 Clouds 14 1021 76 10000 6.7 180 23:22 24.10.2019
5400 Clouds 14 1021 81 10000 1.5 30 22:54 24.10.2019
5401 Clouds 13 1021 87 10000 1.5 20 22:36 24.10.2019
5402 Clouds 14 1021 87 10000 1.5 20 22:18 24.10.2019
5403 Clouds 14 1021 87 10000 2.1 20 21:55 24.10.2019
5404 Clouds 13 1021 87 10000 0.5 30 21:37 24.10.2019
5405 Clouds 13 1021 87 10000 0.5 30 21:18 24.10.2019
5406 Clouds 13 1020 87 10000 2.6 30 20:54 24.10.2019
5407 Clouds 13 1021 87 10000 2.1 40 20:36 24.10.2019
5408 Clouds 13 1021 87 10000 2.1 40 20:18 24.10.2019
5409 Clouds 13 1021 81 10000 2.6 170 19:42 24.10.2019
5410 Clouds 13 1021 81 10000 2.6 170 19:23 24.10.2019
5411 Clouds 13 1021 87 10000 2.6 200 18:58 24.10.2019
5412 Clouds 13 1021 87 10000 2.6 200 18:58 24.10.2019
5413 Clouds 13 1021 87 10000 2.6 200 18:58 24.10.2019
5414 Clouds 13 1022 81 10000 2.6 220 18:39 24.10.2019
5415 Clouds 13 1022 81 10000 2.6 220 18:21 24.10.2019
5416 Clouds 13 1022 76 10000 2.6 200 17:56 24.10.2019
5417 Clouds 13 1022 71 10000 2.6 200 17:37 24.10.2019
5418 Clouds 13 1022 71 10000 2.6 200 17:18 24.10.2019
5419 Clouds 14 1022 71 10000 3.6 190 16:42 24.10.2019
5420 Clouds 14 1022 71 10000 3.6 170 16:23 24.10.2019
5421 Clouds 14 1022 71 10000 3.6 170 16:23 24.10.2019
5422 Clouds 14 1022 67 10000 4.6 190 15:59 24.10.2019
5423 Clouds 14 1022 67 10000 4.1 210 15:40 24.10.2019
5424 Clouds 14 1022 67 10000 4.1 210 15:22 24.10.2019
5425 Clouds 14 1022 67 10000 4.6 210 14:59 24.10.2019
5426 Clear 15 1022 62 10000 5.1 210 14:40 24.10.2019
5427 Clear 15 1022 62 10000 5.1 210 14:20 24.10.2019
5428 Clouds 15 1022 62 10000 6.2 220 13:42 24.10.2019
5429 Clouds 15 1021 58 10000 5.7 230 13:20 24.10.2019
5430 Clouds 15 1021 55 10000 2.6 180 12:58 24.10.2019
5431 Clear 16 1021 59 10000 6.2 210 12:40 24.10.2019
5432 Clear 16 1021 51 10000 7.2 230 12:20 24.10.2019
5433 Clear 17 1020 51 10000 6.7 240 11:57 24.10.2019
5434 Clear 18 1020 48 10000 8.2 230 11:38 24.10.2019
5435 Clear 18 1020 48 10000 8.2 230 11:20 24.10.2019
5436 Clear 18 1020 48 10000 8.7 230 10:58 24.10.2019
5437 Clear 18 1020 45 10000 8.7 230 10:38 24.10.2019
5438 Clear 18 1020 45 10000 8.7 230 10:20 24.10.2019
5439 Clear 20 1019 40 10000 8.2 230 09:38 24.10.2019
5440 Clear 20 1019 40 10000 8.2 230 09:19 24.10.2019
5441 Clear 20 1020 42 10000 8.2 230 08:54 24.10.2019
5442 Clear 20 1020 43 10000 8.2 240 08:36 24.10.2019
5443 Clear 20 1020 43 10000 8.2 240 08:36 24.10.2019
5444 Clear 20 1020 43 10000 8.2 240 08:18 24.10.2019
5445 Clouds 20 1020 40 10000 7.7 240 07:42 24.10.2019
5446 Clouds 21 1020 40 10000 7.7 240 07:21 24.10.2019
5447 Clear 20 1020 40 10000 7.2 210 06:40 24.10.2019
5448 Clear 20 1020 40 10000 7.2 210 06:20 24.10.2019
5449 Clouds 20 1020 45 10000 7.2 230 05:48 24.10.2019
5450 Clouds 20 1020 42 10000 5.1 260 05:27 24.10.2019
5451 Clouds 18 1020 51 10000 4.6 170 03:37 24.10.2019
5452 Clouds 17 1020 55 10000 6.2 170 02:55 24.10.2019
5453 Clouds 17 1020 63 10000 5.7 160 02:24 24.10.2019
5454 Clouds 15 1020 76 10000 3.1 170 01:34 24.10.2019
5455 Clouds 15 1019 87 10000 2.6 190 00:58 24.10.2019
5456 Clouds 14 1019 87 10000 2.6 210 00:38 24.10.2019
5457 Clouds 14 1019 87 10000 2.6 210 00:18 24.10.2019
5458 Clouds 13 1018 87 10000 4.1 160 23:42 23.10.2019
5459 Clouds 13 1018 87 10000 4.1 160 23:22 23.10.2019
5460 Clouds 13 1018 87 10000 3.6 170 22:57 23.10.2019
5461 Clouds 14 1018 82 10000 2.6 180 22:37 23.10.2019
5462 Clouds 14 1018 82 10000 2.6 180 22:18 23.10.2019
5463 Clouds 14 1017 87 10000 4.1 180 21:57 23.10.2019
5464 Clouds 14 1017 82 10000 2.6 200 21:38 23.10.2019
5465 Rain 14 1017 82 10000 2.6 200 21:19 23.10.2019
5466 Clouds 15 1017 76 10000 3.6 210 20:55 23.10.2019
5467 Clouds 15 1017 72 10000 4.1 210 20:36 23.10.2019
5468 Clouds 15 1017 72 10000 4.1 210 20:18 23.10.2019
5469 Clouds 15 1017 72 10000 6.2 230 19:44 23.10.2019
5470 Clouds 15 1017 72 10000 6.2 230 19:44 23.10.2019
5471 Rain 15 1017 62 10000 4.6 230 19:20 23.10.2019
5472 Rain 15 1017 58 10000 6.2 230 18:59 23.10.2019
5473 Clouds 16 1018 63 10000 6.2 240 18:39 23.10.2019
5474 Clouds 16 1018 63 10000 6.2 240 18:19 23.10.2019
5475 Rain 16 1017 67 10000 5.1 230 17:55 23.10.2019
5476 Clouds 16 1018 67 10000 5.7 240 17:37 23.10.2019
5477 Clouds 16 1018 67 10000 5.7 240 17:18 23.10.2019
5478 Clouds 16 1018 77 10000 5.1 230 16:41 23.10.2019
5479 Clouds 16 1018 77 10000 5.1 230 16:21 23.10.2019
5480 Clouds 16 1017 87 10000 3.6 230 15:57 23.10.2019
5481 Rain 16 1017 93 10000 4.1 220 15:39 23.10.2019
5482 Rain 16 1017 93 10000 4.1 220 15:20 23.10.2019
5483 Rain 16 1017 87 10000 7.2 270 14:56 23.10.2019
5484 Drizzle 16 1017 87 7000 5.7 230 14:37 23.10.2019
5485 Drizzle 16 1017 87 7000 5.7 230 14:18 23.10.2019
5486 Drizzle 16 1017 87 7000 5.7 230 14:18 23.10.2019
5487 Rain 16 1017 93 10000 7.2 270 13:43 23.10.2019
5488 Rain 17 1016 93 10000 4.1 250 13:25 23.10.2019
5489 Rain 17 1016 87 5000 6.7 230 12:57 23.10.2019
5490 Clouds 18 1016 72 10000 5.7 250 12:38 23.10.2019
5491 Clouds 18 1016 72 10000 5.7 250 12:19 23.10.2019
5492 Clouds 18 1015 72 10000 7.2 250 11:58 23.10.2019
5493 Clouds 18 1015 68 10000 7.2 250 11:39 23.10.2019
5494 Clouds 19 1015 68 10000 7.2 250 11:20 23.10.2019
5495 Clouds 19 1015 77 10000 6.2 240 10:46 23.10.2019
5496 Rain 19 1016 82 10000 6.2 240 10:26 23.10.2019
5497 Rain 19 1016 82 10000 6.2 240 10:26 23.10.2019
5498 Rain 19 1016 93 10000 6.7 250 09:58 23.10.2019
5499 Rain 19 1015 72 10000 5.1 280 09:39 23.10.2019
5500 Rain 20 1015 72 10000 5.1 280 09:21 23.10.2019
5501 Rain 20 1016 77 5000 8.2 270 08:43 23.10.2019
5502 Rain 20 1016 88 10000 4.6 260 08:43 23.10.2019
5503 Rain 20 1016 88 10000 4.6 260 08:25 23.10.2019
5504 Drizzle 19 1016 88 6000 6.7 250 07:47 23.10.2019
5505 Rain 20 1016 60 10000 7.7 310 07:26 23.10.2019
5506 Drizzle 21 1016 88 5000 7.2 250 06:48 23.10.2019
5507 Rain 22 1016 56 10000 7.2 270 06:23 23.10.2019
5508 Rain 23 1017 49 10000 7.2 270 05:55 23.10.2019
5509 Clouds 23 1017 53 10000 6.7 300 05:18 23.10.2019
5510 Clouds 22 1017 60 10000 3.6 260 03:37 23.10.2019
5511 Clouds 20 1017 68 10000 5.1 240 02:42 23.10.2019
5512 Clouds 19 1017 82 10000 1.5 270 01:34 23.10.2019
5513 Clouds 17 1017 100 10000 6.7 280 00:59 23.10.2019
5514 Clouds 16 1017 93 10000 6.7 280 00:32 23.10.2019
5515 Clouds 13 1017 100 10000 2.1 130 23:42 22.10.2019
5516 Clouds 13 1017 100 10000 2.1 130 23:19 22.10.2019
5517 Clouds 14 1017 93 10000 2.1 220 22:58 22.10.2019
5518 Clouds 14 1017 100 5000 1.5 230 22:40 22.10.2019
5519 Clouds 14 1017 100 5000 1.5 230 22:40 22.10.2019
5520 Clouds 15 1017 100 5000 1.5 230 22:21 22.10.2019
5521 Clouds 15 1017 93 10000 2.6 220 21:56 22.10.2019
5522 Clouds 16 1017 87 10000 2.1 240 21:38 22.10.2019
5523 Clouds 15 1017 87 10000 2.1 240 21:18 22.10.2019
5524 Clouds 16 1017 82 10000 2.6 220 20:57 22.10.2019
5525 Clouds 16 1017 87 10000 3.1 230 20:39 22.10.2019
5526 Clouds 16 1017 87 10000 3.1 230 20:20 22.10.2019
5527 Clouds 17 1017 82 10000 3.1 240 19:55 22.10.2019
5528 Clouds 17 1017 88 10000 3.1 230 19:37 22.10.2019
5529 Clouds 16 1017 88 10000 3.1 230 19:19 22.10.2019
5530 Clouds 16 1017 82 10000 3.1 220 18:41 22.10.2019
5531 Clouds 16 1017 82 10000 3.1 220 18:22 22.10.2019
5532 Clouds 17 1018 77 10000 3.6 230 17:58 22.10.2019
5533 Clouds 17 1018 77 10000 3.6 240 17:39 22.10.2019
5534 Clouds 17 1018 77 10000 3.6 240 17:20 22.10.2019
5535 Clouds 18 1018 82 10000 3.6 240 16:57 22.10.2019
5536 Clouds 18 1018 72 10000 4.1 220 16:38 22.10.2019
5537 Clouds 18 1018 72 10000 4.1 220 16:19 22.10.2019
5538 Clouds 18 1018 82 10000 3.6 220 15:56 22.10.2019
5539 Clouds 18 1018 82 10000 4.1 240 15:38 22.10.2019
5540 Clouds 18 1018 82 10000 4.1 240 15:18 22.10.2019
5541 Clouds 18 1018 77 10000 3.6 220 14:43 22.10.2019
5542 Clouds 18 1018 77 10000 3.6 220 14:20 22.10.2019
5543 Clouds 19 1018 72 10000 3.6 220 13:42 22.10.2019
5544 Clouds 19 1017 72 10000 3.6 220 13:22 22.10.2019
5545 Clouds 19 1017 68 10000 3.6 220 12:58 22.10.2019
5546 Clouds 20 1017 68 10000 3.6 220 12:40 22.10.2019
5547 Clouds 20 1017 68 10000 3.6 220 12:21 22.10.2019
5548 Clouds 20 1017 72 10000 7.2 240 11:56 22.10.2019
5549 Clouds 21 1016 56 10000 6.7 230 11:37 22.10.2019
5550 Clouds 21 1016 56 10000 6.7 230 11:19 22.10.2019
5551 Clouds 22 1016 53 10000 6.2 220 10:55 22.10.2019
5552 Clear 22 1016 50 10000 8.2 230 10:36 22.10.2019
5553 Clear 22 1016 44 10000 7.7 240 10:18 22.10.2019
5554 Clear 24 1016 41 10000 6.7 270 09:41 22.10.2019
5555 Clear 24 1016 41 10000 6.7 270 09:22 22.10.2019
5556 Clear 24 1016 41 10000 5.7 260 08:59 22.10.2019
5557 Clouds 24 1016 44 10000 5.7 240 08:41 22.10.2019
5558 Clouds 25 1016 44 10000 5.7 240 08:19 22.10.2019
5559 Clouds 25 1017 47 10000 5.7 260 07:44 22.10.2019
5560 Clouds 25 1017 50 10000 6.2 260 07:26 22.10.2019
5561 Clear 25 1017 50 10000 6.2 270 06:45 22.10.2019
5562 Clear 25 1017 44 10000 5.1 270 06:27 22.10.2019
5563 Clear 25 1017 44 10000 3.1 230 05:48 22.10.2019
5564 Clear 23 1018 44 10000 2.6 280 04:50 22.10.2019
5565 Clear 19 1019 68 10000 2.1 290 02:31 22.10.2019
5566 Clear 17 1019 87 10000 3.1 220 01:39 22.10.2019
5567 Clear 17 1019 87 10000 3.1 220 01:19 22.10.2019
5568 Clear 14 1019 100 10000 1 350 00:42 22.10.2019
5569 Clear 13 1020 100 10000 1.16 86 00:24 22.10.2019
5570 Clear 12 1019 100 10000 1.36 111 23:59 21.10.2019
5571 Clear 12 1019 100 10000 1.36 111 23:59 21.10.2019
5572 Clear 12 1019 100 3600 1.5 190 23:38 21.10.2019
5573 Clear 12 1019 100 3600 1.5 190 23:19 21.10.2019
5574 Clear 12 1019 100 3600 1.5 190 23:19 21.10.2019
5575 Clear 13 1019 100 2900 1.5 170 22:58 21.10.2019
5576 Clear 13 1019 93 10000 1.36 111 22:39 21.10.2019
5577 Clear 13 1019 93 10000 1.36 111 22:20 21.10.2019
5578 Mist 13 1019 100 10000 1.5 0 21:57 21.10.2019
5579 Clear 13 1019 100 10000 2.1 190 21:38 21.10.2019
5580 Clear 13 1019 100 10000 2.1 190 21:19 21.10.2019
5581 Fog 14 1019 87 10000 1.5 0 20:57 21.10.2019
5582 Clouds 14 1019 93 10000 2.6 220 20:38 21.10.2019
5583 Clouds 14 1019 93 10000 2.6 220 20:20 21.10.2019
5584 Fog 14 1019 93 10000 1.5 0 19:55 21.10.2019
5585 Fog 14 1019 93 10000 1.5 0 19:55 21.10.2019
5586 Clear 13 1019 93 10000 3.1 220 19:36 21.10.2019
5587 Clear 13 1019 93 10000 3.1 220 19:18 21.10.2019
5588 Clear 14 1019 93 10000 3.1 210 18:54 21.10.2019
5589 Clear 14 1020 93 10000 3.1 200 18:36 21.10.2019
5590 Clear 14 1020 93 10000 3.1 200 18:36 21.10.2019
5591 Clear 14 1020 93 10000 3.1 200 18:18 21.10.2019
5592 Clear 14 1019 82 10000 3.6 190 17:39 21.10.2019
5593 Clear 15 1019 82 10000 3.6 190 17:19 21.10.2019
5594 Clear 15 1020 87 10000 4.6 190 16:58 21.10.2019
5595 Clear 15 1020 82 10000 5.1 190 16:40 21.10.2019
5596 Clear 16 1020 82 10000 5.1 190 16:21 21.10.2019
5597 Clear 17 1020 77 10000 4.6 210 15:49 21.10.2019
5598 Clear 16 1020 77 10000 4.6 220 15:27 21.10.2019
5599 Clear 17 1020 77 10000 5.1 210 15:00 21.10.2019
5600 Clear 17 1020 77 10000 5.1 210 15:00 21.10.2019
5601 Clear 17 1020 77 10000 5.1 210 14:40 21.10.2019
5602 Clear 17 1020 77 10000 5.1 210 14:21 21.10.2019
5603 Clear 17 1020 77 10000 5.1 210 14:21 21.10.2019
5604 Clear 17 1020 72 10000 4.6 230 13:57 21.10.2019
5605 Clear 18 1020 72 10000 5.1 230 13:39 21.10.2019
5606 Clear 18 1020 72 10000 5.1 230 13:20 21.10.2019
5607 Clear 18 1019 68 10000 5.7 230 12:43 21.10.2019
5608 Clear 19 1019 68 10000 5.7 240 12:23 21.10.2019
5609 Clear 19 1019 56 10000 6.7 240 11:58 21.10.2019
5610 Clear 20 1019 56 10000 5.7 240 11:39 21.10.2019
5611 Clear 20 1019 56 10000 5.7 240 11:21 21.10.2019
5612 Clear 21 1018 53 10000 6.2 250 10:57 21.10.2019
5613 Clear 21 1018 53 10000 6.2 250 10:57 21.10.2019
5614 Clear 21 1018 56 10000 7.7 260 10:38 21.10.2019
5615 Clear 22 1018 56 10000 7.7 260 10:19 21.10.2019
5616 Clear 22 1018 56 10000 7.7 260 10:19 21.10.2019
5617 Clear 22 1018 53 10000 7.7 260 09:51 21.10.2019
5618 Clear 23 1018 56 10000 6.2 270 09:26 21.10.2019
5619 Clear 23 1018 56 10000 6.2 270 09:26 21.10.2019
5620 Clear 23 1018 49 10000 6.2 260 08:59 21.10.2019
5621 Clear 23 1018 53 10000 6.2 270 08:40 21.10.2019
5622 Clear 23 1018 53 10000 6.2 270 08:22 21.10.2019
5623 Clouds 23 1018 49 10000 7.7 260 07:44 21.10.2019
5624 Clear 23 1018 53 10000 5.7 270 07:21 21.10.2019
5625 Clear 23 1018 53 10000 5.7 270 06:57 21.10.2019
5626 Clear 23 1018 49 10000 4.6 270 06:39 21.10.2019
5627 Clear 23 1019 49 10000 3.6 270 05:57 21.10.2019
5628 Clear 23 1019 49 10000 3.6 270 05:57 21.10.2019
5629 Clear 22 1019 53 10000 3.1 200 04:49 21.10.2019
5630 Clouds 21 1020 60 10000 3.6 180 03:38 21.10.2019
5631 Clear 19 1019 68 10000 4.1 170 02:25 21.10.2019
5632 Clouds 18 1019 77 10000 2.6 150 01:59 21.10.2019
5633 Clouds 16 1019 87 10000 2.6 90 01:38 21.10.2019
5634 Clouds 15 1019 93 10000 2.6 90 00:51 21.10.2019
5635 Fog 14 1019 100 9000 2.1 60 00:27 21.10.2019
5636 Fog 12 1019 100 3700 3.81 200.424 23:43 20.10.2019
5637 Clear 12 1018 100 10000 2.1 190 23:22 20.10.2019
5638 Clear 12 1018 93 4500 2.1 190 22:57 20.10.2019
5639 Clear 13 1018 100 10000 3.81 200.424 22:39 20.10.2019
5640 Clear 13 1018 100 10000 3.81 200.424 22:19 20.10.2019
5641 Clear 13 1018 93 10000 2.6 210 21:59 20.10.2019
5642 Clear 14 1017 87 10000 3.1 190 21:39 20.10.2019
5643 Clear 14 1017 87 10000 3.1 190 21:21 20.10.2019
5644 Clouds 15 1017 87 10000 3.1 200 20:42 20.10.2019
5645 Clouds 15 1017 87 10000 3.1 200 20:20 20.10.2019
5646 Clouds 15 1018 82 10000 3.1 210 19:57 20.10.2019
5647 Clouds 15 1018 82 10000 3.1 210 19:57 20.10.2019
5648 Clouds 15 1017 82 10000 3.6 200 19:39 20.10.2019
5649 Clouds 15 1017 82 10000 3.6 200 19:20 20.10.2019
5650 Clouds 16 1018 77 10000 3.6 210 18:56 20.10.2019
5651 Clouds 16 1018 77 10000 3.6 210 18:56 20.10.2019
5652 Clouds 16 1018 77 10000 3.6 250 18:38 20.10.2019
5653 Clouds 17 1018 77 10000 3.6 250 18:20 20.10.2019
5654 Clouds 17 1018 72 10000 4.1 250 17:54 20.10.2019
5655 Clouds 17 1017 72 10000 3.1 210 17:36 20.10.2019
5656 Clouds 17 1017 72 10000 3.1 210 17:18 20.10.2019
5657 Clouds 18 1018 77 10000 2.6 220 16:41 20.10.2019
5658 Clouds 18 1018 77 10000 2.6 220 16:23 20.10.2019
5659 Clouds 18 1018 68 10000 4.6 240 15:58 20.10.2019
5660 Clouds 18 1018 72 10000 3.6 240 15:38 20.10.2019
5661 Clouds 18 1018 72 10000 3.6 240 15:19 20.10.2019
5662 Clouds 18 1018 68 10000 3.6 250 14:57 20.10.2019
5663 Clouds 19 1018 72 10000 3.6 250 14:37 20.10.2019
5664 Clouds 19 1018 72 10000 3.6 250 14:19 20.10.2019
5665 Clouds 19 1018 77 10000 5.1 250 13:55 20.10.2019
5666 Clouds 19 1017 82 10000 4.6 260 13:36 20.10.2019
5667 Clouds 19 1017 82 10000 4.6 260 13:18 20.10.2019
5668 Clouds 19 1017 68 10000 4.1 270 12:55 20.10.2019
5669 Clouds 20 1017 68 10000 4.6 280 12:37 20.10.2019
5670 Clouds 20 1017 68 10000 4.6 280 12:37 20.10.2019
5671 Clouds 20 1017 68 10000 4.6 280 12:19 20.10.2019
5672 Clouds 20 1016 64 10000 4.6 280 11:41 20.10.2019
5673 Clouds 20 1016 64 10000 4.6 280 11:23 20.10.2019
5674 Clouds 20 1016 64 10000 4.6 290 10:59 20.10.2019
5675 Clouds 21 1016 60 10000 6.2 310 10:39 20.10.2019
5676 Clouds 21 1016 60 10000 6.2 310 10:21 20.10.2019
5677 Clouds 22 1016 60 10000 7.2 300 09:56 20.10.2019
5678 Clouds 22 1016 56 10000 7.7 300 09:38 20.10.2019
5679 Clouds 22 1016 56 10000 7.7 300 09:20 20.10.2019
5680 Clouds 23 1015 56 10000 7.2 290 08:44 20.10.2019
5681 Clouds 23 1015 64 10000 7.7 310 08:22 20.10.2019
5682 Clouds 22 1015 60 10000 7.7 310 07:49 20.10.2019
5683 Clouds 22 1015 57 10000 6.7 280 07:29 20.10.2019
5684 Clouds 23 1015 50 10000 7.7 300 06:31 20.10.2019
5685 Clouds 23 1015 60 10000 7.2 320 04:41 20.10.2019
5686 Clouds 22 1015 60 10000 7.2 320 03:53 20.10.2019
5687 Clouds 22 1015 64 10000 7.2 350 03:23 20.10.2019
5688 Clouds 21 1015 68 10000 7.2 320 02:55 20.10.2019
5689 Clouds 20 1015 72 10000 5.1 350 02:26 20.10.2019
5690 Clouds 19 1015 82 10000 5.7 360 01:53 20.10.2019
5691 Clouds 18 1015 82 10000 4.6 10 01:22 20.10.2019
5692 Clouds 17 1014 88 10000 5.1 20 00:53 20.10.2019
5693 Clouds 17 1014 88 10000 4.6 30 00:21 20.10.2019
5694 Clouds 16 1013 93 10000 5.1 10 23:55 19.10.2019
5695 Clouds 16 1013 93 10000 7.2 10 23:36 19.10.2019
5696 Clouds 17 1013 93 10000 7.2 10 23:18 19.10.2019
5697 Clouds 17 1013 87 10000 4.1 30 22:41 19.10.2019
5698 Clouds 17 1013 87 10000 4.1 30 22:22 19.10.2019
5699 Clouds 17 1012 93 10000 5.1 10 21:57 19.10.2019
5700 Clouds 17 1013 88 10000 4.1 30 21:39 19.10.2019
5701 Clouds 17 1013 88 10000 4.1 30 21:20 19.10.2019
5702 Clouds 17 1013 88 10000 4.1 30 20:42 19.10.2019
5703 Clouds 17 1013 88 10000 4.1 30 20:42 19.10.2019
5704 Clouds 17 1012 88 10000 4.1 30 20:21 19.10.2019
5705 Clouds 17 1012 88 10000 4.1 30 19:45 19.10.2019
5706 Clouds 18 1013 77 10000 4.1 30 19:26 19.10.2019
5707 Clear 18 1013 77 10000 5.1 20 18:57 19.10.2019
5708 Clear 18 1013 72 10000 5.7 20 18:39 19.10.2019
5709 Clear 18 1013 72 10000 5.7 20 18:19 19.10.2019
5710 Clear 19 1013 63 10000 5.1 20 17:41 19.10.2019
5711 Clear 19 1013 63 10000 5.1 20 17:21 19.10.2019
5712 Clear 20 1013 64 10000 5.7 10 16:57 19.10.2019
5713 Clear 20 1013 64 10000 5.7 10 16:37 19.10.2019
5714 Clear 20 1013 64 10000 5.7 10 16:19 19.10.2019
5715 Clear 22 1012 27 10000 5.1 20 15:41 19.10.2019
5716 Clear 23 1012 27 10000 5.1 20 15:23 19.10.2019
5717 Clear 25 1012 26 10000 4.6 60 14:39 19.10.2019
5718 Clear 26 1012 26 10000 4.6 60 14:20 19.10.2019
5719 Clear 26 1011 24 10000 3.6 50 13:58 19.10.2019
5720 Clear 26 1011 27 10000 3.1 150 13:40 19.10.2019
5721 Clear 27 1011 27 10000 3.1 150 13:19 19.10.2019
5722 Clear 27 1010 28 10000 4.1 150 12:57 19.10.2019
5723 Clear 26 1010 23 10000 4.6 150 12:37 19.10.2019
5724 Clear 29 1010 23 10000 4.6 150 12:18 19.10.2019
5725 Clear 30 1011 19 10000 5.7 110 11:41 19.10.2019
5726 Clear 30 1011 19 10000 5.7 110 11:23 19.10.2019
5727 Clear 31 1011 19 10000 5.7 100 10:56 19.10.2019
5728 Clear 32 1011 18 10000 6.7 80 10:38 19.10.2019
5729 Clear 32 1012 18 10000 6.7 70 10:19 19.10.2019
5730 Clear 32 1012 18 10000 6.7 90 09:42 19.10.2019
5731 Clear 32 1012 18 10000 6.7 90 09:24 19.10.2019
5732 Clear 31 1013 20 10000 8.2 60 08:59 19.10.2019
5733 Clear 31 1013 22 10000 7.7 60 08:39 19.10.2019
5734 Clear 31 1013 25 10000 5.1 100 08:21 19.10.2019
5735 Clear 30 1014 25 10000 6.7 110 07:44 19.10.2019
5736 Clear 30 1014 25 10000 6.7 110 07:24 19.10.2019
5737 Clear 30 1014 25 10000 6.7 110 07:24 19.10.2019
5738 Clear 30 1014 25 10000 6.7 110 07:24 19.10.2019
5739 Clear 28 1014 30 10000 7.7 110 06:46 19.10.2019
5740 Clear 26 1015 31 10000 6.7 110 05:57 19.10.2019
5741 Clear 25 1016 36 10000 7.7 100 05:28 19.10.2019
5742 Clear 22 1017 45 10000 8.7 80 03:59 19.10.2019
5743 Clear 18 1018 55 10000 9.3 90 02:40 19.10.2019
5744 Clear 16 1018 58 10000 7.7 80 01:51 19.10.2019
5745 Clear 15 1018 58 10000 7.7 80 01:19 19.10.2019
5746 Clear 14 1018 62 10000 8.2 80 00:45 19.10.2019
5747 Clear 13 1018 66 10000 7.7 80 00:23 19.10.2019
5748 Clear 13 1018 66 10000 10.3 90 23:42 18.10.2019
5749 Clear 13 1018 66 10000 10.3 90 23:42 18.10.2019
5750 Clear 13 1018 66 10000 8.2 90 23:23 18.10.2019
5751 Clear 13 1017 62 10000 10.3 90 22:55 18.10.2019
5752 Clear 13 1018 62 10000 10.3 90 22:37 18.10.2019
5753 Clear 13 1018 62 10000 10.3 90 22:19 18.10.2019
5754 Clear 13 1018 62 10000 10.3 90 21:56 18.10.2019
5755 Clear 13 1018 62 10000 10.3 90 21:56 18.10.2019
5756 Clear 13 1017 62 10000 5.7 110 21:38 18.10.2019
5757 Clear 13 1017 62 10000 5.7 110 21:19 18.10.2019
5758 Clear 14 1018 66 10000 7.7 100 20:43 18.10.2019
5759 Clear 14 1018 62 10000 8.2 100 20:24 18.10.2019
5760 Clear 15 1017 54 10000 11.8 90 19:59 18.10.2019
5761 Clear 15 1017 54 10000 11.3 90 19:41 18.10.2019
5762 Clear 15 1017 54 10000 11.3 90 19:41 18.10.2019
5763 Clear 16 1017 54 10000 11.3 90 19:22 18.10.2019
5764 Clear 16 1018 51 10000 7.7 110 18:59 18.10.2019
5765 Clear 16 1017 45 10000 9.8 110 18:41 18.10.2019
5766 Clear 16 1017 45 10000 9.8 110 18:23 18.10.2019
5767 Clear 17 1017 42 10000 7.7 110 17:57 18.10.2019
5768 Clear 18 1018 36 10000 6.7 160 17:37 18.10.2019
5769 Clear 18 1018 36 10000 6.7 160 17:19 18.10.2019
5770 Clear 18 1018 36 10000 7.7 90 16:44 18.10.2019
5771 Clear 18 1018 36 10000 7.7 90 16:43 18.10.2019
5772 Clear 18 1018 41 10000 5.7 160 16:22 18.10.2019
5773 Clear 18 1018 39 10000 10.3 90 15:58 18.10.2019
5774 Clear 18 1019 39 10000 10.3 90 15:39 18.10.2019
5775 Clear 18 1019 39 10000 10.3 90 15:20 18.10.2019
5776 Clear 18 1019 36 10000 10.3 90 14:57 18.10.2019
5777 Clear 19 1019 32 10000 4.6 150 14:38 18.10.2019
5778 Clear 19 1019 32 10000 4.6 150 14:19 18.10.2019
5779 Clear 19 1018 32 10000 4.6 150 13:57 18.10.2019
5780 Clear 20 1018 30 10000 4.6 160 13:38 18.10.2019
5781 Clear 20 1018 30 10000 4.6 160 13:19 18.10.2019
5782 Clear 21 1018 28 10000 6.7 140 12:55 18.10.2019
5783 Clear 21 1018 28 10000 6.7 150 12:37 18.10.2019
5784 Clear 22 1018 28 10000 6.7 150 12:19 18.10.2019
5785 Clear 23 1017 27 10000 5.7 140 11:42 18.10.2019
5786 Clear 23 1017 27 10000 5.7 140 11:21 18.10.2019
5787 -273 0 0 0 0 0 10:59 18.10.2019
5788 Clear 23 1017 27 10000 5.1 120 10:59 18.10.2019
5789 -273 0 0 0 0 0 10:59 18.10.2019
5790 Clear 23 1017 25 10000 4.6 110 10:41 18.10.2019
5791 Clear 24 1017 25 10000 4.6 110 10:22 18.10.2019
5792 Clear 24 1017 27 10000 5.7 150 09:58 18.10.2019
5793 Clear 25 1017 29 10000 5.7 160 09:39 18.10.2019
5794 Clear 25 1017 29 10000 5.7 160 09:19 18.10.2019
5795 Clear 25 1017 29 10000 5.1 140 08:45 18.10.2019
5796 Clear 25 1018 29 10000 4.6 90 08:25 18.10.2019
5797 Clear 25 1018 31 10000 4.6 80 07:57 18.10.2019
5798 Clear 25 1019 33 10000 4.1 140 07:38 18.10.2019
5799 Clear 24 1019 35 10000 5.1 90 06:56 18.10.2019
5800 Clear 24 1019 38 10000 5.7 120 06:36 18.10.2019
5801 Clear 23 1019 38 10000 5.7 120 06:18 18.10.2019
5802 Clear 23 1020 40 10000 4.1 110 05:52 18.10.2019
5803 Clear 21 1020 43 10000 5.1 130 05:19 18.10.2019
5804 Clear 18 1021 52 10000 6.7 90 03:38 18.10.2019
5805 Clear 16 1021 59 10000 7.2 100 02:54 18.10.2019
5806 Clouds 16 1021 59 10000 4.1 100 02:32 18.10.2019
5807 Clouds 14 1021 67 10000 4.6 120 01:40 18.10.2019
5808 Clouds 14 1021 67 10000 4.6 120 01:21 18.10.2019
5809 Clouds 13 1021 71 10000 4.6 130 00:43 18.10.2019
5810 Clouds 12 1021 76 10000 4.6 120 00:19 18.10.2019
5811 Clouds 11 1020 87 10000 3.6 130 23:40 17.10.2019
5812 Clouds 11 1020 87 10000 3.6 130 23:20 17.10.2019
5813 Clouds 11 1020 81 10000 3.1 170 22:57 17.10.2019
5814 Clear 11 1020 81 10000 4.1 180 22:39 17.10.2019
5815 Clear 11 1020 81 10000 4.1 180 22:19 17.10.2019
5816 Clear 11 1020 87 10000 4.1 150 21:57 17.10.2019
5817 Clear 11 1020 87 10000 4.1 150 21:39 17.10.2019
5818 Clear 11 1020 87 10000 4.1 150 21:20 17.10.2019
5819 Clear 12 1019 87 10000 4.1 150 20:57 17.10.2019
5820 Clear 12 1019 93 10000 4.1 160 20:39 17.10.2019
5821 Clear 12 1019 93 10000 4.1 160 20:39 17.10.2019
5822 Clear 12 1019 93 10000 4.1 160 20:19 17.10.2019
5823 Clear 12 1019 87 10000 4.1 160 19:57 17.10.2019
5824 Clear 12 1019 87 10000 4.1 160 19:38 17.10.2019
5825 Clear 13 1019 87 10000 4.1 160 19:19 17.10.2019
5826 Clear 13 1020 82 10000 6.7 200 18:43 17.10.2019
5827 Clear 14 1020 82 10000 6.7 200 18:21 17.10.2019
5828 Clear 14 1020 82 10000 5.7 200 17:58 17.10.2019
5829 Clouds 14 1020 82 10000 5.1 210 17:40 17.10.2019
5830 Clouds 14 1020 82 10000 5.1 210 17:22 17.10.2019
5831 Clouds 14 1020 77 10000 4.6 200 16:55 17.10.2019
5832 Clouds 15 1020 77 10000 5.7 190 16:37 17.10.2019
5833 Clouds 15 1020 77 10000 5.7 190 16:18 17.10.2019
5834 Clouds 15 1020 77 10000 6.7 190 15:41 17.10.2019
5835 Clouds 15 1020 77 10000 6.7 190 15:21 17.10.2019
5836 Clouds 15 1020 72 10000 7.2 200 14:59 17.10.2019
5837 Clouds 15 1020 72 10000 7.2 200 14:59 17.10.2019
5838 Clouds 16 1020 72 10000 6.2 210 14:41 17.10.2019
5839 Clouds 16 1020 72 10000 6.2 210 14:23 17.10.2019
5840 Clouds 16 1020 63 10000 6.2 210 13:42 17.10.2019
5841 Clouds 16 1020 63 10000 6.2 210 13:21 17.10.2019
5842 Clouds 17 1019 63 10000 7.2 210 12:59 17.10.2019
5843 Clouds 17 1019 52 10000 7.7 210 12:40 17.10.2019
5844 Clouds 18 1019 52 10000 7.7 210 12:20 17.10.2019
5845 Clouds 18 1019 52 10000 7.2 220 11:57 17.10.2019
5846 Clouds 19 1019 49 10000 7.7 230 11:39 17.10.2019
5847 Clouds 19 1019 49 10000 7.7 230 11:18 17.10.2019
5848 Clouds 20 1019 46 10000 8.7 230 10:42 17.10.2019
5849 Clouds 20 1019 46 10000 8.7 230 10:20 17.10.2019
5850 Clouds 20 1018 43 10000 8.7 240 09:58 17.10.2019
5851 Clouds 21 1018 43 10000 8.7 240 09:39 17.10.2019
5852 Clouds 21 1018 43 10000 8.7 240 09:21 17.10.2019
5853 Clouds 21 1019 40 10000 8.2 230 08:58 17.10.2019
5854 Clouds 22 1019 38 10000 6.2 210 08:38 17.10.2019
5855 Clouds 22 1019 38 10000 6.2 210 08:19 17.10.2019
5856 Clouds 22 1019 38 10000 5.1 230 07:50 17.10.2019
5857 Clouds 22 1019 35 10000 6.2 200 07:21 17.10.2019
5858 Clouds 22 1019 35 10000 6.2 200 07:21 17.10.2019
5859 Clouds 22 1020 35 10000 3.6 220 06:59 17.10.2019
5860 Clouds 21 1020 33 10000 3.6 220 06:39 17.10.2019
5861 Clouds 21 1020 33 10000 3.6 220 06:39 17.10.2019
5862 Clouds 22 1020 33 10000 3.6 220 06:19 17.10.2019
5863 Clouds 21 1021 42 10000 2.6 190 05:41 17.10.2019
5864 Clouds 21 1021 42 10000 2.6 190 05:21 17.10.2019
5865 Clouds 21 1022 45 10000 2.6 250 04:50 17.10.2019
5866 Clouds 19 1022 52 10000 2.6 230 03:50 17.10.2019
5867 Clouds 15 1022 62 10000 3.6 190 02:35 17.10.2019
5868 Clouds 12 1022 81 10000 4.1 210 00:44 17.10.2019
5869 Clear 10 1022 87 10000 4.1 220 00:22 17.10.2019
5870 Clear 10 1022 87 10000 3.1 190 23:59 16.10.2019
5871 Clear 9 1021 93 10000 3.1 210 23:41 16.10.2019
5872 Clear 9 1021 93 10000 3.1 210 23:19 16.10.2019
5873 Clear 9 1021 93 10000 3.1 210 23:19 16.10.2019
5874 Clear 10 1021 87 10000 2.6 200 22:54 16.10.2019
5875 Clear 10 1021 87 10000 3.1 200 22:36 16.10.2019
5876 Clear 10 1021 87 10000 3.1 200 22:18 16.10.2019
5877 Clear 10 1021 93 10000 3.6 220 21:55 16.10.2019
5878 Clear 10 1021 93 10000 3.6 220 21:54 16.10.2019
5879 Clear 10 1021 93 10000 3.6 220 21:54 16.10.2019
5880 Clear 10 1021 93 10000 3.6 220 21:54 16.10.2019
5881 Clear 10 1021 87 10000 3.6 190 21:36 16.10.2019
5882 Clear 10 1021 87 10000 3.6 190 21:18 16.10.2019
5883 Clear 11 1021 87 10000 3.6 190 20:54 16.10.2019
5884 Clear 11 1022 87 10000 3.1 190 20:36 16.10.2019
5885 Clear 11 1022 87 10000 3.1 190 20:36 16.10.2019
5886 Clear 11 1022 87 10000 3.1 190 20:18 16.10.2019
5887 Clear 11 1022 81 10000 3.6 190 19:40 16.10.2019
5888 Clear 11 1022 81 10000 3.6 190 19:21 16.10.2019
5889 Clear 11 1022 81 10000 3.6 190 19:21 16.10.2019
5890 Clear 12 1022 87 10000 4.6 190 18:58 16.10.2019
5891 Clear 12 1022 87 10000 3.1 220 18:37 16.10.2019
5892 Clear 12 1022 87 10000 3.1 220 18:18 16.10.2019
5893 Clear 12 1022 76 10000 3.6 210 17:55 16.10.2019
5894 Clear 13 1023 71 10000 3.6 210 17:36 16.10.2019
5895 Clear 13 1023 71 10000 3.6 210 17:18 16.10.2019
5896 Clear 13 1023 71 10000 3.6 200 16:43 16.10.2019
5897 Clear 14 1023 67 10000 4.6 200 16:23 16.10.2019
5898 Clear 14 1023 67 10000 5.7 190 15:59 16.10.2019
5899 Clear 15 1023 62 10000 6.2 210 15:39 16.10.2019
5900 Clear 14 1023 62 10000 6.2 210 15:19 16.10.2019
5901 Clear 15 1023 62 10000 6.2 210 14:58 16.10.2019
5902 Clear 15 1023 62 10000 6.2 210 14:39 16.10.2019
5903 Clear 15 1023 59 10000 5.7 210 14:20 16.10.2019
5904 Clear 15 1023 55 10000 5.7 210 13:57 16.10.2019
5905 Clear 16 1023 55 10000 5.7 210 13:39 16.10.2019
5906 Clear 16 1023 55 10000 6.7 210 13:21 16.10.2019
5907 Clear 16 1023 51 10000 7.7 210 12:42 16.10.2019
5908 Clear 17 1022 45 10000 7.7 210 12:20 16.10.2019
5909 Clear 17 1022 42 10000 7.7 230 11:45 16.10.2019
5910 Clear 18 1022 37 10000 8.7 230 11:19 16.10.2019
5911 Clear 19 1022 39 10000 8.2 230 10:56 16.10.2019
5912 Clear 19 1022 39 10000 8.2 230 10:36 16.10.2019
5913 Clear 19 1022 37 10000 8.2 230 10:18 16.10.2019
5914 Clear 21 1022 35 10000 8.2 240 09:40 16.10.2019
5915 Clear 21 1022 35 10000 8.2 240 09:40 16.10.2019
5916 Clear 21 1022 35 10000 7.7 250 09:21 16.10.2019
5917 Clear 21 1022 42 10000 6.2 270 08:46 16.10.2019
5918 Clear 21 1023 28 10000 5.1 230 08:26 16.10.2019
5919 Clear 21 1023 32 10000 4.6 220 07:59 16.10.2019
5920 Clear 21 1023 32 10000 4.6 220 07:41 16.10.2019
5921 Clear 21 1023 30 10000 5.1 200 07:22 16.10.2019
5922 Clear 21 1023 28 10000 2.1 220 06:46 16.10.2019
5923 Clear 20 1024 32 10000 5.1 230 06:27 16.10.2019
5924 Clouds 19 1025 42 10000 4.6 180 04:24 16.10.2019
5925 Clouds 16 1025 58 10000 4.1 150 02:50 16.10.2019
5926 Clear 12 1025 81 10000 1.5 300 01:20 16.10.2019
5927 Clear 10 1025 100 10000 3.1 210 00:58 16.10.2019
5928 Clear 10 1025 100 10000 3.1 210 00:58 16.10.2019
5929 Clear 9 1025 100 10000 3.1 210 00:39 16.10.2019
5930 Clear 8 1024 93 10000 2.133 132 23:42 15.10.2019
5931 Clear 8 1024 93 10000 2.133 132 23:23 15.10.2019
5932 Clear 8 1024 93 10000 2.133 132 22:59 15.10.2019
5933 Clear 8 1024 100 10000 2.133 132 22:40 15.10.2019
5934 Clear 8 1024 93 10000 1 30 22:21 15.10.2019
5935 Clear 8 1024 93 10000 2.133 132 21:57 15.10.2019
5936 Clear 9 1024 93 10000 2.178 128 21:39 15.10.2019
5937 Clear 9 1024 100 10000 2.545 154 21:20 15.10.2019
5938 Clear 9 1024 100 10000 2.545 154 21:20 15.10.2019
5939 Clear 9 1024 93 10000 2.6 170 20:58 15.10.2019
5940 Clear 9 1024 93 10000 2.6 170 20:40 15.10.2019
5941 Clear 10 1024 93 10000 2.6 190 20:21 15.10.2019
5942 Clear 10 1024 87 10000 2.6 190 19:59 15.10.2019
5943 Clear 11 1024 87 10000 2.6 190 19:41 15.10.2019
5944 Clear 11 1024 87 10000 3.1 170 19:20 15.10.2019
5945 Clear 11 1024 81 10000 4.1 150 18:55 15.10.2019
5946 Clear 11 1024 81 10000 4.1 150 18:36 15.10.2019
5947 Clear 12 1024 81 10000 4.1 150 18:18 15.10.2019
5948 Clear 12 1024 71 10000 4.1 150 17:41 15.10.2019
5949 Clear 12 1024 71 10000 4.6 200 17:21 15.10.2019
5950 Clear 12 1024 71 10000 4.6 190 16:59 15.10.2019
5951 Clear 12 1024 71 10000 4.6 190 16:59 15.10.2019
5952 -273 0 0 0 0 0 16:40 15.10.2019
5953 Clear 13 1024 71 10000 5.1 190 16:21 15.10.2019
5954 Clear 13 1024 71 10000 5.7 190 15:55 15.10.2019
5955 Clear 14 1024 71 10000 5.7 190 15:37 15.10.2019
5956 Clouds 13 1024 67 10000 5.7 190 15:19 15.10.2019
5957 Clouds 14 1024 67 10000 6.7 190 14:38 15.10.2019
5958 Clouds 14 1024 58 10000 6.2 200 14:20 15.10.2019
5959 Clouds 15 1023 58 10000 6.2 210 13:59 15.10.2019
5960 Clouds 15 1023 58 10000 6.2 210 13:40 15.10.2019
5961 Clouds 15 1023 58 10000 7.7 210 13:20 15.10.2019
5962 Clouds 15 1023 51 10000 6.7 210 12:44 15.10.2019
5963 Clouds 16 1022 51 10000 7.7 220 12:22 15.10.2019
5964 Clouds 17 1022 48 10000 8.7 230 11:58 15.10.2019
5965 Clouds 17 1022 48 10000 8.7 230 11:40 15.10.2019
5966 Clouds 17 1022 42 10000 8.7 220 11:19 15.10.2019
5967 Clouds 18 1022 45 10000 8.2 240 10:46 15.10.2019
5968 Clouds 18 1022 42 10000 8.7 230 10:23 15.10.2019
5969 Clouds 18 1022 39 10000 8.2 220 09:59 15.10.2019
5970 Clear 18 1022 45 10000 8.7 230 09:40 15.10.2019
5971 Clear 19 1022 45 10000 8.7 230 09:21 15.10.2019
5972 Clear 19 1022 42 10000 7.2 220 08:57 15.10.2019
5973 -273 0 0 0 0 0 08:57 15.10.2019
5974 Clear 19 1022 34 10000 6.7 220 08:37 15.10.2019
5975 Clear 19 1022 34 10000 6.7 220 08:18 15.10.2019
5976 Clear 19 1022 34 10000 6.7 210 07:42 15.10.2019
5977 Clouds 20 1023 34 10000 6.2 240 07:21 15.10.2019
5978 Clouds 19 1023 32 10000 7.2 200 06:54 15.10.2019
5979 Clouds 19 1023 34 10000 6.7 180 06:36 15.10.2019
5980 Clouds 18 1023 36 10000 7.7 170 05:54 15.10.2019
5981 Clear 18 1024 36 10000 6.7 190 05:35 15.10.2019
5982 Clear 18 1024 41 10000 6.7 170 04:39 15.10.2019
5983 Clouds 17 1024 44 10000 7.2 180 03:57 15.10.2019
5984 Clouds 16 1024 44 10000 7.2 180 03:27 15.10.2019
5985 Clear 13 1024 62 10000 4.1 190 01:51 15.10.2019
5986 Clear 12 1024 76 10000 3.6 180 01:23 15.10.2019
5987 Clear 10 1023 93 10000 3.6 180 00:52 15.10.2019
5988 Clear 9 1023 100 10000 2.6 200 00:22 15.10.2019
5989 Clear 8 1023 93 10000 2.6 200 23:46 14.10.2019
5990 Clear 8 1022 87 10000 2.6 210 23:21 14.10.2019
5991 Clear 8 1022 87 10000 2.6 210 22:59 14.10.2019
5992 Clear 9 1022 87 10000 2.6 230 22:39 14.10.2019
5993 Clear 9 1022 87 10000 2.6 230 22:19 14.10.2019
5994 Clear 9 1022 87 10000 2.6 230 22:19 14.10.2019
5995 Clear 9 1022 87 10000 2.6 230 22:19 14.10.2019
5996 Clear 9 1022 87 10000 2.1 210 21:56 14.10.2019
5997 Clear 9 1022 87 10000 2.1 210 21:56 14.10.2019
5998 Clear 10 1022 81 10000 4.1 160 21:37 14.10.2019
5999 Clear 10 1022 81 10000 4.1 160 21:19 14.10.2019
6000 Clear 10 1022 81 10000 4.1 160 20:55 14.10.2019
6001 Clear 10 1022 81 10000 4.1 160 20:55 14.10.2019
6002 Clear 10 1022 81 10000 4.1 160 20:36 14.10.2019
6003 Clear 11 1022 81 10000 4.1 160 20:18 14.10.2019
6004 Clear 11 1022 81 10000 4.1 160 20:18 14.10.2019
6005 Clear 11 1022 81 10000 4.1 160 19:42 14.10.2019
6006 Clear 11 1022 81 10000 4.1 160 19:23 14.10.2019
6007 Clear 11 1022 76 10000 4.6 190 18:59 14.10.2019
6008 Clear 11 1022 76 10000 6.7 200 18:39 14.10.2019
6009 Clear 11 1022 76 10000 6.7 200 18:39 14.10.2019
6010 Clear 12 1022 76 10000 6.7 200 18:19 14.10.2019
6011 Clear 12 1022 76 10000 6.7 200 18:19 14.10.2019
6012 Clear 12 1022 71 10000 7.2 190 17:57 14.10.2019
6013 Clear 12 1021 71 10000 4.1 160 17:38 14.10.2019
6014 Clear 12 1021 71 10000 4.1 160 17:20 14.10.2019
6015 Clear 13 1021 66 10000 4.1 160 16:44 14.10.2019
6016 Clear 13 1021 71 10000 4.1 160 16:21 14.10.2019
6017 Clear 14 1021 62 10000 4.1 160 15:43 14.10.2019
6018 Clear 14 1021 62 10000 4.1 160 15:24 14.10.2019
6019 Clear 14 1021 58 10000 4.1 160 14:58 14.10.2019
6020 Clear 15 1021 58 10000 6.2 210 14:39 14.10.2019
6021 Clear 15 1021 58 10000 6.2 210 14:20 14.10.2019
6022 Clouds 15 1020 58 10000 6.7 210 13:44 14.10.2019
6023 Clouds 15 1020 58 10000 6.7 220 13:21 14.10.2019
6024 Clouds 15 1020 55 10000 7.7 220 12:55 14.10.2019
6025 Clouds 16 1020 59 10000 7.2 210 12:37 14.10.2019
6026 Clouds 16 1020 59 10000 7.2 210 12:18 14.10.2019
6027 Clear 17 1019 42 10000 8.2 210 11:44 14.10.2019
6028 Clear 17 1019 42 10000 8.2 210 11:26 14.10.2019
6029 Clear 18 1019 39 10000 8.2 230 10:57 14.10.2019
6030 Clear 19 1018 42 10000 8.7 230 10:38 14.10.2019
6031 Clear 18 1018 42 10000 8.7 230 10:19 14.10.2019
6032 Clear 19 1018 45 10000 7.7 220 09:42 14.10.2019
6033 Clear 19 1018 45 10000 7.7 220 09:21 14.10.2019
6034 Clear 20 1018 42 10000 7.7 210 08:51 14.10.2019
6035 Clear 20 1018 42 10000 7.2 210 08:23 14.10.2019
6036 Clear 20 1018 42 10000 7.2 210 07:47 14.10.2019
6037 Clear 20 1018 42 10000 7.2 210 07:26 14.10.2019
6038 Clear 20 1019 42 10000 5.1 220 06:59 14.10.2019
6039 Clear 20 1019 45 10000 4.6 220 06:28 14.10.2019
6040 Clouds 20 1019 48 10000 4.6 190 05:57 14.10.2019
6041 Clouds 20 1019 52 10000 5.1 200 05:27 14.10.2019
6042 Rain 19 1019 59 10000 3.6 160 03:51 14.10.2019
6043 Rain 18 1019 59 10000 3.6 180 03:26 14.10.2019
6044 Clouds 17 1019 82 10000 3.6 180 02:32 14.10.2019
6045 Clouds 15 1018 87 10000 4.6 190 01:21 14.10.2019
6046 Clouds 14 1017 93 10000 2.6 190 00:42 14.10.2019
6047 Clouds 14 1017 93 10000 2.6 190 00:18 14.10.2019
6048 Clouds 14 1017 93 10000 3.1 210 23:41 13.10.2019
6049 Clouds 14 1017 93 10000 3.1 210 23:20 13.10.2019
6050 Clouds 14 1016 100 10000 3.1 210 22:57 13.10.2019
6051 Clouds 14 1016 93 10000 3.1 200 22:39 13.10.2019
6052 Clouds 14 1016 93 10000 3.1 200 22:39 13.10.2019
6053 Rain 14 1016 93 10000 3.1 200 22:20 13.10.2019
6054 Rain 14 1016 93 10000 2.6 190 21:57 13.10.2019
6055 Rain 14 1016 93 10000 3.1 210 21:36 13.10.2019
6056 Clouds 14 1016 93 10000 3.1 210 21:18 13.10.2019
6057 Rain 14 1016 93 10000 2.6 210 20:56 13.10.2019
6058 Drizzle 14 1016 93 10000 7.88 179.637 20:37 13.10.2019
6059 Drizzle 14 1016 93 10000 7.88 179.637 20:37 13.10.2019
6060 Drizzle 14 1016 93 10000 7.88 179.637 20:19 13.10.2019
6061 Rain 14 1016 100 10000 2.1 210 19:55 13.10.2019
6062 Rain 14 1016 93 10000 2.6 0 19:36 13.10.2019
6063 Rain 15 1016 93 10000 2.6 0 19:18 13.10.2019
6064 Drizzle 15 1017 93 9000 3.6 180 18:41 13.10.2019
6065 Rain 15 1017 93 9000 3.6 180 18:21 13.10.2019
6066 Rain 15 1017 87 8000 2.6 300 17:59 13.10.2019
6067 Rain 16 1017 100 6000 2.6 170 17:41 13.10.2019
6068 Rain 16 1017 100 6000 2.6 170 17:41 13.10.2019
6069 Rain 16 1017 100 6000 2.6 170 17:41 13.10.2019
6070 Rain 16 1017 100 6000 2.6 170 17:23 13.10.2019
6071 Rain 16 1017 77 10000 2.6 0 16:44 13.10.2019
6072 Rain 16 1017 77 10000 2.6 0 16:20 13.10.2019
6073 Rain 16 1017 72 10000 2.6 0 15:58 13.10.2019
6074 Rain 16 1018 82 10000 2.6 280 15:39 13.10.2019
6075 Rain 16 1018 82 10000 2.6 280 15:20 13.10.2019
6076 Rain 16 1018 77 10000 2.6 0 14:58 13.10.2019
6077 Rain 17 1017 67 10000 4.6 270 14:39 13.10.2019
6078 Rain 17 1017 67 10000 4.6 270 14:20 13.10.2019
6079 Rain 17 1017 63 10000 5.1 210 13:56 13.10.2019
6080 Drizzle 17 1017 63 10000 5.1 210 13:37 13.10.2019
6081 Drizzle 17 1017 63 10000 5.1 210 13:18 13.10.2019
6082 Clouds 18 1017 55 10000 5.1 210 12:55 13.10.2019
6083 Clouds 18 1017 55 10000 5.1 210 12:55 13.10.2019
6084 Clouds 18 1017 55 10000 5.1 210 12:55 13.10.2019
6085 Clouds 18 1017 59 10000 5.1 210 12:36 13.10.2019
6086 Clouds 18 1017 59 10000 5.1 210 12:36 13.10.2019
6087 Clouds 18 1017 59 10000 5.1 210 12:18 13.10.2019
6088 Clouds 18 1016 59 10000 5.1 210 11:54 13.10.2019
6089 Clouds 19 1016 52 10000 5.1 250 11:36 13.10.2019
6090 Clouds 19 1016 52 10000 5.1 250 11:18 13.10.2019
6091 Clouds 20 1016 45 10000 5.7 260 10:41 13.10.2019
6092 Clouds 20 1016 45 10000 5.7 260 10:22 13.10.2019
6093 Clouds 20 1016 45 10000 5.7 260 10:22 13.10.2019
6094 Clouds 20 1016 45 10000 5.7 260 10:22 13.10.2019
6095 Clouds 20 1016 43 10000 3.6 210 09:40 13.10.2019
6096 Clouds 21 1016 43 10000 3.6 210 09:21 13.10.2019
6097 Clouds 21 1016 43 10000 3.6 210 09:21 13.10.2019
6098 Clouds 21 1016 46 10000 4.1 300 08:57 13.10.2019
6099 Clouds 21 1017 43 10000 5.7 250 08:37 13.10.2019
6100 Clouds 21 1017 43 10000 5.7 250 08:18 13.10.2019
6101 Clouds 21 1017 45 10000 5.7 290 07:45 13.10.2019
6102 Clouds 21 1017 45 10000 5.1 260 06:55 13.10.2019
6103 Clouds 20 1018 48 10000 5.1 270 06:26 13.10.2019
6104 Clouds 20 1018 49 10000 4.1 270 05:29 13.10.2019
6105 Clouds 20 1019 55 10000 3.6 240 04:38 13.10.2019
6106 Clouds 18 1019 59 10000 2.1 340 03:37 13.10.2019
6107 Clouds 16 1018 67 10000 3.1 60 02:32 13.10.2019
6108 Clouds 14 1018 67 10000 3.1 10 01:51 13.10.2019
6109 Clouds 13 1018 76 10000 3.1 30 01:21 13.10.2019
6110 Clouds 10 1018 87 10000 2.6 30 00:43 13.10.2019
6111 Clouds 10 1018 87 10000 2.6 30 00:20 13.10.2019
6112 Clouds 10 1018 93 10000 2.6 20 23:54 12.10.2019
6113 Clouds 10 1018 93 10000 2.6 20 23:54 12.10.2019
6114 Clouds 10 1017 93 10000 3.1 20 23:36 12.10.2019
6115 Clouds 10 1017 93 10000 3.1 20 23:36 12.10.2019
6116 Clouds 10 1017 93 10000 3.1 20 23:18 12.10.2019
6117 Clouds 10 1017 93 10000 2.6 10 22:54 12.10.2019
6118 Clouds 10 1017 100 10000 2.1 10 22:36 12.10.2019
6119 Clouds 10 1017 100 10000 2.1 10 22:18 12.10.2019
6120 Clouds 10 1017 100 10000 2.6 20 21:41 12.10.2019
6121 Clouds 10 1017 100 10000 2.6 20 21:23 12.10.2019
6122 Clouds 10 1017 100 10000 2.1 360 20:56 12.10.2019
6123 Clouds 10 1017 93 10000 2.1 30 20:37 12.10.2019
6124 Clouds 9 1017 93 10000 2.1 30 20:19 12.10.2019
6125 Clouds 9 1018 93 10000 2.1 60 19:36 12.10.2019
6126 Clouds 9 1018 93 10000 2.1 60 19:18 12.10.2019
6127 Clouds 10 1018 93 10000 2.6 180 18:44 12.10.2019
6128 Clouds 11 1018 93 10000 2.6 180 18:26 12.10.2019
6129 Clouds 11 1019 87 10000 3.1 190 17:56 12.10.2019
6130 Clouds 11 1019 87 10000 3.1 190 17:56 12.10.2019
6131 Clouds 11 1019 71 10000 3.1 200 17:37 12.10.2019
6132 Clouds 11 1019 71 10000 3.1 200 17:18 12.10.2019
6133 Clear 12 1019 71 10000 3.1 210 16:40 12.10.2019
6134 Clear 12 1019 71 10000 3.1 210 16:40 12.10.2019
6135 Clear 12 1019 71 10000 3.1 210 16:21 12.10.2019
6136 Clear 13 1019 62 10000 4.1 180 15:57 12.10.2019
6137 Clear 13 1019 62 10000 4.1 180 15:57 12.10.2019
6138 Clear 14 1019 67 10000 5.1 200 15:38 12.10.2019
6139 Clear 14 1019 67 10000 5.1 200 15:18 12.10.2019
6140 Clear 15 1019 58 10000 5.7 210 14:40 12.10.2019
6141 Clear 15 1019 58 10000 5.7 210 14:20 12.10.2019
6142 Clear 15 1018 55 10000 6.7 210 13:51 12.10.2019
6143 Clouds 16 1018 51 10000 6.2 210 13:32 12.10.2019
6144 Clouds 16 1017 51 10000 6.7 210 12:56 12.10.2019
6145 Clear 16 1017 48 10000 6.7 230 12:38 12.10.2019
6146 Clear 16 1017 48 10000 6.7 230 12:38 12.10.2019
6147 Clear 17 1017 48 10000 6.7 230 12:20 12.10.2019
6148 Clear 17 1017 48 10000 6.7 230 12:20 12.10.2019
6149 Clear 18 1017 42 10000 7.7 240 11:45 12.10.2019
6150 Clear 18 1017 42 10000 7.7 240 11:24 12.10.2019
6151 Clear 19 1016 40 10000 7.2 230 10:58 12.10.2019
6152 Clear 19 1016 40 10000 7.7 240 10:39 12.10.2019
6153 Clear 19 1016 40 10000 7.7 240 10:20 12.10.2019
6154 Clear 19 1016 40 10000 7.7 240 10:20 12.10.2019
6155 Clear 20 1016 42 10000 7.2 230 09:57 12.10.2019
6156 Clear 20 1016 42 10000 7.2 230 09:57 12.10.2019
6157 Clear 19 1016 40 10000 6.7 240 09:37 12.10.2019
6158 Clear 20 1016 40 10000 6.7 240 09:19 12.10.2019
6159 Clear 21 1016 43 10000 6.2 230 08:43 12.10.2019
6160 Clear 21 1016 40 10000 5.7 260 08:23 12.10.2019
6161 Clear 21 1016 37 10000 5.7 210 07:49 12.10.2019
6162 Clear 21 1016 40 10000 4.6 240 07:30 12.10.2019
6163 Clouds 19 1017 43 10000 7.7 230 05:54 12.10.2019
6164 Clouds 19 1017 45 10000 7.7 230 05:26 12.10.2019
6165 Clouds 19 1018 48 10000 4.6 140 04:31 12.10.2019
6166 Clouds 18 1018 55 10000 5.7 170 03:53 12.10.2019
6167 Rain 16 1018 77 10000 4.6 170 02:37 12.10.2019
6168 Clouds 14 1018 93 10000 3.1 180 01:32 12.10.2019
6169 Clouds 14 1017 93 10000 4.1 200 00:54 12.10.2019
6170 Clouds 14 1017 93 10000 3.6 170 00:35 12.10.2019
6171 Clouds 13 1016 93 10000 3.6 190 23:54 11.10.2019
6172 Clouds 13 1016 93 10000 4.1 210 23:36 11.10.2019
6173 Clouds 13 1016 93 10000 4.1 210 23:36 11.10.2019
6174 Clouds 14 1016 93 10000 4.1 200 23:18 11.10.2019
6175 Clouds 14 1016 93 10000 4.1 210 23:18 11.10.2019
6176 Rain 14 1016 93 10000 3.6 200 22:37 11.10.2019
6177 Rain 14 1016 93 10000 3.6 200 22:18 11.10.2019
6178 Clouds 14 1015 93 10000 4.1 220 21:42 11.10.2019
6179 Clouds 14 1015 93 10000 4.1 220 21:21 11.10.2019
6180 Rain 14 1015 93 10000 4.1 220 20:55 11.10.2019
6181 Rain 14 1015 93 10000 3.6 190 20:37 11.10.2019
6182 Rain 14 1015 93 10000 3.6 190 20:18 11.10.2019
6183 Rain 14 1016 100 10000 2.6 180 19:55 11.10.2019
6184 Rain 14 1017 100 10000 4.6 240 19:36 11.10.2019
6185 Rain 14 1016 93 7000 3.1 280 19:18 11.10.2019
6186 Rain 14 1016 93 7000 3.1 280 19:18 11.10.2019
6187 Rain 15 1015 87 10000 4.1 180 18:39 11.10.2019
6188 Rain 15 1015 87 10000 4.1 180 18:19 11.10.2019
6189 Rain 15 1016 87 10000 3.6 180 17:59 11.10.2019
6190 Rain 15 1016 100 10000 2.6 170 17:38 11.10.2019
6191 Rain 15 1016 100 10000 2.6 170 17:19 11.10.2019
6192 Rain 15 1017 100 2500 2.6 170 16:59 11.10.2019
6193 Rain 15 1017 93 9000 2.6 110 16:39 11.10.2019
6194 Rain 15 1017 93 9000 2.6 110 16:39 11.10.2019
6195 Rain 15 1017 93 9000 2.6 110 16:19 11.10.2019
6196 Rain 15 1017 100 10000 3.1 170 15:55 11.10.2019
6197 Rain 15 1018 100 10000 2.1 210 15:36 11.10.2019
6198 Rain 15 1018 100 10000 2.1 210 15:18 11.10.2019
6199 Rain 15 1017 87 10000 2.6 260 14:41 11.10.2019
6200 Rain 15 1017 87 10000 2.6 260 14:21 11.10.2019
6201 Rain 16 1017 87 7000 4.1 240 13:45 11.10.2019
6202 Rain 17 1017 77 9000 4.6 230 13:25 11.10.2019
6203 Rain 18 1016 63 10000 4.6 200 12:57 11.10.2019
6204 Clouds 18 1016 72 10000 5.1 210 12:39 11.10.2019
6205 Clouds 18 1016 72 10000 5.1 210 12:39 11.10.2019
6206 Clouds 18 1016 72 10000 5.1 210 12:20 11.10.2019
6207 Clouds 19 1016 63 10000 4.6 190 11:58 11.10.2019
6208 Clouds 19 1016 68 10000 5.1 210 11:38 11.10.2019
6209 Clouds 19 1016 68 10000 5.1 210 11:20 11.10.2019
6210 Clouds 19 1016 72 10000 5.1 200 10:55 11.10.2019
6211 Clouds 19 1016 72 10000 5.1 200 10:55 11.10.2019
6212 Clouds 19 1016 68 10000 5.1 230 10:36 11.10.2019
6213 Clouds 19 1016 68 10000 5.1 230 10:18 11.10.2019
6214 Rain 19 1016 82 10000 5.1 230 09:41 11.10.2019
6215 Rain 19 1016 82 10000 5.1 230 09:21 11.10.2019
6216 Clouds 19 1016 72 10000 7.7 240 08:56 11.10.2019
6217 Clouds 19 1016 77 10000 6.2 250 08:38 11.10.2019
6218 Clouds 19 1016 77 10000 6.2 250 08:20 11.10.2019
6219 Rain 19 1016 88 10000 6.7 230 07:51 11.10.2019
6220 Rain 20 1016 88 10000 5.7 240 07:33 11.10.2019
6221 Rain 20 1016 88 10000 4.6 250 06:50 11.10.2019
6222 Rain 19 1017 82 10000 6.7 250 06:25 11.10.2019
6223 Rain 20 1016 73 10000 6.7 230 05:47 11.10.2019
6224 Drizzle 20 1017 88 10000 4.6 350 05:28 11.10.2019
6225 Drizzle 20 1017 88 6000 2.6 20 04:50 11.10.2019
6226 Drizzle 18 1017 88 5000 3.1 350 03:20 11.10.2019
6227 Clouds 15 1017 93 10000 2.1 350 00:54 11.10.2019
6228 Clouds 15 1016 100 10000 2.6 20 00:31 11.10.2019
6229 Clouds 14 1016 100 10000 2.1 10 23:57 10.10.2019
6230 Clouds 14 1016 100 10000 2.1 10 23:39 10.10.2019
6231 Clouds 14 1016 100 10000 2.1 10 23:18 10.10.2019
6232 Clear 13 1016 100 10000 2.1 20 22:54 10.10.2019
6233 Clouds 13 1016 100 10000 2.1 10 22:36 10.10.2019
6234 Clouds 13 1016 100 10000 2.1 10 22:18 10.10.2019
6235 Fog 13 1017 100 10000 2.6 40 21:42 10.10.2019
6236 Fog 13 1017 100 10000 2.6 40 21:22 10.10.2019
6237 Fog 13 1017 100 10000 2.6 40 21:22 10.10.2019
6238 Fog 14 1017 93 10000 2.6 40 20:58 10.10.2019
6239 Clear 14 1017 93 10000 2.1 40 20:39 10.10.2019
6240 Clear 14 1017 93 10000 2.1 40 20:39 10.10.2019
6241 Clear 14 1017 93 10000 2.1 40 20:19 10.10.2019
6242 Fog 14 1017 93 10000 2.6 40 19:55 10.10.2019
6243 Fog 14 1017 93 10000 2.6 40 19:55 10.10.2019
6244 Clear 14 1018 93 10000 2.6 40 19:37 10.10.2019
6245 Clear 15 1018 93 10000 2.1 20 19:19 10.10.2019
6246 Clear 15 1018 87 10000 2.6 30 18:42 10.10.2019
6247 Clear 15 1018 87 10000 2.6 30 18:20 10.10.2019
6248 Clear 15 1018 87 10000 3.1 10 17:57 10.10.2019
6249 Clouds 16 1018 87 10000 2.1 350 17:37 10.10.2019
6250 Clouds 16 1018 87 10000 2.1 350 17:18 10.10.2019
6251 Clouds 16 1018 82 10000 2.6 290 16:48 10.10.2019
6252 Clouds 16 1019 82 10000 2.6 280 16:27 10.10.2019
6253 Clouds 16 1019 77 10000 2.6 290 15:59 10.10.2019
6254 Clouds 17 1018 77 10000 2.6 290 15:39 10.10.2019
6255 Clouds 17 1018 77 10000 2.6 290 15:20 10.10.2019
6256 Clouds 17 1018 77 10000 3.1 310 14:56 10.10.2019
6257 Clouds 17 1018 77 10000 3.1 280 14:37 10.10.2019
6258 Clouds 17 1018 77 10000 3.1 280 14:18 10.10.2019
6259 Clouds 18 1018 68 10000 3.1 290 13:47 10.10.2019
6260 Clouds 18 1017 68 10000 3.6 270 13:29 10.10.2019
6261 Clouds 18 1017 63 10000 4.1 250 12:59 10.10.2019
6262 Clouds 18 1017 68 10000 4.6 230 12:40 10.10.2019
6263 Clouds 19 1017 68 10000 4.6 230 12:20 10.10.2019
6264 Clouds 20 1017 64 10000 5.7 240 11:58 10.10.2019
6265 Clouds 20 1017 64 10000 6.2 230 11:38 10.10.2019
6266 Clouds 21 1017 56 10000 6.2 280 11:19 10.10.2019
6267 Clouds 21 1017 56 10000 5.7 280 10:45 10.10.2019
6268 Clouds 21 1017 56 10000 5.7 280 10:26 10.10.2019
6269 Clouds 21 1017 53 10000 6.7 290 09:58 10.10.2019
6270 Clouds 22 1016 49 10000 6.2 280 09:39 10.10.2019
6271 Clouds 23 1016 49 10000 6.2 280 09:21 10.10.2019
6272 Clear 23 1016 49 10000 6.7 270 08:57 10.10.2019
6273 Clear 23 1016 46 10000 6.2 270 08:38 10.10.2019
6274 Clear 23 1016 46 10000 6.2 270 08:18 10.10.2019
6275 Clear 23 1016 46 10000 4.6 310 07:44 10.10.2019
6276 Clouds 23 1016 50 10000 5.7 330 07:21 10.10.2019
6277 Clouds 23 1017 49 10000 4.6 290 06:48 10.10.2019
6278 Clouds 23 1017 56 10000 4.6 290 06:29 10.10.2019
6279 Clouds 22 1017 56 10000 4.1 280 05:28 10.10.2019
6280 Clouds 22 1017 56 10000 4.1 290 04:47 10.10.2019
6281 Clouds 22 1017 60 10000 4.1 310 04:26 10.10.2019
6282 Mist 16 1017 100 2000 3.6 10 01:43 10.10.2019
6283 Mist 16 1017 100 2000 3.6 10 01:43 10.10.2019
6284 Mist 15 1017 100 2000 3.6 10 01:24 10.10.2019
6285 Mist 15 1016 93 1500 2.1 10 00:54 10.10.2019
6286 Mist 14 1016 93 2000 1.5 20 00:22 10.10.2019
6287 Fog 14 1015 100 800 3.1 80 23:40 09.10.2019
6288 Fog 14 1015 100 800 3.1 80 23:20 09.10.2019
6289 Mist 14 1015 100 5000 3.1 50 22:44 09.10.2019
6290 Mist 14 1015 100 5000 3.1 50 22:24 09.10.2019
6291 Mist 14 1015 100 4000 2.6 30 21:59 09.10.2019
6292 Smoke 14 1015 93 4000 2.6 40 21:40 09.10.2019
6293 Smoke 13 1015 93 4000 2.6 40 21:20 09.10.2019
6294 Rain 14 1015 93 10000 2.6 20 20:56 09.10.2019
6295 Rain 14 1015 93 10000 2.6 20 20:56 09.10.2019
6296 Rain 14 1015 100 10000 2.6 70 20:37 09.10.2019
6297 Rain 14 1015 100 10000 2.6 70 20:18 09.10.2019
6298 Rain 14 1015 100 10000 2.6 70 20:18 09.10.2019
6299 Clouds 14 1015 93 10000 3.1 30 19:45 09.10.2019
6300 Fog 14 1015 93 10000 2.6 20 19:24 09.10.2019
6301 Fog 14 1015 93 10000 2.6 20 18:58 09.10.2019
6302 Fog 14 1015 93 10000 2.6 20 18:38 09.10.2019
6303 Fog 14 1015 93 10000 2.6 20 18:18 09.10.2019
6304 Fog 15 1015 93 10000 2.6 20 17:55 09.10.2019
6305 Clear 15 1015 93 10000 2.1 70 17:37 09.10.2019
6306 Clear 15 1015 93 10000 2.1 70 17:18 09.10.2019
6307 Clear 15 1016 93 10000 2.1 250 16:41 09.10.2019
6308 Clear 16 1016 93 10000 2.1 250 16:23 09.10.2019
6309 Clear 16 1016 87 10000 2.6 220 15:58 09.10.2019
6310 Clear 16 1016 82 10000 3.1 190 15:39 09.10.2019
6311 Clear 17 1016 82 10000 3.1 190 15:20 09.10.2019
6312 Clear 17 1016 77 10000 3.1 210 14:58 09.10.2019
6313 Clear 18 1016 72 10000 3.1 240 14:39 09.10.2019
6314 Clear 18 1016 72 10000 3.1 240 14:18 09.10.2019
6315 Clouds 18 1016 88 10000 3.1 220 13:40 09.10.2019
6316 Clear 19 1016 68 10000 4.1 250 13:21 09.10.2019
6317 Clear 20 1015 56 10000 3.6 260 12:59 09.10.2019
6318 Clear 20 1015 53 10000 3.6 230 12:40 09.10.2019
6319 Clear 21 1015 53 10000 3.6 230 12:21 09.10.2019
6320 Smoke 22 1014 47 10000 4.1 230 11:55 09.10.2019
6321 Clear 23 1014 44 10000 4.6 250 11:36 09.10.2019
6322 Clear 24 1014 44 10000 4.6 250 11:18 09.10.2019
6323 Clear 24 1014 44 10000 4.6 250 11:18 09.10.2019
6324 Clear 24 1013 39 10000 5.7 250 10:43 09.10.2019
6325 Smoke 25 1013 39 10000 5.7 250 10:21 09.10.2019
6326 Clear 26 1013 34 10000 5.7 260 09:57 09.10.2019
6327 Clear 26 1013 34 10000 5.7 260 09:57 09.10.2019
6328 Clear 27 1013 32 10000 5.7 260 09:38 09.10.2019
6329 Clear 27 1013 32 10000 5.7 260 09:18 09.10.2019
6330 Clear 28 1013 30 10000 4.6 270 08:40 09.10.2019
6331 Clear 28 1013 30 10000 4.6 270 08:21 09.10.2019
6332 Clear 28 1013 32 10000 3.6 260 07:48 09.10.2019
6333 Clear 28 1013 32 10000 3.6 260 07:27 09.10.2019
6334 Clear 28 1013 32 10000 3.6 260 07:27 09.10.2019
6335 Clear 28 1013 32 10000 3.6 260 07:27 09.10.2019
6336 Clear 27 1014 34 10000 4.6 290 06:59 09.10.2019
6337 Clear 27 1014 39 10000 5.7 250 06:41 09.10.2019
6338 Clear 27 1014 34 10000 2.6 340 05:53 09.10.2019
6339 Clear 26 1014 41 10000 2.6 360 05:18 09.10.2019
6340 Clear 24 1014 46 10000 1 330 03:54 09.10.2019
6341 Clear 19 1014 72 10000 2.6 20 02:42 09.10.2019
6342 Fog 17 1014 82 10000 3.1 20 01:39 09.10.2019
6343 Fog 17 1014 82 10000 3.1 20 01:39 09.10.2019
6344 Fog 16 1014 82 10000 3.1 20 01:19 09.10.2019
6345 Fog 15 1014 93 10000 2.6 30 00:55 09.10.2019
6346 Fog 14 1013 100 10000 3.1 30 00:37 09.10.2019
6347 Fog 13 1013 100 10000 3.1 30 00:19 09.10.2019
6348 Clear 13 1012 100 10000 2.1 50 23:39 08.10.2019
6349 Clear 13 1012 100 10000 2.1 50 23:39 08.10.2019
6350 Clear 13 1012 100 10000 2.1 50 23:18 08.10.2019
6351 Clear 14 1012 93 10000 2.6 50 22:55 08.10.2019
6352 Clouds 14 1012 87 10000 2.1 180 22:37 08.10.2019
6353 Clouds 14 1012 87 10000 2.1 180 22:18 08.10.2019
6354 Clear 15 1012 87 10000 2.1 250 21:56 08.10.2019
6355 Clear 15 1012 87 10000 2.6 230 21:36 08.10.2019
6356 Clear 16 1012 87 10000 2.6 230 21:18 08.10.2019
6357 Clear 16 1012 87 10000 2.1 190 20:55 08.10.2019
6358 Clear 16 1012 87 10000 2.1 190 20:55 08.10.2019
6359 Clear 16 1013 82 10000 3.1 190 20:36 08.10.2019
6360 Clear 16 1013 82 10000 3.1 190 20:18 08.10.2019
6361 Clear 17 1013 77 10000 3.6 200 19:42 08.10.2019
6362 Clear 17 1013 77 10000 3.6 200 19:24 08.10.2019
6363 Clear 17 1013 72 10000 4.1 200 18:59 08.10.2019
6364 Clear 17 1014 72 10000 5.1 200 18:41 08.10.2019
6365 Clear 17 1014 72 10000 5.1 200 18:22 08.10.2019
6366 Clear 18 1014 68 10000 5.1 200 17:57 08.10.2019
6367 Clear 18 1014 72 10000 5.7 200 17:39 08.10.2019
6368 Clear 18 1014 72 10000 5.7 200 17:18 08.10.2019
6369 Clear 19 1015 64 10000 4.1 190 16:41 08.10.2019
6370 Clear 19 1015 64 10000 4.1 190 16:22 08.10.2019
6371 Clear 20 1015 60 10000 3.6 190 15:57 08.10.2019
6372 Clear 20 1015 56 10000 5.1 200 15:38 08.10.2019
6373 Clear 20 1015 56 10000 5.1 200 15:19 08.10.2019
6374 Clear 22 1014 49 10000 6.2 200 14:42 08.10.2019
6375 Clear 22 1014 49 10000 6.2 200 14:42 08.10.2019
6376 Clear 22 1014 49 10000 6.2 200 14:21 08.10.2019
6377 Clear 22 1014 44 10000 7.2 200 13:59 08.10.2019
6378 Clear 23 1014 41 10000 6.2 190 13:39 08.10.2019
6379 Clear 23 1014 41 10000 6.2 190 13:39 08.10.2019
6380 Clear 23 1014 41 10000 6.2 190 13:20 08.10.2019
6381 Clear 23 1014 39 10000 5.7 180 12:59 08.10.2019
6382 Clear 24 1014 34 10000 7.2 180 12:39 08.10.2019
6383 Clear 25 1014 34 10000 7.2 180 12:19 08.10.2019
6384 Clear 28 1014 28 10000 6.7 210 11:43 08.10.2019
6385 Clear 28 1014 28 10000 6.7 210 11:24 08.10.2019
6386 Clear 28 1014 27 10000 5.7 200 10:59 08.10.2019
6387 Clear 29 1014 25 10000 4.6 180 10:39 08.10.2019
6388 Clear 29 1014 25 10000 4.6 180 10:20 08.10.2019
6389 Clear 29 1014 25 10000 4.6 180 10:20 08.10.2019
6390 Clear 29 1014 25 10000 6.2 230 09:57 08.10.2019
6391 Clear 30 1014 22 10000 6.2 230 09:39 08.10.2019
6392 Clear 30 1014 22 10000 6.2 230 09:20 08.10.2019
6393 Clear 30 1015 25 10000 6.2 230 08:42 08.10.2019
6394 Clear 30 1015 28 10000 3.1 70 08:24 08.10.2019
6395 Clear 30 1015 28 10000 3.1 70 07:45 08.10.2019
6396 Clear 30 1016 26 10000 4.1 70 07:22 08.10.2019
6397 Clear 29 1016 30 10000 4.6 80 06:56 08.10.2019
6398 Clear 28 1016 30 10000 4.6 80 06:32 08.10.2019
6399 Clear 27 1017 30 10000 6.2 70 05:55 08.10.2019
6400 Clear 27 1017 31 10000 6.7 70 05:36 08.10.2019
6401 Clear 25 1018 33 10000 7.7 50 04:33 08.10.2019
6402 Clear 22 1019 43 10000 6.2 70 03:29 08.10.2019
6403 Clear 19 1019 55 10000 7.7 70 02:39 08.10.2019
6404 Clear 17 1019 62 10000 5.1 70 01:47 08.10.2019
6405 Clear 15 1019 67 10000 9.3 90 01:28 08.10.2019
6406 Clear 14 1019 71 10000 9.3 90 00:46 08.10.2019
6407 Clear 14 1019 71 10000 9.3 90 00:21 08.10.2019
6408 Clear 14 1019 71 10000 10.3 90 23:40 07.10.2019
6409 Clear 14 1019 71 10000 10.3 90 23:20 07.10.2019
6410 Clear 14 1019 71 10000 10.3 90 23:20 07.10.2019
6411 Clear 14 1019 67 10000 10.3 90 22:56 07.10.2019
6412 Clear 14 1019 67 10000 10.3 90 22:56 07.10.2019
6413 Clear 14 1019 67 10000 5.1 100 22:38 07.10.2019
6414 Clear 14 1019 67 10000 5.1 100 22:38 07.10.2019
6415 Clear 14 1019 67 10000 5.1 100 22:20 07.10.2019
6416 Clear 14 1019 67 10000 10.3 90 21:56 07.10.2019
6417 Clear 14 1019 67 10000 10.3 90 21:56 07.10.2019
6418 Clear 15 1019 62 10000 3.6 110 21:38 07.10.2019
6419 Clear 15 1019 62 10000 3.6 110 21:20 07.10.2019
6420 Clear 15 1019 62 10000 8.2 90 20:57 07.10.2019
6421 Clear 15 1019 62 10000 10.8 90 20:39 07.10.2019
6422 Clear 16 1019 62 10000 10.8 90 20:20 07.10.2019
6423 Clear 16 1019 63 10000 10.8 90 19:57 07.10.2019
6424 Clear 16 1019 59 10000 10.8 100 19:39 07.10.2019
6425 Clear 16 1019 59 10000 10.8 100 19:18 07.10.2019
6426 Clear 17 1020 55 10000 10.3 100 18:55 07.10.2019
6427 Clouds 17 1020 52 10000 8.2 80 18:37 07.10.2019
6428 Clear 17 1020 52 10000 9.8 100 18:18 07.10.2019
6429 Clear 18 1020 48 10000 9.8 110 17:41 07.10.2019
6430 Clear 18 1020 48 10000 9.8 110 17:19 07.10.2019
6431 Clear 18 1020 42 10000 8.7 110 16:55 07.10.2019
6432 Clear 18 1020 42 10000 8.7 110 16:55 07.10.2019
6433 Clear 18 1020 42 10000 8.7 110 16:55 07.10.2019
6434 Clear 18 1020 42 10000 8.7 110 16:55 07.10.2019
6435 Clear 18 1020 42 10000 8.7 110 16:55 07.10.2019
6436 Clear 17 1021 45 10000 9.3 90 16:37 07.10.2019
6437 Clear 17 1021 45 10000 9.3 90 16:18 07.10.2019
6438 Clouds 18 1022 62 5000 2.1 140 15:41 07.10.2019
6439 Clouds 18 1022 62 5000 2.1 140 15:41 07.10.2019
6440 Clouds 18 1022 62 5000 2.1 140 15:41 07.10.2019
6441 Clear 18 1022 39 10000 4.6 120 15:22 07.10.2019
6442 Clear 18 1022 55 10000 3.6 120 14:42 07.10.2019
6443 Clear 18 1022 55 10000 3.6 120 14:23 07.10.2019
6444 Clear 18 1022 51 10000 4.1 140 13:45 07.10.2019
6445 Clear 19 1022 48 10000 3.6 150 13:21 07.10.2019
6446 Clear 19 1022 48 10000 3.6 150 13:21 07.10.2019
6447 Clear 20 1021 40 10000 3.6 130 12:59 07.10.2019
6448 Clear 21 1021 33 10000 3.6 110 12:41 07.10.2019
6449 Clear 22 1021 33 10000 3.6 110 12:21 07.10.2019
6450 Clear 23 1021 29 10000 3.6 120 11:59 07.10.2019
6451 Clear 23 1021 27 10000 4.6 110 11:41 07.10.2019
6452 Clear 24 1021 27 10000 4.6 110 11:22 07.10.2019
6453 Clear 24 1020 27 10000 5.1 120 10:58 07.10.2019
6454 Clear 24 1020 27 10000 5.1 120 10:58 07.10.2019
6455 Clear 24 1020 27 10000 5.1 120 10:58 07.10.2019
6456 Clear 25 1020 27 10000 3.1 90 10:39 07.10.2019
6457 Clear 25 1020 27 10000 3.1 90 10:20 07.10.2019
6458 Clear 25 1021 27 10000 4.6 90 09:40 07.10.2019
6459 Clear 25 1021 27 10000 4.6 90 09:22 07.10.2019
6460 Clear 24 1022 29 10000 5.1 90 08:44 07.10.2019
6461 Clear 24 1022 29 10000 5.1 90 08:21 07.10.2019
6462 Clear 24 1022 31 10000 4.6 130 07:59 07.10.2019
6463 Clear 24 1022 33 10000 3.6 80 07:38 07.10.2019
6464 Clear 24 1022 33 10000 3.6 80 07:19 07.10.2019
6465 Clear 23 1023 40 10000 4.1 110 06:43 07.10.2019
6466 Clear 22 1023 40 10000 4.1 110 06:22 07.10.2019
6467 Clear 21 1024 42 10000 6.2 80 05:27 07.10.2019
6468 Clouds 20 1025 45 10000 7.7 60 04:56 07.10.2019
6469 Clouds 19 1025 48 10000 6.2 90 03:51 07.10.2019
6470 Clouds 19 1025 48 10000 6.2 90 03:51 07.10.2019
6471 Clear 18 1025 51 10000 6.2 100 03:32 07.10.2019
6472 Clear 17 1025 55 10000 9.3 90 02:55 07.10.2019
6473 Clear 16 1025 58 10000 9.8 90 02:19 07.10.2019
6474 Clear 13 1025 62 10000 8.7 90 01:24 07.10.2019
6475 Clear 12 1025 66 10000 7.7 90 00:53 07.10.2019
6476 Clear 11 1024 71 10000 7.2 90 00:26 07.10.2019
6477 Clear 11 1024 66 10000 8.7 100 23:59 06.10.2019
6478 Clear 11 1024 66 10000 8.2 110 23:40 06.10.2019
6479 Clear 11 1024 66 10000 8.2 110 23:20 06.10.2019
6480 Clear 12 1024 62 10000 6.2 110 22:57 06.10.2019
6481 Clear 11 1024 66 10000 3.1 130 22:39 06.10.2019
6482 Clear 11 1024 66 10000 3.1 130 22:20 06.10.2019
6483 Clear 11 1024 66 10000 3.1 130 22:20 06.10.2019
6484 Clear 12 1024 66 10000 1.5 130 21:55 06.10.2019
6485 Clear 12 1024 62 10000 4.1 170 21:37 06.10.2019
6486 Clear 12 1024 62 10000 4.1 170 21:18 06.10.2019
6487 Clear 11 1024 66 10000 4.1 140 20:55 06.10.2019
6488 Clear 11 1024 66 10000 5.1 150 20:36 06.10.2019
6489 Clear 11 1024 66 10000 5.1 150 20:18 06.10.2019
6490 Clear 11 1024 71 10000 4.6 220 19:55 06.10.2019
6491 Clear 11 1024 71 10000 5.1 210 19:36 06.10.2019
6492 Clear 11 1024 71 10000 5.1 210 19:18 06.10.2019
6493 Clear 11 1024 71 10000 5.1 210 19:18 06.10.2019
6494 Clear 12 1024 66 10000 5.1 200 18:55 06.10.2019
6495 Clear 12 1024 66 10000 5.1 200 18:55 06.10.2019
6496 Clear 12 1024 66 10000 4.6 190 18:36 06.10.2019
6497 Clear 12 1024 66 10000 4.6 190 18:18 06.10.2019
6498 Clear 12 1024 66 10000 4.6 190 18:18 06.10.2019
6499 Clear 12 1024 76 10000 3.6 170 17:42 06.10.2019
6500 Clear 12 1024 76 10000 3.6 170 17:20 06.10.2019
6501 Clear 12 1025 76 10000 4.1 180 16:55 06.10.2019
6502 Clear 12 1025 76 10000 4.1 180 16:55 06.10.2019
6503 Clear 13 1025 71 10000 4.6 180 16:37 06.10.2019
6504 Clear 13 1025 71 10000 4.6 180 16:18 06.10.2019
6505 Clear 13 1025 67 10000 6.2 190 15:42 06.10.2019
6506 Clear 14 1025 67 10000 6.2 190 15:19 06.10.2019
6507 Clear 14 1025 67 10000 6.2 190 15:19 06.10.2019
6508 Clear 14 1025 58 10000 5.1 160 14:44 06.10.2019
6509 Clear 15 1025 58 10000 5.1 160 14:25 06.10.2019
6510 Clear 15 1024 55 10000 4.1 150 13:59 06.10.2019
6511 Clear 15 1024 55 10000 7.7 200 13:39 06.10.2019
6512 Clear 15 1024 55 10000 7.7 200 13:21 06.10.2019
6513 Clear 16 1024 59 10000 4.6 190 12:57 06.10.2019
6514 Clear 16 1023 51 10000 8.7 200 12:39 06.10.2019
6515 Clear 17 1023 51 10000 8.7 200 12:20 06.10.2019
6516 Clear 17 1023 48 10000 8.2 210 11:58 06.10.2019
6517 Clear 18 1023 45 10000 8.7 220 11:38 06.10.2019
6518 Clear 18 1023 45 10000 8.7 220 11:20 06.10.2019
6519 Clear 19 1023 45 10000 8.2 240 10:44 06.10.2019
6520 Clear 20 1023 46 10000 8.7 230 10:26 06.10.2019
6521 Clear 20 1022 43 10000 7.7 240 09:58 06.10.2019
6522 Clear 20 1022 40 10000 3.1 250 09:40 06.10.2019
6523 Clear 21 1022 40 10000 3.1 250 09:19 06.10.2019
6524 Clear 20 1023 40 10000 3.1 210 08:43 06.10.2019
6525 Clouds 20 1023 42 10000 2.6 160 08:21 06.10.2019
6526 Clouds 20 1023 45 10000 3.1 200 07:56 06.10.2019
6527 Clouds 21 1023 49 10000 6.2 220 07:35 06.10.2019
6528 Clouds 20 1024 52 10000 6.2 220 06:23 06.10.2019
6529 Clouds 19 1025 52 10000 3.1 170 05:34 06.10.2019
6530 Clouds 17 1025 63 10000 2.1 90 03:56 06.10.2019
6531 Clear 15 1025 71 10000 2.6 160 02:44 06.10.2019
6532 Clear 14 1025 76 10000 3.1 190 02:22 06.10.2019
6533 Clear 13 1025 76 10000 4.1 190 01:45 06.10.2019
6534 Clear 12 1025 81 10000 4.6 190 01:27 06.10.2019
6535 Clouds 12 1025 87 10000 4.6 200 00:53 06.10.2019
6536 Clouds 11 1024 81 10000 4.6 190 00:27 06.10.2019
6537 Fog 11 1024 87 10000 3.1 190 23:45 05.10.2019
6538 Clouds 11 1024 93 10000 4.6 190 23:22 05.10.2019
6539 Clouds 11 1024 81 10000 4.6 190 22:58 05.10.2019
6540 Clear 11 1024 87 10000 4.6 200 22:40 05.10.2019
6541 Clear 11 1024 87 10000 4.6 200 22:40 05.10.2019
6542 Clear 11 1024 87 10000 4.6 200 22:20 05.10.2019
6543 Clear 11 1023 87 10000 4.6 200 21:56 05.10.2019
6544 Clear 11 1023 87 10000 5.1 200 21:38 05.10.2019
6545 Clear 11 1023 87 10000 5.1 200 21:18 05.10.2019
6546 Clear 11 1023 87 10000 4.6 190 20:55 05.10.2019
6547 Clouds 12 1023 81 10000 3.6 210 20:37 05.10.2019
6548 Clouds 12 1023 81 10000 3.6 210 20:18 05.10.2019
6549 Clear 12 1023 81 10000 4.1 210 19:37 05.10.2019
6550 Clear 12 1023 81 10000 4.1 210 19:19 05.10.2019
6551 Clear 12 1023 81 10000 4.1 210 19:19 05.10.2019
6552 Clouds 13 1023 76 10000 3.6 210 18:55 05.10.2019
6553 Clouds 13 1023 82 10000 4.6 210 18:37 05.10.2019
6554 Clouds 13 1023 82 10000 4.6 210 18:19 05.10.2019
6555 Clear 13 1023 82 10000 4.1 210 17:43 05.10.2019
6556 Clear 13 1023 82 10000 4.1 210 17:24 05.10.2019
6557 Clear 14 1023 82 10000 3.1 210 16:57 05.10.2019
6558 Clouds 14 1023 82 10000 3.6 210 16:39 05.10.2019
6559 Clouds 14 1023 82 10000 3.6 210 16:20 05.10.2019
6560 Clouds 14 1023 77 10000 4.6 210 15:56 05.10.2019
6561 Clouds 14 1023 77 10000 5.1 210 15:38 05.10.2019
6562 Clouds 15 1023 77 10000 5.1 210 15:19 05.10.2019
6563 Clouds 15 1023 77 10000 4.6 210 14:43 05.10.2019
6564 Clouds 15 1023 72 10000 5.1 210 14:24 05.10.2019
6565 Clouds 16 1023 72 10000 5.7 210 13:58 05.10.2019
6566 Clouds 16 1022 72 10000 4.1 210 13:39 05.10.2019
6567 Clouds 16 1022 72 10000 4.1 210 13:18 05.10.2019
6568 Clouds 17 1022 67 10000 6.7 230 12:42 05.10.2019
6569 Clouds 17 1022 67 10000 6.7 230 12:19 05.10.2019
6570 Clouds 18 1021 59 10000 7.2 230 11:43 05.10.2019
6571 Clouds 19 1021 59 10000 7.2 230 11:21 05.10.2019
6572 Clouds 19 1021 59 10000 6.2 230 10:57 05.10.2019
6573 Clouds 19 1021 59 10000 7.7 230 10:39 05.10.2019
6574 Clouds 20 1021 59 10000 7.7 230 10:21 05.10.2019
6575 Clouds 19 1020 59 10000 6.7 220 09:45 05.10.2019
6576 Clouds 19 1020 59 10000 6.7 220 09:23 05.10.2019
6577 Clouds 20 1020 59 10000 5.7 210 08:56 05.10.2019
6578 Clouds 20 1020 59 10000 5.7 230 08:38 05.10.2019
6579 Clouds 20 1020 59 10000 5.7 230 08:18 05.10.2019
6580 Clouds 20 1020 56 10000 6.7 240 07:46 05.10.2019
6581 Clouds 20 1020 56 10000 6.7 240 07:28 05.10.2019
6582 Clouds 19 1021 59 10000 6.2 230 06:56 05.10.2019
6583 Clouds 19 1021 55 10000 6.2 220 06:22 05.10.2019
6584 Rain 19 1021 55 10000 5.7 180 05:20 05.10.2019
6585 Clouds 17 1021 67 10000 6.2 200 03:32 05.10.2019
6586 Rain 16 1020 82 10000 5.7 190 02:29 05.10.2019
6587 Rain 15 1019 82 10000 4.1 190 01:26 05.10.2019
6588 Clouds 14 1019 87 10000 3.6 210 00:48 05.10.2019
6589 Clouds 14 1019 87 10000 3.6 210 00:48 05.10.2019
6590 Clouds 14 1018 93 10000 3.1 210 00:27 05.10.2019
6591 Clouds 14 1018 87 10000 2.6 210 23:56 04.10.2019
6592 Clouds 14 1018 87 10000 2.6 210 23:56 04.10.2019
6593 Clouds 14 1017 87 10000 2.6 210 23:37 04.10.2019
6594 Clouds 14 1017 87 10000 2.6 210 23:18 04.10.2019
6595 Rain 15 1017 87 10000 5.7 210 22:41 04.10.2019
6596 Rain 15 1017 87 10000 5.7 210 22:23 04.10.2019
6597 Clouds 15 1017 87 10000 6.2 210 21:58 04.10.2019
6598 Clouds 15 1016 87 10000 6.2 210 21:40 04.10.2019
6599 Clouds 15 1016 87 10000 6.2 210 21:22 04.10.2019
6600 Rain 15 1016 87 10000 5.7 210 20:58 04.10.2019
6601 Clouds 15 1016 82 10000 5.1 230 20:39 04.10.2019
6602 Clouds 15 1016 82 10000 5.1 230 20:21 04.10.2019
6603 Clouds 16 1015 82 10000 5.1 240 19:55 04.10.2019
6604 Clouds 16 1015 87 10000 6.2 240 19:37 04.10.2019
6605 Rain 16 1015 93 10000 2.1 290 19:18 04.10.2019
6606 Rain 15 1015 82 10000 3.1 250 18:40 04.10.2019
6607 Rain 15 1015 82 10000 3.1 250 18:20 04.10.2019
6608 Rain 15 1015 82 10000 3.1 250 18:20 04.10.2019
6609 Drizzle 15 1014 77 10000 3.1 260 17:58 04.10.2019
6610 Clouds 15 1014 77 10000 3.6 270 17:39 04.10.2019
6611 Clouds 16 1014 77 10000 3.6 270 17:20 04.10.2019
6612 Clouds 16 1014 82 10000 3.1 250 16:55 04.10.2019
6613 Clouds 16 1014 82 10000 3.1 250 16:55 04.10.2019
6614 Clouds 16 1014 82 10000 3.1 250 16:55 04.10.2019
6615 Clouds 16 1014 82 10000 4.6 220 16:37 04.10.2019
6616 Clouds 16 1014 82 10000 4.6 220 16:18 04.10.2019
6617 Clouds 16 1013 77 10000 5.7 260 15:55 04.10.2019
6618 Clouds 16 1013 77 10000 5.7 260 15:55 04.10.2019
6619 Rain 16 1013 72 10000 7.2 260 15:37 04.10.2019
6620 Rain 16 1013 72 10000 7.2 260 15:37 04.10.2019
6621 Rain 16 1013 72 10000 7.2 260 15:37 04.10.2019
6622 Rain 16 1013 72 10000 7.2 260 15:18 04.10.2019
6623 Drizzle 16 1011 77 10000 7.2 270 14:42 04.10.2019
6624 Rain 16 1011 77 10000 7.2 270 14:22 04.10.2019
6625 Rain 17 1010 77 10000 7.7 260 13:59 04.10.2019
6626 Rain 16 1009 82 10000 8.7 270 13:41 04.10.2019
6627 Rain 16 1009 82 10000 8.7 270 13:19 04.10.2019
6628 Rain 16 1009 82 10000 8.7 270 13:19 04.10.2019
6629 Rain 17 1006 77 10000 7.7 280 12:46 04.10.2019
6630 Rain 17 1006 77 10000 7.7 280 12:27 04.10.2019
6631 Rain 17 1005 82 10000 10.8 290 11:57 04.10.2019
6632 Rain 17 1005 82 10000 10.8 290 11:57 04.10.2019
6633 Rain 17 1002 88 10000 15.9 300 11:38 04.10.2019
6634 Rain 17 1002 88 10000 15.9 300 11:19 04.10.2019
6635 Rain 17 1000 88 6000 16.5 330 10:39 04.10.2019
6636 Rain 17 1000 88 6000 16.5 330 10:20 04.10.2019
6637 Rain 16 1000 93 8000 13.4 350 09:44 04.10.2019
6638 Rain 16 1002 93 5000 13.4 10 09:26 04.10.2019
6639 Rain 16 1002 93 5000 11.8 10 08:56 04.10.2019
6640 Rain 15 1004 87 7000 10.8 360 08:37 04.10.2019
6641 Rain 15 1004 87 7000 10.8 360 08:19 04.10.2019
6642 Rain 16 1006 82 10000 11.3 350 07:43 04.10.2019
6643 Rain 17 1006 82 10000 11.3 350 07:21 04.10.2019
6644 Rain 18 1006 46 10000 17 350 06:41 04.10.2019
6645 Clouds 19 1006 46 10000 17 350 06:23 04.10.2019
6646 Rain 19 1007 59 10000 10.8 350 05:23 04.10.2019
6647 Clouds 19 1007 43 10000 13.9 350 04:54 04.10.2019
6648 Clouds 19 1009 68 10000 9.8 360 03:43 04.10.2019
6649 Rain 18 1009 77 10000 12.9 360 02:53 04.10.2019
6650 Rain 18 1009 77 10000 12.9 360 02:53 04.10.2019
6651 Rain 16 1010 87 10000 7.2 350 01:55 04.10.2019
6652 Rain 16 1010 87 10000 7.2 350 01:54 04.10.2019
6653 Rain 16 1009 72 10000 7.2 20 01:28 04.10.2019
6654 Rain 17 1010 77 10000 5.7 360 00:50 04.10.2019
6655 Rain 18 1009 63 10000 8.7 10 23:54 03.10.2019
6656 Clouds 18 1009 52 10000 4.6 30 23:36 03.10.2019
6657 Clouds 18 1009 52 10000 4.6 30 23:18 03.10.2019
6658 Clouds 18 1009 52 10000 5.1 40 22:54 03.10.2019
6659 Clouds 18 1009 52 10000 8.2 70 22:36 03.10.2019
6660 Clouds 18 1009 52 10000 8.2 70 22:18 03.10.2019
6661 Clear 18 1008 52 10000 8.7 80 21:41 03.10.2019
6662 Clear 18 1008 52 10000 8.7 80 21:21 03.10.2019
6663 Clear 18 1009 52 10000 8.2 70 20:59 03.10.2019
6664 Clouds 18 1009 52 10000 8.7 70 20:41 03.10.2019
6665 Clouds 18 1009 52 10000 8.7 70 20:23 03.10.2019
6666 Clear 17 1010 55 10000 7.2 70 19:59 03.10.2019
6667 Cle